<?xml version="1.0" encoding="UTF-8" standalone="no" ?>
<gpx xmlns="http://www.topografix.com/GPX/1/1" xmlns:xsi="http://www.w3.org/2001/XMLSchema-instance" xsi:schemaLocation="http://www.topografix.com/GPX/1/1 http://www.topografix.com/GPX/1/1/gpx.xsd" version="1.1" creator="VisuGPX - https://www.visugpx.com">
  <metadata>
    <name>Vélo bleu - Circuit 9</name>
    <desc><![CDATA[Petit patrimoine sur ce circuit :
- Lavoirs de Blaise, Guindrecourt-sur-Blaise, Dommartin-le-St-Père, Leschères-sur-le-Blaiseron, Ambonville, Rouécourt, Mirbel, Marbéville, La Genevroye.
- Châteaux de Blaise, et de Cirey-sur-Blaise;
- Chapelle ND du Val à Vignory, Chapelle St-Maurice dans le cimetière de Guindrecourt-sur-Blaise.]]></desc>
  </metadata>
  <trk>
    <name><![CDATA[Sortie vélo le matin 39]]></name>
    <trkseg>
      <trkpt lat="48.28125" lon="5.07518">
        <ele>332.46</ele>
        <time>2025-01-03T16:04:09.000Z</time>
      </trkpt>
      <trkpt lat="48.28114" lon="5.07523">
        <ele>332.89</ele>
        <time>2025-01-03T16:04:09.002Z</time>
      </trkpt>
      <trkpt lat="48.28095" lon="5.0754">
        <ele>333.2</ele>
        <time>2025-01-03T16:04:09.007Z</time>
      </trkpt>
      <trkpt lat="48.28077" lon="5.07558">
        <ele>333.69</ele>
        <time>2025-01-03T16:04:09.016Z</time>
      </trkpt>
      <trkpt lat="48.28077" lon="5.07528">
        <ele>334.42</ele>
        <time>2025-01-03T16:04:09.028Z</time>
      </trkpt>
      <trkpt lat="48.2807" lon="5.07493">
        <ele>335.41</ele>
        <time>2025-01-03T16:04:09.044Z</time>
      </trkpt>
      <trkpt lat="48.28063" lon="5.07458">
        <ele>336.32</ele>
        <time>2025-01-03T16:04:09.064Z</time>
      </trkpt>
      <trkpt lat="48.28056" lon="5.07423">
        <ele>337.16</ele>
        <time>2025-01-03T16:04:09.088Z</time>
      </trkpt>
      <trkpt lat="48.28049" lon="5.07388">
        <ele>338.07</ele>
        <time>2025-01-03T16:04:09.116Z</time>
      </trkpt>
      <trkpt lat="48.28051" lon="5.07343">
        <ele>338.92</ele>
        <time>2025-01-03T16:04:09.148Z</time>
      </trkpt>
      <trkpt lat="48.28053" lon="5.07299">
        <ele>339.84</ele>
        <time>2025-01-03T16:04:09.185Z</time>
      </trkpt>
      <trkpt lat="48.28056" lon="5.07254">
        <ele>340.62</ele>
        <time>2025-01-03T16:04:09.227Z</time>
      </trkpt>
      <trkpt lat="48.28058" lon="5.07209">
        <ele>341.45</ele>
        <time>2025-01-03T16:04:09.274Z</time>
      </trkpt>
      <trkpt lat="48.2806" lon="5.07165">
        <ele>342.25</ele>
        <time>2025-01-03T16:04:09.326Z</time>
      </trkpt>
      <trkpt lat="48.28064" lon="5.07131">
        <ele>342.91</ele>
        <time>2025-01-03T16:04:09.381Z</time>
      </trkpt>
      <trkpt lat="48.28066" lon="5.07086">
        <ele>343.44</ele>
        <time>2025-01-03T16:04:09.441Z</time>
      </trkpt>
      <trkpt lat="48.28067" lon="5.07041">
        <ele>343.94</ele>
        <time>2025-01-03T16:04:09.506Z</time>
      </trkpt>
      <trkpt lat="48.28069" lon="5.06997">
        <ele>344.44</ele>
        <time>2025-01-03T16:04:09.576Z</time>
      </trkpt>
      <trkpt lat="48.28071" lon="5.06953">
        <ele>344.75</ele>
        <time>2025-01-03T16:04:09.650Z</time>
      </trkpt>
      <trkpt lat="48.28066" lon="5.06917">
        <ele>344.96</ele>
        <time>2025-01-03T16:04:09.728Z</time>
      </trkpt>
      <trkpt lat="48.28062" lon="5.06882">
        <ele>345.1</ele>
        <time>2025-01-03T16:04:09.810Z</time>
      </trkpt>
      <trkpt lat="48.2806" lon="5.06842">
        <ele>345.13</ele>
        <time>2025-01-03T16:04:09.896Z</time>
      </trkpt>
      <trkpt lat="48.28058" lon="5.06802">
        <ele>344.99</ele>
        <time>2025-01-03T16:04:09.987Z</time>
      </trkpt>
      <trkpt lat="48.28056" lon="5.06762">
        <ele>344.55</ele>
        <time>2025-01-03T16:04:10.082Z</time>
      </trkpt>
      <trkpt lat="48.28053" lon="5.06722">
        <ele>344.09</ele>
        <time>2025-01-03T16:04:10.181Z</time>
      </trkpt>
      <trkpt lat="48.28051" lon="5.06682">
        <ele>343.72</ele>
        <time>2025-01-03T16:04:10.284Z</time>
      </trkpt>
      <trkpt lat="48.28049" lon="5.0664">
        <ele>343.2</ele>
        <time>2025-01-03T16:04:10.392Z</time>
      </trkpt>
      <trkpt lat="48.28047" lon="5.06598">
        <ele>342.56</ele>
        <time>2025-01-03T16:04:10.504Z</time>
      </trkpt>
      <trkpt lat="48.28045" lon="5.06556">
        <ele>341.94</ele>
        <time>2025-01-03T16:04:10.621Z</time>
      </trkpt>
      <trkpt lat="48.28043" lon="5.06515">
        <ele>341.32</ele>
        <time>2025-01-03T16:04:10.742Z</time>
      </trkpt>
      <trkpt lat="48.28043" lon="5.06479">
        <ele>340.68</ele>
        <time>2025-01-03T16:04:10.867Z</time>
      </trkpt>
      <trkpt lat="48.28043" lon="5.06444">
        <ele>340.12</ele>
        <time>2025-01-03T16:04:10.996Z</time>
      </trkpt>
      <trkpt lat="48.28048" lon="5.06401">
        <ele>339.67</ele>
        <time>2025-01-03T16:04:11.130Z</time>
      </trkpt>
      <trkpt lat="48.28054" lon="5.06357">
        <ele>339.3</ele>
        <time>2025-01-03T16:04:11.268Z</time>
      </trkpt>
      <trkpt lat="48.2806" lon="5.06314">
        <ele>338.95</ele>
        <time>2025-01-03T16:04:11.411Z</time>
      </trkpt>
      <trkpt lat="48.28065" lon="5.0627">
        <ele>338.65</ele>
        <time>2025-01-03T16:04:11.559Z</time>
      </trkpt>
      <trkpt lat="48.28071" lon="5.06227">
        <ele>338.24</ele>
        <time>2025-01-03T16:04:11.712Z</time>
      </trkpt>
      <trkpt lat="48.28076" lon="5.06183">
        <ele>337.98</ele>
        <time>2025-01-03T16:04:11.869Z</time>
      </trkpt>
      <trkpt lat="48.28082" lon="5.0614">
        <ele>337.87</ele>
        <time>2025-01-03T16:04:12.031Z</time>
      </trkpt>
      <trkpt lat="48.28087" lon="5.06096">
        <ele>337.73</ele>
        <time>2025-01-03T16:04:12.198Z</time>
      </trkpt>
      <trkpt lat="48.28093" lon="5.06053">
        <ele>337.5</ele>
        <time>2025-01-03T16:04:12.370Z</time>
      </trkpt>
      <trkpt lat="48.28099" lon="5.06011">
        <ele>337.34</ele>
        <time>2025-01-03T16:04:12.546Z</time>
      </trkpt>
      <trkpt lat="48.28103" lon="5.05968">
        <ele>337.13</ele>
        <time>2025-01-03T16:04:12.727Z</time>
      </trkpt>
      <trkpt lat="48.28105" lon="5.05923">
        <ele>337.03</ele>
        <time>2025-01-03T16:04:12.913Z</time>
      </trkpt>
      <trkpt lat="48.28101" lon="5.05895">
        <ele>337.04</ele>
        <time>2025-01-03T16:04:13.102Z</time>
      </trkpt>
      <trkpt lat="48.28096" lon="5.05867">
        <ele>337.07</ele>
        <time>2025-01-03T16:04:13.294Z</time>
      </trkpt>
      <trkpt lat="48.28087" lon="5.05822">
        <ele>337.12</ele>
        <time>2025-01-03T16:04:13.491Z</time>
      </trkpt>
      <trkpt lat="48.28078" lon="5.05778">
        <ele>337.21</ele>
        <time>2025-01-03T16:04:13.693Z</time>
      </trkpt>
      <trkpt lat="48.28068" lon="5.05733">
        <ele>337.26</ele>
        <time>2025-01-03T16:04:13.900Z</time>
      </trkpt>
      <trkpt lat="48.28059" lon="5.05689">
        <ele>337.16</ele>
        <time>2025-01-03T16:04:14.112Z</time>
      </trkpt>
      <trkpt lat="48.2805" lon="5.05644">
        <ele>337.09</ele>
        <time>2025-01-03T16:04:14.329Z</time>
      </trkpt>
      <trkpt lat="48.2804" lon="5.056">
        <ele>337.1</ele>
        <time>2025-01-03T16:04:14.551Z</time>
      </trkpt>
      <trkpt lat="48.28031" lon="5.05556">
        <ele>337.05</ele>
        <time>2025-01-03T16:04:14.778Z</time>
      </trkpt>
      <trkpt lat="48.28022" lon="5.05511">
        <ele>336.92</ele>
        <time>2025-01-03T16:04:15.010Z</time>
      </trkpt>
      <trkpt lat="48.28013" lon="5.05468">
        <ele>336.81</ele>
        <time>2025-01-03T16:04:15.246Z</time>
      </trkpt>
      <trkpt lat="48.28008" lon="5.05443">
        <ele>336.67</ele>
        <time>2025-01-03T16:04:15.485Z</time>
      </trkpt>
      <trkpt lat="48.28004" lon="5.05418">
        <ele>336.53</ele>
        <time>2025-01-03T16:04:15.727Z</time>
      </trkpt>
      <trkpt lat="48.28002" lon="5.05375">
        <ele>336.41</ele>
        <time>2025-01-03T16:04:15.973Z</time>
      </trkpt>
      <trkpt lat="48.28001" lon="5.05333">
        <ele>336.2</ele>
        <time>2025-01-03T16:04:16.224Z</time>
      </trkpt>
      <trkpt lat="48.28001" lon="5.0529">
        <ele>336.01</ele>
        <time>2025-01-03T16:04:16.480Z</time>
      </trkpt>
      <trkpt lat="48.28" lon="5.05248">
        <ele>335.65</ele>
        <time>2025-01-03T16:04:16.740Z</time>
      </trkpt>
      <trkpt lat="48.28" lon="5.05206">
        <ele>335.2</ele>
        <time>2025-01-03T16:04:17.005Z</time>
      </trkpt>
      <trkpt lat="48.28" lon="5.05189">
        <ele>334.74</ele>
        <time>2025-01-03T16:04:17.271Z</time>
      </trkpt>
      <trkpt lat="48.27999" lon="5.05153">
        <ele>334.22</ele>
        <time>2025-01-03T16:04:17.541Z</time>
      </trkpt>
      <trkpt lat="48.27998" lon="5.05118">
        <ele>333.72</ele>
        <time>2025-01-03T16:04:17.815Z</time>
      </trkpt>
      <trkpt lat="48.27993" lon="5.05088">
        <ele>333.23</ele>
        <time>2025-01-03T16:04:18.092Z</time>
      </trkpt>
      <trkpt lat="48.27989" lon="5.05058">
        <ele>332.68</ele>
        <time>2025-01-03T16:04:18.373Z</time>
      </trkpt>
      <trkpt lat="48.27979" lon="5.05015">
        <ele>332.01</ele>
        <time>2025-01-03T16:04:18.658Z</time>
      </trkpt>
      <trkpt lat="48.27968" lon="5.04971">
        <ele>331.25</ele>
        <time>2025-01-03T16:04:18.948Z</time>
      </trkpt>
      <trkpt lat="48.27958" lon="5.04928">
        <ele>330.48</ele>
        <time>2025-01-03T16:04:19.243Z</time>
      </trkpt>
      <trkpt lat="48.27947" lon="5.04885">
        <ele>329.64</ele>
        <time>2025-01-03T16:04:19.543Z</time>
      </trkpt>
      <trkpt lat="48.27937" lon="5.04841">
        <ele>328.87</ele>
        <time>2025-01-03T16:04:19.848Z</time>
      </trkpt>
      <trkpt lat="48.27926" lon="5.04798">
        <ele>328.09</ele>
        <time>2025-01-03T16:04:20.158Z</time>
      </trkpt>
      <trkpt lat="48.27916" lon="5.04755">
        <ele>327.19</ele>
        <time>2025-01-03T16:04:20.473Z</time>
      </trkpt>
      <trkpt lat="48.27905" lon="5.04712">
        <ele>326.28</ele>
        <time>2025-01-03T16:04:20.793Z</time>
      </trkpt>
      <trkpt lat="48.2789" lon="5.04676">
        <ele>325.34</ele>
        <time>2025-01-03T16:04:21.117Z</time>
      </trkpt>
      <trkpt lat="48.27875" lon="5.0464">
        <ele>324.37</ele>
        <time>2025-01-03T16:04:21.446Z</time>
      </trkpt>
      <trkpt lat="48.2786" lon="5.04604">
        <ele>323.45</ele>
        <time>2025-01-03T16:04:21.779Z</time>
      </trkpt>
      <trkpt lat="48.27845" lon="5.04568">
        <ele>322.54</ele>
        <time>2025-01-03T16:04:22.117Z</time>
      </trkpt>
      <trkpt lat="48.2783" lon="5.04532">
        <ele>321.65</ele>
        <time>2025-01-03T16:04:22.460Z</time>
      </trkpt>
      <trkpt lat="48.27822" lon="5.04503">
        <ele>320.83</ele>
        <time>2025-01-03T16:04:22.806Z</time>
      </trkpt>
      <trkpt lat="48.27815" lon="5.04473">
        <ele>320.06</ele>
        <time>2025-01-03T16:04:23.155Z</time>
      </trkpt>
      <trkpt lat="48.27807" lon="5.04444">
        <ele>319.35</ele>
        <time>2025-01-03T16:04:23.508Z</time>
      </trkpt>
      <trkpt lat="48.27797" lon="5.04403">
        <ele>318.66</ele>
        <time>2025-01-03T16:04:23.865Z</time>
      </trkpt>
      <trkpt lat="48.27787" lon="5.04362">
        <ele>317.99</ele>
        <time>2025-01-03T16:04:24.227Z</time>
      </trkpt>
      <trkpt lat="48.27777" lon="5.04322">
        <ele>317.32</ele>
        <time>2025-01-03T16:04:24.594Z</time>
      </trkpt>
      <trkpt lat="48.27767" lon="5.04281">
        <ele>316.73</ele>
        <time>2025-01-03T16:04:24.965Z</time>
      </trkpt>
      <trkpt lat="48.27757" lon="5.0424">
        <ele>316.24</ele>
        <time>2025-01-03T16:04:25.341Z</time>
      </trkpt>
      <trkpt lat="48.27753" lon="5.04204">
        <ele>315.73</ele>
        <time>2025-01-03T16:04:25.721Z</time>
      </trkpt>
      <trkpt lat="48.27752" lon="5.04175">
        <ele>315.26</ele>
        <time>2025-01-03T16:04:26.104Z</time>
      </trkpt>
      <trkpt lat="48.27751" lon="5.04146">
        <ele>314.82</ele>
        <time>2025-01-03T16:04:26.490Z</time>
      </trkpt>
      <trkpt lat="48.27751" lon="5.04146">
        <ele>314.56</ele>
        <time>2025-01-03T16:04:26.876Z</time>
      </trkpt>
      <trkpt lat="48.27759" lon="5.04113">
        <ele>314.28</ele>
        <time>2025-01-03T16:04:27.266Z</time>
      </trkpt>
      <trkpt lat="48.27767" lon="5.0408">
        <ele>314.03</ele>
        <time>2025-01-03T16:04:27.660Z</time>
      </trkpt>
      <trkpt lat="48.27775" lon="5.04047">
        <ele>313.96</ele>
        <time>2025-01-03T16:04:28.057Z</time>
      </trkpt>
      <trkpt lat="48.27781" lon="5.04002">
        <ele>314.14</ele>
        <time>2025-01-03T16:04:28.459Z</time>
      </trkpt>
      <trkpt lat="48.27776" lon="5.03957">
        <ele>314.46</ele>
        <time>2025-01-03T16:04:28.866Z</time>
      </trkpt>
      <trkpt lat="48.27772" lon="5.03911">
        <ele>314.74</ele>
        <time>2025-01-03T16:04:29.278Z</time>
      </trkpt>
      <trkpt lat="48.27767" lon="5.03866">
        <ele>314.99</ele>
        <time>2025-01-03T16:04:29.695Z</time>
      </trkpt>
      <trkpt lat="48.27762" lon="5.03821">
        <ele>315.2</ele>
        <time>2025-01-03T16:04:30.117Z</time>
      </trkpt>
      <trkpt lat="48.27757" lon="5.03775">
        <ele>315.41</ele>
        <time>2025-01-03T16:04:30.544Z</time>
      </trkpt>
      <trkpt lat="48.27753" lon="5.0373">
        <ele>315.73</ele>
        <time>2025-01-03T16:04:30.976Z</time>
      </trkpt>
      <trkpt lat="48.27748" lon="5.03684">
        <ele>316.05</ele>
        <time>2025-01-03T16:04:31.413Z</time>
      </trkpt>
      <trkpt lat="48.27743" lon="5.03639">
        <ele>316.37</ele>
        <time>2025-01-03T16:04:31.854Z</time>
      </trkpt>
      <trkpt lat="48.27739" lon="5.03594">
        <ele>316.63</ele>
        <time>2025-01-03T16:04:32.300Z</time>
      </trkpt>
      <trkpt lat="48.27734" lon="5.03548">
        <ele>316.96</ele>
        <time>2025-01-03T16:04:32.751Z</time>
      </trkpt>
      <trkpt lat="48.27729" lon="5.03504">
        <ele>317.33</ele>
        <time>2025-01-03T16:04:33.207Z</time>
      </trkpt>
      <trkpt lat="48.27729" lon="5.03466">
        <ele>317.66</ele>
        <time>2025-01-03T16:04:33.667Z</time>
      </trkpt>
      <trkpt lat="48.27729" lon="5.03427">
        <ele>317.95</ele>
        <time>2025-01-03T16:04:34.131Z</time>
      </trkpt>
      <trkpt lat="48.27732" lon="5.03383">
        <ele>318.3</ele>
        <time>2025-01-03T16:04:34.600Z</time>
      </trkpt>
      <trkpt lat="48.27734" lon="5.03339">
        <ele>318.62</ele>
        <time>2025-01-03T16:04:35.074Z</time>
      </trkpt>
      <trkpt lat="48.27736" lon="5.03295">
        <ele>318.9</ele>
        <time>2025-01-03T16:04:35.552Z</time>
      </trkpt>
      <trkpt lat="48.27738" lon="5.03251">
        <ele>319.22</ele>
        <time>2025-01-03T16:04:36.035Z</time>
      </trkpt>
      <trkpt lat="48.2774" lon="5.03207">
        <ele>319.51</ele>
        <time>2025-01-03T16:04:36.523Z</time>
      </trkpt>
      <trkpt lat="48.27742" lon="5.03163">
        <ele>319.73</ele>
        <time>2025-01-03T16:04:37.016Z</time>
      </trkpt>
      <trkpt lat="48.27744" lon="5.0312">
        <ele>319.93</ele>
        <time>2025-01-03T16:04:37.513Z</time>
      </trkpt>
      <trkpt lat="48.27747" lon="5.03093">
        <ele>320.11</ele>
        <time>2025-01-03T16:04:38.013Z</time>
      </trkpt>
      <trkpt lat="48.27749" lon="5.03067">
        <ele>320.21</ele>
        <time>2025-01-03T16:04:38.516Z</time>
      </trkpt>
      <trkpt lat="48.2776" lon="5.03034">
        <ele>320.3</ele>
        <time>2025-01-03T16:04:39.023Z</time>
      </trkpt>
      <trkpt lat="48.27777" lon="5.03003">
        <ele>320.39</ele>
        <time>2025-01-03T16:04:39.534Z</time>
      </trkpt>
      <trkpt lat="48.27795" lon="5.02971">
        <ele>320.47</ele>
        <time>2025-01-03T16:04:40.050Z</time>
      </trkpt>
      <trkpt lat="48.27813" lon="5.02939">
        <ele>320.58</ele>
        <time>2025-01-03T16:04:40.570Z</time>
      </trkpt>
      <trkpt lat="48.2783" lon="5.02908">
        <ele>320.66</ele>
        <time>2025-01-03T16:04:41.094Z</time>
      </trkpt>
      <trkpt lat="48.27838" lon="5.02884">
        <ele>320.72</ele>
        <time>2025-01-03T16:04:41.621Z</time>
      </trkpt>
      <trkpt lat="48.27845" lon="5.02861">
        <ele>320.77</ele>
        <time>2025-01-03T16:04:42.151Z</time>
      </trkpt>
      <trkpt lat="48.27852" lon="5.02826">
        <ele>320.82</ele>
        <time>2025-01-03T16:04:42.685Z</time>
      </trkpt>
      <trkpt lat="48.27854" lon="5.02788">
        <ele>320.81</ele>
        <time>2025-01-03T16:04:43.223Z</time>
      </trkpt>
      <trkpt lat="48.2785" lon="5.02756">
        <ele>320.83</ele>
        <time>2025-01-03T16:04:43.764Z</time>
      </trkpt>
      <trkpt lat="48.27845" lon="5.02725">
        <ele>320.82</ele>
        <time>2025-01-03T16:04:44.309Z</time>
      </trkpt>
      <trkpt lat="48.27839" lon="5.02697">
        <ele>320.85</ele>
        <time>2025-01-03T16:04:44.857Z</time>
      </trkpt>
      <trkpt lat="48.27832" lon="5.0267">
        <ele>320.93</ele>
        <time>2025-01-03T16:04:45.408Z</time>
      </trkpt>
      <trkpt lat="48.27817" lon="5.02629">
        <ele>321.07</ele>
        <time>2025-01-03T16:04:45.964Z</time>
      </trkpt>
      <trkpt lat="48.27801" lon="5.02589">
        <ele>321.17</ele>
        <time>2025-01-03T16:04:46.525Z</time>
      </trkpt>
      <trkpt lat="48.27786" lon="5.02549">
        <ele>321.12</ele>
        <time>2025-01-03T16:04:47.091Z</time>
      </trkpt>
      <trkpt lat="48.2777" lon="5.02509">
        <ele>321.04</ele>
        <time>2025-01-03T16:04:47.662Z</time>
      </trkpt>
      <trkpt lat="48.27754" lon="5.02471">
        <ele>321.1</ele>
        <time>2025-01-03T16:04:48.238Z</time>
      </trkpt>
      <trkpt lat="48.27737" lon="5.02434">
        <ele>321.16</ele>
        <time>2025-01-03T16:04:48.818Z</time>
      </trkpt>
      <trkpt lat="48.27721" lon="5.02397">
        <ele>321.14</ele>
        <time>2025-01-03T16:04:49.403Z</time>
      </trkpt>
      <trkpt lat="48.27698" lon="5.02412">
        <ele>321.18</ele>
        <time>2025-01-03T16:04:49.992Z</time>
      </trkpt>
      <trkpt lat="48.27675" lon="5.02426">
        <ele>321.19</ele>
        <time>2025-01-03T16:04:50.585Z</time>
      </trkpt>
      <trkpt lat="48.27652" lon="5.02441">
        <ele>321.21</ele>
        <time>2025-01-03T16:04:51.182Z</time>
      </trkpt>
      <trkpt lat="48.27629" lon="5.02455">
        <ele>321.23</ele>
        <time>2025-01-03T16:04:51.783Z</time>
      </trkpt>
      <trkpt lat="48.27608" lon="5.02452">
        <ele>321.3</ele>
        <time>2025-01-03T16:04:52.388Z</time>
      </trkpt>
      <trkpt lat="48.27588" lon="5.02449">
        <ele>321.33</ele>
        <time>2025-01-03T16:04:52.996Z</time>
      </trkpt>
      <trkpt lat="48.27573" lon="5.02458">
        <ele>321.33</ele>
        <time>2025-01-03T16:04:53.606Z</time>
      </trkpt>
      <trkpt lat="48.27558" lon="5.02468">
        <ele>321.3</ele>
        <time>2025-01-03T16:04:54.219Z</time>
      </trkpt>
      <trkpt lat="48.27573" lon="5.02458">
        <ele>321.19</ele>
        <time>2025-01-03T16:04:54.835Z</time>
      </trkpt>
      <trkpt lat="48.27588" lon="5.02449">
        <ele>321.33</ele>
        <time>2025-01-03T16:04:55.453Z</time>
      </trkpt>
      <trkpt lat="48.27608" lon="5.02452">
        <ele>320.87</ele>
        <time>2025-01-03T16:04:56.075Z</time>
      </trkpt>
      <trkpt lat="48.27629" lon="5.02455">
        <ele>321.23</ele>
        <time>2025-01-03T16:04:56.700Z</time>
      </trkpt>
      <trkpt lat="48.27652" lon="5.02441">
        <ele>320.4</ele>
        <time>2025-01-03T16:04:57.329Z</time>
      </trkpt>
      <trkpt lat="48.27675" lon="5.02426">
        <ele>320.15</ele>
        <time>2025-01-03T16:04:57.962Z</time>
      </trkpt>
      <trkpt lat="48.27698" lon="5.02412">
        <ele>319.89</ele>
        <time>2025-01-03T16:04:58.599Z</time>
      </trkpt>
      <trkpt lat="48.27721" lon="5.02397">
        <ele>321.14</ele>
        <time>2025-01-03T16:04:59.240Z</time>
      </trkpt>
      <trkpt lat="48.27712" lon="5.0236">
        <ele>319.2</ele>
        <time>2025-01-03T16:04:59.885Z</time>
      </trkpt>
      <trkpt lat="48.27704" lon="5.02324">
        <ele>318.82</ele>
        <time>2025-01-03T16:05:00.534Z</time>
      </trkpt>
      <trkpt lat="48.27693" lon="5.0229">
        <ele>318.39</ele>
        <time>2025-01-03T16:05:01.187Z</time>
      </trkpt>
      <trkpt lat="48.27683" lon="5.02262">
        <ele>317.86</ele>
        <time>2025-01-03T16:05:01.844Z</time>
      </trkpt>
      <trkpt lat="48.27674" lon="5.02234">
        <ele>317.29</ele>
        <time>2025-01-03T16:05:02.504Z</time>
      </trkpt>
      <trkpt lat="48.27663" lon="5.02204">
        <ele>316.71</ele>
        <time>2025-01-03T16:05:03.168Z</time>
      </trkpt>
      <trkpt lat="48.27652" lon="5.0217">
        <ele>316.09</ele>
        <time>2025-01-03T16:05:03.836Z</time>
      </trkpt>
      <trkpt lat="48.27646" lon="5.02146">
        <ele>315.39</ele>
        <time>2025-01-03T16:05:04.506Z</time>
      </trkpt>
      <trkpt lat="48.27639" lon="5.02122">
        <ele>314.63</ele>
        <time>2025-01-03T16:05:05.179Z</time>
      </trkpt>
      <trkpt lat="48.27624" lon="5.02097">
        <ele>313.87</ele>
        <time>2025-01-03T16:05:05.856Z</time>
      </trkpt>
      <trkpt lat="48.27609" lon="5.02072">
        <ele>313.07</ele>
        <time>2025-01-03T16:05:06.536Z</time>
      </trkpt>
      <trkpt lat="48.27594" lon="5.02047">
        <ele>312.29</ele>
        <time>2025-01-03T16:05:07.220Z</time>
      </trkpt>
      <trkpt lat="48.27579" lon="5.02015">
        <ele>311.44</ele>
        <time>2025-01-03T16:05:07.908Z</time>
      </trkpt>
      <trkpt lat="48.27571" lon="5.01986">
        <ele>310.54</ele>
        <time>2025-01-03T16:05:08.599Z</time>
      </trkpt>
      <trkpt lat="48.27562" lon="5.01957">
        <ele>309.65</ele>
        <time>2025-01-03T16:05:09.294Z</time>
      </trkpt>
      <trkpt lat="48.27556" lon="5.0193">
        <ele>308.67</ele>
        <time>2025-01-03T16:05:09.992Z</time>
      </trkpt>
      <trkpt lat="48.27549" lon="5.01904">
        <ele>307.7</ele>
        <time>2025-01-03T16:05:10.693Z</time>
      </trkpt>
      <trkpt lat="48.27544" lon="5.01858">
        <ele>306.78</ele>
        <time>2025-01-03T16:05:11.399Z</time>
      </trkpt>
      <trkpt lat="48.27539" lon="5.01812">
        <ele>305.79</ele>
        <time>2025-01-03T16:05:12.110Z</time>
      </trkpt>
      <trkpt lat="48.27533" lon="5.01766">
        <ele>304.85</ele>
        <time>2025-01-03T16:05:12.826Z</time>
      </trkpt>
      <trkpt lat="48.27528" lon="5.0172">
        <ele>303.96</ele>
        <time>2025-01-03T16:05:13.547Z</time>
      </trkpt>
      <trkpt lat="48.27523" lon="5.01673">
        <ele>302.99</ele>
        <time>2025-01-03T16:05:14.273Z</time>
      </trkpt>
      <trkpt lat="48.27517" lon="5.01627">
        <ele>302.18</ele>
        <time>2025-01-03T16:05:15.004Z</time>
      </trkpt>
      <trkpt lat="48.27512" lon="5.01581">
        <ele>301.35</ele>
        <time>2025-01-03T16:05:15.740Z</time>
      </trkpt>
      <trkpt lat="48.27507" lon="5.01535">
        <ele>300.52</ele>
        <time>2025-01-03T16:05:16.481Z</time>
      </trkpt>
      <trkpt lat="48.27502" lon="5.01489">
        <ele>299.73</ele>
        <time>2025-01-03T16:05:17.227Z</time>
      </trkpt>
      <trkpt lat="48.27496" lon="5.01443">
        <ele>298.99</ele>
        <time>2025-01-03T16:05:17.978Z</time>
      </trkpt>
      <trkpt lat="48.27491" lon="5.01397">
        <ele>298.37</ele>
        <time>2025-01-03T16:05:18.734Z</time>
      </trkpt>
      <trkpt lat="48.27486" lon="5.01351">
        <ele>297.85</ele>
        <time>2025-01-03T16:05:19.495Z</time>
      </trkpt>
      <trkpt lat="48.27481" lon="5.01307">
        <ele>297.41</ele>
        <time>2025-01-03T16:05:20.261Z</time>
      </trkpt>
      <trkpt lat="48.27478" lon="5.0126">
        <ele>296.91</ele>
        <time>2025-01-03T16:05:21.032Z</time>
      </trkpt>
      <trkpt lat="48.27475" lon="5.01213">
        <ele>296.58</ele>
        <time>2025-01-03T16:05:21.808Z</time>
      </trkpt>
      <trkpt lat="48.27472" lon="5.01166">
        <ele>296.46</ele>
        <time>2025-01-03T16:05:22.589Z</time>
      </trkpt>
      <trkpt lat="48.27469" lon="5.01119">
        <ele>296.49</ele>
        <time>2025-01-03T16:05:23.375Z</time>
      </trkpt>
      <trkpt lat="48.27466" lon="5.01073">
        <ele>296.61</ele>
        <time>2025-01-03T16:05:24.166Z</time>
      </trkpt>
      <trkpt lat="48.27463" lon="5.0103">
        <ele>296.8</ele>
        <time>2025-01-03T16:05:24.961Z</time>
      </trkpt>
      <trkpt lat="48.2746" lon="5.00987">
        <ele>297.05</ele>
        <time>2025-01-03T16:05:25.761Z</time>
      </trkpt>
      <trkpt lat="48.27458" lon="5.00944">
        <ele>297.31</ele>
        <time>2025-01-03T16:05:26.566Z</time>
      </trkpt>
      <trkpt lat="48.27455" lon="5.00901">
        <ele>297.66</ele>
        <time>2025-01-03T16:05:27.375Z</time>
      </trkpt>
      <trkpt lat="48.27453" lon="5.00858">
        <ele>298.03</ele>
        <time>2025-01-03T16:05:28.189Z</time>
      </trkpt>
      <trkpt lat="48.2745" lon="5.00815">
        <ele>298.44</ele>
        <time>2025-01-03T16:05:29.007Z</time>
      </trkpt>
      <trkpt lat="48.27447" lon="5.00772">
        <ele>298.87</ele>
        <time>2025-01-03T16:05:29.830Z</time>
      </trkpt>
      <trkpt lat="48.27445" lon="5.00729">
        <ele>299.24</ele>
        <time>2025-01-03T16:05:30.658Z</time>
      </trkpt>
      <trkpt lat="48.27442" lon="5.00686">
        <ele>299.65</ele>
        <time>2025-01-03T16:05:31.490Z</time>
      </trkpt>
      <trkpt lat="48.2744" lon="5.00644">
        <ele>300.01</ele>
        <time>2025-01-03T16:05:32.327Z</time>
      </trkpt>
      <trkpt lat="48.27437" lon="5.00601">
        <ele>300.35</ele>
        <time>2025-01-03T16:05:33.168Z</time>
      </trkpt>
      <trkpt lat="48.27434" lon="5.00557">
        <ele>300.68</ele>
        <time>2025-01-03T16:05:34.014Z</time>
      </trkpt>
      <trkpt lat="48.27431" lon="5.00514">
        <ele>300.92</ele>
        <time>2025-01-03T16:05:34.865Z</time>
      </trkpt>
      <trkpt lat="48.27428" lon="5.0047">
        <ele>301.05</ele>
        <time>2025-01-03T16:05:35.720Z</time>
      </trkpt>
      <trkpt lat="48.27425" lon="5.00427">
        <ele>301.1</ele>
        <time>2025-01-03T16:05:36.580Z</time>
      </trkpt>
      <trkpt lat="48.27425" lon="5.00427">
        <ele>301.14</ele>
        <time>2025-01-03T16:05:37.440Z</time>
      </trkpt>
      <trkpt lat="48.27422" lon="5.0038">
        <ele>301</ele>
        <time>2025-01-03T16:05:38.305Z</time>
      </trkpt>
      <trkpt lat="48.27418" lon="5.00334">
        <ele>300.85</ele>
        <time>2025-01-03T16:05:39.175Z</time>
      </trkpt>
      <trkpt lat="48.27415" lon="5.00287">
        <ele>300.61</ele>
        <time>2025-01-03T16:05:40.050Z</time>
      </trkpt>
      <trkpt lat="48.27412" lon="5.00241">
        <ele>300.36</ele>
        <time>2025-01-03T16:05:40.930Z</time>
      </trkpt>
      <trkpt lat="48.27408" lon="5.00205">
        <ele>300</ele>
        <time>2025-01-03T16:05:41.814Z</time>
      </trkpt>
      <trkpt lat="48.27405" lon="5.0017">
        <ele>299.63</ele>
        <time>2025-01-03T16:05:42.702Z</time>
      </trkpt>
      <trkpt lat="48.27401" lon="5.00135">
        <ele>299.19</ele>
        <time>2025-01-03T16:05:43.594Z</time>
      </trkpt>
      <trkpt lat="48.27392" lon="5.00092">
        <ele>298.7</ele>
        <time>2025-01-03T16:05:44.490Z</time>
      </trkpt>
      <trkpt lat="48.27384" lon="5.00049">
        <ele>298.14</ele>
        <time>2025-01-03T16:05:45.391Z</time>
      </trkpt>
      <trkpt lat="48.27375" lon="5.00006">
        <ele>297.47</ele>
        <time>2025-01-03T16:05:46.297Z</time>
      </trkpt>
      <trkpt lat="48.27366" lon="4.99963">
        <ele>296.7</ele>
        <time>2025-01-03T16:05:47.208Z</time>
      </trkpt>
      <trkpt lat="48.27357" lon="4.9992">
        <ele>295.97</ele>
        <time>2025-01-03T16:05:48.124Z</time>
      </trkpt>
      <trkpt lat="48.27349" lon="4.99877">
        <ele>295.23</ele>
        <time>2025-01-03T16:05:49.044Z</time>
      </trkpt>
      <trkpt lat="48.2734" lon="4.99834">
        <ele>294.3</ele>
        <time>2025-01-03T16:05:49.969Z</time>
      </trkpt>
      <trkpt lat="48.27331" lon="4.99791">
        <ele>293.37</ele>
        <time>2025-01-03T16:05:50.899Z</time>
      </trkpt>
      <trkpt lat="48.27322" lon="4.99748">
        <ele>292.43</ele>
        <time>2025-01-03T16:05:51.834Z</time>
      </trkpt>
      <trkpt lat="48.27313" lon="4.99705">
        <ele>291.47</ele>
        <time>2025-01-03T16:05:52.774Z</time>
      </trkpt>
      <trkpt lat="48.27305" lon="4.99662">
        <ele>290.48</ele>
        <time>2025-01-03T16:05:53.718Z</time>
      </trkpt>
      <trkpt lat="48.27296" lon="4.99619">
        <ele>289.47</ele>
        <time>2025-01-03T16:05:54.667Z</time>
      </trkpt>
      <trkpt lat="48.27287" lon="4.99578">
        <ele>288.4</ele>
        <time>2025-01-03T16:05:55.621Z</time>
      </trkpt>
      <trkpt lat="48.27285" lon="4.99535">
        <ele>287.36</ele>
        <time>2025-01-03T16:05:56.579Z</time>
      </trkpt>
      <trkpt lat="48.27285" lon="4.99495">
        <ele>286.32</ele>
        <time>2025-01-03T16:05:57.542Z</time>
      </trkpt>
      <trkpt lat="48.27284" lon="4.99455">
        <ele>285.2</ele>
        <time>2025-01-03T16:05:58.509Z</time>
      </trkpt>
      <trkpt lat="48.27284" lon="4.99416">
        <ele>284.07</ele>
        <time>2025-01-03T16:05:59.480Z</time>
      </trkpt>
      <trkpt lat="48.27284" lon="4.99376">
        <ele>282.86</ele>
        <time>2025-01-03T16:06:00.455Z</time>
      </trkpt>
      <trkpt lat="48.27283" lon="4.99337">
        <ele>281.63</ele>
        <time>2025-01-03T16:06:01.435Z</time>
      </trkpt>
      <trkpt lat="48.27285" lon="4.99304">
        <ele>280.54</ele>
        <time>2025-01-03T16:06:02.418Z</time>
      </trkpt>
      <trkpt lat="48.27287" lon="4.99271">
        <ele>279.49</ele>
        <time>2025-01-03T16:06:03.405Z</time>
      </trkpt>
      <trkpt lat="48.27293" lon="4.99235">
        <ele>278.42</ele>
        <time>2025-01-03T16:06:04.396Z</time>
      </trkpt>
      <trkpt lat="48.27298" lon="4.992">
        <ele>277.32</ele>
        <time>2025-01-03T16:06:05.390Z</time>
      </trkpt>
      <trkpt lat="48.27309" lon="4.9916">
        <ele>276.25</ele>
        <time>2025-01-03T16:06:06.389Z</time>
      </trkpt>
      <trkpt lat="48.2732" lon="4.99121">
        <ele>275.19</ele>
        <time>2025-01-03T16:06:07.393Z</time>
      </trkpt>
      <trkpt lat="48.2733" lon="4.99082">
        <ele>274.12</ele>
        <time>2025-01-03T16:06:08.401Z</time>
      </trkpt>
      <trkpt lat="48.27343" lon="4.99046">
        <ele>273.13</ele>
        <time>2025-01-03T16:06:09.413Z</time>
      </trkpt>
      <trkpt lat="48.27355" lon="4.9901">
        <ele>272.14</ele>
        <time>2025-01-03T16:06:10.430Z</time>
      </trkpt>
      <trkpt lat="48.27368" lon="4.98973">
        <ele>271.16</ele>
        <time>2025-01-03T16:06:11.451Z</time>
      </trkpt>
      <trkpt lat="48.2738" lon="4.98937">
        <ele>270.23</ele>
        <time>2025-01-03T16:06:12.476Z</time>
      </trkpt>
      <trkpt lat="48.27393" lon="4.98902">
        <ele>269.36</ele>
        <time>2025-01-03T16:06:13.506Z</time>
      </trkpt>
      <trkpt lat="48.27401" lon="4.98865">
        <ele>268.46</ele>
        <time>2025-01-03T16:06:14.540Z</time>
      </trkpt>
      <trkpt lat="48.27407" lon="4.98835">
        <ele>267.6</ele>
        <time>2025-01-03T16:06:15.577Z</time>
      </trkpt>
      <trkpt lat="48.27412" lon="4.98805">
        <ele>266.8</ele>
        <time>2025-01-03T16:06:16.618Z</time>
      </trkpt>
      <trkpt lat="48.27415" lon="4.98759">
        <ele>265.97</ele>
        <time>2025-01-03T16:06:17.663Z</time>
      </trkpt>
      <trkpt lat="48.27418" lon="4.98713">
        <ele>265.17</ele>
        <time>2025-01-03T16:06:18.713Z</time>
      </trkpt>
      <trkpt lat="48.2742" lon="4.98668">
        <ele>264.38</ele>
        <time>2025-01-03T16:06:19.768Z</time>
      </trkpt>
      <trkpt lat="48.27426" lon="4.98639">
        <ele>263.58</ele>
        <time>2025-01-03T16:06:20.827Z</time>
      </trkpt>
      <trkpt lat="48.27431" lon="4.9861">
        <ele>262.74</ele>
        <time>2025-01-03T16:06:21.889Z</time>
      </trkpt>
      <trkpt lat="48.27445" lon="4.98568">
        <ele>261.84</ele>
        <time>2025-01-03T16:06:22.956Z</time>
      </trkpt>
      <trkpt lat="48.2746" lon="4.98526">
        <ele>260.96</ele>
        <time>2025-01-03T16:06:24.028Z</time>
      </trkpt>
      <trkpt lat="48.27474" lon="4.98485">
        <ele>260.12</ele>
        <time>2025-01-03T16:06:25.105Z</time>
      </trkpt>
      <trkpt lat="48.27488" lon="4.98443">
        <ele>259.22</ele>
        <time>2025-01-03T16:06:26.187Z</time>
      </trkpt>
      <trkpt lat="48.27502" lon="4.98401">
        <ele>258.39</ele>
        <time>2025-01-03T16:06:27.274Z</time>
      </trkpt>
      <trkpt lat="48.27517" lon="4.9836">
        <ele>257.52</ele>
        <time>2025-01-03T16:06:28.366Z</time>
      </trkpt>
      <trkpt lat="48.27531" lon="4.98318">
        <ele>256.63</ele>
        <time>2025-01-03T16:06:29.463Z</time>
      </trkpt>
      <trkpt lat="48.27545" lon="4.98277">
        <ele>255.67</ele>
        <time>2025-01-03T16:06:30.565Z</time>
      </trkpt>
      <trkpt lat="48.27558" lon="4.98236">
        <ele>254.98</ele>
        <time>2025-01-03T16:06:31.672Z</time>
      </trkpt>
      <trkpt lat="48.27571" lon="4.98196">
        <ele>254.2</ele>
        <time>2025-01-03T16:06:32.783Z</time>
      </trkpt>
      <trkpt lat="48.27578" lon="4.98161">
        <ele>253.37</ele>
        <time>2025-01-03T16:06:33.898Z</time>
      </trkpt>
      <trkpt lat="48.27586" lon="4.98127">
        <ele>252.65</ele>
        <time>2025-01-03T16:06:35.017Z</time>
      </trkpt>
      <trkpt lat="48.27591" lon="4.98094">
        <ele>252.02</ele>
        <time>2025-01-03T16:06:36.140Z</time>
      </trkpt>
      <trkpt lat="48.27596" lon="4.9806">
        <ele>251.48</ele>
        <time>2025-01-03T16:06:37.266Z</time>
      </trkpt>
      <trkpt lat="48.27601" lon="4.98021">
        <ele>250.96</ele>
        <time>2025-01-03T16:06:38.397Z</time>
      </trkpt>
      <trkpt lat="48.27605" lon="4.97981">
        <ele>250.58</ele>
        <time>2025-01-03T16:06:39.532Z</time>
      </trkpt>
      <trkpt lat="48.27606" lon="4.97942">
        <ele>250.25</ele>
        <time>2025-01-03T16:06:40.671Z</time>
      </trkpt>
      <trkpt lat="48.27607" lon="4.97904">
        <ele>250.07</ele>
        <time>2025-01-03T16:06:41.814Z</time>
      </trkpt>
      <trkpt lat="48.27607" lon="4.97893">
        <ele>249.92</ele>
        <time>2025-01-03T16:06:42.958Z</time>
      </trkpt>
      <trkpt lat="48.27605" lon="4.97854">
        <ele>249.83</ele>
        <time>2025-01-03T16:06:44.107Z</time>
      </trkpt>
      <trkpt lat="48.27603" lon="4.97816">
        <ele>249.81</ele>
        <time>2025-01-03T16:06:45.260Z</time>
      </trkpt>
      <trkpt lat="48.27597" lon="4.97772">
        <ele>249.93</ele>
        <time>2025-01-03T16:06:46.417Z</time>
      </trkpt>
      <trkpt lat="48.27592" lon="4.97728">
        <ele>250.13</ele>
        <time>2025-01-03T16:06:47.579Z</time>
      </trkpt>
      <trkpt lat="48.27586" lon="4.97689">
        <ele>250.34</ele>
        <time>2025-01-03T16:06:48.745Z</time>
      </trkpt>
      <trkpt lat="48.27579" lon="4.97651">
        <ele>250.59</ele>
        <time>2025-01-03T16:06:49.916Z</time>
      </trkpt>
      <trkpt lat="48.27571" lon="4.97618">
        <ele>250.81</ele>
        <time>2025-01-03T16:06:51.090Z</time>
      </trkpt>
      <trkpt lat="48.27562" lon="4.97586">
        <ele>251.07</ele>
        <time>2025-01-03T16:06:52.268Z</time>
      </trkpt>
      <trkpt lat="48.27553" lon="4.97554">
        <ele>251.41</ele>
        <time>2025-01-03T16:06:53.450Z</time>
      </trkpt>
      <trkpt lat="48.27545" lon="4.97522">
        <ele>251.77</ele>
        <time>2025-01-03T16:06:54.636Z</time>
      </trkpt>
      <trkpt lat="48.27536" lon="4.9749">
        <ele>252.18</ele>
        <time>2025-01-03T16:06:55.825Z</time>
      </trkpt>
      <trkpt lat="48.27551" lon="4.97479">
        <ele>252.65</ele>
        <time>2025-01-03T16:06:57.017Z</time>
      </trkpt>
      <trkpt lat="48.27577" lon="4.97458">
        <ele>253.12</ele>
        <time>2025-01-03T16:06:58.214Z</time>
      </trkpt>
      <trkpt lat="48.27604" lon="4.97439">
        <ele>253.5</ele>
        <time>2025-01-03T16:06:59.415Z</time>
      </trkpt>
      <trkpt lat="48.27631" lon="4.97421">
        <ele>253.93</ele>
        <time>2025-01-03T16:07:00.621Z</time>
      </trkpt>
      <trkpt lat="48.27658" lon="4.97403">
        <ele>254.35</ele>
        <time>2025-01-03T16:07:01.832Z</time>
      </trkpt>
      <trkpt lat="48.27684" lon="4.97385">
        <ele>254.76</ele>
        <time>2025-01-03T16:07:03.047Z</time>
      </trkpt>
      <trkpt lat="48.27703" lon="4.9737">
        <ele>255.07</ele>
        <time>2025-01-03T16:07:04.266Z</time>
      </trkpt>
      <trkpt lat="48.27722" lon="4.97354">
        <ele>255.38</ele>
        <time>2025-01-03T16:07:05.488Z</time>
      </trkpt>
      <trkpt lat="48.2774" lon="4.97339">
        <ele>255.66</ele>
        <time>2025-01-03T16:07:06.714Z</time>
      </trkpt>
      <trkpt lat="48.27766" lon="4.97317">
        <ele>255.93</ele>
        <time>2025-01-03T16:07:07.944Z</time>
      </trkpt>
      <trkpt lat="48.27792" lon="4.97295">
        <ele>256.21</ele>
        <time>2025-01-03T16:07:09.179Z</time>
      </trkpt>
      <trkpt lat="48.27819" lon="4.97273">
        <ele>256.43</ele>
        <time>2025-01-03T16:07:10.419Z</time>
      </trkpt>
      <trkpt lat="48.27845" lon="4.97251">
        <ele>256.58</ele>
        <time>2025-01-03T16:07:11.664Z</time>
      </trkpt>
      <trkpt lat="48.27871" lon="4.97229">
        <ele>256.73</ele>
        <time>2025-01-03T16:07:12.914Z</time>
      </trkpt>
      <trkpt lat="48.27897" lon="4.97206">
        <ele>256.78</ele>
        <time>2025-01-03T16:07:14.168Z</time>
      </trkpt>
      <trkpt lat="48.27912" lon="4.97194">
        <ele>256.85</ele>
        <time>2025-01-03T16:07:15.425Z</time>
      </trkpt>
      <trkpt lat="48.27927" lon="4.97181">
        <ele>256.91</ele>
        <time>2025-01-03T16:07:16.685Z</time>
      </trkpt>
      <trkpt lat="48.27952" lon="4.9716">
        <ele>256.98</ele>
        <time>2025-01-03T16:07:17.950Z</time>
      </trkpt>
      <trkpt lat="48.27976" lon="4.97139">
        <ele>256.94</ele>
        <time>2025-01-03T16:07:19.219Z</time>
      </trkpt>
      <trkpt lat="48.28001" lon="4.97118">
        <ele>256.84</ele>
        <time>2025-01-03T16:07:20.493Z</time>
      </trkpt>
      <trkpt lat="48.28026" lon="4.97098">
        <ele>256.7</ele>
        <time>2025-01-03T16:07:21.771Z</time>
      </trkpt>
      <trkpt lat="48.2805" lon="4.97077">
        <ele>256.55</ele>
        <time>2025-01-03T16:07:23.054Z</time>
      </trkpt>
      <trkpt lat="48.28075" lon="4.97056">
        <ele>256.36</ele>
        <time>2025-01-03T16:07:24.341Z</time>
      </trkpt>
      <trkpt lat="48.28091" lon="4.97041">
        <ele>256.11</ele>
        <time>2025-01-03T16:07:25.631Z</time>
      </trkpt>
      <trkpt lat="48.28107" lon="4.97026">
        <ele>255.86</ele>
        <time>2025-01-03T16:07:26.924Z</time>
      </trkpt>
      <trkpt lat="48.28126" lon="4.97007">
        <ele>255.6</ele>
        <time>2025-01-03T16:07:28.221Z</time>
      </trkpt>
      <trkpt lat="48.28131" lon="4.97003">
        <ele>255.3</ele>
        <time>2025-01-03T16:07:29.519Z</time>
      </trkpt>
      <trkpt lat="48.28152" lon="4.96983">
        <ele>254.94</ele>
        <time>2025-01-03T16:07:30.821Z</time>
      </trkpt>
      <trkpt lat="48.2818" lon="4.96966">
        <ele>254.46</ele>
        <time>2025-01-03T16:07:32.128Z</time>
      </trkpt>
      <trkpt lat="48.28191" lon="4.96968">
        <ele>254.08</ele>
        <time>2025-01-03T16:07:33.436Z</time>
      </trkpt>
      <trkpt lat="48.28193" lon="4.96962">
        <ele>253.72</ele>
        <time>2025-01-03T16:07:34.745Z</time>
      </trkpt>
      <trkpt lat="48.28213" lon="4.96943">
        <ele>253.31</ele>
        <time>2025-01-03T16:07:36.058Z</time>
      </trkpt>
      <trkpt lat="48.28233" lon="4.96925">
        <ele>252.92</ele>
        <time>2025-01-03T16:07:37.375Z</time>
      </trkpt>
      <trkpt lat="48.28253" lon="4.96906">
        <ele>252.55</ele>
        <time>2025-01-03T16:07:38.695Z</time>
      </trkpt>
      <trkpt lat="48.28279" lon="4.96887">
        <ele>252.17</ele>
        <time>2025-01-03T16:07:40.020Z</time>
      </trkpt>
      <trkpt lat="48.28287" lon="4.96876">
        <ele>251.84</ele>
        <time>2025-01-03T16:07:41.347Z</time>
      </trkpt>
      <trkpt lat="48.28291" lon="4.96866">
        <ele>251.53</ele>
        <time>2025-01-03T16:07:42.675Z</time>
      </trkpt>
      <trkpt lat="48.2829" lon="4.96865">
        <ele>251.25</ele>
        <time>2025-01-03T16:07:44.003Z</time>
      </trkpt>
      <trkpt lat="48.28297" lon="4.96848">
        <ele>251.02</ele>
        <time>2025-01-03T16:07:45.333Z</time>
      </trkpt>
      <trkpt lat="48.28301" lon="4.96827">
        <ele>250.78</ele>
        <time>2025-01-03T16:07:46.666Z</time>
      </trkpt>
      <trkpt lat="48.28305" lon="4.96806">
        <ele>250.58</ele>
        <time>2025-01-03T16:07:48.001Z</time>
      </trkpt>
      <trkpt lat="48.28308" lon="4.96795">
        <ele>250.39</ele>
        <time>2025-01-03T16:07:49.337Z</time>
      </trkpt>
      <trkpt lat="48.28321" lon="4.96776">
        <ele>250.23</ele>
        <time>2025-01-03T16:07:50.676Z</time>
      </trkpt>
      <trkpt lat="48.28336" lon="4.96759">
        <ele>250.06</ele>
        <time>2025-01-03T16:07:52.018Z</time>
      </trkpt>
      <trkpt lat="48.2835" lon="4.96747">
        <ele>249.95</ele>
        <time>2025-01-03T16:07:53.363Z</time>
      </trkpt>
      <trkpt lat="48.28366" lon="4.96741">
        <ele>249.83</ele>
        <time>2025-01-03T16:07:54.710Z</time>
      </trkpt>
      <trkpt lat="48.28372" lon="4.9674">
        <ele>249.75</ele>
        <time>2025-01-03T16:07:56.059Z</time>
      </trkpt>
      <trkpt lat="48.28369" lon="4.96739">
        <ele>249.7</ele>
        <time>2025-01-03T16:07:57.408Z</time>
      </trkpt>
      <trkpt lat="48.28366" lon="4.96741">
        <ele>249.68</ele>
        <time>2025-01-03T16:07:58.758Z</time>
      </trkpt>
      <trkpt lat="48.28362" lon="4.96742">
        <ele>249.67</ele>
        <time>2025-01-03T16:08:00.108Z</time>
      </trkpt>
      <trkpt lat="48.28358" lon="4.96744">
        <ele>249.69</ele>
        <time>2025-01-03T16:08:01.459Z</time>
      </trkpt>
      <trkpt lat="48.28343" lon="4.96753">
        <ele>249.71</ele>
        <time>2025-01-03T16:08:02.812Z</time>
      </trkpt>
      <trkpt lat="48.28322" lon="4.96775">
        <ele>249.77</ele>
        <time>2025-01-03T16:08:04.170Z</time>
      </trkpt>
      <trkpt lat="48.28307" lon="4.96797">
        <ele>249.81</ele>
        <time>2025-01-03T16:08:05.531Z</time>
      </trkpt>
      <trkpt lat="48.28306" lon="4.96802">
        <ele>249.87</ele>
        <time>2025-01-03T16:08:06.893Z</time>
      </trkpt>
      <trkpt lat="48.28305" lon="4.96808">
        <ele>249.93</ele>
        <time>2025-01-03T16:08:08.255Z</time>
      </trkpt>
      <trkpt lat="48.28302" lon="4.9682">
        <ele>249.99</ele>
        <time>2025-01-03T16:08:09.619Z</time>
      </trkpt>
      <trkpt lat="48.28301" lon="4.96827">
        <ele>250.07</ele>
        <time>2025-01-03T16:08:10.983Z</time>
      </trkpt>
      <trkpt lat="48.28299" lon="4.96839">
        <ele>250.14</ele>
        <time>2025-01-03T16:08:12.349Z</time>
      </trkpt>
      <trkpt lat="48.28293" lon="4.9686">
        <ele>250.19</ele>
        <time>2025-01-03T16:08:13.717Z</time>
      </trkpt>
      <trkpt lat="48.28277" lon="4.96888">
        <ele>250.28</ele>
        <time>2025-01-03T16:08:15.089Z</time>
      </trkpt>
      <trkpt lat="48.28257" lon="4.96903">
        <ele>250.38</ele>
        <time>2025-01-03T16:08:16.465Z</time>
      </trkpt>
      <trkpt lat="48.28237" lon="4.96922">
        <ele>250.46</ele>
        <time>2025-01-03T16:08:17.844Z</time>
      </trkpt>
      <trkpt lat="48.28233" lon="4.96926">
        <ele>250.51</ele>
        <time>2025-01-03T16:08:19.224Z</time>
      </trkpt>
      <trkpt lat="48.28207" lon="4.96952">
        <ele>250.61</ele>
        <time>2025-01-03T16:08:20.609Z</time>
      </trkpt>
      <trkpt lat="48.28193" lon="4.96971">
        <ele>250.66</ele>
        <time>2025-01-03T16:08:21.997Z</time>
      </trkpt>
      <trkpt lat="48.28206" lon="4.96985">
        <ele>250.64</ele>
        <time>2025-01-03T16:08:23.388Z</time>
      </trkpt>
      <trkpt lat="48.28219" lon="4.97001">
        <ele>250.63</ele>
        <time>2025-01-03T16:08:24.781Z</time>
      </trkpt>
      <trkpt lat="48.28227" lon="4.97009">
        <ele>250.6</ele>
        <time>2025-01-03T16:08:26.176Z</time>
      </trkpt>
      <trkpt lat="48.2824" lon="4.97024">
        <ele>250.52</ele>
        <time>2025-01-03T16:08:27.574Z</time>
      </trkpt>
      <trkpt lat="48.28254" lon="4.97039">
        <ele>250.4</ele>
        <time>2025-01-03T16:08:28.974Z</time>
      </trkpt>
      <trkpt lat="48.28269" lon="4.97056">
        <ele>250.26</ele>
        <time>2025-01-03T16:08:30.377Z</time>
      </trkpt>
      <trkpt lat="48.2827" lon="4.97057">
        <ele>250.16</ele>
        <time>2025-01-03T16:08:31.781Z</time>
      </trkpt>
      <trkpt lat="48.2827" lon="4.97058">
        <ele>250.05</ele>
        <time>2025-01-03T16:08:33.185Z</time>
      </trkpt>
      <trkpt lat="48.28278" lon="4.97044">
        <ele>249.93</ele>
        <time>2025-01-03T16:08:34.591Z</time>
      </trkpt>
      <trkpt lat="48.28287" lon="4.97034">
        <ele>249.76</ele>
        <time>2025-01-03T16:08:35.998Z</time>
      </trkpt>
      <trkpt lat="48.28288" lon="4.97032">
        <ele>249.62</ele>
        <time>2025-01-03T16:08:37.406Z</time>
      </trkpt>
      <trkpt lat="48.28284" lon="4.97033">
        <ele>249.47</ele>
        <time>2025-01-03T16:08:38.814Z</time>
      </trkpt>
      <trkpt lat="48.28278" lon="4.97046">
        <ele>249.33</ele>
        <time>2025-01-03T16:08:40.224Z</time>
      </trkpt>
      <trkpt lat="48.2827" lon="4.97058">
        <ele>249.15</ele>
        <time>2025-01-03T16:08:41.636Z</time>
      </trkpt>
      <trkpt lat="48.2827" lon="4.97058">
        <ele>248.97</ele>
        <time>2025-01-03T16:08:43.048Z</time>
      </trkpt>
      <trkpt lat="48.28271" lon="4.97059">
        <ele>248.78</ele>
        <time>2025-01-03T16:08:44.460Z</time>
      </trkpt>
      <trkpt lat="48.28275" lon="4.97064">
        <ele>248.57</ele>
        <time>2025-01-03T16:08:45.873Z</time>
      </trkpt>
      <trkpt lat="48.28279" lon="4.97067">
        <ele>248.37</ele>
        <time>2025-01-03T16:08:47.287Z</time>
      </trkpt>
      <trkpt lat="48.28294" lon="4.97085">
        <ele>248.11</ele>
        <time>2025-01-03T16:08:48.704Z</time>
      </trkpt>
      <trkpt lat="48.28316" lon="4.9711">
        <ele>247.86</ele>
        <time>2025-01-03T16:08:50.125Z</time>
      </trkpt>
      <trkpt lat="48.28332" lon="4.97128">
        <ele>247.66</ele>
        <time>2025-01-03T16:08:51.549Z</time>
      </trkpt>
      <trkpt lat="48.28348" lon="4.97146">
        <ele>247.5</ele>
        <time>2025-01-03T16:08:52.976Z</time>
      </trkpt>
      <trkpt lat="48.28368" lon="4.97167">
        <ele>247.33</ele>
        <time>2025-01-03T16:08:54.407Z</time>
      </trkpt>
      <trkpt lat="48.28389" lon="4.97188">
        <ele>247.19</ele>
        <time>2025-01-03T16:08:55.842Z</time>
      </trkpt>
      <trkpt lat="48.28411" lon="4.97206">
        <ele>247.14</ele>
        <time>2025-01-03T16:08:57.281Z</time>
      </trkpt>
      <trkpt lat="48.28433" lon="4.97224">
        <ele>247.07</ele>
        <time>2025-01-03T16:08:58.724Z</time>
      </trkpt>
      <trkpt lat="48.28452" lon="4.9723">
        <ele>246.89</ele>
        <time>2025-01-03T16:09:00.171Z</time>
      </trkpt>
      <trkpt lat="48.28471" lon="4.97236">
        <ele>246.67</ele>
        <time>2025-01-03T16:09:01.621Z</time>
      </trkpt>
      <trkpt lat="48.28491" lon="4.97238">
        <ele>246.5</ele>
        <time>2025-01-03T16:09:03.074Z</time>
      </trkpt>
      <trkpt lat="48.28511" lon="4.9724">
        <ele>246.39</ele>
        <time>2025-01-03T16:09:04.530Z</time>
      </trkpt>
      <trkpt lat="48.28533" lon="4.97236">
        <ele>246.29</ele>
        <time>2025-01-03T16:09:05.990Z</time>
      </trkpt>
      <trkpt lat="48.28555" lon="4.97233">
        <ele>246.22</ele>
        <time>2025-01-03T16:09:07.453Z</time>
      </trkpt>
      <trkpt lat="48.28578" lon="4.97222">
        <ele>246.1</ele>
        <time>2025-01-03T16:09:08.920Z</time>
      </trkpt>
      <trkpt lat="48.28596" lon="4.97214">
        <ele>246.05</ele>
        <time>2025-01-03T16:09:10.390Z</time>
      </trkpt>
      <trkpt lat="48.28619" lon="4.97196">
        <ele>246</ele>
        <time>2025-01-03T16:09:11.864Z</time>
      </trkpt>
      <trkpt lat="48.28641" lon="4.97178">
        <ele>246.03</ele>
        <time>2025-01-03T16:09:13.342Z</time>
      </trkpt>
      <trkpt lat="48.28661" lon="4.97163">
        <ele>246.11</ele>
        <time>2025-01-03T16:09:14.824Z</time>
      </trkpt>
      <trkpt lat="48.28681" lon="4.97147">
        <ele>246.19</ele>
        <time>2025-01-03T16:09:16.309Z</time>
      </trkpt>
      <trkpt lat="48.28696" lon="4.97136">
        <ele>246.33</ele>
        <time>2025-01-03T16:09:17.797Z</time>
      </trkpt>
      <trkpt lat="48.28714" lon="4.97122">
        <ele>246.54</ele>
        <time>2025-01-03T16:09:19.288Z</time>
      </trkpt>
      <trkpt lat="48.28732" lon="4.97108">
        <ele>246.81</ele>
        <time>2025-01-03T16:09:20.783Z</time>
      </trkpt>
      <trkpt lat="48.28744" lon="4.97098">
        <ele>247.1</ele>
        <time>2025-01-03T16:09:22.280Z</time>
      </trkpt>
      <trkpt lat="48.28748" lon="4.97095">
        <ele>247.45</ele>
        <time>2025-01-03T16:09:23.777Z</time>
      </trkpt>
      <trkpt lat="48.28762" lon="4.97123">
        <ele>247.94</ele>
        <time>2025-01-03T16:09:25.278Z</time>
      </trkpt>
      <trkpt lat="48.28763" lon="4.97127">
        <ele>248.41</ele>
        <time>2025-01-03T16:09:26.780Z</time>
      </trkpt>
      <trkpt lat="48.28769" lon="4.97138">
        <ele>248.95</ele>
        <time>2025-01-03T16:09:28.283Z</time>
      </trkpt>
      <trkpt lat="48.28778" lon="4.97159">
        <ele>249.58</ele>
        <time>2025-01-03T16:09:29.789Z</time>
      </trkpt>
      <trkpt lat="48.28792" lon="4.97189">
        <ele>250.23</ele>
        <time>2025-01-03T16:09:31.299Z</time>
      </trkpt>
      <trkpt lat="48.28802" lon="4.97212">
        <ele>250.92</ele>
        <time>2025-01-03T16:09:32.812Z</time>
      </trkpt>
      <trkpt lat="48.28813" lon="4.97235">
        <ele>251.65</ele>
        <time>2025-01-03T16:09:34.328Z</time>
      </trkpt>
      <trkpt lat="48.28829" lon="4.97271">
        <ele>252.4</ele>
        <time>2025-01-03T16:09:35.848Z</time>
      </trkpt>
      <trkpt lat="48.28842" lon="4.97298">
        <ele>253.25</ele>
        <time>2025-01-03T16:09:37.372Z</time>
      </trkpt>
      <trkpt lat="48.28846" lon="4.97307">
        <ele>254.09</ele>
        <time>2025-01-03T16:09:38.897Z</time>
      </trkpt>
      <trkpt lat="48.28849" lon="4.97314">
        <ele>254.97</ele>
        <time>2025-01-03T16:09:40.423Z</time>
      </trkpt>
      <trkpt lat="48.28851" lon="4.97318">
        <ele>255.88</ele>
        <time>2025-01-03T16:09:41.949Z</time>
      </trkpt>
      <trkpt lat="48.28858" lon="4.97333">
        <ele>256.82</ele>
        <time>2025-01-03T16:09:43.477Z</time>
      </trkpt>
      <trkpt lat="48.28864" lon="4.97346">
        <ele>257.79</ele>
        <time>2025-01-03T16:09:45.007Z</time>
      </trkpt>
      <trkpt lat="48.28871" lon="4.97362">
        <ele>258.8</ele>
        <time>2025-01-03T16:09:46.539Z</time>
      </trkpt>
      <trkpt lat="48.28878" lon="4.97377">
        <ele>259.85</ele>
        <time>2025-01-03T16:09:48.073Z</time>
      </trkpt>
      <trkpt lat="48.28888" lon="4.97379">
        <ele>260.93</ele>
        <time>2025-01-03T16:09:49.609Z</time>
      </trkpt>
      <trkpt lat="48.289" lon="4.97377">
        <ele>262.08</ele>
        <time>2025-01-03T16:09:51.147Z</time>
      </trkpt>
      <trkpt lat="48.2891" lon="4.97375">
        <ele>263.21</ele>
        <time>2025-01-03T16:09:52.686Z</time>
      </trkpt>
      <trkpt lat="48.28918" lon="4.97374">
        <ele>264.36</ele>
        <time>2025-01-03T16:09:54.227Z</time>
      </trkpt>
      <trkpt lat="48.28929" lon="4.97372">
        <ele>265.52</ele>
        <time>2025-01-03T16:09:55.769Z</time>
      </trkpt>
      <trkpt lat="48.28941" lon="4.9737">
        <ele>266.69</ele>
        <time>2025-01-03T16:09:57.313Z</time>
      </trkpt>
      <trkpt lat="48.28952" lon="4.97369">
        <ele>267.82</ele>
        <time>2025-01-03T16:09:58.859Z</time>
      </trkpt>
      <trkpt lat="48.28961" lon="4.97367">
        <ele>268.92</ele>
        <time>2025-01-03T16:10:00.406Z</time>
      </trkpt>
      <trkpt lat="48.28967" lon="4.97366">
        <ele>269.98</ele>
        <time>2025-01-03T16:10:01.954Z</time>
      </trkpt>
      <trkpt lat="48.28969" lon="4.97366">
        <ele>271</ele>
        <time>2025-01-03T16:10:03.503Z</time>
      </trkpt>
      <trkpt lat="48.2897" lon="4.97366">
        <ele>271.98</ele>
        <time>2025-01-03T16:10:05.052Z</time>
      </trkpt>
      <trkpt lat="48.28972" lon="4.97366">
        <ele>272.95</ele>
        <time>2025-01-03T16:10:06.601Z</time>
      </trkpt>
      <trkpt lat="48.28976" lon="4.97392">
        <ele>274.02</ele>
        <time>2025-01-03T16:10:08.153Z</time>
      </trkpt>
      <trkpt lat="48.28981" lon="4.97417">
        <ele>275.05</ele>
        <time>2025-01-03T16:10:09.708Z</time>
      </trkpt>
      <trkpt lat="48.28979" lon="4.97407">
        <ele>275.86</ele>
        <time>2025-01-03T16:10:11.264Z</time>
      </trkpt>
      <trkpt lat="48.28978" lon="4.97392">
        <ele>276.61</ele>
        <time>2025-01-03T16:10:12.822Z</time>
      </trkpt>
      <trkpt lat="48.28973" lon="4.9738">
        <ele>277.3</ele>
        <time>2025-01-03T16:10:14.381Z</time>
      </trkpt>
      <trkpt lat="48.28972" lon="4.97366">
        <ele>277.99</ele>
        <time>2025-01-03T16:10:15.942Z</time>
      </trkpt>
      <trkpt lat="48.28978" lon="4.97365">
        <ele>278.73</ele>
        <time>2025-01-03T16:10:17.504Z</time>
      </trkpt>
      <trkpt lat="48.28979" lon="4.97364">
        <ele>279.42</ele>
        <time>2025-01-03T16:10:19.066Z</time>
      </trkpt>
      <trkpt lat="48.28988" lon="4.97363">
        <ele>280.11</ele>
        <time>2025-01-03T16:10:20.629Z</time>
      </trkpt>
      <trkpt lat="48.28992" lon="4.97362">
        <ele>280.73</ele>
        <time>2025-01-03T16:10:22.193Z</time>
      </trkpt>
      <trkpt lat="48.28995" lon="4.97362">
        <ele>281.31</ele>
        <time>2025-01-03T16:10:23.757Z</time>
      </trkpt>
      <trkpt lat="48.28997" lon="4.97362">
        <ele>281.83</ele>
        <time>2025-01-03T16:10:25.322Z</time>
      </trkpt>
      <trkpt lat="48.29009" lon="4.9736">
        <ele>282.33</ele>
        <time>2025-01-03T16:10:26.889Z</time>
      </trkpt>
      <trkpt lat="48.29026" lon="4.97357">
        <ele>282.79</ele>
        <time>2025-01-03T16:10:28.458Z</time>
      </trkpt>
      <trkpt lat="48.29043" lon="4.9735">
        <ele>283.18</ele>
        <time>2025-01-03T16:10:30.030Z</time>
      </trkpt>
      <trkpt lat="48.2906" lon="4.97344">
        <ele>283.54</ele>
        <time>2025-01-03T16:10:31.605Z</time>
      </trkpt>
      <trkpt lat="48.29075" lon="4.97338">
        <ele>283.83</ele>
        <time>2025-01-03T16:10:33.182Z</time>
      </trkpt>
      <trkpt lat="48.29097" lon="4.97329">
        <ele>284.06</ele>
        <time>2025-01-03T16:10:34.763Z</time>
      </trkpt>
      <trkpt lat="48.29116" lon="4.97322">
        <ele>284.19</ele>
        <time>2025-01-03T16:10:36.347Z</time>
      </trkpt>
      <trkpt lat="48.29133" lon="4.97315">
        <ele>284.19</ele>
        <time>2025-01-03T16:10:37.934Z</time>
      </trkpt>
      <trkpt lat="48.29153" lon="4.97307">
        <ele>284.13</ele>
        <time>2025-01-03T16:10:39.524Z</time>
      </trkpt>
      <trkpt lat="48.29177" lon="4.97298">
        <ele>283.98</ele>
        <time>2025-01-03T16:10:41.118Z</time>
      </trkpt>
      <trkpt lat="48.29204" lon="4.97291">
        <ele>283.69</ele>
        <time>2025-01-03T16:10:42.717Z</time>
      </trkpt>
      <trkpt lat="48.29223" lon="4.9729">
        <ele>283.33</ele>
        <time>2025-01-03T16:10:44.319Z</time>
      </trkpt>
      <trkpt lat="48.29241" lon="4.97288">
        <ele>282.88</ele>
        <time>2025-01-03T16:10:45.924Z</time>
      </trkpt>
      <trkpt lat="48.29258" lon="4.97289">
        <ele>282.31</ele>
        <time>2025-01-03T16:10:47.531Z</time>
      </trkpt>
      <trkpt lat="48.29275" lon="4.97289">
        <ele>281.61</ele>
        <time>2025-01-03T16:10:49.141Z</time>
      </trkpt>
      <trkpt lat="48.29293" lon="4.97289">
        <ele>280.72</ele>
        <time>2025-01-03T16:10:50.754Z</time>
      </trkpt>
      <trkpt lat="48.29313" lon="4.97289">
        <ele>279.68</ele>
        <time>2025-01-03T16:10:52.370Z</time>
      </trkpt>
      <trkpt lat="48.29331" lon="4.9729">
        <ele>278.57</ele>
        <time>2025-01-03T16:10:53.989Z</time>
      </trkpt>
      <trkpt lat="48.29348" lon="4.9729">
        <ele>277.43</ele>
        <time>2025-01-03T16:10:55.611Z</time>
      </trkpt>
      <trkpt lat="48.29367" lon="4.973">
        <ele>276.22</ele>
        <time>2025-01-03T16:10:57.236Z</time>
      </trkpt>
      <trkpt lat="48.29387" lon="4.97322">
        <ele>274.98</ele>
        <time>2025-01-03T16:10:58.865Z</time>
      </trkpt>
      <trkpt lat="48.29413" lon="4.97342">
        <ele>273.74</ele>
        <time>2025-01-03T16:11:00.499Z</time>
      </trkpt>
      <trkpt lat="48.29436" lon="4.97356">
        <ele>272.57</ele>
        <time>2025-01-03T16:11:02.137Z</time>
      </trkpt>
      <trkpt lat="48.29462" lon="4.97371">
        <ele>271.3</ele>
        <time>2025-01-03T16:11:03.779Z</time>
      </trkpt>
      <trkpt lat="48.29487" lon="4.97385">
        <ele>270.06</ele>
        <time>2025-01-03T16:11:05.425Z</time>
      </trkpt>
      <trkpt lat="48.29517" lon="4.97399">
        <ele>268.77</ele>
        <time>2025-01-03T16:11:07.076Z</time>
      </trkpt>
      <trkpt lat="48.29522" lon="4.974">
        <ele>267.64</ele>
        <time>2025-01-03T16:11:08.728Z</time>
      </trkpt>
      <trkpt lat="48.29536" lon="4.97405">
        <ele>266.53</ele>
        <time>2025-01-03T16:11:10.383Z</time>
      </trkpt>
      <trkpt lat="48.29544" lon="4.97407">
        <ele>265.49</ele>
        <time>2025-01-03T16:11:12.039Z</time>
      </trkpt>
      <trkpt lat="48.29546" lon="4.97403">
        <ele>264.5</ele>
        <time>2025-01-03T16:11:13.696Z</time>
      </trkpt>
      <trkpt lat="48.29545" lon="4.97394">
        <ele>263.57</ele>
        <time>2025-01-03T16:11:15.353Z</time>
      </trkpt>
      <trkpt lat="48.29543" lon="4.97374">
        <ele>262.7</ele>
        <time>2025-01-03T16:11:17.013Z</time>
      </trkpt>
      <trkpt lat="48.29547" lon="4.97366">
        <ele>261.91</ele>
        <time>2025-01-03T16:11:18.674Z</time>
      </trkpt>
      <trkpt lat="48.29549" lon="4.97365">
        <ele>261.18</ele>
        <time>2025-01-03T16:11:20.335Z</time>
      </trkpt>
      <trkpt lat="48.29567" lon="4.97352">
        <ele>260.54</ele>
        <time>2025-01-03T16:11:21.999Z</time>
      </trkpt>
      <trkpt lat="48.29584" lon="4.9734">
        <ele>259.98</ele>
        <time>2025-01-03T16:11:23.666Z</time>
      </trkpt>
      <trkpt lat="48.29595" lon="4.97332">
        <ele>259.51</ele>
        <time>2025-01-03T16:11:25.335Z</time>
      </trkpt>
      <trkpt lat="48.29611" lon="4.97319">
        <ele>259.1</ele>
        <time>2025-01-03T16:11:27.007Z</time>
      </trkpt>
      <trkpt lat="48.29625" lon="4.97308">
        <ele>258.74</ele>
        <time>2025-01-03T16:11:28.682Z</time>
      </trkpt>
      <trkpt lat="48.2964" lon="4.97295">
        <ele>258.46</ele>
        <time>2025-01-03T16:11:30.359Z</time>
      </trkpt>
      <trkpt lat="48.29641" lon="4.97294">
        <ele>258.24</ele>
        <time>2025-01-03T16:11:32.037Z</time>
      </trkpt>
      <trkpt lat="48.29635" lon="4.97301">
        <ele>258.08</ele>
        <time>2025-01-03T16:11:33.716Z</time>
      </trkpt>
      <trkpt lat="48.29629" lon="4.97305">
        <ele>257.98</ele>
        <time>2025-01-03T16:11:35.396Z</time>
      </trkpt>
      <trkpt lat="48.29609" lon="4.97321">
        <ele>257.94</ele>
        <time>2025-01-03T16:11:37.079Z</time>
      </trkpt>
      <trkpt lat="48.29596" lon="4.97332">
        <ele>257.95</ele>
        <time>2025-01-03T16:11:38.765Z</time>
      </trkpt>
      <trkpt lat="48.29595" lon="4.97333">
        <ele>258.01</ele>
        <time>2025-01-03T16:11:40.451Z</time>
      </trkpt>
      <trkpt lat="48.29599" lon="4.97342">
        <ele>258.14</ele>
        <time>2025-01-03T16:11:42.138Z</time>
      </trkpt>
      <trkpt lat="48.29604" lon="4.97353">
        <ele>258.32</ele>
        <time>2025-01-03T16:11:43.827Z</time>
      </trkpt>
      <trkpt lat="48.29596" lon="4.97337">
        <ele>258.52</ele>
        <time>2025-01-03T16:11:45.518Z</time>
      </trkpt>
      <trkpt lat="48.29605" lon="4.97325">
        <ele>258.78</ele>
        <time>2025-01-03T16:11:47.211Z</time>
      </trkpt>
      <trkpt lat="48.29615" lon="4.97316">
        <ele>259.07</ele>
        <time>2025-01-03T16:11:48.906Z</time>
      </trkpt>
      <trkpt lat="48.29628" lon="4.97306">
        <ele>259.39</ele>
        <time>2025-01-03T16:11:50.603Z</time>
      </trkpt>
      <trkpt lat="48.29635" lon="4.973">
        <ele>259.74</ele>
        <time>2025-01-03T16:11:52.301Z</time>
      </trkpt>
      <trkpt lat="48.29634" lon="4.97301">
        <ele>260.11</ele>
        <time>2025-01-03T16:11:53.999Z</time>
      </trkpt>
      <trkpt lat="48.29633" lon="4.97302">
        <ele>260.51</ele>
        <time>2025-01-03T16:11:55.698Z</time>
      </trkpt>
      <trkpt lat="48.29624" lon="4.97309">
        <ele>260.92</ele>
        <time>2025-01-03T16:11:57.398Z</time>
      </trkpt>
      <trkpt lat="48.29608" lon="4.97322">
        <ele>261.34</ele>
        <time>2025-01-03T16:11:59.101Z</time>
      </trkpt>
      <trkpt lat="48.29599" lon="4.97342">
        <ele>261.77</ele>
        <time>2025-01-03T16:12:00.807Z</time>
      </trkpt>
      <trkpt lat="48.29606" lon="4.97355">
        <ele>262.22</ele>
        <time>2025-01-03T16:12:02.514Z</time>
      </trkpt>
      <trkpt lat="48.29617" lon="4.97377">
        <ele>262.66</ele>
        <time>2025-01-03T16:12:04.224Z</time>
      </trkpt>
      <trkpt lat="48.29627" lon="4.97393">
        <ele>263.13</ele>
        <time>2025-01-03T16:12:05.937Z</time>
      </trkpt>
      <trkpt lat="48.29639" lon="4.97412">
        <ele>263.59</ele>
        <time>2025-01-03T16:12:07.653Z</time>
      </trkpt>
      <trkpt lat="48.29647" lon="4.97432">
        <ele>264.04</ele>
        <time>2025-01-03T16:12:09.371Z</time>
      </trkpt>
      <trkpt lat="48.29641" lon="4.97462">
        <ele>264.52</ele>
        <time>2025-01-03T16:12:11.092Z</time>
      </trkpt>
      <trkpt lat="48.29652" lon="4.97484">
        <ele>264.92</ele>
        <time>2025-01-03T16:12:12.816Z</time>
      </trkpt>
      <trkpt lat="48.29666" lon="4.97498">
        <ele>265.27</ele>
        <time>2025-01-03T16:12:14.543Z</time>
      </trkpt>
      <trkpt lat="48.29686" lon="4.97498">
        <ele>265.56</ele>
        <time>2025-01-03T16:12:16.273Z</time>
      </trkpt>
      <trkpt lat="48.2971" lon="4.97498">
        <ele>265.84</ele>
        <time>2025-01-03T16:12:18.007Z</time>
      </trkpt>
      <trkpt lat="48.29715" lon="4.97498">
        <ele>266.07</ele>
        <time>2025-01-03T16:12:19.742Z</time>
      </trkpt>
      <trkpt lat="48.29716" lon="4.97496">
        <ele>266.25</ele>
        <time>2025-01-03T16:12:21.477Z</time>
      </trkpt>
      <trkpt lat="48.2971" lon="4.97498">
        <ele>266.37</ele>
        <time>2025-01-03T16:12:23.213Z</time>
      </trkpt>
      <trkpt lat="48.29692" lon="4.97498">
        <ele>266.43</ele>
        <time>2025-01-03T16:12:24.952Z</time>
      </trkpt>
      <trkpt lat="48.29687" lon="4.97498">
        <ele>266.46</ele>
        <time>2025-01-03T16:12:26.692Z</time>
      </trkpt>
      <trkpt lat="48.29669" lon="4.97498">
        <ele>266.45</ele>
        <time>2025-01-03T16:12:28.435Z</time>
      </trkpt>
      <trkpt lat="48.29661" lon="4.97493">
        <ele>266.37</ele>
        <time>2025-01-03T16:12:30.179Z</time>
      </trkpt>
      <trkpt lat="48.29654" lon="4.97485">
        <ele>266.23</ele>
        <time>2025-01-03T16:12:31.924Z</time>
      </trkpt>
      <trkpt lat="48.29638" lon="4.9747">
        <ele>266.04</ele>
        <time>2025-01-03T16:12:33.672Z</time>
      </trkpt>
      <trkpt lat="48.29623" lon="4.97455">
        <ele>265.79</ele>
        <time>2025-01-03T16:12:35.423Z</time>
      </trkpt>
      <trkpt lat="48.29608" lon="4.97441">
        <ele>265.47</ele>
        <time>2025-01-03T16:12:37.177Z</time>
      </trkpt>
      <trkpt lat="48.29592" lon="4.97438">
        <ele>265.12</ele>
        <time>2025-01-03T16:12:38.934Z</time>
      </trkpt>
      <trkpt lat="48.29588" lon="4.97436">
        <ele>264.71</ele>
        <time>2025-01-03T16:12:40.691Z</time>
      </trkpt>
      <trkpt lat="48.29574" lon="4.97426">
        <ele>264.22</ele>
        <time>2025-01-03T16:12:42.451Z</time>
      </trkpt>
      <trkpt lat="48.29559" lon="4.97416">
        <ele>263.67</ele>
        <time>2025-01-03T16:12:44.214Z</time>
      </trkpt>
      <trkpt lat="48.29547" lon="4.97407">
        <ele>263.1</ele>
        <time>2025-01-03T16:12:45.979Z</time>
      </trkpt>
      <trkpt lat="48.29545" lon="4.97393">
        <ele>262.5</ele>
        <time>2025-01-03T16:12:47.745Z</time>
      </trkpt>
      <trkpt lat="48.2954" lon="4.97354">
        <ele>261.9</ele>
        <time>2025-01-03T16:12:49.515Z</time>
      </trkpt>
      <trkpt lat="48.29532" lon="4.9731">
        <ele>261.31</ele>
        <time>2025-01-03T16:12:51.290Z</time>
      </trkpt>
      <trkpt lat="48.29527" lon="4.9728">
        <ele>260.63</ele>
        <time>2025-01-03T16:12:53.069Z</time>
      </trkpt>
      <trkpt lat="48.29522" lon="4.9725">
        <ele>259.9</ele>
        <time>2025-01-03T16:12:54.851Z</time>
      </trkpt>
      <trkpt lat="48.29512" lon="4.97221">
        <ele>259.1</ele>
        <time>2025-01-03T16:12:56.636Z</time>
      </trkpt>
      <trkpt lat="48.29503" lon="4.97192">
        <ele>258.32</ele>
        <time>2025-01-03T16:12:58.425Z</time>
      </trkpt>
      <trkpt lat="48.29488" lon="4.97153">
        <ele>257.55</ele>
        <time>2025-01-03T16:13:00.219Z</time>
      </trkpt>
      <trkpt lat="48.29473" lon="4.97115">
        <ele>256.77</ele>
        <time>2025-01-03T16:13:02.017Z</time>
      </trkpt>
      <trkpt lat="48.29469" lon="4.97105">
        <ele>256.02</ele>
        <time>2025-01-03T16:13:03.817Z</time>
      </trkpt>
      <trkpt lat="48.29458" lon="4.97071">
        <ele>255.31</ele>
        <time>2025-01-03T16:13:05.621Z</time>
      </trkpt>
      <trkpt lat="48.29448" lon="4.97038">
        <ele>254.56</ele>
        <time>2025-01-03T16:13:07.429Z</time>
      </trkpt>
      <trkpt lat="48.29436" lon="4.96999">
        <ele>253.73</ele>
        <time>2025-01-03T16:13:09.241Z</time>
      </trkpt>
      <trkpt lat="48.29424" lon="4.9696">
        <ele>252.93</ele>
        <time>2025-01-03T16:13:11.058Z</time>
      </trkpt>
      <trkpt lat="48.2942" lon="4.96949">
        <ele>252.25</ele>
        <time>2025-01-03T16:13:12.876Z</time>
      </trkpt>
      <trkpt lat="48.29406" lon="4.96908">
        <ele>251.56</ele>
        <time>2025-01-03T16:13:14.699Z</time>
      </trkpt>
      <trkpt lat="48.29392" lon="4.96868">
        <ele>250.99</ele>
        <time>2025-01-03T16:13:16.527Z</time>
      </trkpt>
      <trkpt lat="48.29378" lon="4.96831">
        <ele>250.47</ele>
        <time>2025-01-03T16:13:18.359Z</time>
      </trkpt>
      <trkpt lat="48.29364" lon="4.96794">
        <ele>249.91</ele>
        <time>2025-01-03T16:13:20.196Z</time>
      </trkpt>
      <trkpt lat="48.29351" lon="4.96771">
        <ele>249.43</ele>
        <time>2025-01-03T16:13:22.036Z</time>
      </trkpt>
      <trkpt lat="48.29339" lon="4.96748">
        <ele>249.04</ele>
        <time>2025-01-03T16:13:23.879Z</time>
      </trkpt>
      <trkpt lat="48.29317" lon="4.96723">
        <ele>248.67</ele>
        <time>2025-01-03T16:13:25.727Z</time>
      </trkpt>
      <trkpt lat="48.29309" lon="4.9671">
        <ele>248.33</ele>
        <time>2025-01-03T16:13:27.577Z</time>
      </trkpt>
      <trkpt lat="48.29304" lon="4.96697">
        <ele>248.03</ele>
        <time>2025-01-03T16:13:29.428Z</time>
      </trkpt>
      <trkpt lat="48.29294" lon="4.96672">
        <ele>247.78</ele>
        <time>2025-01-03T16:13:31.282Z</time>
      </trkpt>
      <trkpt lat="48.293" lon="4.96651">
        <ele>247.61</ele>
        <time>2025-01-03T16:13:33.139Z</time>
      </trkpt>
      <trkpt lat="48.29304" lon="4.96648">
        <ele>247.48</ele>
        <time>2025-01-03T16:13:34.996Z</time>
      </trkpt>
      <trkpt lat="48.29328" lon="4.96629">
        <ele>247.36</ele>
        <time>2025-01-03T16:13:36.858Z</time>
      </trkpt>
      <trkpt lat="48.2935" lon="4.96613">
        <ele>247.35</ele>
        <time>2025-01-03T16:13:38.724Z</time>
      </trkpt>
      <trkpt lat="48.29371" lon="4.96596">
        <ele>247.35</ele>
        <time>2025-01-03T16:13:40.593Z</time>
      </trkpt>
      <trkpt lat="48.29396" lon="4.96577">
        <ele>247.42</ele>
        <time>2025-01-03T16:13:42.467Z</time>
      </trkpt>
      <trkpt lat="48.29422" lon="4.96557">
        <ele>247.54</ele>
        <time>2025-01-03T16:13:44.346Z</time>
      </trkpt>
      <trkpt lat="48.29441" lon="4.96542">
        <ele>247.61</ele>
        <time>2025-01-03T16:13:46.228Z</time>
      </trkpt>
      <trkpt lat="48.29461" lon="4.96526">
        <ele>247.73</ele>
        <time>2025-01-03T16:13:48.114Z</time>
      </trkpt>
      <trkpt lat="48.29487" lon="4.96506">
        <ele>247.84</ele>
        <time>2025-01-03T16:13:50.004Z</time>
      </trkpt>
      <trkpt lat="48.29513" lon="4.96486">
        <ele>247.96</ele>
        <time>2025-01-03T16:13:51.899Z</time>
      </trkpt>
      <trkpt lat="48.29536" lon="4.96469">
        <ele>248.02</ele>
        <time>2025-01-03T16:13:53.798Z</time>
      </trkpt>
      <trkpt lat="48.29558" lon="4.96451">
        <ele>248.04</ele>
        <time>2025-01-03T16:13:55.701Z</time>
      </trkpt>
      <trkpt lat="48.29583" lon="4.96436">
        <ele>248.03</ele>
        <time>2025-01-03T16:13:57.609Z</time>
      </trkpt>
      <trkpt lat="48.29608" lon="4.9642">
        <ele>247.96</ele>
        <time>2025-01-03T16:13:59.521Z</time>
      </trkpt>
      <trkpt lat="48.29615" lon="4.96416">
        <ele>247.94</ele>
        <time>2025-01-03T16:14:01.434Z</time>
      </trkpt>
      <trkpt lat="48.2964" lon="4.96401">
        <ele>247.98</ele>
        <time>2025-01-03T16:14:03.351Z</time>
      </trkpt>
      <trkpt lat="48.29665" lon="4.96386">
        <ele>247.94</ele>
        <time>2025-01-03T16:14:05.273Z</time>
      </trkpt>
      <trkpt lat="48.29693" lon="4.96369">
        <ele>247.85</ele>
        <time>2025-01-03T16:14:07.199Z</time>
      </trkpt>
      <trkpt lat="48.2972" lon="4.96352">
        <ele>247.73</ele>
        <time>2025-01-03T16:14:09.130Z</time>
      </trkpt>
      <trkpt lat="48.29729" lon="4.96347">
        <ele>247.61</ele>
        <time>2025-01-03T16:14:11.063Z</time>
      </trkpt>
      <trkpt lat="48.29754" lon="4.96332">
        <ele>247.47</ele>
        <time>2025-01-03T16:14:13.000Z</time>
      </trkpt>
      <trkpt lat="48.2978" lon="4.96316">
        <ele>247.34</ele>
        <time>2025-01-03T16:14:14.942Z</time>
      </trkpt>
      <trkpt lat="48.29797" lon="4.96306">
        <ele>247.21</ele>
        <time>2025-01-03T16:14:16.886Z</time>
      </trkpt>
      <trkpt lat="48.29823" lon="4.96291">
        <ele>246.98</ele>
        <time>2025-01-03T16:14:18.835Z</time>
      </trkpt>
      <trkpt lat="48.29849" lon="4.96275">
        <ele>246.73</ele>
        <time>2025-01-03T16:14:20.788Z</time>
      </trkpt>
      <trkpt lat="48.29875" lon="4.96259">
        <ele>246.46</ele>
        <time>2025-01-03T16:14:22.746Z</time>
      </trkpt>
      <trkpt lat="48.29902" lon="4.96243">
        <ele>246.16</ele>
        <time>2025-01-03T16:14:24.709Z</time>
      </trkpt>
      <trkpt lat="48.29928" lon="4.96227">
        <ele>245.8</ele>
        <time>2025-01-03T16:14:26.676Z</time>
      </trkpt>
      <trkpt lat="48.29946" lon="4.96216">
        <ele>245.46</ele>
        <time>2025-01-03T16:14:28.646Z</time>
      </trkpt>
      <trkpt lat="48.29963" lon="4.96206">
        <ele>245.12</ele>
        <time>2025-01-03T16:14:30.619Z</time>
      </trkpt>
      <trkpt lat="48.29989" lon="4.96191">
        <ele>244.79</ele>
        <time>2025-01-03T16:14:32.597Z</time>
      </trkpt>
      <trkpt lat="48.30014" lon="4.96175">
        <ele>244.48</ele>
        <time>2025-01-03T16:14:34.579Z</time>
      </trkpt>
      <trkpt lat="48.30039" lon="4.9616">
        <ele>244.14</ele>
        <time>2025-01-03T16:14:36.565Z</time>
      </trkpt>
      <trkpt lat="48.30066" lon="4.96144">
        <ele>243.81</ele>
        <time>2025-01-03T16:14:38.556Z</time>
      </trkpt>
      <trkpt lat="48.30093" lon="4.96127">
        <ele>243.51</ele>
        <time>2025-01-03T16:14:40.552Z</time>
      </trkpt>
      <trkpt lat="48.30108" lon="4.96118">
        <ele>243.15</ele>
        <time>2025-01-03T16:14:42.550Z</time>
      </trkpt>
      <trkpt lat="48.30134" lon="4.96103">
        <ele>242.74</ele>
        <time>2025-01-03T16:14:44.553Z</time>
      </trkpt>
      <trkpt lat="48.3016" lon="4.96087">
        <ele>242.32</ele>
        <time>2025-01-03T16:14:46.560Z</time>
      </trkpt>
      <trkpt lat="48.30183" lon="4.96073">
        <ele>241.95</ele>
        <time>2025-01-03T16:14:48.571Z</time>
      </trkpt>
      <trkpt lat="48.30211" lon="4.96057">
        <ele>241.61</ele>
        <time>2025-01-03T16:14:50.587Z</time>
      </trkpt>
      <trkpt lat="48.30238" lon="4.9604">
        <ele>241.3</ele>
        <time>2025-01-03T16:14:52.608Z</time>
      </trkpt>
      <trkpt lat="48.30254" lon="4.9603">
        <ele>240.87</ele>
        <time>2025-01-03T16:14:54.631Z</time>
      </trkpt>
      <trkpt lat="48.3028" lon="4.96015">
        <ele>240.4</ele>
        <time>2025-01-03T16:14:56.659Z</time>
      </trkpt>
      <trkpt lat="48.30305" lon="4.96">
        <ele>239.89</ele>
        <time>2025-01-03T16:14:58.691Z</time>
      </trkpt>
      <trkpt lat="48.30322" lon="4.9599">
        <ele>239.41</ele>
        <time>2025-01-03T16:15:00.726Z</time>
      </trkpt>
      <trkpt lat="48.30339" lon="4.95979">
        <ele>238.92</ele>
        <time>2025-01-03T16:15:02.764Z</time>
      </trkpt>
      <trkpt lat="48.30365" lon="4.95964">
        <ele>238.39</ele>
        <time>2025-01-03T16:15:04.807Z</time>
      </trkpt>
      <trkpt lat="48.30391" lon="4.95948">
        <ele>237.91</ele>
        <time>2025-01-03T16:15:06.854Z</time>
      </trkpt>
      <trkpt lat="48.30409" lon="4.95938">
        <ele>237.46</ele>
        <time>2025-01-03T16:15:08.904Z</time>
      </trkpt>
      <trkpt lat="48.30426" lon="4.95927">
        <ele>236.98</ele>
        <time>2025-01-03T16:15:10.957Z</time>
      </trkpt>
      <trkpt lat="48.30454" lon="4.9591">
        <ele>236.48</ele>
        <time>2025-01-03T16:15:13.015Z</time>
      </trkpt>
      <trkpt lat="48.30481" lon="4.95894">
        <ele>236.04</ele>
        <time>2025-01-03T16:15:15.078Z</time>
      </trkpt>
      <trkpt lat="48.30509" lon="4.95877">
        <ele>235.61</ele>
        <time>2025-01-03T16:15:17.145Z</time>
      </trkpt>
      <trkpt lat="48.30537" lon="4.9586">
        <ele>235.24</ele>
        <time>2025-01-03T16:15:19.217Z</time>
      </trkpt>
      <trkpt lat="48.30565" lon="4.95844">
        <ele>234.81</ele>
        <time>2025-01-03T16:15:21.294Z</time>
      </trkpt>
      <trkpt lat="48.30593" lon="4.95827">
        <ele>234.43</ele>
        <time>2025-01-03T16:15:23.376Z</time>
      </trkpt>
      <trkpt lat="48.3061" lon="4.95816">
        <ele>234.09</ele>
        <time>2025-01-03T16:15:25.461Z</time>
      </trkpt>
      <trkpt lat="48.30635" lon="4.95801">
        <ele>233.8</ele>
        <time>2025-01-03T16:15:27.550Z</time>
      </trkpt>
      <trkpt lat="48.30661" lon="4.95786">
        <ele>233.54</ele>
        <time>2025-01-03T16:15:29.644Z</time>
      </trkpt>
      <trkpt lat="48.30669" lon="4.95781">
        <ele>233.3</ele>
        <time>2025-01-03T16:15:31.739Z</time>
      </trkpt>
      <trkpt lat="48.30698" lon="4.95763">
        <ele>233.1</ele>
        <time>2025-01-03T16:15:33.839Z</time>
      </trkpt>
      <trkpt lat="48.30727" lon="4.95746">
        <ele>232.89</ele>
        <time>2025-01-03T16:15:35.944Z</time>
      </trkpt>
      <trkpt lat="48.30735" lon="4.95741">
        <ele>232.78</ele>
        <time>2025-01-03T16:15:38.050Z</time>
      </trkpt>
      <trkpt lat="48.30762" lon="4.95725">
        <ele>232.72</ele>
        <time>2025-01-03T16:15:40.161Z</time>
      </trkpt>
      <trkpt lat="48.30789" lon="4.95708">
        <ele>232.71</ele>
        <time>2025-01-03T16:15:42.277Z</time>
      </trkpt>
      <trkpt lat="48.30813" lon="4.95694">
        <ele>232.76</ele>
        <time>2025-01-03T16:15:44.397Z</time>
      </trkpt>
      <trkpt lat="48.30839" lon="4.95678">
        <ele>232.9</ele>
        <time>2025-01-03T16:15:46.521Z</time>
      </trkpt>
      <trkpt lat="48.30866" lon="4.95662">
        <ele>233.07</ele>
        <time>2025-01-03T16:15:48.650Z</time>
      </trkpt>
      <trkpt lat="48.30873" lon="4.95658">
        <ele>233.21</ele>
        <time>2025-01-03T16:15:50.780Z</time>
      </trkpt>
      <trkpt lat="48.309" lon="4.95642">
        <ele>233.38</ele>
        <time>2025-01-03T16:15:52.915Z</time>
      </trkpt>
      <trkpt lat="48.30927" lon="4.95626">
        <ele>233.6</ele>
        <time>2025-01-03T16:15:55.054Z</time>
      </trkpt>
      <trkpt lat="48.30934" lon="4.95621">
        <ele>233.88</ele>
        <time>2025-01-03T16:15:57.195Z</time>
      </trkpt>
      <trkpt lat="48.30962" lon="4.95604">
        <ele>234.19</ele>
        <time>2025-01-03T16:15:59.341Z</time>
      </trkpt>
      <trkpt lat="48.30991" lon="4.95587">
        <ele>234.54</ele>
        <time>2025-01-03T16:16:01.491Z</time>
      </trkpt>
      <trkpt lat="48.31017" lon="4.95571">
        <ele>235</ele>
        <time>2025-01-03T16:16:03.646Z</time>
      </trkpt>
      <trkpt lat="48.31044" lon="4.95555">
        <ele>235.49</ele>
        <time>2025-01-03T16:16:05.806Z</time>
      </trkpt>
      <trkpt lat="48.31051" lon="4.95551">
        <ele>235.98</ele>
        <time>2025-01-03T16:16:07.967Z</time>
      </trkpt>
      <trkpt lat="48.31076" lon="4.95536">
        <ele>236.52</ele>
        <time>2025-01-03T16:16:10.132Z</time>
      </trkpt>
      <trkpt lat="48.31101" lon="4.95521">
        <ele>237.11</ele>
        <time>2025-01-03T16:16:12.301Z</time>
      </trkpt>
      <trkpt lat="48.31126" lon="4.95506">
        <ele>237.62</ele>
        <time>2025-01-03T16:16:14.475Z</time>
      </trkpt>
      <trkpt lat="48.31152" lon="4.9549">
        <ele>238.14</ele>
        <time>2025-01-03T16:16:16.653Z</time>
      </trkpt>
      <trkpt lat="48.31178" lon="4.95475">
        <ele>238.82</ele>
        <time>2025-01-03T16:16:18.836Z</time>
      </trkpt>
      <trkpt lat="48.31204" lon="4.95459">
        <ele>239.56</ele>
        <time>2025-01-03T16:16:21.023Z</time>
      </trkpt>
      <trkpt lat="48.3123" lon="4.95443">
        <ele>240.26</ele>
        <time>2025-01-03T16:16:23.215Z</time>
      </trkpt>
      <trkpt lat="48.31255" lon="4.95428">
        <ele>240.89</ele>
        <time>2025-01-03T16:16:25.411Z</time>
      </trkpt>
      <trkpt lat="48.31261" lon="4.95425">
        <ele>241.44</ele>
        <time>2025-01-03T16:16:27.608Z</time>
      </trkpt>
      <trkpt lat="48.31284" lon="4.9541">
        <ele>242</ele>
        <time>2025-01-03T16:16:29.809Z</time>
      </trkpt>
      <trkpt lat="48.31308" lon="4.95396">
        <ele>242.49</ele>
        <time>2025-01-03T16:16:32.014Z</time>
      </trkpt>
      <trkpt lat="48.31326" lon="4.95386">
        <ele>242.99</ele>
        <time>2025-01-03T16:16:34.222Z</time>
      </trkpt>
      <trkpt lat="48.31343" lon="4.95375">
        <ele>243.48</ele>
        <time>2025-01-03T16:16:36.433Z</time>
      </trkpt>
      <trkpt lat="48.31364" lon="4.95362">
        <ele>243.96</ele>
        <time>2025-01-03T16:16:38.648Z</time>
      </trkpt>
      <trkpt lat="48.31386" lon="4.95349">
        <ele>244.31</ele>
        <time>2025-01-03T16:16:40.867Z</time>
      </trkpt>
      <trkpt lat="48.31414" lon="4.95332">
        <ele>244.57</ele>
        <time>2025-01-03T16:16:43.090Z</time>
      </trkpt>
      <trkpt lat="48.31442" lon="4.95316">
        <ele>244.87</ele>
        <time>2025-01-03T16:16:45.318Z</time>
      </trkpt>
      <trkpt lat="48.31468" lon="4.95299">
        <ele>245.12</ele>
        <time>2025-01-03T16:16:47.551Z</time>
      </trkpt>
      <trkpt lat="48.31494" lon="4.95282">
        <ele>245.35</ele>
        <time>2025-01-03T16:16:49.788Z</time>
      </trkpt>
      <trkpt lat="48.31509" lon="4.95269">
        <ele>245.56</ele>
        <time>2025-01-03T16:16:52.028Z</time>
      </trkpt>
      <trkpt lat="48.31521" lon="4.95251">
        <ele>245.77</ele>
        <time>2025-01-03T16:16:54.271Z</time>
      </trkpt>
      <trkpt lat="48.31536" lon="4.95228">
        <ele>245.94</ele>
        <time>2025-01-03T16:16:56.517Z</time>
      </trkpt>
      <trkpt lat="48.3155" lon="4.95204">
        <ele>246.09</ele>
        <time>2025-01-03T16:16:58.767Z</time>
      </trkpt>
      <trkpt lat="48.31562" lon="4.95187">
        <ele>246.23</ele>
        <time>2025-01-03T16:17:01.019Z</time>
      </trkpt>
      <trkpt lat="48.31575" lon="4.95169">
        <ele>246.3</ele>
        <time>2025-01-03T16:17:03.274Z</time>
      </trkpt>
      <trkpt lat="48.31594" lon="4.95142">
        <ele>246.31</ele>
        <time>2025-01-03T16:17:05.533Z</time>
      </trkpt>
      <trkpt lat="48.31613" lon="4.95114">
        <ele>246.29</ele>
        <time>2025-01-03T16:17:07.797Z</time>
      </trkpt>
      <trkpt lat="48.3163" lon="4.9509">
        <ele>246.31</ele>
        <time>2025-01-03T16:17:10.064Z</time>
      </trkpt>
      <trkpt lat="48.31648" lon="4.95065">
        <ele>246.29</ele>
        <time>2025-01-03T16:17:12.335Z</time>
      </trkpt>
      <trkpt lat="48.31673" lon="4.95037">
        <ele>246.13</ele>
        <time>2025-01-03T16:17:14.611Z</time>
      </trkpt>
      <trkpt lat="48.31698" lon="4.95009">
        <ele>245.9</ele>
        <time>2025-01-03T16:17:16.892Z</time>
      </trkpt>
      <trkpt lat="48.31722" lon="4.94987">
        <ele>245.69</ele>
        <time>2025-01-03T16:17:19.178Z</time>
      </trkpt>
      <trkpt lat="48.31747" lon="4.94965">
        <ele>245.47</ele>
        <time>2025-01-03T16:17:21.468Z</time>
      </trkpt>
      <trkpt lat="48.31771" lon="4.94941">
        <ele>245.24</ele>
        <time>2025-01-03T16:17:23.763Z</time>
      </trkpt>
      <trkpt lat="48.31795" lon="4.94918">
        <ele>245</ele>
        <time>2025-01-03T16:17:26.063Z</time>
      </trkpt>
      <trkpt lat="48.31818" lon="4.94891">
        <ele>244.76</ele>
        <time>2025-01-03T16:17:28.367Z</time>
      </trkpt>
      <trkpt lat="48.31841" lon="4.94865">
        <ele>244.43</ele>
        <time>2025-01-03T16:17:30.676Z</time>
      </trkpt>
      <trkpt lat="48.31864" lon="4.94838">
        <ele>244.13</ele>
        <time>2025-01-03T16:17:32.990Z</time>
      </trkpt>
      <trkpt lat="48.31886" lon="4.94814">
        <ele>243.81</ele>
        <time>2025-01-03T16:17:35.308Z</time>
      </trkpt>
      <trkpt lat="48.31907" lon="4.94789">
        <ele>243.48</ele>
        <time>2025-01-03T16:17:37.630Z</time>
      </trkpt>
      <trkpt lat="48.31923" lon="4.94772">
        <ele>243.17</ele>
        <time>2025-01-03T16:17:39.955Z</time>
      </trkpt>
      <trkpt lat="48.31939" lon="4.94756">
        <ele>242.86</ele>
        <time>2025-01-03T16:17:42.283Z</time>
      </trkpt>
      <trkpt lat="48.31958" lon="4.94738">
        <ele>242.54</ele>
        <time>2025-01-03T16:17:44.615Z</time>
      </trkpt>
      <trkpt lat="48.31978" lon="4.94721">
        <ele>242.19</ele>
        <time>2025-01-03T16:17:46.951Z</time>
      </trkpt>
      <trkpt lat="48.32004" lon="4.94699">
        <ele>241.81</ele>
        <time>2025-01-03T16:17:49.292Z</time>
      </trkpt>
      <trkpt lat="48.32031" lon="4.94676">
        <ele>241.4</ele>
        <time>2025-01-03T16:17:51.637Z</time>
      </trkpt>
      <trkpt lat="48.32053" lon="4.94656">
        <ele>240.97</ele>
        <time>2025-01-03T16:17:53.987Z</time>
      </trkpt>
      <trkpt lat="48.32075" lon="4.94637">
        <ele>240.67</ele>
        <time>2025-01-03T16:17:56.341Z</time>
      </trkpt>
      <trkpt lat="48.321" lon="4.94628">
        <ele>240.43</ele>
        <time>2025-01-03T16:17:58.699Z</time>
      </trkpt>
      <trkpt lat="48.32125" lon="4.94619">
        <ele>240.07</ele>
        <time>2025-01-03T16:18:01.061Z</time>
      </trkpt>
      <trkpt lat="48.3215" lon="4.94619">
        <ele>239.77</ele>
        <time>2025-01-03T16:18:03.427Z</time>
      </trkpt>
      <trkpt lat="48.32158" lon="4.9462">
        <ele>239.5</ele>
        <time>2025-01-03T16:18:05.794Z</time>
      </trkpt>
      <trkpt lat="48.32176" lon="4.94626">
        <ele>239.27</ele>
        <time>2025-01-03T16:18:08.164Z</time>
      </trkpt>
      <trkpt lat="48.32193" lon="4.94632">
        <ele>239.08</ele>
        <time>2025-01-03T16:18:10.537Z</time>
      </trkpt>
      <trkpt lat="48.32219" lon="4.9464">
        <ele>238.86</ele>
        <time>2025-01-03T16:18:12.914Z</time>
      </trkpt>
      <trkpt lat="48.32244" lon="4.94649">
        <ele>238.53</ele>
        <time>2025-01-03T16:18:15.295Z</time>
      </trkpt>
      <trkpt lat="48.32266" lon="4.94653">
        <ele>238.26</ele>
        <time>2025-01-03T16:18:17.680Z</time>
      </trkpt>
      <trkpt lat="48.32289" lon="4.94658">
        <ele>238.04</ele>
        <time>2025-01-03T16:18:20.069Z</time>
      </trkpt>
      <trkpt lat="48.32306" lon="4.94656">
        <ele>237.85</ele>
        <time>2025-01-03T16:18:22.460Z</time>
      </trkpt>
      <trkpt lat="48.32324" lon="4.94652">
        <ele>237.74</ele>
        <time>2025-01-03T16:18:24.854Z</time>
      </trkpt>
      <trkpt lat="48.32345" lon="4.94637">
        <ele>237.7</ele>
        <time>2025-01-03T16:18:27.252Z</time>
      </trkpt>
      <trkpt lat="48.32365" lon="4.94622">
        <ele>237.69</ele>
        <time>2025-01-03T16:18:29.654Z</time>
      </trkpt>
      <trkpt lat="48.32392" lon="4.94599">
        <ele>237.68</ele>
        <time>2025-01-03T16:18:32.061Z</time>
      </trkpt>
      <trkpt lat="48.32418" lon="4.94576">
        <ele>237.76</ele>
        <time>2025-01-03T16:18:34.472Z</time>
      </trkpt>
      <trkpt lat="48.3244" lon="4.94558">
        <ele>237.84</ele>
        <time>2025-01-03T16:18:36.887Z</time>
      </trkpt>
      <trkpt lat="48.32461" lon="4.94529">
        <ele>237.85</ele>
        <time>2025-01-03T16:18:39.307Z</time>
      </trkpt>
      <trkpt lat="48.32466" lon="4.94522">
        <ele>237.89</ele>
        <time>2025-01-03T16:18:41.728Z</time>
      </trkpt>
      <trkpt lat="48.32479" lon="4.94503">
        <ele>238.02</ele>
        <time>2025-01-03T16:18:44.152Z</time>
      </trkpt>
      <trkpt lat="48.32492" lon="4.94483">
        <ele>238.19</ele>
        <time>2025-01-03T16:18:46.579Z</time>
      </trkpt>
      <trkpt lat="48.32505" lon="4.94465">
        <ele>238.26</ele>
        <time>2025-01-03T16:18:49.009Z</time>
      </trkpt>
      <trkpt lat="48.32518" lon="4.94447">
        <ele>238.31</ele>
        <time>2025-01-03T16:18:51.442Z</time>
      </trkpt>
      <trkpt lat="48.32524" lon="4.94439">
        <ele>238.31</ele>
        <time>2025-01-03T16:18:53.876Z</time>
      </trkpt>
      <trkpt lat="48.32546" lon="4.94411">
        <ele>238.23</ele>
        <time>2025-01-03T16:18:56.315Z</time>
      </trkpt>
      <trkpt lat="48.32567" lon="4.944">
        <ele>238.29</ele>
        <time>2025-01-03T16:18:58.757Z</time>
      </trkpt>
      <trkpt lat="48.32588" lon="4.9439">
        <ele>238.31</ele>
        <time>2025-01-03T16:19:01.203Z</time>
      </trkpt>
      <trkpt lat="48.32613" lon="4.94383">
        <ele>238.27</ele>
        <time>2025-01-03T16:19:03.653Z</time>
      </trkpt>
      <trkpt lat="48.32639" lon="4.94376">
        <ele>238.26</ele>
        <time>2025-01-03T16:19:06.107Z</time>
      </trkpt>
      <trkpt lat="48.32651" lon="4.94374">
        <ele>238.24</ele>
        <time>2025-01-03T16:19:08.563Z</time>
      </trkpt>
      <trkpt lat="48.32653" lon="4.94374">
        <ele>238.2</ele>
        <time>2025-01-03T16:19:11.019Z</time>
      </trkpt>
      <trkpt lat="48.32651" lon="4.94374">
        <ele>238.16</ele>
        <time>2025-01-03T16:19:13.475Z</time>
      </trkpt>
      <trkpt lat="48.32645" lon="4.94375">
        <ele>238.11</ele>
        <time>2025-01-03T16:19:15.932Z</time>
      </trkpt>
      <trkpt lat="48.32644" lon="4.94375">
        <ele>238.04</ele>
        <time>2025-01-03T16:19:18.390Z</time>
      </trkpt>
      <trkpt lat="48.32641" lon="4.94377">
        <ele>237.97</ele>
        <time>2025-01-03T16:19:20.848Z</time>
      </trkpt>
      <trkpt lat="48.32642" lon="4.94375">
        <ele>237.86</ele>
        <time>2025-01-03T16:19:23.306Z</time>
      </trkpt>
      <trkpt lat="48.32647" lon="4.94375">
        <ele>237.74</ele>
        <time>2025-01-03T16:19:25.765Z</time>
      </trkpt>
      <trkpt lat="48.32654" lon="4.94374">
        <ele>237.61</ele>
        <time>2025-01-03T16:19:28.225Z</time>
      </trkpt>
      <trkpt lat="48.32668" lon="4.94373">
        <ele>237.48</ele>
        <time>2025-01-03T16:19:30.687Z</time>
      </trkpt>
      <trkpt lat="48.32684" lon="4.94371">
        <ele>237.35</ele>
        <time>2025-01-03T16:19:33.152Z</time>
      </trkpt>
      <trkpt lat="48.327" lon="4.94369">
        <ele>237.17</ele>
        <time>2025-01-03T16:19:35.620Z</time>
      </trkpt>
      <trkpt lat="48.32724" lon="4.94367">
        <ele>236.95</ele>
        <time>2025-01-03T16:19:38.091Z</time>
      </trkpt>
      <trkpt lat="48.32747" lon="4.94364">
        <ele>236.73</ele>
        <time>2025-01-03T16:19:40.566Z</time>
      </trkpt>
      <trkpt lat="48.32765" lon="4.94362">
        <ele>236.51</ele>
        <time>2025-01-03T16:19:43.044Z</time>
      </trkpt>
      <trkpt lat="48.32783" lon="4.9436">
        <ele>236.32</ele>
        <time>2025-01-03T16:19:45.525Z</time>
      </trkpt>
      <trkpt lat="48.32801" lon="4.94358">
        <ele>236.08</ele>
        <time>2025-01-03T16:19:48.009Z</time>
      </trkpt>
      <trkpt lat="48.32818" lon="4.94356">
        <ele>235.9</ele>
        <time>2025-01-03T16:19:50.495Z</time>
      </trkpt>
      <trkpt lat="48.32844" lon="4.94352">
        <ele>235.8</ele>
        <time>2025-01-03T16:19:52.986Z</time>
      </trkpt>
      <trkpt lat="48.32869" lon="4.94347">
        <ele>235.68</ele>
        <time>2025-01-03T16:19:55.481Z</time>
      </trkpt>
      <trkpt lat="48.32896" lon="4.94342">
        <ele>235.55</ele>
        <time>2025-01-03T16:19:57.980Z</time>
      </trkpt>
      <trkpt lat="48.32923" lon="4.94336">
        <ele>235.42</ele>
        <time>2025-01-03T16:20:00.483Z</time>
      </trkpt>
      <trkpt lat="48.3293" lon="4.94335">
        <ele>235.27</ele>
        <time>2025-01-03T16:20:02.987Z</time>
      </trkpt>
      <trkpt lat="48.32955" lon="4.9433">
        <ele>235.11</ele>
        <time>2025-01-03T16:20:05.496Z</time>
      </trkpt>
      <trkpt lat="48.32981" lon="4.94324">
        <ele>234.99</ele>
        <time>2025-01-03T16:20:08.009Z</time>
      </trkpt>
      <trkpt lat="48.33005" lon="4.94319">
        <ele>234.85</ele>
        <time>2025-01-03T16:20:10.526Z</time>
      </trkpt>
      <trkpt lat="48.33029" lon="4.94314">
        <ele>234.62</ele>
        <time>2025-01-03T16:20:13.046Z</time>
      </trkpt>
      <trkpt lat="48.33055" lon="4.94309">
        <ele>234.29</ele>
        <time>2025-01-03T16:20:15.571Z</time>
      </trkpt>
      <trkpt lat="48.33082" lon="4.94304">
        <ele>234.1</ele>
        <time>2025-01-03T16:20:18.100Z</time>
      </trkpt>
      <trkpt lat="48.33099" lon="4.94299">
        <ele>234.03</ele>
        <time>2025-01-03T16:20:20.632Z</time>
      </trkpt>
      <trkpt lat="48.33117" lon="4.94295">
        <ele>233.98</ele>
        <time>2025-01-03T16:20:23.167Z</time>
      </trkpt>
      <trkpt lat="48.33131" lon="4.94278">
        <ele>233.92</ele>
        <time>2025-01-03T16:20:25.705Z</time>
      </trkpt>
      <trkpt lat="48.33142" lon="4.94265">
        <ele>233.87</ele>
        <time>2025-01-03T16:20:28.245Z</time>
      </trkpt>
      <trkpt lat="48.33162" lon="4.94238">
        <ele>233.83</ele>
        <time>2025-01-03T16:20:30.789Z</time>
      </trkpt>
      <trkpt lat="48.33182" lon="4.94211">
        <ele>233.8</ele>
        <time>2025-01-03T16:20:33.337Z</time>
      </trkpt>
      <trkpt lat="48.33202" lon="4.94181">
        <ele>233.78</ele>
        <time>2025-01-03T16:20:35.890Z</time>
      </trkpt>
      <trkpt lat="48.33223" lon="4.94151">
        <ele>233.82</ele>
        <time>2025-01-03T16:20:38.448Z</time>
      </trkpt>
      <trkpt lat="48.33235" lon="4.94139">
        <ele>233.93</ele>
        <time>2025-01-03T16:20:41.008Z</time>
      </trkpt>
      <trkpt lat="48.33253" lon="4.94123">
        <ele>234.07</ele>
        <time>2025-01-03T16:20:43.571Z</time>
      </trkpt>
      <trkpt lat="48.33278" lon="4.941">
        <ele>234.24</ele>
        <time>2025-01-03T16:20:46.139Z</time>
      </trkpt>
      <trkpt lat="48.33302" lon="4.94077">
        <ele>234.51</ele>
        <time>2025-01-03T16:20:48.711Z</time>
      </trkpt>
      <trkpt lat="48.33307" lon="4.9407">
        <ele>234.74</ele>
        <time>2025-01-03T16:20:51.285Z</time>
      </trkpt>
      <trkpt lat="48.33322" lon="4.94053">
        <ele>235.02</ele>
        <time>2025-01-03T16:20:53.862Z</time>
      </trkpt>
      <trkpt lat="48.33336" lon="4.94036">
        <ele>235.29</ele>
        <time>2025-01-03T16:20:56.442Z</time>
      </trkpt>
      <trkpt lat="48.33354" lon="4.94013">
        <ele>235.6</ele>
        <time>2025-01-03T16:20:59.025Z</time>
      </trkpt>
      <trkpt lat="48.3336" lon="4.93999">
        <ele>235.87</ele>
        <time>2025-01-03T16:21:01.610Z</time>
      </trkpt>
      <trkpt lat="48.33368" lon="4.93956">
        <ele>236.23</ele>
        <time>2025-01-03T16:21:04.200Z</time>
      </trkpt>
      <trkpt lat="48.33374" lon="4.93926">
        <ele>236.44</ele>
        <time>2025-01-03T16:21:06.793Z</time>
      </trkpt>
      <trkpt lat="48.3338" lon="4.93897">
        <ele>236.55</ele>
        <time>2025-01-03T16:21:09.389Z</time>
      </trkpt>
      <trkpt lat="48.33387" lon="4.93866">
        <ele>236.64</ele>
        <time>2025-01-03T16:21:11.989Z</time>
      </trkpt>
      <trkpt lat="48.33394" lon="4.93835">
        <ele>236.87</ele>
        <time>2025-01-03T16:21:14.592Z</time>
      </trkpt>
      <trkpt lat="48.33403" lon="4.93796">
        <ele>237.17</ele>
        <time>2025-01-03T16:21:17.200Z</time>
      </trkpt>
      <trkpt lat="48.33412" lon="4.93758">
        <ele>237.33</ele>
        <time>2025-01-03T16:21:19.812Z</time>
      </trkpt>
      <trkpt lat="48.33417" lon="4.93727">
        <ele>237.4</ele>
        <time>2025-01-03T16:21:22.427Z</time>
      </trkpt>
      <trkpt lat="48.33422" lon="4.93697">
        <ele>237.5</ele>
        <time>2025-01-03T16:21:25.046Z</time>
      </trkpt>
      <trkpt lat="48.33422" lon="4.93671">
        <ele>237.54</ele>
        <time>2025-01-03T16:21:27.668Z</time>
      </trkpt>
      <trkpt lat="48.33422" lon="4.93671">
        <ele>237.51</ele>
        <time>2025-01-03T16:21:30.290Z</time>
      </trkpt>
      <trkpt lat="48.33422" lon="4.93671">
        <ele>237.45</ele>
        <time>2025-01-03T16:21:32.912Z</time>
      </trkpt>
      <trkpt lat="48.33423" lon="4.93645">
        <ele>237.36</ele>
        <time>2025-01-03T16:21:35.536Z</time>
      </trkpt>
      <trkpt lat="48.33421" lon="4.93615">
        <ele>237.2</ele>
        <time>2025-01-03T16:21:38.164Z</time>
      </trkpt>
      <trkpt lat="48.33419" lon="4.93584">
        <ele>236.98</ele>
        <time>2025-01-03T16:21:40.795Z</time>
      </trkpt>
      <trkpt lat="48.33418" lon="4.93554">
        <ele>236.72</ele>
        <time>2025-01-03T16:21:43.429Z</time>
      </trkpt>
      <trkpt lat="48.33418" lon="4.93523">
        <ele>236.43</ele>
        <time>2025-01-03T16:21:46.066Z</time>
      </trkpt>
      <trkpt lat="48.33422" lon="4.93499">
        <ele>236.14</ele>
        <time>2025-01-03T16:21:48.706Z</time>
      </trkpt>
      <trkpt lat="48.33426" lon="4.93475">
        <ele>235.84</ele>
        <time>2025-01-03T16:21:51.349Z</time>
      </trkpt>
      <trkpt lat="48.33429" lon="4.93466">
        <ele>235.56</ele>
        <time>2025-01-03T16:21:53.993Z</time>
      </trkpt>
      <trkpt lat="48.3344" lon="4.93444">
        <ele>235.27</ele>
        <time>2025-01-03T16:21:56.640Z</time>
      </trkpt>
      <trkpt lat="48.3345" lon="4.93422">
        <ele>234.88</ele>
        <time>2025-01-03T16:21:59.290Z</time>
      </trkpt>
      <trkpt lat="48.33475" lon="4.93393">
        <ele>234.47</ele>
        <time>2025-01-03T16:22:01.945Z</time>
      </trkpt>
      <trkpt lat="48.33492" lon="4.93382">
        <ele>234.18</ele>
        <time>2025-01-03T16:22:04.603Z</time>
      </trkpt>
      <trkpt lat="48.33509" lon="4.93371">
        <ele>233.91</ele>
        <time>2025-01-03T16:22:07.263Z</time>
      </trkpt>
      <trkpt lat="48.33532" lon="4.9337">
        <ele>233.72</ele>
        <time>2025-01-03T16:22:09.927Z</time>
      </trkpt>
      <trkpt lat="48.33556" lon="4.9337">
        <ele>233.51</ele>
        <time>2025-01-03T16:22:12.595Z</time>
      </trkpt>
      <trkpt lat="48.33584" lon="4.93365">
        <ele>233.26</ele>
        <time>2025-01-03T16:22:15.268Z</time>
      </trkpt>
      <trkpt lat="48.33613" lon="4.9336">
        <ele>233.04</ele>
        <time>2025-01-03T16:22:17.945Z</time>
      </trkpt>
      <trkpt lat="48.33643" lon="4.9335">
        <ele>232.81</ele>
        <time>2025-01-03T16:22:20.627Z</time>
      </trkpt>
      <trkpt lat="48.33672" lon="4.93339">
        <ele>232.64</ele>
        <time>2025-01-03T16:22:23.314Z</time>
      </trkpt>
      <trkpt lat="48.3368" lon="4.93336">
        <ele>232.51</ele>
        <time>2025-01-03T16:22:26.002Z</time>
      </trkpt>
      <trkpt lat="48.33709" lon="4.93325">
        <ele>232.38</ele>
        <time>2025-01-03T16:22:28.695Z</time>
      </trkpt>
      <trkpt lat="48.33739" lon="4.93315">
        <ele>232.23</ele>
        <time>2025-01-03T16:22:31.393Z</time>
      </trkpt>
      <trkpt lat="48.33764" lon="4.93305">
        <ele>232.15</ele>
        <time>2025-01-03T16:22:34.095Z</time>
      </trkpt>
      <trkpt lat="48.33794" lon="4.93295">
        <ele>232.2</ele>
        <time>2025-01-03T16:22:36.802Z</time>
      </trkpt>
      <trkpt lat="48.33823" lon="4.93285">
        <ele>232.25</ele>
        <time>2025-01-03T16:22:39.514Z</time>
      </trkpt>
      <trkpt lat="48.33831" lon="4.93283">
        <ele>232.23</ele>
        <time>2025-01-03T16:22:42.227Z</time>
      </trkpt>
      <trkpt lat="48.3386" lon="4.93277">
        <ele>232.2</ele>
        <time>2025-01-03T16:22:44.945Z</time>
      </trkpt>
      <trkpt lat="48.33889" lon="4.9327">
        <ele>232.28</ele>
        <time>2025-01-03T16:22:47.668Z</time>
      </trkpt>
      <trkpt lat="48.3392" lon="4.93269">
        <ele>232.31</ele>
        <time>2025-01-03T16:22:50.396Z</time>
      </trkpt>
      <trkpt lat="48.33952" lon="4.93268">
        <ele>232.33</ele>
        <time>2025-01-03T16:22:53.129Z</time>
      </trkpt>
      <trkpt lat="48.33982" lon="4.93264">
        <ele>232.26</ele>
        <time>2025-01-03T16:22:55.866Z</time>
      </trkpt>
      <trkpt lat="48.34012" lon="4.93261">
        <ele>232.24</ele>
        <time>2025-01-03T16:22:58.608Z</time>
      </trkpt>
      <trkpt lat="48.3402" lon="4.93259">
        <ele>232.25</ele>
        <time>2025-01-03T16:23:01.352Z</time>
      </trkpt>
      <trkpt lat="48.34039" lon="4.93247">
        <ele>232.31</ele>
        <time>2025-01-03T16:23:04.099Z</time>
      </trkpt>
      <trkpt lat="48.34059" lon="4.93235">
        <ele>232.32</ele>
        <time>2025-01-03T16:23:06.849Z</time>
      </trkpt>
      <trkpt lat="48.34086" lon="4.93214">
        <ele>232.33</ele>
        <time>2025-01-03T16:23:09.604Z</time>
      </trkpt>
      <trkpt lat="48.34114" lon="4.93193">
        <ele>232.35</ele>
        <time>2025-01-03T16:23:12.364Z</time>
      </trkpt>
      <trkpt lat="48.3414" lon="4.93174">
        <ele>232.45</ele>
        <time>2025-01-03T16:23:15.129Z</time>
      </trkpt>
      <trkpt lat="48.34165" lon="4.93154">
        <ele>232.52</ele>
        <time>2025-01-03T16:23:17.898Z</time>
      </trkpt>
      <trkpt lat="48.34172" lon="4.93148">
        <ele>232.56</ele>
        <time>2025-01-03T16:23:20.669Z</time>
      </trkpt>
      <trkpt lat="48.34197" lon="4.9313">
        <ele>232.64</ele>
        <time>2025-01-03T16:23:23.444Z</time>
      </trkpt>
      <trkpt lat="48.34221" lon="4.93111">
        <ele>232.64</ele>
        <time>2025-01-03T16:23:26.223Z</time>
      </trkpt>
      <trkpt lat="48.34229" lon="4.93104">
        <ele>232.56</ele>
        <time>2025-01-03T16:23:29.004Z</time>
      </trkpt>
      <trkpt lat="48.34253" lon="4.9308">
        <ele>232.36</ele>
        <time>2025-01-03T16:23:31.790Z</time>
      </trkpt>
      <trkpt lat="48.34278" lon="4.93056">
        <ele>232.15</ele>
        <time>2025-01-03T16:23:34.580Z</time>
      </trkpt>
      <trkpt lat="48.34293" lon="4.93042">
        <ele>232.04</ele>
        <time>2025-01-03T16:23:37.373Z</time>
      </trkpt>
      <trkpt lat="48.34319" lon="4.93016">
        <ele>231.92</ele>
        <time>2025-01-03T16:23:40.171Z</time>
      </trkpt>
      <trkpt lat="48.34345" lon="4.92991">
        <ele>231.81</ele>
        <time>2025-01-03T16:23:42.974Z</time>
      </trkpt>
      <trkpt lat="48.34368" lon="4.92968">
        <ele>231.73</ele>
        <time>2025-01-03T16:23:45.781Z</time>
      </trkpt>
      <trkpt lat="48.34391" lon="4.92946">
        <ele>231.69</ele>
        <time>2025-01-03T16:23:48.593Z</time>
      </trkpt>
      <trkpt lat="48.34399" lon="4.92938">
        <ele>231.59</ele>
        <time>2025-01-03T16:23:51.406Z</time>
      </trkpt>
      <trkpt lat="48.3442" lon="4.92913">
        <ele>231.45</ele>
        <time>2025-01-03T16:23:54.224Z</time>
      </trkpt>
      <trkpt lat="48.34441" lon="4.92888">
        <ele>231.29</ele>
        <time>2025-01-03T16:23:57.046Z</time>
      </trkpt>
      <trkpt lat="48.34449" lon="4.92879">
        <ele>231.2</ele>
        <time>2025-01-03T16:23:59.870Z</time>
      </trkpt>
      <trkpt lat="48.3447" lon="4.92854">
        <ele>231.16</ele>
        <time>2025-01-03T16:24:02.698Z</time>
      </trkpt>
      <trkpt lat="48.34492" lon="4.92828">
        <ele>231.1</ele>
        <time>2025-01-03T16:24:05.530Z</time>
      </trkpt>
      <trkpt lat="48.34506" lon="4.92811">
        <ele>231</ele>
        <time>2025-01-03T16:24:08.365Z</time>
      </trkpt>
      <trkpt lat="48.34526" lon="4.92784">
        <ele>230.76</ele>
        <time>2025-01-03T16:24:11.205Z</time>
      </trkpt>
      <trkpt lat="48.34546" lon="4.92756">
        <ele>230.55</ele>
        <time>2025-01-03T16:24:14.049Z</time>
      </trkpt>
      <trkpt lat="48.34553" lon="4.92747">
        <ele>230.42</ele>
        <time>2025-01-03T16:24:16.894Z</time>
      </trkpt>
      <trkpt lat="48.34572" lon="4.92718">
        <ele>230.37</ele>
        <time>2025-01-03T16:24:19.744Z</time>
      </trkpt>
      <trkpt lat="48.34591" lon="4.9269">
        <ele>230.26</ele>
        <time>2025-01-03T16:24:22.598Z</time>
      </trkpt>
      <trkpt lat="48.34604" lon="4.92673">
        <ele>230.16</ele>
        <time>2025-01-03T16:24:25.455Z</time>
      </trkpt>
      <trkpt lat="48.34625" lon="4.92642">
        <ele>230.01</ele>
        <time>2025-01-03T16:24:28.317Z</time>
      </trkpt>
      <trkpt lat="48.34646" lon="4.92611">
        <ele>229.86</ele>
        <time>2025-01-03T16:24:31.183Z</time>
      </trkpt>
      <trkpt lat="48.34667" lon="4.9258">
        <ele>229.73</ele>
        <time>2025-01-03T16:24:34.054Z</time>
      </trkpt>
      <trkpt lat="48.34688" lon="4.9255">
        <ele>229.58</ele>
        <time>2025-01-03T16:24:36.930Z</time>
      </trkpt>
      <trkpt lat="48.34694" lon="4.92541">
        <ele>229.35</ele>
        <time>2025-01-03T16:24:39.807Z</time>
      </trkpt>
      <trkpt lat="48.34716" lon="4.92512">
        <ele>229.06</ele>
        <time>2025-01-03T16:24:42.689Z</time>
      </trkpt>
      <trkpt lat="48.34737" lon="4.92483">
        <ele>228.77</ele>
        <time>2025-01-03T16:24:45.575Z</time>
      </trkpt>
      <trkpt lat="48.34743" lon="4.92475">
        <ele>228.54</ele>
        <time>2025-01-03T16:24:48.462Z</time>
      </trkpt>
      <trkpt lat="48.34765" lon="4.92447">
        <ele>228.25</ele>
        <time>2025-01-03T16:24:51.354Z</time>
      </trkpt>
      <trkpt lat="48.34786" lon="4.92419">
        <ele>227.96</ele>
        <time>2025-01-03T16:24:54.251Z</time>
      </trkpt>
      <trkpt lat="48.34798" lon="4.92403">
        <ele>227.64</ele>
        <time>2025-01-03T16:24:57.150Z</time>
      </trkpt>
      <trkpt lat="48.34818" lon="4.92377">
        <ele>227.43</ele>
        <time>2025-01-03T16:25:00.053Z</time>
      </trkpt>
      <trkpt lat="48.34839" lon="4.9235">
        <ele>227.16</ele>
        <time>2025-01-03T16:25:02.961Z</time>
      </trkpt>
      <trkpt lat="48.34845" lon="4.92342">
        <ele>226.94</ele>
        <time>2025-01-03T16:25:05.870Z</time>
      </trkpt>
      <trkpt lat="48.34867" lon="4.9232">
        <ele>226.69</ele>
        <time>2025-01-03T16:25:08.783Z</time>
      </trkpt>
      <trkpt lat="48.3489" lon="4.92297">
        <ele>226.46</ele>
        <time>2025-01-03T16:25:11.701Z</time>
      </trkpt>
      <trkpt lat="48.34896" lon="4.92291">
        <ele>226.21</ele>
        <time>2025-01-03T16:25:14.620Z</time>
      </trkpt>
      <trkpt lat="48.34919" lon="4.92273">
        <ele>226.01</ele>
        <time>2025-01-03T16:25:17.543Z</time>
      </trkpt>
      <trkpt lat="48.34941" lon="4.92254">
        <ele>225.83</ele>
        <time>2025-01-03T16:25:20.470Z</time>
      </trkpt>
      <trkpt lat="48.34965" lon="4.92245">
        <ele>225.74</ele>
        <time>2025-01-03T16:25:23.401Z</time>
      </trkpt>
      <trkpt lat="48.34989" lon="4.92235">
        <ele>225.44</ele>
        <time>2025-01-03T16:25:26.336Z</time>
      </trkpt>
      <trkpt lat="48.35011" lon="4.92231">
        <ele>225.22</ele>
        <time>2025-01-03T16:25:29.275Z</time>
      </trkpt>
      <trkpt lat="48.35033" lon="4.92227">
        <ele>225.03</ele>
        <time>2025-01-03T16:25:32.217Z</time>
      </trkpt>
      <trkpt lat="48.35052" lon="4.92223">
        <ele>224.85</ele>
        <time>2025-01-03T16:25:35.162Z</time>
      </trkpt>
      <trkpt lat="48.35069" lon="4.9222">
        <ele>224.66</ele>
        <time>2025-01-03T16:25:38.110Z</time>
      </trkpt>
      <trkpt lat="48.35095" lon="4.92215">
        <ele>224.47</ele>
        <time>2025-01-03T16:25:41.062Z</time>
      </trkpt>
      <trkpt lat="48.35114" lon="4.92212">
        <ele>224.24</ele>
        <time>2025-01-03T16:25:44.017Z</time>
      </trkpt>
      <trkpt lat="48.35134" lon="4.92208">
        <ele>224</ele>
        <time>2025-01-03T16:25:46.975Z</time>
      </trkpt>
      <trkpt lat="48.35139" lon="4.92206">
        <ele>223.76</ele>
        <time>2025-01-03T16:25:49.934Z</time>
      </trkpt>
      <trkpt lat="48.35154" lon="4.92197">
        <ele>223.51</ele>
        <time>2025-01-03T16:25:52.896Z</time>
      </trkpt>
      <trkpt lat="48.35169" lon="4.92189">
        <ele>223.23</ele>
        <time>2025-01-03T16:25:55.860Z</time>
      </trkpt>
      <trkpt lat="48.35183" lon="4.92176">
        <ele>222.95</ele>
        <time>2025-01-03T16:25:58.827Z</time>
      </trkpt>
      <trkpt lat="48.35198" lon="4.92163">
        <ele>222.65</ele>
        <time>2025-01-03T16:26:01.797Z</time>
      </trkpt>
      <trkpt lat="48.35214" lon="4.92146">
        <ele>222.35</ele>
        <time>2025-01-03T16:26:04.770Z</time>
      </trkpt>
      <trkpt lat="48.3523" lon="4.92129">
        <ele>222.04</ele>
        <time>2025-01-03T16:26:07.746Z</time>
      </trkpt>
      <trkpt lat="48.35236" lon="4.92124">
        <ele>221.76</ele>
        <time>2025-01-03T16:26:10.723Z</time>
      </trkpt>
      <trkpt lat="48.35253" lon="4.92116">
        <ele>221.48</ele>
        <time>2025-01-03T16:26:13.703Z</time>
      </trkpt>
      <trkpt lat="48.35262" lon="4.92112">
        <ele>221.17</ele>
        <time>2025-01-03T16:26:16.685Z</time>
      </trkpt>
      <trkpt lat="48.35265" lon="4.92104">
        <ele>220.86</ele>
        <time>2025-01-03T16:26:19.668Z</time>
      </trkpt>
      <trkpt lat="48.35265" lon="4.92085">
        <ele>220.53</ele>
        <time>2025-01-03T16:26:22.653Z</time>
      </trkpt>
      <trkpt lat="48.35265" lon="4.92077">
        <ele>220.2</ele>
        <time>2025-01-03T16:26:25.638Z</time>
      </trkpt>
      <trkpt lat="48.35265" lon="4.92051">
        <ele>219.84</ele>
        <time>2025-01-03T16:26:28.626Z</time>
      </trkpt>
      <trkpt lat="48.35264" lon="4.92025">
        <ele>219.47</ele>
        <time>2025-01-03T16:26:31.617Z</time>
      </trkpt>
      <trkpt lat="48.35263" lon="4.92006">
        <ele>219.12</ele>
        <time>2025-01-03T16:26:34.610Z</time>
      </trkpt>
      <trkpt lat="48.35255" lon="4.91988">
        <ele>218.75</ele>
        <time>2025-01-03T16:26:37.605Z</time>
      </trkpt>
      <trkpt lat="48.35249" lon="4.91968">
        <ele>218.44</ele>
        <time>2025-01-03T16:26:40.603Z</time>
      </trkpt>
      <trkpt lat="48.35241" lon="4.91939">
        <ele>218.21</ele>
        <time>2025-01-03T16:26:43.604Z</time>
      </trkpt>
      <trkpt lat="48.35234" lon="4.91917">
        <ele>217.98</ele>
        <time>2025-01-03T16:26:46.608Z</time>
      </trkpt>
      <trkpt lat="48.35228" lon="4.91894">
        <ele>217.75</ele>
        <time>2025-01-03T16:26:49.614Z</time>
      </trkpt>
      <trkpt lat="48.35224" lon="4.91882">
        <ele>217.54</ele>
        <time>2025-01-03T16:26:52.622Z</time>
      </trkpt>
      <trkpt lat="48.35224" lon="4.9188">
        <ele>217.36</ele>
        <time>2025-01-03T16:26:55.630Z</time>
      </trkpt>
      <trkpt lat="48.35225" lon="4.91886">
        <ele>217.19</ele>
        <time>2025-01-03T16:26:58.638Z</time>
      </trkpt>
      <trkpt lat="48.35231" lon="4.91905">
        <ele>217.05</ele>
        <time>2025-01-03T16:27:01.649Z</time>
      </trkpt>
      <trkpt lat="48.35232" lon="4.9191">
        <ele>216.94</ele>
        <time>2025-01-03T16:27:04.660Z</time>
      </trkpt>
      <trkpt lat="48.35233" lon="4.91911">
        <ele>216.84</ele>
        <time>2025-01-03T16:27:07.671Z</time>
      </trkpt>
      <trkpt lat="48.35235" lon="4.91912">
        <ele>216.78</ele>
        <time>2025-01-03T16:27:10.683Z</time>
      </trkpt>
      <trkpt lat="48.35232" lon="4.91908">
        <ele>216.73</ele>
        <time>2025-01-03T16:27:13.695Z</time>
      </trkpt>
      <trkpt lat="48.3523" lon="4.91902">
        <ele>216.72</ele>
        <time>2025-01-03T16:27:16.708Z</time>
      </trkpt>
      <trkpt lat="48.35223" lon="4.91878">
        <ele>216.73</ele>
        <time>2025-01-03T16:27:19.724Z</time>
      </trkpt>
      <trkpt lat="48.35214" lon="4.9184">
        <ele>216.72</ele>
        <time>2025-01-03T16:27:22.744Z</time>
      </trkpt>
      <trkpt lat="48.35212" lon="4.91816">
        <ele>216.75</ele>
        <time>2025-01-03T16:27:25.767Z</time>
      </trkpt>
      <trkpt lat="48.35209" lon="4.91792">
        <ele>216.82</ele>
        <time>2025-01-03T16:27:28.792Z</time>
      </trkpt>
      <trkpt lat="48.35206" lon="4.91766">
        <ele>216.92</ele>
        <time>2025-01-03T16:27:31.820Z</time>
      </trkpt>
      <trkpt lat="48.35203" lon="4.9174">
        <ele>217.05</ele>
        <time>2025-01-03T16:27:34.851Z</time>
      </trkpt>
      <trkpt lat="48.35201" lon="4.91715">
        <ele>217.23</ele>
        <time>2025-01-03T16:27:37.885Z</time>
      </trkpt>
      <trkpt lat="48.352" lon="4.9169">
        <ele>217.47</ele>
        <time>2025-01-03T16:27:40.921Z</time>
      </trkpt>
      <trkpt lat="48.35202" lon="4.91676">
        <ele>217.73</ele>
        <time>2025-01-03T16:27:43.959Z</time>
      </trkpt>
      <trkpt lat="48.35204" lon="4.91661">
        <ele>218.05</ele>
        <time>2025-01-03T16:27:46.998Z</time>
      </trkpt>
      <trkpt lat="48.35207" lon="4.91653">
        <ele>218.33</ele>
        <time>2025-01-03T16:27:50.038Z</time>
      </trkpt>
      <trkpt lat="48.3521" lon="4.91645">
        <ele>218.64</ele>
        <time>2025-01-03T16:27:53.079Z</time>
      </trkpt>
      <trkpt lat="48.3522" lon="4.91633">
        <ele>218.93</ele>
        <time>2025-01-03T16:27:56.122Z</time>
      </trkpt>
      <trkpt lat="48.35225" lon="4.91629">
        <ele>219.21</ele>
        <time>2025-01-03T16:27:59.166Z</time>
      </trkpt>
      <trkpt lat="48.35241" lon="4.91616">
        <ele>219.51</ele>
        <time>2025-01-03T16:28:02.213Z</time>
      </trkpt>
      <trkpt lat="48.35257" lon="4.91603">
        <ele>219.73</ele>
        <time>2025-01-03T16:28:05.263Z</time>
      </trkpt>
      <trkpt lat="48.35276" lon="4.91584">
        <ele>220</ele>
        <time>2025-01-03T16:28:08.317Z</time>
      </trkpt>
      <trkpt lat="48.3528" lon="4.91583">
        <ele>220.26</ele>
        <time>2025-01-03T16:28:11.371Z</time>
      </trkpt>
      <trkpt lat="48.35283" lon="4.91581">
        <ele>220.51</ele>
        <time>2025-01-03T16:28:14.426Z</time>
      </trkpt>
      <trkpt lat="48.35304" lon="4.91572">
        <ele>220.78</ele>
        <time>2025-01-03T16:28:17.484Z</time>
      </trkpt>
      <trkpt lat="48.35324" lon="4.91566">
        <ele>221</ele>
        <time>2025-01-03T16:28:20.546Z</time>
      </trkpt>
      <trkpt lat="48.35345" lon="4.9156">
        <ele>221.17</ele>
        <time>2025-01-03T16:28:23.611Z</time>
      </trkpt>
      <trkpt lat="48.3537" lon="4.91551">
        <ele>221.37</ele>
        <time>2025-01-03T16:28:26.680Z</time>
      </trkpt>
      <trkpt lat="48.35396" lon="4.91541">
        <ele>221.64</ele>
        <time>2025-01-03T16:28:29.754Z</time>
      </trkpt>
      <trkpt lat="48.3542" lon="4.9153">
        <ele>221.88</ele>
        <time>2025-01-03T16:28:32.832Z</time>
      </trkpt>
      <trkpt lat="48.35445" lon="4.9152">
        <ele>222.02</ele>
        <time>2025-01-03T16:28:35.914Z</time>
      </trkpt>
      <trkpt lat="48.35462" lon="4.91513">
        <ele>222.07</ele>
        <time>2025-01-03T16:28:38.999Z</time>
      </trkpt>
      <trkpt lat="48.35479" lon="4.91505">
        <ele>222.09</ele>
        <time>2025-01-03T16:28:42.086Z</time>
      </trkpt>
      <trkpt lat="48.35485" lon="4.91503">
        <ele>222.1</ele>
        <time>2025-01-03T16:28:45.174Z</time>
      </trkpt>
      <trkpt lat="48.35513" lon="4.91505">
        <ele>222.07</ele>
        <time>2025-01-03T16:28:48.267Z</time>
      </trkpt>
      <trkpt lat="48.35539" lon="4.91506">
        <ele>222.01</ele>
        <time>2025-01-03T16:28:51.364Z</time>
      </trkpt>
      <trkpt lat="48.35564" lon="4.91507">
        <ele>221.86</ele>
        <time>2025-01-03T16:28:54.465Z</time>
      </trkpt>
      <trkpt lat="48.35588" lon="4.91505">
        <ele>221.71</ele>
        <time>2025-01-03T16:28:57.570Z</time>
      </trkpt>
      <trkpt lat="48.35612" lon="4.91502">
        <ele>221.56</ele>
        <time>2025-01-03T16:29:00.679Z</time>
      </trkpt>
      <trkpt lat="48.35642" lon="4.91499">
        <ele>221.36</ele>
        <time>2025-01-03T16:29:03.793Z</time>
      </trkpt>
      <trkpt lat="48.35672" lon="4.91496">
        <ele>221.1</ele>
        <time>2025-01-03T16:29:06.911Z</time>
      </trkpt>
      <trkpt lat="48.35697" lon="4.91494">
        <ele>220.84</ele>
        <time>2025-01-03T16:29:10.033Z</time>
      </trkpt>
      <trkpt lat="48.35723" lon="4.91492">
        <ele>220.68</ele>
        <time>2025-01-03T16:29:13.160Z</time>
      </trkpt>
      <trkpt lat="48.35749" lon="4.91492">
        <ele>220.52</ele>
        <time>2025-01-03T16:29:16.291Z</time>
      </trkpt>
      <trkpt lat="48.35775" lon="4.91492">
        <ele>220.31</ele>
        <time>2025-01-03T16:29:19.426Z</time>
      </trkpt>
      <trkpt lat="48.35795" lon="4.91492">
        <ele>220.1</ele>
        <time>2025-01-03T16:29:22.564Z</time>
      </trkpt>
      <trkpt lat="48.35814" lon="4.91492">
        <ele>219.86</ele>
        <time>2025-01-03T16:29:25.705Z</time>
      </trkpt>
      <trkpt lat="48.35834" lon="4.91492">
        <ele>219.62</ele>
        <time>2025-01-03T16:29:28.849Z</time>
      </trkpt>
      <trkpt lat="48.35855" lon="4.91492">
        <ele>219.35</ele>
        <time>2025-01-03T16:29:31.997Z</time>
      </trkpt>
      <trkpt lat="48.35877" lon="4.91492">
        <ele>219.1</ele>
        <time>2025-01-03T16:29:35.148Z</time>
      </trkpt>
      <trkpt lat="48.35898" lon="4.91492">
        <ele>218.88</ele>
        <time>2025-01-03T16:29:38.303Z</time>
      </trkpt>
      <trkpt lat="48.35917" lon="4.91487">
        <ele>218.65</ele>
        <time>2025-01-03T16:29:41.461Z</time>
      </trkpt>
      <trkpt lat="48.35935" lon="4.91482">
        <ele>218.4</ele>
        <time>2025-01-03T16:29:44.622Z</time>
      </trkpt>
      <trkpt lat="48.35951" lon="4.91476">
        <ele>218.15</ele>
        <time>2025-01-03T16:29:47.785Z</time>
      </trkpt>
      <trkpt lat="48.35968" lon="4.9147">
        <ele>217.9</ele>
        <time>2025-01-03T16:29:50.951Z</time>
      </trkpt>
      <trkpt lat="48.35991" lon="4.91464">
        <ele>217.68</ele>
        <time>2025-01-03T16:29:54.121Z</time>
      </trkpt>
      <trkpt lat="48.36013" lon="4.91459">
        <ele>217.43</ele>
        <time>2025-01-03T16:29:57.294Z</time>
      </trkpt>
      <trkpt lat="48.36038" lon="4.91453">
        <ele>217.17</ele>
        <time>2025-01-03T16:30:00.471Z</time>
      </trkpt>
      <trkpt lat="48.36063" lon="4.91447">
        <ele>216.93</ele>
        <time>2025-01-03T16:30:03.652Z</time>
      </trkpt>
      <trkpt lat="48.36081" lon="4.91443">
        <ele>216.68</ele>
        <time>2025-01-03T16:30:06.836Z</time>
      </trkpt>
      <trkpt lat="48.36099" lon="4.91439">
        <ele>216.42</ele>
        <time>2025-01-03T16:30:10.023Z</time>
      </trkpt>
      <trkpt lat="48.36106" lon="4.91441">
        <ele>216.14</ele>
        <time>2025-01-03T16:30:13.212Z</time>
      </trkpt>
      <trkpt lat="48.36125" lon="4.91451">
        <ele>215.88</ele>
        <time>2025-01-03T16:30:16.404Z</time>
      </trkpt>
      <trkpt lat="48.36131" lon="4.91456">
        <ele>215.61</ele>
        <time>2025-01-03T16:30:19.597Z</time>
      </trkpt>
      <trkpt lat="48.36148" lon="4.91471">
        <ele>215.29</ele>
        <time>2025-01-03T16:30:22.793Z</time>
      </trkpt>
      <trkpt lat="48.36164" lon="4.91487">
        <ele>214.96</ele>
        <time>2025-01-03T16:30:25.992Z</time>
      </trkpt>
      <trkpt lat="48.36183" lon="4.91494">
        <ele>214.63</ele>
        <time>2025-01-03T16:30:29.194Z</time>
      </trkpt>
      <trkpt lat="48.36201" lon="4.91501">
        <ele>214.35</ele>
        <time>2025-01-03T16:30:32.399Z</time>
      </trkpt>
      <trkpt lat="48.36228" lon="4.91512">
        <ele>214.12</ele>
        <time>2025-01-03T16:30:35.609Z</time>
      </trkpt>
      <trkpt lat="48.36256" lon="4.91522">
        <ele>213.87</ele>
        <time>2025-01-03T16:30:38.823Z</time>
      </trkpt>
      <trkpt lat="48.36264" lon="4.91525">
        <ele>213.59</ele>
        <time>2025-01-03T16:30:42.038Z</time>
      </trkpt>
      <trkpt lat="48.36286" lon="4.91534">
        <ele>213.28</ele>
        <time>2025-01-03T16:30:45.257Z</time>
      </trkpt>
      <trkpt lat="48.36308" lon="4.91543">
        <ele>212.98</ele>
        <time>2025-01-03T16:30:48.480Z</time>
      </trkpt>
      <trkpt lat="48.36328" lon="4.91553">
        <ele>212.69</ele>
        <time>2025-01-03T16:30:51.706Z</time>
      </trkpt>
      <trkpt lat="48.36349" lon="4.91564">
        <ele>212.47</ele>
        <time>2025-01-03T16:30:54.936Z</time>
      </trkpt>
      <trkpt lat="48.36375" lon="4.91585">
        <ele>212.23</ele>
        <time>2025-01-03T16:30:58.171Z</time>
      </trkpt>
      <trkpt lat="48.36382" lon="4.9159">
        <ele>211.99</ele>
        <time>2025-01-03T16:31:01.407Z</time>
      </trkpt>
      <trkpt lat="48.36408" lon="4.91611">
        <ele>211.75</ele>
        <time>2025-01-03T16:31:04.647Z</time>
      </trkpt>
      <trkpt lat="48.36433" lon="4.91632">
        <ele>211.48</ele>
        <time>2025-01-03T16:31:07.892Z</time>
      </trkpt>
      <trkpt lat="48.3644" lon="4.91638">
        <ele>211.25</ele>
        <time>2025-01-03T16:31:11.138Z</time>
      </trkpt>
      <trkpt lat="48.36466" lon="4.91651">
        <ele>210.99</ele>
        <time>2025-01-03T16:31:14.389Z</time>
      </trkpt>
      <trkpt lat="48.36491" lon="4.91665">
        <ele>210.84</ele>
        <time>2025-01-03T16:31:17.644Z</time>
      </trkpt>
      <trkpt lat="48.36516" lon="4.91677">
        <ele>210.67</ele>
        <time>2025-01-03T16:31:20.903Z</time>
      </trkpt>
      <trkpt lat="48.36541" lon="4.9169">
        <ele>210.48</ele>
        <time>2025-01-03T16:31:24.166Z</time>
      </trkpt>
      <trkpt lat="48.36566" lon="4.91703">
        <ele>210.25</ele>
        <time>2025-01-03T16:31:27.434Z</time>
      </trkpt>
      <trkpt lat="48.36592" lon="4.91717">
        <ele>210.04</ele>
        <time>2025-01-03T16:31:30.706Z</time>
      </trkpt>
      <trkpt lat="48.36599" lon="4.9172">
        <ele>209.89</ele>
        <time>2025-01-03T16:31:33.979Z</time>
      </trkpt>
      <trkpt lat="48.36625" lon="4.91731">
        <ele>209.78</ele>
        <time>2025-01-03T16:31:37.257Z</time>
      </trkpt>
      <trkpt lat="48.36651" lon="4.91742">
        <ele>209.65</ele>
        <time>2025-01-03T16:31:40.539Z</time>
      </trkpt>
      <trkpt lat="48.36659" lon="4.91745">
        <ele>209.53</ele>
        <time>2025-01-03T16:31:43.822Z</time>
      </trkpt>
      <trkpt lat="48.36685" lon="4.91755">
        <ele>209.35</ele>
        <time>2025-01-03T16:31:47.110Z</time>
      </trkpt>
      <trkpt lat="48.36711" lon="4.91765">
        <ele>209.3</ele>
        <time>2025-01-03T16:31:50.402Z</time>
      </trkpt>
      <trkpt lat="48.36737" lon="4.91775">
        <ele>209.27</ele>
        <time>2025-01-03T16:31:53.698Z</time>
      </trkpt>
      <trkpt lat="48.36762" lon="4.91785">
        <ele>209.25</ele>
        <time>2025-01-03T16:31:56.998Z</time>
      </trkpt>
      <trkpt lat="48.36788" lon="4.91795">
        <ele>209.26</ele>
        <time>2025-01-03T16:32:00.303Z</time>
      </trkpt>
      <trkpt lat="48.36814" lon="4.91805">
        <ele>209.31</ele>
        <time>2025-01-03T16:32:03.612Z</time>
      </trkpt>
      <trkpt lat="48.36836" lon="4.91814">
        <ele>209.38</ele>
        <time>2025-01-03T16:32:06.925Z</time>
      </trkpt>
      <trkpt lat="48.36858" lon="4.91822">
        <ele>209.42</ele>
        <time>2025-01-03T16:32:10.241Z</time>
      </trkpt>
      <trkpt lat="48.36881" lon="4.91833">
        <ele>209.48</ele>
        <time>2025-01-03T16:32:13.561Z</time>
      </trkpt>
      <trkpt lat="48.36904" lon="4.91844">
        <ele>209.61</ele>
        <time>2025-01-03T16:32:16.885Z</time>
      </trkpt>
      <trkpt lat="48.36922" lon="4.9186">
        <ele>209.77</ele>
        <time>2025-01-03T16:32:20.212Z</time>
      </trkpt>
      <trkpt lat="48.36941" lon="4.91876">
        <ele>209.96</ele>
        <time>2025-01-03T16:32:23.543Z</time>
      </trkpt>
      <trkpt lat="48.36965" lon="4.91901">
        <ele>210.22</ele>
        <time>2025-01-03T16:32:26.878Z</time>
      </trkpt>
      <trkpt lat="48.36989" lon="4.91926">
        <ele>210.38</ele>
        <time>2025-01-03T16:32:30.218Z</time>
      </trkpt>
      <trkpt lat="48.37012" lon="4.9195">
        <ele>210.55</ele>
        <time>2025-01-03T16:32:33.563Z</time>
      </trkpt>
      <trkpt lat="48.37035" lon="4.91974">
        <ele>210.88</ele>
        <time>2025-01-03T16:32:36.912Z</time>
      </trkpt>
      <trkpt lat="48.37059" lon="4.92001">
        <ele>211.32</ele>
        <time>2025-01-03T16:32:40.266Z</time>
      </trkpt>
      <trkpt lat="48.37083" lon="4.92028">
        <ele>211.77</ele>
        <time>2025-01-03T16:32:43.625Z</time>
      </trkpt>
      <trkpt lat="48.37101" lon="4.92049">
        <ele>212.12</ele>
        <time>2025-01-03T16:32:46.987Z</time>
      </trkpt>
      <trkpt lat="48.3712" lon="4.92069">
        <ele>212.44</ele>
        <time>2025-01-03T16:32:50.353Z</time>
      </trkpt>
      <trkpt lat="48.37138" lon="4.92082">
        <ele>212.78</ele>
        <time>2025-01-03T16:32:53.722Z</time>
      </trkpt>
      <trkpt lat="48.37156" lon="4.92095">
        <ele>213.15</ele>
        <time>2025-01-03T16:32:57.094Z</time>
      </trkpt>
      <trkpt lat="48.37175" lon="4.92102">
        <ele>213.5</ele>
        <time>2025-01-03T16:33:00.469Z</time>
      </trkpt>
      <trkpt lat="48.37193" lon="4.9211">
        <ele>213.84</ele>
        <time>2025-01-03T16:33:03.848Z</time>
      </trkpt>
      <trkpt lat="48.37219" lon="4.92113">
        <ele>214.13</ele>
        <time>2025-01-03T16:33:07.231Z</time>
      </trkpt>
      <trkpt lat="48.37245" lon="4.92115">
        <ele>214.44</ele>
        <time>2025-01-03T16:33:10.618Z</time>
      </trkpt>
      <trkpt lat="48.37263" lon="4.92117">
        <ele>214.79</ele>
        <time>2025-01-03T16:33:14.008Z</time>
      </trkpt>
      <trkpt lat="48.37281" lon="4.92118">
        <ele>215.16</ele>
        <time>2025-01-03T16:33:17.401Z</time>
      </trkpt>
      <trkpt lat="48.37298" lon="4.9212">
        <ele>215.53</ele>
        <time>2025-01-03T16:33:20.796Z</time>
      </trkpt>
      <trkpt lat="48.37314" lon="4.92122">
        <ele>215.83</ele>
        <time>2025-01-03T16:33:24.194Z</time>
      </trkpt>
      <trkpt lat="48.37327" lon="4.92128">
        <ele>216.02</ele>
        <time>2025-01-03T16:33:27.594Z</time>
      </trkpt>
      <trkpt lat="48.37352" lon="4.9214">
        <ele>216.12</ele>
        <time>2025-01-03T16:33:30.998Z</time>
      </trkpt>
      <trkpt lat="48.37375" lon="4.9215">
        <ele>216.17</ele>
        <time>2025-01-03T16:33:34.406Z</time>
      </trkpt>
      <trkpt lat="48.37398" lon="4.92161">
        <ele>216.18</ele>
        <time>2025-01-03T16:33:37.818Z</time>
      </trkpt>
      <trkpt lat="48.37415" lon="4.92168">
        <ele>216.16</ele>
        <time>2025-01-03T16:33:41.233Z</time>
      </trkpt>
      <trkpt lat="48.3743" lon="4.92175">
        <ele>216.11</ele>
        <time>2025-01-03T16:33:44.650Z</time>
      </trkpt>
      <trkpt lat="48.37457" lon="4.92185">
        <ele>216.01</ele>
        <time>2025-01-03T16:33:48.072Z</time>
      </trkpt>
      <trkpt lat="48.3748" lon="4.9219">
        <ele>215.92</ele>
        <time>2025-01-03T16:33:51.498Z</time>
      </trkpt>
      <trkpt lat="48.37503" lon="4.92195">
        <ele>215.83</ele>
        <time>2025-01-03T16:33:54.927Z</time>
      </trkpt>
      <trkpt lat="48.37524" lon="4.92199">
        <ele>215.76</ele>
        <time>2025-01-03T16:33:58.360Z</time>
      </trkpt>
      <trkpt lat="48.37545" lon="4.92203">
        <ele>215.67</ele>
        <time>2025-01-03T16:34:01.796Z</time>
      </trkpt>
      <trkpt lat="48.3757" lon="4.92206">
        <ele>215.57</ele>
        <time>2025-01-03T16:34:05.236Z</time>
      </trkpt>
      <trkpt lat="48.37581" lon="4.92207">
        <ele>215.43</ele>
        <time>2025-01-03T16:34:08.678Z</time>
      </trkpt>
      <trkpt lat="48.37585" lon="4.92208">
        <ele>215.26</ele>
        <time>2025-01-03T16:34:12.120Z</time>
      </trkpt>
      <trkpt lat="48.376" lon="4.92211">
        <ele>215.09</ele>
        <time>2025-01-03T16:34:15.565Z</time>
      </trkpt>
      <trkpt lat="48.37616" lon="4.92217">
        <ele>214.89</ele>
        <time>2025-01-03T16:34:19.013Z</time>
      </trkpt>
      <trkpt lat="48.37633" lon="4.92222">
        <ele>214.66</ele>
        <time>2025-01-03T16:34:22.463Z</time>
      </trkpt>
      <trkpt lat="48.37649" lon="4.92231">
        <ele>214.42</ele>
        <time>2025-01-03T16:34:25.916Z</time>
      </trkpt>
      <trkpt lat="48.37664" lon="4.9224">
        <ele>214.16</ele>
        <time>2025-01-03T16:34:29.372Z</time>
      </trkpt>
      <trkpt lat="48.37682" lon="4.92252">
        <ele>213.9</ele>
        <time>2025-01-03T16:34:32.831Z</time>
      </trkpt>
      <trkpt lat="48.377" lon="4.92263">
        <ele>213.65</ele>
        <time>2025-01-03T16:34:36.293Z</time>
      </trkpt>
      <trkpt lat="48.37715" lon="4.92275">
        <ele>213.43</ele>
        <time>2025-01-03T16:34:39.758Z</time>
      </trkpt>
      <trkpt lat="48.3773" lon="4.92287">
        <ele>213.22</ele>
        <time>2025-01-03T16:34:43.225Z</time>
      </trkpt>
      <trkpt lat="48.37746" lon="4.92299">
        <ele>213.01</ele>
        <time>2025-01-03T16:34:46.695Z</time>
      </trkpt>
      <trkpt lat="48.37761" lon="4.92311">
        <ele>212.81</ele>
        <time>2025-01-03T16:34:50.168Z</time>
      </trkpt>
      <trkpt lat="48.3778" lon="4.92322">
        <ele>212.61</ele>
        <time>2025-01-03T16:34:53.644Z</time>
      </trkpt>
      <trkpt lat="48.37799" lon="4.92334">
        <ele>212.4</ele>
        <time>2025-01-03T16:34:57.123Z</time>
      </trkpt>
      <trkpt lat="48.37805" lon="4.92336">
        <ele>212.21</ele>
        <time>2025-01-03T16:35:00.603Z</time>
      </trkpt>
      <trkpt lat="48.37827" lon="4.92339">
        <ele>212</ele>
        <time>2025-01-03T16:35:04.087Z</time>
      </trkpt>
      <trkpt lat="48.37844" lon="4.92332">
        <ele>211.85</ele>
        <time>2025-01-03T16:35:07.574Z</time>
      </trkpt>
      <trkpt lat="48.37853" lon="4.92335">
        <ele>211.7</ele>
        <time>2025-01-03T16:35:11.062Z</time>
      </trkpt>
      <trkpt lat="48.37872" lon="4.92347">
        <ele>211.59</ele>
        <time>2025-01-03T16:35:14.554Z</time>
      </trkpt>
      <trkpt lat="48.37897" lon="4.92356">
        <ele>211.5</ele>
        <time>2025-01-03T16:35:18.050Z</time>
      </trkpt>
      <trkpt lat="48.37915" lon="4.92361">
        <ele>211.42</ele>
        <time>2025-01-03T16:35:21.549Z</time>
      </trkpt>
      <trkpt lat="48.37932" lon="4.92366">
        <ele>211.3</ele>
        <time>2025-01-03T16:35:25.050Z</time>
      </trkpt>
      <trkpt lat="48.37957" lon="4.92366">
        <ele>211.16</ele>
        <time>2025-01-03T16:35:28.555Z</time>
      </trkpt>
      <trkpt lat="48.37981" lon="4.92366">
        <ele>211.08</ele>
        <time>2025-01-03T16:35:32.064Z</time>
      </trkpt>
      <trkpt lat="48.38002" lon="4.92361">
        <ele>211.04</ele>
        <time>2025-01-03T16:35:35.577Z</time>
      </trkpt>
      <trkpt lat="48.38023" lon="4.92357">
        <ele>210.97</ele>
        <time>2025-01-03T16:35:39.093Z</time>
      </trkpt>
      <trkpt lat="48.38046" lon="4.92349">
        <ele>211</ele>
        <time>2025-01-03T16:35:42.613Z</time>
      </trkpt>
      <trkpt lat="48.38068" lon="4.92342">
        <ele>211.06</ele>
        <time>2025-01-03T16:35:46.136Z</time>
      </trkpt>
      <trkpt lat="48.3809" lon="4.92327">
        <ele>211.12</ele>
        <time>2025-01-03T16:35:49.663Z</time>
      </trkpt>
      <trkpt lat="48.3811" lon="4.92312">
        <ele>211.13</ele>
        <time>2025-01-03T16:35:53.194Z</time>
      </trkpt>
      <trkpt lat="48.38133" lon="4.92289">
        <ele>211.21</ele>
        <time>2025-01-03T16:35:56.729Z</time>
      </trkpt>
      <trkpt lat="48.38155" lon="4.92266">
        <ele>211.34</ele>
        <time>2025-01-03T16:36:00.269Z</time>
      </trkpt>
      <trkpt lat="48.38161" lon="4.9226">
        <ele>211.4</ele>
        <time>2025-01-03T16:36:03.810Z</time>
      </trkpt>
      <trkpt lat="48.38174" lon="4.92246">
        <ele>211.45</ele>
        <time>2025-01-03T16:36:07.353Z</time>
      </trkpt>
      <trkpt lat="48.38198" lon="4.92222">
        <ele>211.49</ele>
        <time>2025-01-03T16:36:10.901Z</time>
      </trkpt>
      <trkpt lat="48.38221" lon="4.92198">
        <ele>211.51</ele>
        <time>2025-01-03T16:36:14.453Z</time>
      </trkpt>
      <trkpt lat="48.3824" lon="4.92181">
        <ele>211.49</ele>
        <time>2025-01-03T16:36:18.009Z</time>
      </trkpt>
      <trkpt lat="48.38258" lon="4.92164">
        <ele>211.51</ele>
        <time>2025-01-03T16:36:21.568Z</time>
      </trkpt>
      <trkpt lat="48.38277" lon="4.92151">
        <ele>211.46</ele>
        <time>2025-01-03T16:36:25.131Z</time>
      </trkpt>
      <trkpt lat="48.3828" lon="4.92149">
        <ele>211.42</ele>
        <time>2025-01-03T16:36:28.694Z</time>
      </trkpt>
      <trkpt lat="48.38278" lon="4.9215">
        <ele>211.39</ele>
        <time>2025-01-03T16:36:32.258Z</time>
      </trkpt>
      <trkpt lat="48.38275" lon="4.92152">
        <ele>211.35</ele>
        <time>2025-01-03T16:36:35.822Z</time>
      </trkpt>
      <trkpt lat="48.38264" lon="4.9216">
        <ele>211.31</ele>
        <time>2025-01-03T16:36:39.388Z</time>
      </trkpt>
      <trkpt lat="48.38262" lon="4.92161">
        <ele>211.23</ele>
        <time>2025-01-03T16:36:42.954Z</time>
      </trkpt>
      <trkpt lat="48.38262" lon="4.92162">
        <ele>211.13</ele>
        <time>2025-01-03T16:36:46.520Z</time>
      </trkpt>
      <trkpt lat="48.38264" lon="4.9216">
        <ele>211.01</ele>
        <time>2025-01-03T16:36:50.087Z</time>
      </trkpt>
      <trkpt lat="48.38269" lon="4.92157">
        <ele>210.87</ele>
        <time>2025-01-03T16:36:53.655Z</time>
      </trkpt>
      <trkpt lat="48.3829" lon="4.92142">
        <ele>210.66</ele>
        <time>2025-01-03T16:36:57.226Z</time>
      </trkpt>
      <trkpt lat="48.38308" lon="4.92134">
        <ele>210.46</ele>
        <time>2025-01-03T16:37:00.800Z</time>
      </trkpt>
      <trkpt lat="48.38326" lon="4.92125">
        <ele>210.3</ele>
        <time>2025-01-03T16:37:04.377Z</time>
      </trkpt>
      <trkpt lat="48.38345" lon="4.92118">
        <ele>210.13</ele>
        <time>2025-01-03T16:37:07.958Z</time>
      </trkpt>
      <trkpt lat="48.38365" lon="4.9211">
        <ele>209.94</ele>
        <time>2025-01-03T16:37:11.542Z</time>
      </trkpt>
      <trkpt lat="48.38393" lon="4.92099">
        <ele>209.71</ele>
        <time>2025-01-03T16:37:15.131Z</time>
      </trkpt>
      <trkpt lat="48.38421" lon="4.92087">
        <ele>209.53</ele>
        <time>2025-01-03T16:37:18.724Z</time>
      </trkpt>
      <trkpt lat="48.38443" lon="4.92077">
        <ele>209.31</ele>
        <time>2025-01-03T16:37:22.321Z</time>
      </trkpt>
      <trkpt lat="48.38464" lon="4.92067">
        <ele>209.11</ele>
        <time>2025-01-03T16:37:25.922Z</time>
      </trkpt>
      <trkpt lat="48.38493" lon="4.92054">
        <ele>208.91</ele>
        <time>2025-01-03T16:37:29.527Z</time>
      </trkpt>
      <trkpt lat="48.38521" lon="4.9204">
        <ele>208.77</ele>
        <time>2025-01-03T16:37:33.137Z</time>
      </trkpt>
      <trkpt lat="48.38528" lon="4.92037">
        <ele>208.59</ele>
        <time>2025-01-03T16:37:36.748Z</time>
      </trkpt>
      <trkpt lat="48.3855" lon="4.92022">
        <ele>208.41</ele>
        <time>2025-01-03T16:37:40.363Z</time>
      </trkpt>
      <trkpt lat="48.38573" lon="4.92007">
        <ele>208.17</ele>
        <time>2025-01-03T16:37:43.982Z</time>
      </trkpt>
      <trkpt lat="48.38595" lon="4.91989">
        <ele>207.97</ele>
        <time>2025-01-03T16:37:47.605Z</time>
      </trkpt>
      <trkpt lat="48.38616" lon="4.91972">
        <ele>207.73</ele>
        <time>2025-01-03T16:37:51.232Z</time>
      </trkpt>
      <trkpt lat="48.38638" lon="4.91958">
        <ele>207.5</ele>
        <time>2025-01-03T16:37:54.863Z</time>
      </trkpt>
      <trkpt lat="48.3866" lon="4.91944">
        <ele>207.44</ele>
        <time>2025-01-03T16:37:58.498Z</time>
      </trkpt>
      <trkpt lat="48.38686" lon="4.91932">
        <ele>207.34</ele>
        <time>2025-01-03T16:38:02.137Z</time>
      </trkpt>
      <trkpt lat="48.38711" lon="4.9192">
        <ele>207.32</ele>
        <time>2025-01-03T16:38:05.780Z</time>
      </trkpt>
      <trkpt lat="48.38718" lon="4.91917">
        <ele>207.23</ele>
        <time>2025-01-03T16:38:09.424Z</time>
      </trkpt>
      <trkpt lat="48.38741" lon="4.91902">
        <ele>207.2</ele>
        <time>2025-01-03T16:38:13.072Z</time>
      </trkpt>
      <trkpt lat="48.38764" lon="4.91887">
        <ele>207.07</ele>
        <time>2025-01-03T16:38:16.724Z</time>
      </trkpt>
      <trkpt lat="48.38791" lon="4.91869">
        <ele>206.95</ele>
        <time>2025-01-03T16:38:20.381Z</time>
      </trkpt>
      <trkpt lat="48.38818" lon="4.9185">
        <ele>206.87</ele>
        <time>2025-01-03T16:38:24.043Z</time>
      </trkpt>
      <trkpt lat="48.38834" lon="4.91839">
        <ele>206.78</ele>
        <time>2025-01-03T16:38:27.708Z</time>
      </trkpt>
      <trkpt lat="48.3885" lon="4.91828">
        <ele>206.67</ele>
        <time>2025-01-03T16:38:31.375Z</time>
      </trkpt>
      <trkpt lat="48.3887" lon="4.91815">
        <ele>206.55</ele>
        <time>2025-01-03T16:38:35.046Z</time>
      </trkpt>
      <trkpt lat="48.38892" lon="4.91801">
        <ele>206.41</ele>
        <time>2025-01-03T16:38:38.721Z</time>
      </trkpt>
      <trkpt lat="48.38914" lon="4.91788">
        <ele>206.18</ele>
        <time>2025-01-03T16:38:42.400Z</time>
      </trkpt>
      <trkpt lat="48.3893" lon="4.91779">
        <ele>206.1</ele>
        <time>2025-01-03T16:38:46.081Z</time>
      </trkpt>
      <trkpt lat="48.38946" lon="4.9177">
        <ele>205.97</ele>
        <time>2025-01-03T16:38:49.765Z</time>
      </trkpt>
      <trkpt lat="48.38952" lon="4.91766">
        <ele>205.83</ele>
        <time>2025-01-03T16:38:53.450Z</time>
      </trkpt>
      <trkpt lat="48.38955" lon="4.91772">
        <ele>205.69</ele>
        <time>2025-01-03T16:38:57.136Z</time>
      </trkpt>
      <trkpt lat="48.38957" lon="4.91777">
        <ele>205.53</ele>
        <time>2025-01-03T16:39:00.823Z</time>
      </trkpt>
      <trkpt lat="48.3896" lon="4.91793">
        <ele>205.37</ele>
        <time>2025-01-03T16:39:04.511Z</time>
      </trkpt>
      <trkpt lat="48.3897" lon="4.91833">
        <ele>205.17</ele>
        <time>2025-01-03T16:39:08.204Z</time>
      </trkpt>
      <trkpt lat="48.38971" lon="4.91844">
        <ele>204.97</ele>
        <time>2025-01-03T16:39:11.898Z</time>
      </trkpt>
      <trkpt lat="48.38974" lon="4.91878">
        <ele>204.78</ele>
        <time>2025-01-03T16:39:15.596Z</time>
      </trkpt>
      <trkpt lat="48.38974" lon="4.91888">
        <ele>204.58</ele>
        <time>2025-01-03T16:39:19.295Z</time>
      </trkpt>
      <trkpt lat="48.38973" lon="4.91884">
        <ele>204.39</ele>
        <time>2025-01-03T16:39:22.994Z</time>
      </trkpt>
      <trkpt lat="48.38974" lon="4.91879">
        <ele>204.18</ele>
        <time>2025-01-03T16:39:26.694Z</time>
      </trkpt>
      <trkpt lat="48.38972" lon="4.91855">
        <ele>203.98</ele>
        <time>2025-01-03T16:39:30.396Z</time>
      </trkpt>
      <trkpt lat="48.38971" lon="4.9184">
        <ele>203.78</ele>
        <time>2025-01-03T16:39:34.100Z</time>
      </trkpt>
      <trkpt lat="48.38971" lon="4.91844">
        <ele>203.55</ele>
        <time>2025-01-03T16:39:37.804Z</time>
      </trkpt>
      <trkpt lat="48.38973" lon="4.91856">
        <ele>203.32</ele>
        <time>2025-01-03T16:39:41.510Z</time>
      </trkpt>
      <trkpt lat="48.38974" lon="4.9188">
        <ele>203.08</ele>
        <time>2025-01-03T16:39:45.218Z</time>
      </trkpt>
      <trkpt lat="48.38976" lon="4.91925">
        <ele>202.82</ele>
        <time>2025-01-03T16:39:48.931Z</time>
      </trkpt>
      <trkpt lat="48.3898" lon="4.91964">
        <ele>202.51</ele>
        <time>2025-01-03T16:39:52.648Z</time>
      </trkpt>
      <trkpt lat="48.38984" lon="4.92004">
        <ele>202.24</ele>
        <time>2025-01-03T16:39:56.369Z</time>
      </trkpt>
      <trkpt lat="48.38986" lon="4.92028">
        <ele>202.05</ele>
        <time>2025-01-03T16:40:00.093Z</time>
      </trkpt>
      <trkpt lat="48.38989" lon="4.92052">
        <ele>201.82</ele>
        <time>2025-01-03T16:40:03.820Z</time>
      </trkpt>
      <trkpt lat="48.3899" lon="4.92076">
        <ele>201.62</ele>
        <time>2025-01-03T16:40:07.549Z</time>
      </trkpt>
      <trkpt lat="48.38998" lon="4.92073">
        <ele>201.44</ele>
        <time>2025-01-03T16:40:11.279Z</time>
      </trkpt>
      <trkpt lat="48.39002" lon="4.92069">
        <ele>201.25</ele>
        <time>2025-01-03T16:40:15.010Z</time>
      </trkpt>
      <trkpt lat="48.39006" lon="4.92064">
        <ele>201.07</ele>
        <time>2025-01-03T16:40:18.742Z</time>
      </trkpt>
      <trkpt lat="48.39022" lon="4.92048">
        <ele>200.88</ele>
        <time>2025-01-03T16:40:22.477Z</time>
      </trkpt>
      <trkpt lat="48.3904" lon="4.92031">
        <ele>200.76</ele>
        <time>2025-01-03T16:40:26.216Z</time>
      </trkpt>
      <trkpt lat="48.39057" lon="4.92013">
        <ele>200.67</ele>
        <time>2025-01-03T16:40:29.958Z</time>
      </trkpt>
      <trkpt lat="48.39081" lon="4.91993">
        <ele>200.56</ele>
        <time>2025-01-03T16:40:33.704Z</time>
      </trkpt>
      <trkpt lat="48.39104" lon="4.91972">
        <ele>200.49</ele>
        <time>2025-01-03T16:40:37.455Z</time>
      </trkpt>
      <trkpt lat="48.39127" lon="4.91954">
        <ele>200.38</ele>
        <time>2025-01-03T16:40:41.210Z</time>
      </trkpt>
      <trkpt lat="48.39149" lon="4.91936">
        <ele>200.31</ele>
        <time>2025-01-03T16:40:44.969Z</time>
      </trkpt>
      <trkpt lat="48.39173" lon="4.91916">
        <ele>200.32</ele>
        <time>2025-01-03T16:40:48.732Z</time>
      </trkpt>
      <trkpt lat="48.39197" lon="4.91896">
        <ele>200.37</ele>
        <time>2025-01-03T16:40:52.500Z</time>
      </trkpt>
      <trkpt lat="48.39214" lon="4.91882">
        <ele>200.35</ele>
        <time>2025-01-03T16:40:56.271Z</time>
      </trkpt>
      <trkpt lat="48.39225" lon="4.91887">
        <ele>200.33</ele>
        <time>2025-01-03T16:41:00.044Z</time>
      </trkpt>
      <trkpt lat="48.39249" lon="4.91902">
        <ele>200.3</ele>
        <time>2025-01-03T16:41:03.821Z</time>
      </trkpt>
      <trkpt lat="48.39273" lon="4.91915">
        <ele>200.41</ele>
        <time>2025-01-03T16:41:07.602Z</time>
      </trkpt>
      <trkpt lat="48.39279" lon="4.91915">
        <ele>200.54</ele>
        <time>2025-01-03T16:41:11.384Z</time>
      </trkpt>
      <trkpt lat="48.39285" lon="4.91915">
        <ele>200.69</ele>
        <time>2025-01-03T16:41:15.167Z</time>
      </trkpt>
      <trkpt lat="48.39297" lon="4.91914">
        <ele>200.87</ele>
        <time>2025-01-03T16:41:18.952Z</time>
      </trkpt>
      <trkpt lat="48.39303" lon="4.91913">
        <ele>201.09</ele>
        <time>2025-01-03T16:41:22.738Z</time>
      </trkpt>
      <trkpt lat="48.39314" lon="4.91911">
        <ele>201.34</ele>
        <time>2025-01-03T16:41:26.525Z</time>
      </trkpt>
      <trkpt lat="48.39331" lon="4.91908">
        <ele>201.66</ele>
        <time>2025-01-03T16:41:30.315Z</time>
      </trkpt>
      <trkpt lat="48.39347" lon="4.91905">
        <ele>201.97</ele>
        <time>2025-01-03T16:41:34.108Z</time>
      </trkpt>
      <trkpt lat="48.39358" lon="4.91906">
        <ele>202.32</ele>
        <time>2025-01-03T16:41:37.902Z</time>
      </trkpt>
      <trkpt lat="48.39386" lon="4.91916">
        <ele>202.74</ele>
        <time>2025-01-03T16:41:41.701Z</time>
      </trkpt>
      <trkpt lat="48.394" lon="4.91921">
        <ele>203.16</ele>
        <time>2025-01-03T16:41:45.502Z</time>
      </trkpt>
      <trkpt lat="48.39402" lon="4.91922">
        <ele>203.59</ele>
        <time>2025-01-03T16:41:49.304Z</time>
      </trkpt>
      <trkpt lat="48.39407" lon="4.91924">
        <ele>204.04</ele>
        <time>2025-01-03T16:41:53.106Z</time>
      </trkpt>
      <trkpt lat="48.39407" lon="4.91921">
        <ele>204.49</ele>
        <time>2025-01-03T16:41:56.909Z</time>
      </trkpt>
      <trkpt lat="48.39407" lon="4.91916">
        <ele>204.97</ele>
        <time>2025-01-03T16:42:00.712Z</time>
      </trkpt>
      <trkpt lat="48.39409" lon="4.91901">
        <ele>205.49</ele>
        <time>2025-01-03T16:42:04.517Z</time>
      </trkpt>
      <trkpt lat="48.39409" lon="4.91864">
        <ele>205.98</ele>
        <time>2025-01-03T16:42:08.326Z</time>
      </trkpt>
      <trkpt lat="48.39411" lon="4.91828">
        <ele>206.48</ele>
        <time>2025-01-03T16:42:12.139Z</time>
      </trkpt>
      <trkpt lat="48.39411" lon="4.91797">
        <ele>206.96</ele>
        <time>2025-01-03T16:42:15.955Z</time>
      </trkpt>
      <trkpt lat="48.39411" lon="4.91779">
        <ele>207.46</ele>
        <time>2025-01-03T16:42:19.773Z</time>
      </trkpt>
      <trkpt lat="48.39411" lon="4.91766">
        <ele>207.97</ele>
        <time>2025-01-03T16:42:23.592Z</time>
      </trkpt>
      <trkpt lat="48.39421" lon="4.9175">
        <ele>208.51</ele>
        <time>2025-01-03T16:42:27.414Z</time>
      </trkpt>
      <trkpt lat="48.39427" lon="4.91751">
        <ele>208.93</ele>
        <time>2025-01-03T16:42:31.237Z</time>
      </trkpt>
      <trkpt lat="48.39432" lon="4.91753">
        <ele>209.31</ele>
        <time>2025-01-03T16:42:35.060Z</time>
      </trkpt>
      <trkpt lat="48.39443" lon="4.91756">
        <ele>209.69</ele>
        <time>2025-01-03T16:42:38.885Z</time>
      </trkpt>
      <trkpt lat="48.39463" lon="4.91769">
        <ele>210.05</ele>
        <time>2025-01-03T16:42:42.714Z</time>
      </trkpt>
      <trkpt lat="48.39483" lon="4.91783">
        <ele>210.35</ele>
        <time>2025-01-03T16:42:46.546Z</time>
      </trkpt>
      <trkpt lat="48.39509" lon="4.918">
        <ele>210.62</ele>
        <time>2025-01-03T16:42:50.383Z</time>
      </trkpt>
      <trkpt lat="48.39535" lon="4.91817">
        <ele>210.82</ele>
        <time>2025-01-03T16:42:54.224Z</time>
      </trkpt>
      <trkpt lat="48.39542" lon="4.91821">
        <ele>210.88</ele>
        <time>2025-01-03T16:42:58.066Z</time>
      </trkpt>
      <trkpt lat="48.39569" lon="4.91839">
        <ele>210.9</ele>
        <time>2025-01-03T16:43:01.913Z</time>
      </trkpt>
      <trkpt lat="48.39596" lon="4.91857">
        <ele>210.83</ele>
        <time>2025-01-03T16:43:05.765Z</time>
      </trkpt>
      <trkpt lat="48.39621" lon="4.91873">
        <ele>210.66</ele>
        <time>2025-01-03T16:43:09.621Z</time>
      </trkpt>
      <trkpt lat="48.39645" lon="4.9189">
        <ele>210.39</ele>
        <time>2025-01-03T16:43:13.482Z</time>
      </trkpt>
      <trkpt lat="48.39675" lon="4.91902">
        <ele>210.02</ele>
        <time>2025-01-03T16:43:17.347Z</time>
      </trkpt>
      <trkpt lat="48.39689" lon="4.91917">
        <ele>209.65</ele>
        <time>2025-01-03T16:43:21.215Z</time>
      </trkpt>
      <trkpt lat="48.39702" lon="4.91932">
        <ele>209.27</ele>
        <time>2025-01-03T16:43:25.086Z</time>
      </trkpt>
      <trkpt lat="48.39709" lon="4.91942">
        <ele>208.86</ele>
        <time>2025-01-03T16:43:28.958Z</time>
      </trkpt>
      <trkpt lat="48.39711" lon="4.91954">
        <ele>208.41</ele>
        <time>2025-01-03T16:43:32.832Z</time>
      </trkpt>
      <trkpt lat="48.39709" lon="4.91966">
        <ele>207.96</ele>
        <time>2025-01-03T16:43:36.707Z</time>
      </trkpt>
      <trkpt lat="48.39707" lon="4.91973">
        <ele>207.5</ele>
        <time>2025-01-03T16:43:40.583Z</time>
      </trkpt>
      <trkpt lat="48.39705" lon="4.91979">
        <ele>207.04</ele>
        <time>2025-01-03T16:43:44.460Z</time>
      </trkpt>
      <trkpt lat="48.39693" lon="4.91999">
        <ele>206.54</ele>
        <time>2025-01-03T16:43:48.339Z</time>
      </trkpt>
      <trkpt lat="48.39685" lon="4.92033">
        <ele>206.02</ele>
        <time>2025-01-03T16:43:52.222Z</time>
      </trkpt>
      <trkpt lat="48.39678" lon="4.9206">
        <ele>205.5</ele>
        <time>2025-01-03T16:43:56.108Z</time>
      </trkpt>
      <trkpt lat="48.39674" lon="4.92074">
        <ele>205.07</ele>
        <time>2025-01-03T16:43:59.996Z</time>
      </trkpt>
      <trkpt lat="48.39664" lon="4.92105">
        <ele>204.63</ele>
        <time>2025-01-03T16:44:03.888Z</time>
      </trkpt>
      <trkpt lat="48.39664" lon="4.92107">
        <ele>204.22</ele>
        <time>2025-01-03T16:44:07.780Z</time>
      </trkpt>
      <trkpt lat="48.39658" lon="4.92125">
        <ele>203.85</ele>
        <time>2025-01-03T16:44:11.674Z</time>
      </trkpt>
      <trkpt lat="48.39657" lon="4.92126">
        <ele>203.47</ele>
        <time>2025-01-03T16:44:15.568Z</time>
      </trkpt>
      <trkpt lat="48.39655" lon="4.92134">
        <ele>203.12</ele>
        <time>2025-01-03T16:44:19.463Z</time>
      </trkpt>
      <trkpt lat="48.39654" lon="4.92138">
        <ele>202.79</ele>
        <time>2025-01-03T16:44:23.359Z</time>
      </trkpt>
      <trkpt lat="48.39651" lon="4.92152">
        <ele>202.49</ele>
        <time>2025-01-03T16:44:27.256Z</time>
      </trkpt>
      <trkpt lat="48.3965" lon="4.92156">
        <ele>202.22</ele>
        <time>2025-01-03T16:44:31.154Z</time>
      </trkpt>
      <trkpt lat="48.39649" lon="4.92162">
        <ele>201.98</ele>
        <time>2025-01-03T16:44:35.052Z</time>
      </trkpt>
      <trkpt lat="48.39651" lon="4.92182">
        <ele>201.74</ele>
        <time>2025-01-03T16:44:38.952Z</time>
      </trkpt>
      <trkpt lat="48.39648" lon="4.92201">
        <ele>201.54</ele>
        <time>2025-01-03T16:44:42.854Z</time>
      </trkpt>
      <trkpt lat="48.39644" lon="4.92214">
        <ele>201.39</ele>
        <time>2025-01-03T16:44:46.758Z</time>
      </trkpt>
      <trkpt lat="48.39642" lon="4.92221">
        <ele>201.26</ele>
        <time>2025-01-03T16:44:50.663Z</time>
      </trkpt>
      <trkpt lat="48.39631" lon="4.92248">
        <ele>201.15</ele>
        <time>2025-01-03T16:44:54.571Z</time>
      </trkpt>
      <trkpt lat="48.39618" lon="4.9226">
        <ele>201.11</ele>
        <time>2025-01-03T16:44:58.482Z</time>
      </trkpt>
      <trkpt lat="48.3961" lon="4.92268">
        <ele>201.09</ele>
        <time>2025-01-03T16:45:02.394Z</time>
      </trkpt>
      <trkpt lat="48.39606" lon="4.92272">
        <ele>201.11</ele>
        <time>2025-01-03T16:45:06.307Z</time>
      </trkpt>
      <trkpt lat="48.39601" lon="4.92284">
        <ele>201.17</ele>
        <time>2025-01-03T16:45:10.221Z</time>
      </trkpt>
      <trkpt lat="48.39599" lon="4.92291">
        <ele>201.25</ele>
        <time>2025-01-03T16:45:14.136Z</time>
      </trkpt>
      <trkpt lat="48.39599" lon="4.92291">
        <ele>201.36</ele>
        <time>2025-01-03T16:45:18.051Z</time>
      </trkpt>
      <trkpt lat="48.39599" lon="4.92291">
        <ele>201.5</ele>
        <time>2025-01-03T16:45:21.966Z</time>
      </trkpt>
      <trkpt lat="48.39592" lon="4.92309">
        <ele>201.69</ele>
        <time>2025-01-03T16:45:25.883Z</time>
      </trkpt>
      <trkpt lat="48.39586" lon="4.92325">
        <ele>201.91</ele>
        <time>2025-01-03T16:45:29.802Z</time>
      </trkpt>
      <trkpt lat="48.39584" lon="4.92329">
        <ele>202.1</ele>
        <time>2025-01-03T16:45:33.722Z</time>
      </trkpt>
      <trkpt lat="48.39577" lon="4.92328">
        <ele>202.31</ele>
        <time>2025-01-03T16:45:37.643Z</time>
      </trkpt>
      <trkpt lat="48.39558" lon="4.92326">
        <ele>202.56</ele>
        <time>2025-01-03T16:45:41.567Z</time>
      </trkpt>
      <trkpt lat="48.39543" lon="4.9233">
        <ele>202.8</ele>
        <time>2025-01-03T16:45:45.493Z</time>
      </trkpt>
      <trkpt lat="48.3954" lon="4.92331">
        <ele>203.04</ele>
        <time>2025-01-03T16:45:49.420Z</time>
      </trkpt>
      <trkpt lat="48.39545" lon="4.92338">
        <ele>203.27</ele>
        <time>2025-01-03T16:45:53.348Z</time>
      </trkpt>
      <trkpt lat="48.39562" lon="4.92363">
        <ele>203.55</ele>
        <time>2025-01-03T16:45:57.280Z</time>
      </trkpt>
      <trkpt lat="48.39583" lon="4.92392">
        <ele>203.85</ele>
        <time>2025-01-03T16:46:01.217Z</time>
      </trkpt>
      <trkpt lat="48.39606" lon="4.92423">
        <ele>204.12</ele>
        <time>2025-01-03T16:46:05.159Z</time>
      </trkpt>
      <trkpt lat="48.39622" lon="4.92442">
        <ele>204.3</ele>
        <time>2025-01-03T16:46:09.104Z</time>
      </trkpt>
      <trkpt lat="48.3963" lon="4.92452">
        <ele>204.48</ele>
        <time>2025-01-03T16:46:13.050Z</time>
      </trkpt>
      <trkpt lat="48.39653" lon="4.92478">
        <ele>204.59</ele>
        <time>2025-01-03T16:46:17.001Z</time>
      </trkpt>
      <trkpt lat="48.39657" lon="4.92483">
        <ele>204.74</ele>
        <time>2025-01-03T16:46:20.953Z</time>
      </trkpt>
      <trkpt lat="48.3967" lon="4.925">
        <ele>204.88</ele>
        <time>2025-01-03T16:46:24.908Z</time>
      </trkpt>
      <trkpt lat="48.39683" lon="4.92516">
        <ele>205.02</ele>
        <time>2025-01-03T16:46:28.865Z</time>
      </trkpt>
      <trkpt lat="48.397" lon="4.92537">
        <ele>205.16</ele>
        <time>2025-01-03T16:46:32.826Z</time>
      </trkpt>
      <trkpt lat="48.39717" lon="4.92559">
        <ele>205.23</ele>
        <time>2025-01-03T16:46:36.791Z</time>
      </trkpt>
      <trkpt lat="48.39732" lon="4.92577">
        <ele>205.24</ele>
        <time>2025-01-03T16:46:40.758Z</time>
      </trkpt>
      <trkpt lat="48.39746" lon="4.92594">
        <ele>205.22</ele>
        <time>2025-01-03T16:46:44.728Z</time>
      </trkpt>
      <trkpt lat="48.39762" lon="4.92615">
        <ele>205.26</ele>
        <time>2025-01-03T16:46:48.702Z</time>
      </trkpt>
      <trkpt lat="48.39779" lon="4.92636">
        <ele>205.32</ele>
        <time>2025-01-03T16:46:52.679Z</time>
      </trkpt>
      <trkpt lat="48.39787" lon="4.92646">
        <ele>205.34</ele>
        <time>2025-01-03T16:46:56.658Z</time>
      </trkpt>
      <trkpt lat="48.39791" lon="4.92652">
        <ele>205.32</ele>
        <time>2025-01-03T16:47:00.638Z</time>
      </trkpt>
      <trkpt lat="48.39804" lon="4.92664">
        <ele>205.29</ele>
        <time>2025-01-03T16:47:04.620Z</time>
      </trkpt>
      <trkpt lat="48.39807" lon="4.92667">
        <ele>205.22</ele>
        <time>2025-01-03T16:47:08.603Z</time>
      </trkpt>
      <trkpt lat="48.39811" lon="4.92672">
        <ele>205.12</ele>
        <time>2025-01-03T16:47:12.587Z</time>
      </trkpt>
      <trkpt lat="48.3981" lon="4.9267">
        <ele>205.01</ele>
        <time>2025-01-03T16:47:16.571Z</time>
      </trkpt>
      <trkpt lat="48.3981" lon="4.92671">
        <ele>204.9</ele>
        <time>2025-01-03T16:47:20.555Z</time>
      </trkpt>
      <trkpt lat="48.39812" lon="4.92673">
        <ele>204.76</ele>
        <time>2025-01-03T16:47:24.540Z</time>
      </trkpt>
      <trkpt lat="48.39818" lon="4.92679">
        <ele>204.6</ele>
        <time>2025-01-03T16:47:28.526Z</time>
      </trkpt>
      <trkpt lat="48.39831" lon="4.92692">
        <ele>204.39</ele>
        <time>2025-01-03T16:47:32.514Z</time>
      </trkpt>
      <trkpt lat="48.39855" lon="4.92713">
        <ele>204.19</ele>
        <time>2025-01-03T16:47:36.507Z</time>
      </trkpt>
      <trkpt lat="48.39871" lon="4.92723">
        <ele>203.98</ele>
        <time>2025-01-03T16:47:40.503Z</time>
      </trkpt>
      <trkpt lat="48.39888" lon="4.92734">
        <ele>203.77</ele>
        <time>2025-01-03T16:47:44.502Z</time>
      </trkpt>
      <trkpt lat="48.39905" lon="4.92744">
        <ele>203.58</ele>
        <time>2025-01-03T16:47:48.503Z</time>
      </trkpt>
      <trkpt lat="48.39922" lon="4.92755">
        <ele>203.39</ele>
        <time>2025-01-03T16:47:52.507Z</time>
      </trkpt>
      <trkpt lat="48.39941" lon="4.92766">
        <ele>203.21</ele>
        <time>2025-01-03T16:47:56.515Z</time>
      </trkpt>
      <trkpt lat="48.3996" lon="4.92778">
        <ele>203.01</ele>
        <time>2025-01-03T16:48:00.526Z</time>
      </trkpt>
      <trkpt lat="48.39987" lon="4.92793">
        <ele>202.8</ele>
        <time>2025-01-03T16:48:04.542Z</time>
      </trkpt>
      <trkpt lat="48.40013" lon="4.92809">
        <ele>202.63</ele>
        <time>2025-01-03T16:48:08.562Z</time>
      </trkpt>
      <trkpt lat="48.40019" lon="4.92812">
        <ele>202.47</ele>
        <time>2025-01-03T16:48:12.583Z</time>
      </trkpt>
      <trkpt lat="48.40042" lon="4.92823">
        <ele>202.34</ele>
        <time>2025-01-03T16:48:16.608Z</time>
      </trkpt>
      <trkpt lat="48.40064" lon="4.92833">
        <ele>202.17</ele>
        <time>2025-01-03T16:48:20.637Z</time>
      </trkpt>
      <trkpt lat="48.4009" lon="4.92843">
        <ele>202.03</ele>
        <time>2025-01-03T16:48:24.670Z</time>
      </trkpt>
      <trkpt lat="48.40117" lon="4.92852">
        <ele>201.98</ele>
        <time>2025-01-03T16:48:28.707Z</time>
      </trkpt>
      <trkpt lat="48.40137" lon="4.9286">
        <ele>201.87</ele>
        <time>2025-01-03T16:48:32.748Z</time>
      </trkpt>
      <trkpt lat="48.40158" lon="4.92867">
        <ele>201.71</ele>
        <time>2025-01-03T16:48:36.792Z</time>
      </trkpt>
      <trkpt lat="48.40184" lon="4.92877">
        <ele>201.62</ele>
        <time>2025-01-03T16:48:40.840Z</time>
      </trkpt>
      <trkpt lat="48.40211" lon="4.92887">
        <ele>201.55</ele>
        <time>2025-01-03T16:48:44.893Z</time>
      </trkpt>
      <trkpt lat="48.40218" lon="4.9289">
        <ele>201.5</ele>
        <time>2025-01-03T16:48:48.947Z</time>
      </trkpt>
      <trkpt lat="48.40245" lon="4.92904">
        <ele>201.46</ele>
        <time>2025-01-03T16:48:53.006Z</time>
      </trkpt>
      <trkpt lat="48.40273" lon="4.92918">
        <ele>201.46</ele>
        <time>2025-01-03T16:48:57.069Z</time>
      </trkpt>
      <trkpt lat="48.40296" lon="4.92931">
        <ele>201.47</ele>
        <time>2025-01-03T16:49:01.136Z</time>
      </trkpt>
      <trkpt lat="48.40319" lon="4.92945">
        <ele>201.52</ele>
        <time>2025-01-03T16:49:05.207Z</time>
      </trkpt>
      <trkpt lat="48.4034" lon="4.92957">
        <ele>201.59</ele>
        <time>2025-01-03T16:49:09.282Z</time>
      </trkpt>
      <trkpt lat="48.40361" lon="4.92968">
        <ele>201.63</ele>
        <time>2025-01-03T16:49:13.360Z</time>
      </trkpt>
      <trkpt lat="48.40387" lon="4.92984">
        <ele>201.55</ele>
        <time>2025-01-03T16:49:17.443Z</time>
      </trkpt>
      <trkpt lat="48.40402" lon="4.92992">
        <ele>201.49</ele>
        <time>2025-01-03T16:49:21.528Z</time>
      </trkpt>
      <trkpt lat="48.40427" lon="4.9301">
        <ele>201.44</ele>
        <time>2025-01-03T16:49:25.618Z</time>
      </trkpt>
      <trkpt lat="48.40453" lon="4.93028">
        <ele>201.49</ele>
        <time>2025-01-03T16:49:29.712Z</time>
      </trkpt>
      <trkpt lat="48.40476" lon="4.93048">
        <ele>201.59</ele>
        <time>2025-01-03T16:49:33.811Z</time>
      </trkpt>
      <trkpt lat="48.405" lon="4.93069">
        <ele>201.64</ele>
        <time>2025-01-03T16:49:37.914Z</time>
      </trkpt>
      <trkpt lat="48.40524" lon="4.93098">
        <ele>201.68</ele>
        <time>2025-01-03T16:49:42.022Z</time>
      </trkpt>
      <trkpt lat="48.40548" lon="4.93127">
        <ele>201.68</ele>
        <time>2025-01-03T16:49:46.135Z</time>
      </trkpt>
      <trkpt lat="48.40567" lon="4.93156">
        <ele>201.74</ele>
        <time>2025-01-03T16:49:50.252Z</time>
      </trkpt>
      <trkpt lat="48.40586" lon="4.93184">
        <ele>201.79</ele>
        <time>2025-01-03T16:49:54.374Z</time>
      </trkpt>
      <trkpt lat="48.40591" lon="4.93192">
        <ele>201.88</ele>
        <time>2025-01-03T16:49:58.497Z</time>
      </trkpt>
      <trkpt lat="48.40607" lon="4.9322">
        <ele>201.96</ele>
        <time>2025-01-03T16:50:02.624Z</time>
      </trkpt>
      <trkpt lat="48.40623" lon="4.93248">
        <ele>202.05</ele>
        <time>2025-01-03T16:50:06.755Z</time>
      </trkpt>
      <trkpt lat="48.40639" lon="4.93277">
        <ele>202.18</ele>
        <time>2025-01-03T16:50:10.890Z</time>
      </trkpt>
      <trkpt lat="48.40656" lon="4.93306">
        <ele>202.34</ele>
        <time>2025-01-03T16:50:15.029Z</time>
      </trkpt>
      <trkpt lat="48.40669" lon="4.93326">
        <ele>202.49</ele>
        <time>2025-01-03T16:50:19.171Z</time>
      </trkpt>
      <trkpt lat="48.40682" lon="4.93346">
        <ele>202.65</ele>
        <time>2025-01-03T16:50:23.316Z</time>
      </trkpt>
      <trkpt lat="48.40695" lon="4.93365">
        <ele>202.73</ele>
        <time>2025-01-03T16:50:27.464Z</time>
      </trkpt>
      <trkpt lat="48.40708" lon="4.93384">
        <ele>202.79</ele>
        <time>2025-01-03T16:50:31.615Z</time>
      </trkpt>
      <trkpt lat="48.40722" lon="4.93405">
        <ele>202.87</ele>
        <time>2025-01-03T16:50:35.769Z</time>
      </trkpt>
      <trkpt lat="48.40737" lon="4.93426">
        <ele>203</ele>
        <time>2025-01-03T16:50:39.926Z</time>
      </trkpt>
      <trkpt lat="48.40752" lon="4.93449">
        <ele>203.16</ele>
        <time>2025-01-03T16:50:44.087Z</time>
      </trkpt>
      <trkpt lat="48.40768" lon="4.93472">
        <ele>203.3</ele>
        <time>2025-01-03T16:50:48.251Z</time>
      </trkpt>
      <trkpt lat="48.40786" lon="4.93503">
        <ele>203.42</ele>
        <time>2025-01-03T16:50:52.419Z</time>
      </trkpt>
      <trkpt lat="48.40805" lon="4.93533">
        <ele>203.53</ele>
        <time>2025-01-03T16:50:56.592Z</time>
      </trkpt>
      <trkpt lat="48.40823" lon="4.93563">
        <ele>203.61</ele>
        <time>2025-01-03T16:51:00.769Z</time>
      </trkpt>
      <trkpt lat="48.40841" lon="4.93593">
        <ele>203.74</ele>
        <time>2025-01-03T16:51:04.950Z</time>
      </trkpt>
      <trkpt lat="48.40856" lon="4.93617">
        <ele>203.8</ele>
        <time>2025-01-03T16:51:09.135Z</time>
      </trkpt>
      <trkpt lat="48.4087" lon="4.9364">
        <ele>203.82</ele>
        <time>2025-01-03T16:51:13.323Z</time>
      </trkpt>
      <trkpt lat="48.40889" lon="4.93669">
        <ele>203.79</ele>
        <time>2025-01-03T16:51:17.516Z</time>
      </trkpt>
      <trkpt lat="48.40908" lon="4.93698">
        <ele>203.71</ele>
        <time>2025-01-03T16:51:21.713Z</time>
      </trkpt>
      <trkpt lat="48.40917" lon="4.9371">
        <ele>203.62</ele>
        <time>2025-01-03T16:51:25.912Z</time>
      </trkpt>
      <trkpt lat="48.40926" lon="4.9372">
        <ele>203.51</ele>
        <time>2025-01-03T16:51:30.113Z</time>
      </trkpt>
      <trkpt lat="48.40942" lon="4.93739">
        <ele>203.37</ele>
        <time>2025-01-03T16:51:34.317Z</time>
      </trkpt>
      <trkpt lat="48.40957" lon="4.93758">
        <ele>203.23</ele>
        <time>2025-01-03T16:51:38.524Z</time>
      </trkpt>
      <trkpt lat="48.40979" lon="4.93786">
        <ele>202.99</ele>
        <time>2025-01-03T16:51:42.736Z</time>
      </trkpt>
      <trkpt lat="48.41" lon="4.93803">
        <ele>202.68</ele>
        <time>2025-01-03T16:51:46.951Z</time>
      </trkpt>
      <trkpt lat="48.41021" lon="4.93821">
        <ele>202.38</ele>
        <time>2025-01-03T16:51:51.170Z</time>
      </trkpt>
      <trkpt lat="48.41041" lon="4.93835">
        <ele>202.09</ele>
        <time>2025-01-03T16:51:55.393Z</time>
      </trkpt>
      <trkpt lat="48.41061" lon="4.93849">
        <ele>201.84</ele>
        <time>2025-01-03T16:51:59.619Z</time>
      </trkpt>
      <trkpt lat="48.41079" lon="4.93861">
        <ele>201.62</ele>
        <time>2025-01-03T16:52:03.849Z</time>
      </trkpt>
      <trkpt lat="48.41097" lon="4.93872">
        <ele>201.28</ele>
        <time>2025-01-03T16:52:08.082Z</time>
      </trkpt>
      <trkpt lat="48.41117" lon="4.93881">
        <ele>200.86</ele>
        <time>2025-01-03T16:52:12.318Z</time>
      </trkpt>
      <trkpt lat="48.41136" lon="4.9389">
        <ele>200.4</ele>
        <time>2025-01-03T16:52:16.557Z</time>
      </trkpt>
      <trkpt lat="48.41164" lon="4.93899">
        <ele>199.92</ele>
        <time>2025-01-03T16:52:20.801Z</time>
      </trkpt>
      <trkpt lat="48.41192" lon="4.93908">
        <ele>199.44</ele>
        <time>2025-01-03T16:52:25.049Z</time>
      </trkpt>
      <trkpt lat="48.41213" lon="4.93915">
        <ele>199.04</ele>
        <time>2025-01-03T16:52:29.301Z</time>
      </trkpt>
      <trkpt lat="48.41234" lon="4.93921">
        <ele>198.62</ele>
        <time>2025-01-03T16:52:33.556Z</time>
      </trkpt>
      <trkpt lat="48.4126" lon="4.9393">
        <ele>198.19</ele>
        <time>2025-01-03T16:52:37.816Z</time>
      </trkpt>
      <trkpt lat="48.41287" lon="4.93939">
        <ele>197.7</ele>
        <time>2025-01-03T16:52:42.080Z</time>
      </trkpt>
      <trkpt lat="48.41314" lon="4.93948">
        <ele>197.18</ele>
        <time>2025-01-03T16:52:46.348Z</time>
      </trkpt>
      <trkpt lat="48.41341" lon="4.93956">
        <ele>196.67</ele>
        <time>2025-01-03T16:52:50.621Z</time>
      </trkpt>
      <trkpt lat="48.41367" lon="4.93965">
        <ele>196.16</ele>
        <time>2025-01-03T16:52:54.898Z</time>
      </trkpt>
      <trkpt lat="48.41393" lon="4.93973">
        <ele>195.63</ele>
        <time>2025-01-03T16:52:59.179Z</time>
      </trkpt>
      <trkpt lat="48.41421" lon="4.93985">
        <ele>195.11</ele>
        <time>2025-01-03T16:53:03.465Z</time>
      </trkpt>
      <trkpt lat="48.41449" lon="4.93996">
        <ele>194.6</ele>
        <time>2025-01-03T16:53:07.756Z</time>
      </trkpt>
      <trkpt lat="48.41464" lon="4.94006">
        <ele>194.18</ele>
        <time>2025-01-03T16:53:12.049Z</time>
      </trkpt>
      <trkpt lat="48.41478" lon="4.94017">
        <ele>193.76</ele>
        <time>2025-01-03T16:53:16.345Z</time>
      </trkpt>
      <trkpt lat="48.41491" lon="4.94039">
        <ele>193.34</ele>
        <time>2025-01-03T16:53:20.644Z</time>
      </trkpt>
      <trkpt lat="48.41506" lon="4.94063">
        <ele>192.95</ele>
        <time>2025-01-03T16:53:24.946Z</time>
      </trkpt>
      <trkpt lat="48.41523" lon="4.94061">
        <ele>192.6</ele>
        <time>2025-01-03T16:53:29.251Z</time>
      </trkpt>
      <trkpt lat="48.41537" lon="4.94064">
        <ele>192.25</ele>
        <time>2025-01-03T16:53:33.558Z</time>
      </trkpt>
      <trkpt lat="48.41542" lon="4.94073">
        <ele>191.93</ele>
        <time>2025-01-03T16:53:37.867Z</time>
      </trkpt>
      <trkpt lat="48.41547" lon="4.9409">
        <ele>191.62</ele>
        <time>2025-01-03T16:53:42.178Z</time>
      </trkpt>
      <trkpt lat="48.41547" lon="4.94103">
        <ele>191.38</ele>
        <time>2025-01-03T16:53:46.490Z</time>
      </trkpt>
      <trkpt lat="48.41548" lon="4.94119">
        <ele>191.17</ele>
        <time>2025-01-03T16:53:50.804Z</time>
      </trkpt>
      <trkpt lat="48.41547" lon="4.94095">
        <ele>190.99</ele>
        <time>2025-01-03T16:53:55.120Z</time>
      </trkpt>
      <trkpt lat="48.41546" lon="4.9409">
        <ele>190.85</ele>
        <time>2025-01-03T16:53:59.437Z</time>
      </trkpt>
      <trkpt lat="48.41546" lon="4.9408">
        <ele>190.75</ele>
        <time>2025-01-03T16:54:03.755Z</time>
      </trkpt>
      <trkpt lat="48.41547" lon="4.94094">
        <ele>190.64</ele>
        <time>2025-01-03T16:54:08.074Z</time>
      </trkpt>
      <trkpt lat="48.41547" lon="4.941">
        <ele>190.59</ele>
        <time>2025-01-03T16:54:12.394Z</time>
      </trkpt>
      <trkpt lat="48.41547" lon="4.94106">
        <ele>190.56</ele>
        <time>2025-01-03T16:54:16.715Z</time>
      </trkpt>
      <trkpt lat="48.41545" lon="4.94126">
        <ele>190.55</ele>
        <time>2025-01-03T16:54:21.038Z</time>
      </trkpt>
      <trkpt lat="48.41535" lon="4.94148">
        <ele>190.58</ele>
        <time>2025-01-03T16:54:25.364Z</time>
      </trkpt>
      <trkpt lat="48.41534" lon="4.9415">
        <ele>190.64</ele>
        <time>2025-01-03T16:54:29.690Z</time>
      </trkpt>
      <trkpt lat="48.41531" lon="4.94157">
        <ele>190.73</ele>
        <time>2025-01-03T16:54:34.017Z</time>
      </trkpt>
      <trkpt lat="48.41533" lon="4.94176">
        <ele>190.83</ele>
        <time>2025-01-03T16:54:38.346Z</time>
      </trkpt>
      <trkpt lat="48.41539" lon="4.94209">
        <ele>190.93</ele>
        <time>2025-01-03T16:54:42.678Z</time>
      </trkpt>
      <trkpt lat="48.41547" lon="4.9425">
        <ele>191.07</ele>
        <time>2025-01-03T16:54:47.015Z</time>
      </trkpt>
      <trkpt lat="48.41546" lon="4.94259">
        <ele>191.25</ele>
        <time>2025-01-03T16:54:51.353Z</time>
      </trkpt>
      <trkpt lat="48.41544" lon="4.94261">
        <ele>191.43</ele>
        <time>2025-01-03T16:54:55.691Z</time>
      </trkpt>
      <trkpt lat="48.41533" lon="4.94268">
        <ele>191.65</ele>
        <time>2025-01-03T16:55:00.031Z</time>
      </trkpt>
      <trkpt lat="48.41515" lon="4.94276">
        <ele>191.9</ele>
        <time>2025-01-03T16:55:04.374Z</time>
      </trkpt>
      <trkpt lat="48.41499" lon="4.94282">
        <ele>192.12</ele>
        <time>2025-01-03T16:55:08.720Z</time>
      </trkpt>
      <trkpt lat="48.41482" lon="4.94289">
        <ele>192.31</ele>
        <time>2025-01-03T16:55:13.069Z</time>
      </trkpt>
      <trkpt lat="48.41464" lon="4.94295">
        <ele>192.49</ele>
        <time>2025-01-03T16:55:17.421Z</time>
      </trkpt>
      <trkpt lat="48.4146" lon="4.94296">
        <ele>192.7</ele>
        <time>2025-01-03T16:55:21.773Z</time>
      </trkpt>
      <trkpt lat="48.41458" lon="4.94289">
        <ele>192.92</ele>
        <time>2025-01-03T16:55:26.126Z</time>
      </trkpt>
      <trkpt lat="48.41451" lon="4.94264">
        <ele>193.17</ele>
        <time>2025-01-03T16:55:30.482Z</time>
      </trkpt>
      <trkpt lat="48.41444" lon="4.9424">
        <ele>193.4</ele>
        <time>2025-01-03T16:55:34.841Z</time>
      </trkpt>
      <trkpt lat="48.4143" lon="4.94211">
        <ele>193.67</ele>
        <time>2025-01-03T16:55:39.204Z</time>
      </trkpt>
      <trkpt lat="48.41421" lon="4.94192">
        <ele>193.9</ele>
        <time>2025-01-03T16:55:43.569Z</time>
      </trkpt>
      <trkpt lat="48.41415" lon="4.94178">
        <ele>194.11</ele>
        <time>2025-01-03T16:55:47.936Z</time>
      </trkpt>
      <trkpt lat="48.41411" lon="4.9418">
        <ele>194.27</ele>
        <time>2025-01-03T16:55:52.304Z</time>
      </trkpt>
      <trkpt lat="48.4141" lon="4.94183">
        <ele>194.39</ele>
        <time>2025-01-03T16:55:56.672Z</time>
      </trkpt>
      <trkpt lat="48.41402" lon="4.94199">
        <ele>194.5</ele>
        <time>2025-01-03T16:56:01.042Z</time>
      </trkpt>
      <trkpt lat="48.41392" lon="4.94218">
        <ele>194.56</ele>
        <time>2025-01-03T16:56:05.415Z</time>
      </trkpt>
      <trkpt lat="48.41382" lon="4.94237">
        <ele>194.62</ele>
        <time>2025-01-03T16:56:09.790Z</time>
      </trkpt>
      <trkpt lat="48.41379" lon="4.94244">
        <ele>194.63</ele>
        <time>2025-01-03T16:56:14.166Z</time>
      </trkpt>
      <trkpt lat="48.41364" lon="4.9427">
        <ele>194.65</ele>
        <time>2025-01-03T16:56:18.546Z</time>
      </trkpt>
      <trkpt lat="48.41353" lon="4.94288">
        <ele>194.61</ele>
        <time>2025-01-03T16:56:22.928Z</time>
      </trkpt>
      <trkpt lat="48.41341" lon="4.94305">
        <ele>194.59</ele>
        <time>2025-01-03T16:56:27.313Z</time>
      </trkpt>
      <trkpt lat="48.41323" lon="4.94332">
        <ele>194.51</ele>
        <time>2025-01-03T16:56:31.702Z</time>
      </trkpt>
      <trkpt lat="48.41305" lon="4.94358">
        <ele>194.4</ele>
        <time>2025-01-03T16:56:36.095Z</time>
      </trkpt>
      <trkpt lat="48.41287" lon="4.94383">
        <ele>194.3</ele>
        <time>2025-01-03T16:56:40.492Z</time>
      </trkpt>
      <trkpt lat="48.41268" lon="4.94409">
        <ele>194.16</ele>
        <time>2025-01-03T16:56:44.893Z</time>
      </trkpt>
      <trkpt lat="48.41252" lon="4.94431">
        <ele>194.07</ele>
        <time>2025-01-03T16:56:49.298Z</time>
      </trkpt>
      <trkpt lat="48.41236" lon="4.94452">
        <ele>193.98</ele>
        <time>2025-01-03T16:56:53.706Z</time>
      </trkpt>
      <trkpt lat="48.41218" lon="4.94478">
        <ele>193.88</ele>
        <time>2025-01-03T16:56:58.118Z</time>
      </trkpt>
      <trkpt lat="48.41199" lon="4.94504">
        <ele>193.82</ele>
        <time>2025-01-03T16:57:02.534Z</time>
      </trkpt>
      <trkpt lat="48.41178" lon="4.94537">
        <ele>193.71</ele>
        <time>2025-01-03T16:57:06.955Z</time>
      </trkpt>
      <trkpt lat="48.41175" lon="4.94545">
        <ele>193.58</ele>
        <time>2025-01-03T16:57:11.377Z</time>
      </trkpt>
      <trkpt lat="48.41168" lon="4.94567">
        <ele>193.44</ele>
        <time>2025-01-03T16:57:15.802Z</time>
      </trkpt>
      <trkpt lat="48.41161" lon="4.94588">
        <ele>193.32</ele>
        <time>2025-01-03T16:57:20.229Z</time>
      </trkpt>
      <trkpt lat="48.41155" lon="4.94627">
        <ele>193.17</ele>
        <time>2025-01-03T16:57:24.660Z</time>
      </trkpt>
      <trkpt lat="48.41152" lon="4.94655">
        <ele>193.11</ele>
        <time>2025-01-03T16:57:29.094Z</time>
      </trkpt>
      <trkpt lat="48.41149" lon="4.94683">
        <ele>193.09</ele>
        <time>2025-01-03T16:57:33.531Z</time>
      </trkpt>
      <trkpt lat="48.41149" lon="4.94713">
        <ele>193.11</ele>
        <time>2025-01-03T16:57:37.972Z</time>
      </trkpt>
      <trkpt lat="48.41149" lon="4.94743">
        <ele>193.11</ele>
        <time>2025-01-03T16:57:42.416Z</time>
      </trkpt>
      <trkpt lat="48.41145" lon="4.94767">
        <ele>193.15</ele>
        <time>2025-01-03T16:57:46.862Z</time>
      </trkpt>
      <trkpt lat="48.4114" lon="4.94784">
        <ele>193.19</ele>
        <time>2025-01-03T16:57:51.310Z</time>
      </trkpt>
      <trkpt lat="48.41129" lon="4.94812">
        <ele>193.22</ele>
        <time>2025-01-03T16:57:55.762Z</time>
      </trkpt>
      <trkpt lat="48.41117" lon="4.94839">
        <ele>193.31</ele>
        <time>2025-01-03T16:58:00.217Z</time>
      </trkpt>
      <trkpt lat="48.41102" lon="4.94866">
        <ele>193.48</ele>
        <time>2025-01-03T16:58:04.676Z</time>
      </trkpt>
      <trkpt lat="48.41088" lon="4.94893">
        <ele>193.75</ele>
        <time>2025-01-03T16:58:09.139Z</time>
      </trkpt>
      <trkpt lat="48.41071" lon="4.94924">
        <ele>193.97</ele>
        <time>2025-01-03T16:58:13.606Z</time>
      </trkpt>
      <trkpt lat="48.41054" lon="4.94954">
        <ele>194.27</ele>
        <time>2025-01-03T16:58:18.077Z</time>
      </trkpt>
      <trkpt lat="48.41038" lon="4.94985">
        <ele>194.62</ele>
        <time>2025-01-03T16:58:22.552Z</time>
      </trkpt>
      <trkpt lat="48.41021" lon="4.95015">
        <ele>195.02</ele>
        <time>2025-01-03T16:58:27.032Z</time>
      </trkpt>
      <trkpt lat="48.41007" lon="4.95039">
        <ele>195.47</ele>
        <time>2025-01-03T16:58:31.515Z</time>
      </trkpt>
      <trkpt lat="48.40993" lon="4.95063">
        <ele>195.96</ele>
        <time>2025-01-03T16:58:36.001Z</time>
      </trkpt>
      <trkpt lat="48.40977" lon="4.95085">
        <ele>196.45</ele>
        <time>2025-01-03T16:58:40.491Z</time>
      </trkpt>
      <trkpt lat="48.4096" lon="4.95107">
        <ele>197</ele>
        <time>2025-01-03T16:58:44.984Z</time>
      </trkpt>
      <trkpt lat="48.40937" lon="4.95137">
        <ele>197.64</ele>
        <time>2025-01-03T16:58:49.482Z</time>
      </trkpt>
      <trkpt lat="48.40922" lon="4.95156">
        <ele>198.25</ele>
        <time>2025-01-03T16:58:53.983Z</time>
      </trkpt>
      <trkpt lat="48.40908" lon="4.95175">
        <ele>198.86</ele>
        <time>2025-01-03T16:58:58.488Z</time>
      </trkpt>
      <trkpt lat="48.4089" lon="4.952">
        <ele>199.52</ele>
        <time>2025-01-03T16:59:02.996Z</time>
      </trkpt>
      <trkpt lat="48.40872" lon="4.95232">
        <ele>200.21</ele>
        <time>2025-01-03T16:59:07.509Z</time>
      </trkpt>
      <trkpt lat="48.40866" lon="4.95263">
        <ele>200.87</ele>
        <time>2025-01-03T16:59:12.025Z</time>
      </trkpt>
      <trkpt lat="48.40858" lon="4.95279">
        <ele>201.47</ele>
        <time>2025-01-03T16:59:16.543Z</time>
      </trkpt>
      <trkpt lat="48.40849" lon="4.95293">
        <ele>202.09</ele>
        <time>2025-01-03T16:59:21.064Z</time>
      </trkpt>
      <trkpt lat="48.40838" lon="4.95312">
        <ele>202.69</ele>
        <time>2025-01-03T16:59:25.587Z</time>
      </trkpt>
      <trkpt lat="48.40827" lon="4.95331">
        <ele>203.27</ele>
        <time>2025-01-03T16:59:30.113Z</time>
      </trkpt>
      <trkpt lat="48.40812" lon="4.95354">
        <ele>203.89</ele>
        <time>2025-01-03T16:59:34.642Z</time>
      </trkpt>
      <trkpt lat="48.40798" lon="4.95377">
        <ele>204.54</ele>
        <time>2025-01-03T16:59:39.175Z</time>
      </trkpt>
      <trkpt lat="48.40782" lon="4.95403">
        <ele>205.23</ele>
        <time>2025-01-03T16:59:43.711Z</time>
      </trkpt>
      <trkpt lat="48.40766" lon="4.95428">
        <ele>205.95</ele>
        <time>2025-01-03T16:59:48.251Z</time>
      </trkpt>
      <trkpt lat="48.40744" lon="4.95457">
        <ele>206.62</ele>
        <time>2025-01-03T16:59:52.796Z</time>
      </trkpt>
      <trkpt lat="48.40727" lon="4.9547">
        <ele>207.21</ele>
        <time>2025-01-03T16:59:57.344Z</time>
      </trkpt>
      <trkpt lat="48.40714" lon="4.9548">
        <ele>207.81</ele>
        <time>2025-01-03T17:00:01.894Z</time>
      </trkpt>
      <trkpt lat="48.40699" lon="4.95492">
        <ele>208.38</ele>
        <time>2025-01-03T17:00:06.447Z</time>
      </trkpt>
      <trkpt lat="48.40684" lon="4.95503">
        <ele>208.91</ele>
        <time>2025-01-03T17:00:11.003Z</time>
      </trkpt>
      <trkpt lat="48.40668" lon="4.95516">
        <ele>209.45</ele>
        <time>2025-01-03T17:00:15.562Z</time>
      </trkpt>
      <trkpt lat="48.40652" lon="4.95528">
        <ele>209.94</ele>
        <time>2025-01-03T17:00:20.123Z</time>
      </trkpt>
      <trkpt lat="48.40636" lon="4.9554">
        <ele>210.39</ele>
        <time>2025-01-03T17:00:24.687Z</time>
      </trkpt>
      <trkpt lat="48.40619" lon="4.95553">
        <ele>210.79</ele>
        <time>2025-01-03T17:00:29.254Z</time>
      </trkpt>
      <trkpt lat="48.40605" lon="4.95564">
        <ele>211.15</ele>
        <time>2025-01-03T17:00:33.824Z</time>
      </trkpt>
      <trkpt lat="48.4059" lon="4.95575">
        <ele>211.47</ele>
        <time>2025-01-03T17:00:38.397Z</time>
      </trkpt>
      <trkpt lat="48.4057" lon="4.95591">
        <ele>211.75</ele>
        <time>2025-01-03T17:00:42.973Z</time>
      </trkpt>
      <trkpt lat="48.40551" lon="4.95606">
        <ele>212.04</ele>
        <time>2025-01-03T17:00:47.553Z</time>
      </trkpt>
      <trkpt lat="48.40531" lon="4.95618">
        <ele>212.3</ele>
        <time>2025-01-03T17:00:52.136Z</time>
      </trkpt>
      <trkpt lat="48.40511" lon="4.9563">
        <ele>212.52</ele>
        <time>2025-01-03T17:00:56.722Z</time>
      </trkpt>
      <trkpt lat="48.40486" lon="4.9564">
        <ele>212.7</ele>
        <time>2025-01-03T17:01:01.313Z</time>
      </trkpt>
      <trkpt lat="48.40461" lon="4.95651">
        <ele>212.87</ele>
        <time>2025-01-03T17:01:05.908Z</time>
      </trkpt>
      <trkpt lat="48.4044" lon="4.95659">
        <ele>213.05</ele>
        <time>2025-01-03T17:01:10.506Z</time>
      </trkpt>
      <trkpt lat="48.40419" lon="4.95668">
        <ele>213.15</ele>
        <time>2025-01-03T17:01:15.108Z</time>
      </trkpt>
      <trkpt lat="48.40398" lon="4.95675">
        <ele>213.17</ele>
        <time>2025-01-03T17:01:19.713Z</time>
      </trkpt>
      <trkpt lat="48.40376" lon="4.95683">
        <ele>213.13</ele>
        <time>2025-01-03T17:01:24.322Z</time>
      </trkpt>
      <trkpt lat="48.40351" lon="4.9569">
        <ele>213.04</ele>
        <time>2025-01-03T17:01:28.935Z</time>
      </trkpt>
      <trkpt lat="48.40326" lon="4.95698">
        <ele>212.97</ele>
        <time>2025-01-03T17:01:33.552Z</time>
      </trkpt>
      <trkpt lat="48.40306" lon="4.95704">
        <ele>212.83</ele>
        <time>2025-01-03T17:01:38.172Z</time>
      </trkpt>
      <trkpt lat="48.40286" lon="4.9571">
        <ele>212.58</ele>
        <time>2025-01-03T17:01:42.796Z</time>
      </trkpt>
      <trkpt lat="48.40259" lon="4.9572">
        <ele>212.26</ele>
        <time>2025-01-03T17:01:47.424Z</time>
      </trkpt>
      <trkpt lat="48.40232" lon="4.9573">
        <ele>211.9</ele>
        <time>2025-01-03T17:01:52.056Z</time>
      </trkpt>
      <trkpt lat="48.40209" lon="4.9574">
        <ele>211.5</ele>
        <time>2025-01-03T17:01:56.692Z</time>
      </trkpt>
      <trkpt lat="48.40186" lon="4.9575">
        <ele>211.08</ele>
        <time>2025-01-03T17:02:01.332Z</time>
      </trkpt>
      <trkpt lat="48.4016" lon="4.9577">
        <ele>210.72</ele>
        <time>2025-01-03T17:02:05.977Z</time>
      </trkpt>
      <trkpt lat="48.40134" lon="4.9579">
        <ele>210.32</ele>
        <time>2025-01-03T17:02:10.626Z</time>
      </trkpt>
      <trkpt lat="48.4011" lon="4.95811">
        <ele>209.92</ele>
        <time>2025-01-03T17:02:15.280Z</time>
      </trkpt>
      <trkpt lat="48.40086" lon="4.95832">
        <ele>209.48</ele>
        <time>2025-01-03T17:02:19.938Z</time>
      </trkpt>
      <trkpt lat="48.40073" lon="4.95844">
        <ele>209.08</ele>
        <time>2025-01-03T17:02:24.599Z</time>
      </trkpt>
      <trkpt lat="48.40051" lon="4.95869">
        <ele>208.73</ele>
        <time>2025-01-03T17:02:29.264Z</time>
      </trkpt>
      <trkpt lat="48.40029" lon="4.95894">
        <ele>208.35</ele>
        <time>2025-01-03T17:02:33.934Z</time>
      </trkpt>
      <trkpt lat="48.40012" lon="4.95914">
        <ele>207.94</ele>
        <time>2025-01-03T17:02:38.607Z</time>
      </trkpt>
      <trkpt lat="48.39996" lon="4.95934">
        <ele>207.52</ele>
        <time>2025-01-03T17:02:43.283Z</time>
      </trkpt>
      <trkpt lat="48.39975" lon="4.9596">
        <ele>207.13</ele>
        <time>2025-01-03T17:02:47.964Z</time>
      </trkpt>
      <trkpt lat="48.39955" lon="4.95986">
        <ele>206.77</ele>
        <time>2025-01-03T17:02:52.649Z</time>
      </trkpt>
      <trkpt lat="48.39936" lon="4.96008">
        <ele>206.43</ele>
        <time>2025-01-03T17:02:57.338Z</time>
      </trkpt>
      <trkpt lat="48.39917" lon="4.9603">
        <ele>206.11</ele>
        <time>2025-01-03T17:03:02.031Z</time>
      </trkpt>
      <trkpt lat="48.39898" lon="4.96044">
        <ele>205.84</ele>
        <time>2025-01-03T17:03:06.727Z</time>
      </trkpt>
      <trkpt lat="48.39878" lon="4.96057">
        <ele>205.63</ele>
        <time>2025-01-03T17:03:11.427Z</time>
      </trkpt>
      <trkpt lat="48.39852" lon="4.96073">
        <ele>205.37</ele>
        <time>2025-01-03T17:03:16.131Z</time>
      </trkpt>
      <trkpt lat="48.39825" lon="4.96089">
        <ele>205.22</ele>
        <time>2025-01-03T17:03:20.840Z</time>
      </trkpt>
      <trkpt lat="48.39811" lon="4.96097">
        <ele>205.07</ele>
        <time>2025-01-03T17:03:25.551Z</time>
      </trkpt>
      <trkpt lat="48.39786" lon="4.96113">
        <ele>205</ele>
        <time>2025-01-03T17:03:30.266Z</time>
      </trkpt>
      <trkpt lat="48.3976" lon="4.96128">
        <ele>204.93</ele>
        <time>2025-01-03T17:03:34.986Z</time>
      </trkpt>
      <trkpt lat="48.3974" lon="4.9614">
        <ele>204.92</ele>
        <time>2025-01-03T17:03:39.709Z</time>
      </trkpt>
      <trkpt lat="48.3972" lon="4.96152">
        <ele>204.91</ele>
        <time>2025-01-03T17:03:44.436Z</time>
      </trkpt>
      <trkpt lat="48.39699" lon="4.96165">
        <ele>204.93</ele>
        <time>2025-01-03T17:03:49.166Z</time>
      </trkpt>
      <trkpt lat="48.39677" lon="4.96177">
        <ele>204.98</ele>
        <time>2025-01-03T17:03:53.900Z</time>
      </trkpt>
      <trkpt lat="48.3966" lon="4.96192">
        <ele>205.04</ele>
        <time>2025-01-03T17:03:58.637Z</time>
      </trkpt>
      <trkpt lat="48.39644" lon="4.96207">
        <ele>205.16</ele>
        <time>2025-01-03T17:04:03.377Z</time>
      </trkpt>
      <trkpt lat="48.3963" lon="4.96222">
        <ele>205.26</ele>
        <time>2025-01-03T17:04:08.120Z</time>
      </trkpt>
      <trkpt lat="48.39617" lon="4.96238">
        <ele>205.4</ele>
        <time>2025-01-03T17:04:12.866Z</time>
      </trkpt>
      <trkpt lat="48.39603" lon="4.96262">
        <ele>205.55</ele>
        <time>2025-01-03T17:04:17.615Z</time>
      </trkpt>
      <trkpt lat="48.3959" lon="4.96287">
        <ele>205.72</ele>
        <time>2025-01-03T17:04:22.368Z</time>
      </trkpt>
      <trkpt lat="48.39577" lon="4.9631">
        <ele>205.9</ele>
        <time>2025-01-03T17:04:27.124Z</time>
      </trkpt>
      <trkpt lat="48.39564" lon="4.96333">
        <ele>206.1</ele>
        <time>2025-01-03T17:04:31.883Z</time>
      </trkpt>
      <trkpt lat="48.39552" lon="4.96353">
        <ele>206.34</ele>
        <time>2025-01-03T17:04:36.645Z</time>
      </trkpt>
      <trkpt lat="48.39541" lon="4.96372">
        <ele>206.62</ele>
        <time>2025-01-03T17:04:41.410Z</time>
      </trkpt>
      <trkpt lat="48.39529" lon="4.96389">
        <ele>206.89</ele>
        <time>2025-01-03T17:04:46.177Z</time>
      </trkpt>
      <trkpt lat="48.39518" lon="4.96407">
        <ele>207.17</ele>
        <time>2025-01-03T17:04:50.947Z</time>
      </trkpt>
      <trkpt lat="48.39513" lon="4.96411">
        <ele>207.43</ele>
        <time>2025-01-03T17:04:55.718Z</time>
      </trkpt>
      <trkpt lat="48.39498" lon="4.96424">
        <ele>207.68</ele>
        <time>2025-01-03T17:05:00.491Z</time>
      </trkpt>
      <trkpt lat="48.39479" lon="4.96439">
        <ele>207.94</ele>
        <time>2025-01-03T17:05:05.268Z</time>
      </trkpt>
      <trkpt lat="48.39459" lon="4.96454">
        <ele>208.19</ele>
        <time>2025-01-03T17:05:10.049Z</time>
      </trkpt>
      <trkpt lat="48.39434" lon="4.96476">
        <ele>208.44</ele>
        <time>2025-01-03T17:05:14.834Z</time>
      </trkpt>
      <trkpt lat="48.3943" lon="4.96485">
        <ele>208.74</ele>
        <time>2025-01-03T17:05:19.620Z</time>
      </trkpt>
      <trkpt lat="48.39414" lon="4.96516">
        <ele>209.06</ele>
        <time>2025-01-03T17:05:24.410Z</time>
      </trkpt>
      <trkpt lat="48.39399" lon="4.96547">
        <ele>209.35</ele>
        <time>2025-01-03T17:05:29.205Z</time>
      </trkpt>
      <trkpt lat="48.39385" lon="4.96576">
        <ele>209.63</ele>
        <time>2025-01-03T17:05:34.003Z</time>
      </trkpt>
      <trkpt lat="48.39372" lon="4.96605">
        <ele>210</ele>
        <time>2025-01-03T17:05:38.805Z</time>
      </trkpt>
      <trkpt lat="48.39362" lon="4.96627">
        <ele>210.32</ele>
        <time>2025-01-03T17:05:43.610Z</time>
      </trkpt>
      <trkpt lat="48.39353" lon="4.96648">
        <ele>210.72</ele>
        <time>2025-01-03T17:05:48.418Z</time>
      </trkpt>
      <trkpt lat="48.3934" lon="4.96678">
        <ele>211.11</ele>
        <time>2025-01-03T17:05:53.229Z</time>
      </trkpt>
      <trkpt lat="48.39326" lon="4.96708">
        <ele>211.48</ele>
        <time>2025-01-03T17:05:58.044Z</time>
      </trkpt>
      <trkpt lat="48.39315" lon="4.96734">
        <ele>211.82</ele>
        <time>2025-01-03T17:06:02.863Z</time>
      </trkpt>
      <trkpt lat="48.39304" lon="4.9676">
        <ele>212.12</ele>
        <time>2025-01-03T17:06:07.685Z</time>
      </trkpt>
      <trkpt lat="48.39294" lon="4.96786">
        <ele>212.47</ele>
        <time>2025-01-03T17:06:12.510Z</time>
      </trkpt>
      <trkpt lat="48.39284" lon="4.96812">
        <ele>212.8</ele>
        <time>2025-01-03T17:06:17.338Z</time>
      </trkpt>
      <trkpt lat="48.39276" lon="4.96835">
        <ele>213.12</ele>
        <time>2025-01-03T17:06:22.169Z</time>
      </trkpt>
      <trkpt lat="48.39268" lon="4.96857">
        <ele>213.48</ele>
        <time>2025-01-03T17:06:27.003Z</time>
      </trkpt>
      <trkpt lat="48.3926" lon="4.96883">
        <ele>213.83</ele>
        <time>2025-01-03T17:06:31.840Z</time>
      </trkpt>
      <trkpt lat="48.39252" lon="4.96909">
        <ele>214.08</ele>
        <time>2025-01-03T17:06:36.680Z</time>
      </trkpt>
      <trkpt lat="48.39248" lon="4.96934">
        <ele>214.4</ele>
        <time>2025-01-03T17:06:41.523Z</time>
      </trkpt>
      <trkpt lat="48.39243" lon="4.96958">
        <ele>214.68</ele>
        <time>2025-01-03T17:06:46.368Z</time>
      </trkpt>
      <trkpt lat="48.39242" lon="4.96967">
        <ele>215</ele>
        <time>2025-01-03T17:06:51.214Z</time>
      </trkpt>
      <trkpt lat="48.39237" lon="4.97002">
        <ele>215.34</ele>
        <time>2025-01-03T17:06:56.064Z</time>
      </trkpt>
      <trkpt lat="48.39231" lon="4.97037">
        <ele>215.71</ele>
        <time>2025-01-03T17:07:00.918Z</time>
      </trkpt>
      <trkpt lat="48.39227" lon="4.97064">
        <ele>216.04</ele>
        <time>2025-01-03T17:07:05.775Z</time>
      </trkpt>
      <trkpt lat="48.39222" lon="4.97091">
        <ele>216.39</ele>
        <time>2025-01-03T17:07:10.635Z</time>
      </trkpt>
      <trkpt lat="48.39215" lon="4.97122">
        <ele>216.68</ele>
        <time>2025-01-03T17:07:15.498Z</time>
      </trkpt>
      <trkpt lat="48.39208" lon="4.97153">
        <ele>216.87</ele>
        <time>2025-01-03T17:07:20.365Z</time>
      </trkpt>
      <trkpt lat="48.39197" lon="4.97191">
        <ele>217.12</ele>
        <time>2025-01-03T17:07:25.236Z</time>
      </trkpt>
      <trkpt lat="48.39185" lon="4.97228">
        <ele>217.3</ele>
        <time>2025-01-03T17:07:30.112Z</time>
      </trkpt>
      <trkpt lat="48.39174" lon="4.97262">
        <ele>217.43</ele>
        <time>2025-01-03T17:07:34.992Z</time>
      </trkpt>
      <trkpt lat="48.39163" lon="4.97297">
        <ele>217.56</ele>
        <time>2025-01-03T17:07:39.876Z</time>
      </trkpt>
      <trkpt lat="48.39154" lon="4.97326">
        <ele>217.65</ele>
        <time>2025-01-03T17:07:44.763Z</time>
      </trkpt>
      <trkpt lat="48.39145" lon="4.97355">
        <ele>217.75</ele>
        <time>2025-01-03T17:07:49.654Z</time>
      </trkpt>
      <trkpt lat="48.39135" lon="4.97387">
        <ele>217.81</ele>
        <time>2025-01-03T17:07:54.548Z</time>
      </trkpt>
      <trkpt lat="48.39125" lon="4.97419">
        <ele>217.81</ele>
        <time>2025-01-03T17:07:59.446Z</time>
      </trkpt>
      <trkpt lat="48.39115" lon="4.9745">
        <ele>217.77</ele>
        <time>2025-01-03T17:08:04.348Z</time>
      </trkpt>
      <trkpt lat="48.39105" lon="4.97481">
        <ele>217.75</ele>
        <time>2025-01-03T17:08:09.254Z</time>
      </trkpt>
      <trkpt lat="48.39096" lon="4.97512">
        <ele>217.69</ele>
        <time>2025-01-03T17:08:14.163Z</time>
      </trkpt>
      <trkpt lat="48.39086" lon="4.97542">
        <ele>217.65</ele>
        <time>2025-01-03T17:08:19.076Z</time>
      </trkpt>
      <trkpt lat="48.39078" lon="4.97568">
        <ele>217.63</ele>
        <time>2025-01-03T17:08:23.992Z</time>
      </trkpt>
      <trkpt lat="48.39069" lon="4.97594">
        <ele>217.53</ele>
        <time>2025-01-03T17:08:28.911Z</time>
      </trkpt>
      <trkpt lat="48.39057" lon="4.97629">
        <ele>217.45</ele>
        <time>2025-01-03T17:08:33.834Z</time>
      </trkpt>
      <trkpt lat="48.39045" lon="4.97665">
        <ele>217.32</ele>
        <time>2025-01-03T17:08:38.761Z</time>
      </trkpt>
      <trkpt lat="48.39035" lon="4.97697">
        <ele>217.18</ele>
        <time>2025-01-03T17:08:43.692Z</time>
      </trkpt>
      <trkpt lat="48.39024" lon="4.97729">
        <ele>217.07</ele>
        <time>2025-01-03T17:08:48.627Z</time>
      </trkpt>
      <trkpt lat="48.39012" lon="4.97765">
        <ele>217.06</ele>
        <time>2025-01-03T17:08:53.566Z</time>
      </trkpt>
      <trkpt lat="48.39" lon="4.97801">
        <ele>217</ele>
        <time>2025-01-03T17:08:58.510Z</time>
      </trkpt>
      <trkpt lat="48.3899" lon="4.97832">
        <ele>216.94</ele>
        <time>2025-01-03T17:09:03.457Z</time>
      </trkpt>
      <trkpt lat="48.38979" lon="4.97863">
        <ele>216.74</ele>
        <time>2025-01-03T17:09:08.408Z</time>
      </trkpt>
      <trkpt lat="48.38977" lon="4.9787">
        <ele>216.58</ele>
        <time>2025-01-03T17:09:13.360Z</time>
      </trkpt>
      <trkpt lat="48.38965" lon="4.97906">
        <ele>216.33</ele>
        <time>2025-01-03T17:09:18.316Z</time>
      </trkpt>
      <trkpt lat="48.38955" lon="4.97937">
        <ele>216.08</ele>
        <time>2025-01-03T17:09:23.276Z</time>
      </trkpt>
      <trkpt lat="48.38945" lon="4.97968">
        <ele>215.83</ele>
        <time>2025-01-03T17:09:28.239Z</time>
      </trkpt>
      <trkpt lat="48.38939" lon="4.98">
        <ele>215.59</ele>
        <time>2025-01-03T17:09:33.206Z</time>
      </trkpt>
      <trkpt lat="48.38933" lon="4.98031">
        <ele>215.41</ele>
        <time>2025-01-03T17:09:38.176Z</time>
      </trkpt>
      <trkpt lat="48.38926" lon="4.98064">
        <ele>215.23</ele>
        <time>2025-01-03T17:09:43.150Z</time>
      </trkpt>
      <trkpt lat="48.38919" lon="4.98096">
        <ele>215.09</ele>
        <time>2025-01-03T17:09:48.128Z</time>
      </trkpt>
      <trkpt lat="48.38912" lon="4.98126">
        <ele>214.94</ele>
        <time>2025-01-03T17:09:53.109Z</time>
      </trkpt>
      <trkpt lat="48.38905" lon="4.98155">
        <ele>214.8</ele>
        <time>2025-01-03T17:09:58.093Z</time>
      </trkpt>
      <trkpt lat="48.38894" lon="4.98182">
        <ele>214.65</ele>
        <time>2025-01-03T17:10:03.081Z</time>
      </trkpt>
      <trkpt lat="48.38883" lon="4.9821">
        <ele>214.52</ele>
        <time>2025-01-03T17:10:08.072Z</time>
      </trkpt>
      <trkpt lat="48.38874" lon="4.98232">
        <ele>214.37</ele>
        <time>2025-01-03T17:10:13.066Z</time>
      </trkpt>
      <trkpt lat="48.38866" lon="4.98254">
        <ele>214.26</ele>
        <time>2025-01-03T17:10:18.063Z</time>
      </trkpt>
      <trkpt lat="48.38852" lon="4.98289">
        <ele>214.19</ele>
        <time>2025-01-03T17:10:23.064Z</time>
      </trkpt>
      <trkpt lat="48.38839" lon="4.98323">
        <ele>214.16</ele>
        <time>2025-01-03T17:10:28.069Z</time>
      </trkpt>
      <trkpt lat="48.38828" lon="4.9835">
        <ele>214.14</ele>
        <time>2025-01-03T17:10:33.078Z</time>
      </trkpt>
      <trkpt lat="48.38817" lon="4.98377">
        <ele>214.12</ele>
        <time>2025-01-03T17:10:38.090Z</time>
      </trkpt>
      <trkpt lat="48.38807" lon="4.98404">
        <ele>214.08</ele>
        <time>2025-01-03T17:10:43.105Z</time>
      </trkpt>
      <trkpt lat="48.38796" lon="4.98431">
        <ele>214.11</ele>
        <time>2025-01-03T17:10:48.124Z</time>
      </trkpt>
      <trkpt lat="48.38779" lon="4.98465">
        <ele>214.19</ele>
        <time>2025-01-03T17:10:53.147Z</time>
      </trkpt>
      <trkpt lat="48.38763" lon="4.98499">
        <ele>214.29</ele>
        <time>2025-01-03T17:10:58.175Z</time>
      </trkpt>
      <trkpt lat="48.38746" lon="4.98531">
        <ele>214.33</ele>
        <time>2025-01-03T17:11:03.207Z</time>
      </trkpt>
      <trkpt lat="48.38729" lon="4.98562">
        <ele>214.41</ele>
        <time>2025-01-03T17:11:08.243Z</time>
      </trkpt>
      <trkpt lat="48.38716" lon="4.98587">
        <ele>214.51</ele>
        <time>2025-01-03T17:11:13.283Z</time>
      </trkpt>
      <trkpt lat="48.38703" lon="4.98611">
        <ele>214.66</ele>
        <time>2025-01-03T17:11:18.326Z</time>
      </trkpt>
      <trkpt lat="48.3869" lon="4.98636">
        <ele>214.83</ele>
        <time>2025-01-03T17:11:23.372Z</time>
      </trkpt>
      <trkpt lat="48.38677" lon="4.9866">
        <ele>215.02</ele>
        <time>2025-01-03T17:11:28.422Z</time>
      </trkpt>
      <trkpt lat="48.38668" lon="4.9868">
        <ele>215.19</ele>
        <time>2025-01-03T17:11:33.474Z</time>
      </trkpt>
      <trkpt lat="48.38659" lon="4.987">
        <ele>215.37</ele>
        <time>2025-01-03T17:11:38.529Z</time>
      </trkpt>
      <trkpt lat="48.38646" lon="4.98728">
        <ele>215.58</ele>
        <time>2025-01-03T17:11:43.587Z</time>
      </trkpt>
      <trkpt lat="48.38634" lon="4.98757">
        <ele>215.81</ele>
        <time>2025-01-03T17:11:48.649Z</time>
      </trkpt>
      <trkpt lat="48.3862" lon="4.98793">
        <ele>216.09</ele>
        <time>2025-01-03T17:11:53.715Z</time>
      </trkpt>
      <trkpt lat="48.38606" lon="4.98829">
        <ele>216.43</ele>
        <time>2025-01-03T17:11:58.786Z</time>
      </trkpt>
      <trkpt lat="48.38603" lon="4.98837">
        <ele>216.78</ele>
        <time>2025-01-03T17:12:03.858Z</time>
      </trkpt>
      <trkpt lat="48.38597" lon="4.9886">
        <ele>217.15</ele>
        <time>2025-01-03T17:12:08.933Z</time>
      </trkpt>
      <trkpt lat="48.3859" lon="4.98883">
        <ele>217.54</ele>
        <time>2025-01-03T17:12:14.010Z</time>
      </trkpt>
      <trkpt lat="48.38584" lon="4.98908">
        <ele>217.9</ele>
        <time>2025-01-03T17:12:19.090Z</time>
      </trkpt>
      <trkpt lat="48.38577" lon="4.98933">
        <ele>218.3</ele>
        <time>2025-01-03T17:12:24.173Z</time>
      </trkpt>
      <trkpt lat="48.38569" lon="4.9896">
        <ele>218.7</ele>
        <time>2025-01-03T17:12:29.259Z</time>
      </trkpt>
      <trkpt lat="48.38562" lon="4.98987">
        <ele>219.12</ele>
        <time>2025-01-03T17:12:34.348Z</time>
      </trkpt>
      <trkpt lat="48.38554" lon="4.99018">
        <ele>219.55</ele>
        <time>2025-01-03T17:12:39.441Z</time>
      </trkpt>
      <trkpt lat="48.38545" lon="4.99048">
        <ele>220.02</ele>
        <time>2025-01-03T17:12:44.537Z</time>
      </trkpt>
      <trkpt lat="48.38537" lon="4.99085">
        <ele>220.46</ele>
        <time>2025-01-03T17:12:49.637Z</time>
      </trkpt>
      <trkpt lat="48.38532" lon="4.99111">
        <ele>220.89</ele>
        <time>2025-01-03T17:12:54.740Z</time>
      </trkpt>
      <trkpt lat="48.38527" lon="4.99137">
        <ele>221.29</ele>
        <time>2025-01-03T17:12:59.846Z</time>
      </trkpt>
      <trkpt lat="48.38519" lon="4.99178">
        <ele>221.64</ele>
        <time>2025-01-03T17:13:04.957Z</time>
      </trkpt>
      <trkpt lat="48.38517" lon="4.99193">
        <ele>222.04</ele>
        <time>2025-01-03T17:13:10.069Z</time>
      </trkpt>
      <trkpt lat="48.38513" lon="4.99209">
        <ele>222.45</ele>
        <time>2025-01-03T17:13:15.183Z</time>
      </trkpt>
      <trkpt lat="48.38511" lon="4.99216">
        <ele>222.85</ele>
        <time>2025-01-03T17:13:20.298Z</time>
      </trkpt>
      <trkpt lat="48.38505" lon="4.99228">
        <ele>223.23</ele>
        <time>2025-01-03T17:13:25.415Z</time>
      </trkpt>
      <trkpt lat="48.38495" lon="4.99246">
        <ele>223.63</ele>
        <time>2025-01-03T17:13:30.534Z</time>
      </trkpt>
      <trkpt lat="48.38486" lon="4.99263">
        <ele>224.07</ele>
        <time>2025-01-03T17:13:35.655Z</time>
      </trkpt>
      <trkpt lat="48.38483" lon="4.99268">
        <ele>224.48</ele>
        <time>2025-01-03T17:13:40.777Z</time>
      </trkpt>
      <trkpt lat="48.38479" lon="4.99274">
        <ele>224.88</ele>
        <time>2025-01-03T17:13:45.900Z</time>
      </trkpt>
      <trkpt lat="48.38464" lon="4.99302">
        <ele>225.29</ele>
        <time>2025-01-03T17:13:51.027Z</time>
      </trkpt>
      <trkpt lat="48.38455" lon="4.99323">
        <ele>225.69</ele>
        <time>2025-01-03T17:13:56.157Z</time>
      </trkpt>
      <trkpt lat="48.38446" lon="4.99344">
        <ele>226.1</ele>
        <time>2025-01-03T17:14:01.289Z</time>
      </trkpt>
      <trkpt lat="48.38436" lon="4.99365">
        <ele>226.45</ele>
        <time>2025-01-03T17:14:06.424Z</time>
      </trkpt>
      <trkpt lat="48.38426" lon="4.99386">
        <ele>226.75</ele>
        <time>2025-01-03T17:14:11.562Z</time>
      </trkpt>
      <trkpt lat="48.38416" lon="4.99405">
        <ele>227.11</ele>
        <time>2025-01-03T17:14:16.702Z</time>
      </trkpt>
      <trkpt lat="48.38406" lon="4.99424">
        <ele>227.36</ele>
        <time>2025-01-03T17:14:21.845Z</time>
      </trkpt>
      <trkpt lat="48.3839" lon="4.99453">
        <ele>227.58</ele>
        <time>2025-01-03T17:14:26.992Z</time>
      </trkpt>
      <trkpt lat="48.38376" lon="4.99475">
        <ele>227.8</ele>
        <time>2025-01-03T17:14:32.142Z</time>
      </trkpt>
      <trkpt lat="48.38362" lon="4.99497">
        <ele>228</ele>
        <time>2025-01-03T17:14:37.295Z</time>
      </trkpt>
      <trkpt lat="48.3835" lon="4.99513">
        <ele>228.17</ele>
        <time>2025-01-03T17:14:42.451Z</time>
      </trkpt>
      <trkpt lat="48.38338" lon="4.99528">
        <ele>228.28</ele>
        <time>2025-01-03T17:14:47.609Z</time>
      </trkpt>
      <trkpt lat="48.38326" lon="4.99544">
        <ele>228.38</ele>
        <time>2025-01-03T17:14:52.770Z</time>
      </trkpt>
      <trkpt lat="48.38315" lon="4.9956">
        <ele>228.48</ele>
        <time>2025-01-03T17:14:57.933Z</time>
      </trkpt>
      <trkpt lat="48.38305" lon="4.99582">
        <ele>228.58</ele>
        <time>2025-01-03T17:15:03.099Z</time>
      </trkpt>
      <trkpt lat="48.38294" lon="4.99604">
        <ele>228.66</ele>
        <time>2025-01-03T17:15:08.268Z</time>
      </trkpt>
      <trkpt lat="48.38285" lon="4.99635">
        <ele>228.74</ele>
        <time>2025-01-03T17:15:13.441Z</time>
      </trkpt>
      <trkpt lat="48.38281" lon="4.99651">
        <ele>228.8</ele>
        <time>2025-01-03T17:15:18.616Z</time>
      </trkpt>
      <trkpt lat="48.38276" lon="4.99667">
        <ele>228.86</ele>
        <time>2025-01-03T17:15:23.793Z</time>
      </trkpt>
      <trkpt lat="48.38269" lon="4.99679">
        <ele>228.9</ele>
        <time>2025-01-03T17:15:28.971Z</time>
      </trkpt>
      <trkpt lat="48.38265" lon="4.99686">
        <ele>228.96</ele>
        <time>2025-01-03T17:15:34.150Z</time>
      </trkpt>
      <trkpt lat="48.38251" lon="4.9971">
        <ele>229.03</ele>
        <time>2025-01-03T17:15:39.333Z</time>
      </trkpt>
      <trkpt lat="48.38237" lon="4.99734">
        <ele>229.08</ele>
        <time>2025-01-03T17:15:44.519Z</time>
      </trkpt>
      <trkpt lat="48.3822" lon="4.99763">
        <ele>229.12</ele>
        <time>2025-01-03T17:15:49.709Z</time>
      </trkpt>
      <trkpt lat="48.38212" lon="4.99776">
        <ele>229.14</ele>
        <time>2025-01-03T17:15:54.901Z</time>
      </trkpt>
      <trkpt lat="48.38196" lon="4.99805">
        <ele>229.22</ele>
        <time>2025-01-03T17:16:00.097Z</time>
      </trkpt>
      <trkpt lat="48.38179" lon="4.99833">
        <ele>229.24</ele>
        <time>2025-01-03T17:16:05.297Z</time>
      </trkpt>
      <trkpt lat="48.38166" lon="4.99857">
        <ele>229.32</ele>
        <time>2025-01-03T17:16:10.500Z</time>
      </trkpt>
      <trkpt lat="48.38152" lon="4.9988">
        <ele>229.37</ele>
        <time>2025-01-03T17:16:15.707Z</time>
      </trkpt>
      <trkpt lat="48.38152" lon="4.9988">
        <ele>229.41</ele>
        <time>2025-01-03T17:16:20.914Z</time>
      </trkpt>
      <trkpt lat="48.38134" lon="4.99913">
        <ele>229.49</ele>
        <time>2025-01-03T17:16:26.125Z</time>
      </trkpt>
      <trkpt lat="48.38115" lon="4.99946">
        <ele>229.55</ele>
        <time>2025-01-03T17:16:31.341Z</time>
      </trkpt>
      <trkpt lat="48.38096" lon="4.99978">
        <ele>229.59</ele>
        <time>2025-01-03T17:16:36.562Z</time>
      </trkpt>
      <trkpt lat="48.38077" lon="5.00011">
        <ele>229.7</ele>
        <time>2025-01-03T17:16:41.787Z</time>
      </trkpt>
      <trkpt lat="48.38058" lon="5.00043">
        <ele>229.75</ele>
        <time>2025-01-03T17:16:47.017Z</time>
      </trkpt>
      <trkpt lat="48.3804" lon="5.00075">
        <ele>229.76</ele>
        <time>2025-01-03T17:16:52.251Z</time>
      </trkpt>
      <trkpt lat="48.38021" lon="5.00107">
        <ele>229.82</ele>
        <time>2025-01-03T17:16:57.490Z</time>
      </trkpt>
      <trkpt lat="48.38002" lon="5.00139">
        <ele>229.73</ele>
        <time>2025-01-03T17:17:02.733Z</time>
      </trkpt>
      <trkpt lat="48.37983" lon="5.0017">
        <ele>229.62</ele>
        <time>2025-01-03T17:17:07.981Z</time>
      </trkpt>
      <trkpt lat="48.37965" lon="5.00202">
        <ele>229.53</ele>
        <time>2025-01-03T17:17:13.233Z</time>
      </trkpt>
      <trkpt lat="48.37941" lon="5.00226">
        <ele>229.3</ele>
        <time>2025-01-03T17:17:18.490Z</time>
      </trkpt>
      <trkpt lat="48.37923" lon="5.00237">
        <ele>229.18</ele>
        <time>2025-01-03T17:17:23.750Z</time>
      </trkpt>
      <trkpt lat="48.37905" lon="5.00249">
        <ele>229.04</ele>
        <time>2025-01-03T17:17:29.013Z</time>
      </trkpt>
      <trkpt lat="48.37878" lon="5.00261">
        <ele>228.92</ele>
        <time>2025-01-03T17:17:34.281Z</time>
      </trkpt>
      <trkpt lat="48.37852" lon="5.00272">
        <ele>228.76</ele>
        <time>2025-01-03T17:17:39.553Z</time>
      </trkpt>
      <trkpt lat="48.37825" lon="5.00283">
        <ele>228.61</ele>
        <time>2025-01-03T17:17:44.829Z</time>
      </trkpt>
      <trkpt lat="48.37799" lon="5.00295">
        <ele>228.47</ele>
        <time>2025-01-03T17:17:50.110Z</time>
      </trkpt>
      <trkpt lat="48.37772" lon="5.00306">
        <ele>228.41</ele>
        <time>2025-01-03T17:17:55.395Z</time>
      </trkpt>
      <trkpt lat="48.37746" lon="5.00318">
        <ele>228.42</ele>
        <time>2025-01-03T17:18:00.685Z</time>
      </trkpt>
      <trkpt lat="48.37718" lon="5.00339">
        <ele>228.41</ele>
        <time>2025-01-03T17:18:05.980Z</time>
      </trkpt>
      <trkpt lat="48.37694" lon="5.00364">
        <ele>228.43</ele>
        <time>2025-01-03T17:18:11.279Z</time>
      </trkpt>
      <trkpt lat="48.37671" lon="5.00388">
        <ele>228.48</ele>
        <time>2025-01-03T17:18:16.583Z</time>
      </trkpt>
      <trkpt lat="48.37647" lon="5.00412">
        <ele>228.61</ele>
        <time>2025-01-03T17:18:21.891Z</time>
      </trkpt>
      <trkpt lat="48.37639" lon="5.00427">
        <ele>228.77</ele>
        <time>2025-01-03T17:18:27.202Z</time>
      </trkpt>
      <trkpt lat="48.37639" lon="5.00427">
        <ele>228.94</ele>
        <time>2025-01-03T17:18:32.513Z</time>
      </trkpt>
      <trkpt lat="48.37628" lon="5.00449">
        <ele>229.13</ele>
        <time>2025-01-03T17:18:37.826Z</time>
      </trkpt>
      <trkpt lat="48.37617" lon="5.0047">
        <ele>229.35</ele>
        <time>2025-01-03T17:18:43.142Z</time>
      </trkpt>
      <trkpt lat="48.37611" lon="5.00489">
        <ele>229.66</ele>
        <time>2025-01-03T17:18:48.461Z</time>
      </trkpt>
      <trkpt lat="48.37611" lon="5.00489">
        <ele>230</ele>
        <time>2025-01-03T17:18:53.780Z</time>
      </trkpt>
      <trkpt lat="48.376" lon="5.00528">
        <ele>230.42</ele>
        <time>2025-01-03T17:18:59.103Z</time>
      </trkpt>
      <trkpt lat="48.37589" lon="5.00567">
        <ele>230.85</ele>
        <time>2025-01-03T17:19:04.430Z</time>
      </trkpt>
      <trkpt lat="48.37585" lon="5.00586">
        <ele>231.32</ele>
        <time>2025-01-03T17:19:09.760Z</time>
      </trkpt>
      <trkpt lat="48.37582" lon="5.00622">
        <ele>231.86</ele>
        <time>2025-01-03T17:19:15.094Z</time>
      </trkpt>
      <trkpt lat="48.3758" lon="5.00658">
        <ele>232.41</ele>
        <time>2025-01-03T17:19:20.431Z</time>
      </trkpt>
      <trkpt lat="48.37577" lon="5.00694">
        <ele>232.99</ele>
        <time>2025-01-03T17:19:25.772Z</time>
      </trkpt>
      <trkpt lat="48.37574" lon="5.0073">
        <ele>233.6</ele>
        <time>2025-01-03T17:19:31.117Z</time>
      </trkpt>
      <trkpt lat="48.3757" lon="5.00764">
        <ele>234.17</ele>
        <time>2025-01-03T17:19:36.466Z</time>
      </trkpt>
      <trkpt lat="48.37566" lon="5.00797">
        <ele>234.72</ele>
        <time>2025-01-03T17:19:41.818Z</time>
      </trkpt>
      <trkpt lat="48.37561" lon="5.00831">
        <ele>235.32</ele>
        <time>2025-01-03T17:19:47.174Z</time>
      </trkpt>
      <trkpt lat="48.3756" lon="5.00855">
        <ele>235.99</ele>
        <time>2025-01-03T17:19:52.533Z</time>
      </trkpt>
      <trkpt lat="48.37559" lon="5.0088">
        <ele>236.66</ele>
        <time>2025-01-03T17:19:57.894Z</time>
      </trkpt>
      <trkpt lat="48.37559" lon="5.00914">
        <ele>237.3</ele>
        <time>2025-01-03T17:20:03.259Z</time>
      </trkpt>
      <trkpt lat="48.37559" lon="5.00949">
        <ele>237.83</ele>
        <time>2025-01-03T17:20:08.628Z</time>
      </trkpt>
      <trkpt lat="48.3756" lon="5.00978">
        <ele>238.37</ele>
        <time>2025-01-03T17:20:14.000Z</time>
      </trkpt>
      <trkpt lat="48.37561" lon="5.01007">
        <ele>238.93</ele>
        <time>2025-01-03T17:20:19.375Z</time>
      </trkpt>
      <trkpt lat="48.37566" lon="5.01052">
        <ele>239.54</ele>
        <time>2025-01-03T17:20:24.755Z</time>
      </trkpt>
      <trkpt lat="48.3757" lon="5.01077">
        <ele>240.11</ele>
        <time>2025-01-03T17:20:30.138Z</time>
      </trkpt>
      <trkpt lat="48.37576" lon="5.01103">
        <ele>240.61</ele>
        <time>2025-01-03T17:20:35.523Z</time>
      </trkpt>
      <trkpt lat="48.37583" lon="5.01129">
        <ele>240.97</ele>
        <time>2025-01-03T17:20:40.911Z</time>
      </trkpt>
      <trkpt lat="48.37589" lon="5.01151">
        <ele>241.25</ele>
        <time>2025-01-03T17:20:46.302Z</time>
      </trkpt>
      <trkpt lat="48.37596" lon="5.01174">
        <ele>241.49</ele>
        <time>2025-01-03T17:20:51.696Z</time>
      </trkpt>
      <trkpt lat="48.37603" lon="5.01204">
        <ele>241.73</ele>
        <time>2025-01-03T17:20:57.093Z</time>
      </trkpt>
      <trkpt lat="48.37611" lon="5.01234">
        <ele>242.01</ele>
        <time>2025-01-03T17:21:02.493Z</time>
      </trkpt>
      <trkpt lat="48.37616" lon="5.0126">
        <ele>242.28</ele>
        <time>2025-01-03T17:21:07.896Z</time>
      </trkpt>
      <trkpt lat="48.37621" lon="5.01286">
        <ele>242.47</ele>
        <time>2025-01-03T17:21:13.302Z</time>
      </trkpt>
      <trkpt lat="48.37627" lon="5.01325">
        <ele>242.66</ele>
        <time>2025-01-03T17:21:18.713Z</time>
      </trkpt>
      <trkpt lat="48.37632" lon="5.01365">
        <ele>242.79</ele>
        <time>2025-01-03T17:21:24.128Z</time>
      </trkpt>
      <trkpt lat="48.37634" lon="5.01395">
        <ele>242.73</ele>
        <time>2025-01-03T17:21:29.546Z</time>
      </trkpt>
      <trkpt lat="48.37636" lon="5.01427">
        <ele>242.61</ele>
        <time>2025-01-03T17:21:34.968Z</time>
      </trkpt>
      <trkpt lat="48.37638" lon="5.0146">
        <ele>242.4</ele>
        <time>2025-01-03T17:21:40.393Z</time>
      </trkpt>
      <trkpt lat="48.37639" lon="5.01493">
        <ele>242.16</ele>
        <time>2025-01-03T17:21:45.822Z</time>
      </trkpt>
      <trkpt lat="48.37641" lon="5.01526">
        <ele>241.93</ele>
        <time>2025-01-03T17:21:51.254Z</time>
      </trkpt>
      <trkpt lat="48.3764" lon="5.01565">
        <ele>241.56</ele>
        <time>2025-01-03T17:21:56.690Z</time>
      </trkpt>
      <trkpt lat="48.37639" lon="5.01604">
        <ele>241.13</ele>
        <time>2025-01-03T17:22:02.130Z</time>
      </trkpt>
      <trkpt lat="48.37638" lon="5.01644">
        <ele>240.65</ele>
        <time>2025-01-03T17:22:07.575Z</time>
      </trkpt>
      <trkpt lat="48.37636" lon="5.01683">
        <ele>240.21</ele>
        <time>2025-01-03T17:22:13.024Z</time>
      </trkpt>
      <trkpt lat="48.37633" lon="5.0172">
        <ele>239.64</ele>
        <time>2025-01-03T17:22:18.477Z</time>
      </trkpt>
      <trkpt lat="48.3763" lon="5.01758">
        <ele>239.02</ele>
        <time>2025-01-03T17:22:23.934Z</time>
      </trkpt>
      <trkpt lat="48.37624" lon="5.0179">
        <ele>238.32</ele>
        <time>2025-01-03T17:22:29.394Z</time>
      </trkpt>
      <trkpt lat="48.37613" lon="5.01827">
        <ele>237.6</ele>
        <time>2025-01-03T17:22:34.859Z</time>
      </trkpt>
      <trkpt lat="48.37603" lon="5.01864">
        <ele>237.01</ele>
        <time>2025-01-03T17:22:40.328Z</time>
      </trkpt>
      <trkpt lat="48.37593" lon="5.01901">
        <ele>236.52</ele>
        <time>2025-01-03T17:22:45.801Z</time>
      </trkpt>
      <trkpt lat="48.37583" lon="5.01938">
        <ele>236.11</ele>
        <time>2025-01-03T17:22:51.279Z</time>
      </trkpt>
      <trkpt lat="48.37575" lon="5.01973">
        <ele>235.65</ele>
        <time>2025-01-03T17:22:56.760Z</time>
      </trkpt>
      <trkpt lat="48.37568" lon="5.02008">
        <ele>235.24</ele>
        <time>2025-01-03T17:23:02.245Z</time>
      </trkpt>
      <trkpt lat="48.3756" lon="5.02043">
        <ele>234.9</ele>
        <time>2025-01-03T17:23:07.734Z</time>
      </trkpt>
      <trkpt lat="48.37553" lon="5.02077">
        <ele>234.65</ele>
        <time>2025-01-03T17:23:13.227Z</time>
      </trkpt>
      <trkpt lat="48.37548" lon="5.02111">
        <ele>234.44</ele>
        <time>2025-01-03T17:23:18.724Z</time>
      </trkpt>
      <trkpt lat="48.37544" lon="5.02144">
        <ele>234.25</ele>
        <time>2025-01-03T17:23:24.224Z</time>
      </trkpt>
      <trkpt lat="48.37544" lon="5.02174">
        <ele>234.16</ele>
        <time>2025-01-03T17:23:29.728Z</time>
      </trkpt>
      <trkpt lat="48.37544" lon="5.02204">
        <ele>234.11</ele>
        <time>2025-01-03T17:23:35.235Z</time>
      </trkpt>
      <trkpt lat="48.37549" lon="5.0225">
        <ele>234.13</ele>
        <time>2025-01-03T17:23:40.747Z</time>
      </trkpt>
      <trkpt lat="48.37555" lon="5.02296">
        <ele>234.19</ele>
        <time>2025-01-03T17:23:46.264Z</time>
      </trkpt>
      <trkpt lat="48.3756" lon="5.02341">
        <ele>234.3</ele>
        <time>2025-01-03T17:23:51.786Z</time>
      </trkpt>
      <trkpt lat="48.37565" lon="5.02387">
        <ele>234.47</ele>
        <time>2025-01-03T17:23:57.313Z</time>
      </trkpt>
      <trkpt lat="48.3757" lon="5.02433">
        <ele>234.69</ele>
        <time>2025-01-03T17:24:02.845Z</time>
      </trkpt>
      <trkpt lat="48.37576" lon="5.02479">
        <ele>234.9</ele>
        <time>2025-01-03T17:24:08.382Z</time>
      </trkpt>
      <trkpt lat="48.37581" lon="5.02524">
        <ele>235.15</ele>
        <time>2025-01-03T17:24:13.923Z</time>
      </trkpt>
      <trkpt lat="48.37576" lon="5.02562">
        <ele>235.41</ele>
        <time>2025-01-03T17:24:19.469Z</time>
      </trkpt>
      <trkpt lat="48.37572" lon="5.026">
        <ele>235.63</ele>
        <time>2025-01-03T17:24:25.019Z</time>
      </trkpt>
      <trkpt lat="48.37568" lon="5.02637">
        <ele>235.86</ele>
        <time>2025-01-03T17:24:30.573Z</time>
      </trkpt>
      <trkpt lat="48.37562" lon="5.02668">
        <ele>236.15</ele>
        <time>2025-01-03T17:24:36.130Z</time>
      </trkpt>
      <trkpt lat="48.37557" lon="5.02697">
        <ele>236.48</ele>
        <time>2025-01-03T17:24:41.690Z</time>
      </trkpt>
      <trkpt lat="48.37548" lon="5.02721">
        <ele>236.86</ele>
        <time>2025-01-03T17:24:47.253Z</time>
      </trkpt>
      <trkpt lat="48.3754" lon="5.02745">
        <ele>237.27</ele>
        <time>2025-01-03T17:24:52.819Z</time>
      </trkpt>
      <trkpt lat="48.37538" lon="5.02751">
        <ele>237.63</ele>
        <time>2025-01-03T17:24:58.386Z</time>
      </trkpt>
      <trkpt lat="48.37523" lon="5.02791">
        <ele>238.08</ele>
        <time>2025-01-03T17:25:03.958Z</time>
      </trkpt>
      <trkpt lat="48.37508" lon="5.0283">
        <ele>238.55</ele>
        <time>2025-01-03T17:25:09.535Z</time>
      </trkpt>
      <trkpt lat="48.37493" lon="5.0287">
        <ele>238.95</ele>
        <time>2025-01-03T17:25:15.116Z</time>
      </trkpt>
      <trkpt lat="48.37478" lon="5.02909">
        <ele>239.37</ele>
        <time>2025-01-03T17:25:20.702Z</time>
      </trkpt>
      <trkpt lat="48.37463" lon="5.02949">
        <ele>239.77</ele>
        <time>2025-01-03T17:25:26.293Z</time>
      </trkpt>
      <trkpt lat="48.37452" lon="5.02972">
        <ele>240.06</ele>
        <time>2025-01-03T17:25:31.887Z</time>
      </trkpt>
      <trkpt lat="48.37441" lon="5.02996">
        <ele>240.33</ele>
        <time>2025-01-03T17:25:37.484Z</time>
      </trkpt>
      <trkpt lat="48.3742" lon="5.03022">
        <ele>240.53</ele>
        <time>2025-01-03T17:25:43.086Z</time>
      </trkpt>
      <trkpt lat="48.37398" lon="5.03049">
        <ele>240.84</ele>
        <time>2025-01-03T17:25:48.692Z</time>
      </trkpt>
      <trkpt lat="48.37377" lon="5.03075">
        <ele>241.04</ele>
        <time>2025-01-03T17:25:54.303Z</time>
      </trkpt>
      <trkpt lat="48.37355" lon="5.03102">
        <ele>241.12</ele>
        <time>2025-01-03T17:25:59.918Z</time>
      </trkpt>
      <trkpt lat="48.37334" lon="5.03128">
        <ele>241.26</ele>
        <time>2025-01-03T17:26:05.538Z</time>
      </trkpt>
      <trkpt lat="48.37312" lon="5.03155">
        <ele>241.5</ele>
        <time>2025-01-03T17:26:11.162Z</time>
      </trkpt>
      <trkpt lat="48.37301" lon="5.03173">
        <ele>241.79</ele>
        <time>2025-01-03T17:26:16.789Z</time>
      </trkpt>
      <trkpt lat="48.37289" lon="5.03191">
        <ele>242.06</ele>
        <time>2025-01-03T17:26:22.418Z</time>
      </trkpt>
      <trkpt lat="48.37273" lon="5.03223">
        <ele>242.38</ele>
        <time>2025-01-03T17:26:28.052Z</time>
      </trkpt>
      <trkpt lat="48.37256" lon="5.03255">
        <ele>242.66</ele>
        <time>2025-01-03T17:26:33.690Z</time>
      </trkpt>
      <trkpt lat="48.3724" lon="5.03288">
        <ele>242.88</ele>
        <time>2025-01-03T17:26:39.332Z</time>
      </trkpt>
      <trkpt lat="48.37224" lon="5.0332">
        <ele>243.19</ele>
        <time>2025-01-03T17:26:44.979Z</time>
      </trkpt>
      <trkpt lat="48.37207" lon="5.03352">
        <ele>243.63</ele>
        <time>2025-01-03T17:26:50.630Z</time>
      </trkpt>
      <trkpt lat="48.37198" lon="5.0339">
        <ele>244.11</ele>
        <time>2025-01-03T17:26:56.285Z</time>
      </trkpt>
      <trkpt lat="48.37188" lon="5.03428">
        <ele>244.65</ele>
        <time>2025-01-03T17:27:01.945Z</time>
      </trkpt>
      <trkpt lat="48.37178" lon="5.03466">
        <ele>245.24</ele>
        <time>2025-01-03T17:27:07.609Z</time>
      </trkpt>
      <trkpt lat="48.37169" lon="5.03504">
        <ele>245.89</ele>
        <time>2025-01-03T17:27:13.277Z</time>
      </trkpt>
      <trkpt lat="48.37153" lon="5.03536">
        <ele>246.51</ele>
        <time>2025-01-03T17:27:18.950Z</time>
      </trkpt>
      <trkpt lat="48.37137" lon="5.03567">
        <ele>247.1</ele>
        <time>2025-01-03T17:27:24.627Z</time>
      </trkpt>
      <trkpt lat="48.37121" lon="5.03599">
        <ele>247.87</ele>
        <time>2025-01-03T17:27:30.308Z</time>
      </trkpt>
      <trkpt lat="48.37106" lon="5.0362">
        <ele>248.6</ele>
        <time>2025-01-03T17:27:35.992Z</time>
      </trkpt>
      <trkpt lat="48.37091" lon="5.03642">
        <ele>249.29</ele>
        <time>2025-01-03T17:27:41.680Z</time>
      </trkpt>
      <trkpt lat="48.3707" lon="5.03673">
        <ele>249.98</ele>
        <time>2025-01-03T17:27:47.372Z</time>
      </trkpt>
      <trkpt lat="48.37049" lon="5.03704">
        <ele>250.78</ele>
        <time>2025-01-03T17:27:53.069Z</time>
      </trkpt>
      <trkpt lat="48.37038" lon="5.03719">
        <ele>251.52</ele>
        <time>2025-01-03T17:27:58.768Z</time>
      </trkpt>
      <trkpt lat="48.37014" lon="5.03749">
        <ele>252.21</ele>
        <time>2025-01-03T17:28:04.472Z</time>
      </trkpt>
      <trkpt lat="48.37014" lon="5.03749">
        <ele>252.84</ele>
        <time>2025-01-03T17:28:10.176Z</time>
      </trkpt>
      <trkpt lat="48.36987" lon="5.03773">
        <ele>253.43</ele>
        <time>2025-01-03T17:28:15.885Z</time>
      </trkpt>
      <trkpt lat="48.3696" lon="5.03796">
        <ele>254.09</ele>
        <time>2025-01-03T17:28:21.599Z</time>
      </trkpt>
      <trkpt lat="48.36933" lon="5.0382">
        <ele>254.7</ele>
        <time>2025-01-03T17:28:27.318Z</time>
      </trkpt>
      <trkpt lat="48.36905" lon="5.03836">
        <ele>255.22</ele>
        <time>2025-01-03T17:28:33.042Z</time>
      </trkpt>
      <trkpt lat="48.36878" lon="5.03853">
        <ele>255.63</ele>
        <time>2025-01-03T17:28:38.771Z</time>
      </trkpt>
      <trkpt lat="48.36851" lon="5.03869">
        <ele>255.99</ele>
        <time>2025-01-03T17:28:44.505Z</time>
      </trkpt>
      <trkpt lat="48.36824" lon="5.0388">
        <ele>256.29</ele>
        <time>2025-01-03T17:28:50.243Z</time>
      </trkpt>
      <trkpt lat="48.36797" lon="5.03892">
        <ele>256.53</ele>
        <time>2025-01-03T17:28:55.986Z</time>
      </trkpt>
      <trkpt lat="48.3677" lon="5.03903">
        <ele>256.62</ele>
        <time>2025-01-03T17:29:01.733Z</time>
      </trkpt>
      <trkpt lat="48.36742" lon="5.0391">
        <ele>256.43</ele>
        <time>2025-01-03T17:29:07.485Z</time>
      </trkpt>
      <trkpt lat="48.36714" lon="5.03917">
        <ele>256.35</ele>
        <time>2025-01-03T17:29:13.241Z</time>
      </trkpt>
      <trkpt lat="48.36686" lon="5.03924">
        <ele>256.3</ele>
        <time>2025-01-03T17:29:19.002Z</time>
      </trkpt>
      <trkpt lat="48.36658" lon="5.03931">
        <ele>256.22</ele>
        <time>2025-01-03T17:29:24.767Z</time>
      </trkpt>
      <trkpt lat="48.36629" lon="5.03936">
        <ele>255.88</ele>
        <time>2025-01-03T17:29:30.537Z</time>
      </trkpt>
      <trkpt lat="48.366" lon="5.03941">
        <ele>255.34</ele>
        <time>2025-01-03T17:29:36.312Z</time>
      </trkpt>
      <trkpt lat="48.36571" lon="5.03946">
        <ele>254.81</ele>
        <time>2025-01-03T17:29:42.091Z</time>
      </trkpt>
      <trkpt lat="48.36542" lon="5.03951">
        <ele>254.2</ele>
        <time>2025-01-03T17:29:47.875Z</time>
      </trkpt>
      <trkpt lat="48.36515" lon="5.03952">
        <ele>253.45</ele>
        <time>2025-01-03T17:29:53.663Z</time>
      </trkpt>
      <trkpt lat="48.36487" lon="5.03953">
        <ele>252.6</ele>
        <time>2025-01-03T17:29:59.456Z</time>
      </trkpt>
      <trkpt lat="48.3646" lon="5.03954">
        <ele>251.71</ele>
        <time>2025-01-03T17:30:05.253Z</time>
      </trkpt>
      <trkpt lat="48.36433" lon="5.03955">
        <ele>250.9</ele>
        <time>2025-01-03T17:30:11.054Z</time>
      </trkpt>
      <trkpt lat="48.36404" lon="5.03959">
        <ele>250.22</ele>
        <time>2025-01-03T17:30:16.860Z</time>
      </trkpt>
      <trkpt lat="48.36375" lon="5.03963">
        <ele>249.44</ele>
        <time>2025-01-03T17:30:22.671Z</time>
      </trkpt>
      <trkpt lat="48.36346" lon="5.03968">
        <ele>248.62</ele>
        <time>2025-01-03T17:30:28.486Z</time>
      </trkpt>
      <trkpt lat="48.36317" lon="5.03972">
        <ele>247.86</ele>
        <time>2025-01-03T17:30:34.306Z</time>
      </trkpt>
      <trkpt lat="48.36293" lon="5.03976">
        <ele>247.09</ele>
        <time>2025-01-03T17:30:40.130Z</time>
      </trkpt>
      <trkpt lat="48.36267" lon="5.03994">
        <ele>246.37</ele>
        <time>2025-01-03T17:30:45.958Z</time>
      </trkpt>
      <trkpt lat="48.36261" lon="5.04004">
        <ele>245.69</ele>
        <time>2025-01-03T17:30:51.788Z</time>
      </trkpt>
      <trkpt lat="48.36247" lon="5.04046">
        <ele>245.1</ele>
        <time>2025-01-03T17:30:57.623Z</time>
      </trkpt>
      <trkpt lat="48.36233" lon="5.04088">
        <ele>244.53</ele>
        <time>2025-01-03T17:31:03.463Z</time>
      </trkpt>
      <trkpt lat="48.36219" lon="5.04049">
        <ele>243.75</ele>
        <time>2025-01-03T17:31:09.308Z</time>
      </trkpt>
      <trkpt lat="48.36205" lon="5.04011">
        <ele>243.15</ele>
        <time>2025-01-03T17:31:15.157Z</time>
      </trkpt>
      <trkpt lat="48.36186" lon="5.03983">
        <ele>242.65</ele>
        <time>2025-01-03T17:31:21.011Z</time>
      </trkpt>
      <trkpt lat="48.3618" lon="5.03974">
        <ele>242.17</ele>
        <time>2025-01-03T17:31:26.866Z</time>
      </trkpt>
      <trkpt lat="48.36159" lon="5.03945">
        <ele>241.76</ele>
        <time>2025-01-03T17:31:32.725Z</time>
      </trkpt>
      <trkpt lat="48.36139" lon="5.03916">
        <ele>241.31</ele>
        <time>2025-01-03T17:31:38.589Z</time>
      </trkpt>
      <trkpt lat="48.36122" lon="5.03899">
        <ele>240.93</ele>
        <time>2025-01-03T17:31:44.456Z</time>
      </trkpt>
      <trkpt lat="48.36096" lon="5.03888">
        <ele>240.64</ele>
        <time>2025-01-03T17:31:50.328Z</time>
      </trkpt>
      <trkpt lat="48.36067" lon="5.03884">
        <ele>240.41</ele>
        <time>2025-01-03T17:31:56.204Z</time>
      </trkpt>
      <trkpt lat="48.36038" lon="5.0388">
        <ele>240.22</ele>
        <time>2025-01-03T17:32:02.085Z</time>
      </trkpt>
      <trkpt lat="48.36009" lon="5.03875">
        <ele>240.03</ele>
        <time>2025-01-03T17:32:07.970Z</time>
      </trkpt>
      <trkpt lat="48.35981" lon="5.03871">
        <ele>239.94</ele>
        <time>2025-01-03T17:32:13.860Z</time>
      </trkpt>
      <trkpt lat="48.35953" lon="5.03867">
        <ele>239.94</ele>
        <time>2025-01-03T17:32:19.755Z</time>
      </trkpt>
      <trkpt lat="48.35924" lon="5.03863">
        <ele>239.97</ele>
        <time>2025-01-03T17:32:25.654Z</time>
      </trkpt>
      <trkpt lat="48.35903" lon="5.03863">
        <ele>240.06</ele>
        <time>2025-01-03T17:32:31.557Z</time>
      </trkpt>
      <trkpt lat="48.35881" lon="5.03863">
        <ele>240.19</ele>
        <time>2025-01-03T17:32:37.463Z</time>
      </trkpt>
      <trkpt lat="48.35853" lon="5.03867">
        <ele>240.36</ele>
        <time>2025-01-03T17:32:43.374Z</time>
      </trkpt>
      <trkpt lat="48.35825" lon="5.03872">
        <ele>240.59</ele>
        <time>2025-01-03T17:32:49.289Z</time>
      </trkpt>
      <trkpt lat="48.35798" lon="5.03877">
        <ele>241</ele>
        <time>2025-01-03T17:32:55.209Z</time>
      </trkpt>
      <trkpt lat="48.3577" lon="5.03881">
        <ele>241.35</ele>
        <time>2025-01-03T17:33:01.133Z</time>
      </trkpt>
      <trkpt lat="48.35742" lon="5.03886">
        <ele>241.73</ele>
        <time>2025-01-03T17:33:07.062Z</time>
      </trkpt>
      <trkpt lat="48.35742" lon="5.03886">
        <ele>242.15</ele>
        <time>2025-01-03T17:33:12.991Z</time>
      </trkpt>
      <trkpt lat="48.35715" lon="5.03891">
        <ele>242.59</ele>
        <time>2025-01-03T17:33:18.924Z</time>
      </trkpt>
      <trkpt lat="48.35688" lon="5.03895">
        <ele>243.1</ele>
        <time>2025-01-03T17:33:24.861Z</time>
      </trkpt>
      <trkpt lat="48.35688" lon="5.03895">
        <ele>243.62</ele>
        <time>2025-01-03T17:33:30.798Z</time>
      </trkpt>
      <trkpt lat="48.35658" lon="5.03903">
        <ele>244.29</ele>
        <time>2025-01-03T17:33:36.740Z</time>
      </trkpt>
      <trkpt lat="48.35628" lon="5.0391">
        <ele>244.93</ele>
        <time>2025-01-03T17:33:42.687Z</time>
      </trkpt>
      <trkpt lat="48.35598" lon="5.03918">
        <ele>245.54</ele>
        <time>2025-01-03T17:33:48.639Z</time>
      </trkpt>
      <trkpt lat="48.35568" lon="5.03926">
        <ele>246.18</ele>
        <time>2025-01-03T17:33:54.596Z</time>
      </trkpt>
      <trkpt lat="48.35538" lon="5.03933">
        <ele>246.85</ele>
        <time>2025-01-03T17:34:00.558Z</time>
      </trkpt>
      <trkpt lat="48.35508" lon="5.03938">
        <ele>247.5</ele>
        <time>2025-01-03T17:34:06.524Z</time>
      </trkpt>
      <trkpt lat="48.35482" lon="5.03936">
        <ele>248.13</ele>
        <time>2025-01-03T17:34:12.495Z</time>
      </trkpt>
      <trkpt lat="48.35456" lon="5.03934">
        <ele>248.83</ele>
        <time>2025-01-03T17:34:18.470Z</time>
      </trkpt>
      <trkpt lat="48.35429" lon="5.03933">
        <ele>249.49</ele>
        <time>2025-01-03T17:34:24.449Z</time>
      </trkpt>
      <trkpt lat="48.35403" lon="5.03931">
        <ele>249.98</ele>
        <time>2025-01-03T17:34:30.432Z</time>
      </trkpt>
      <trkpt lat="48.35377" lon="5.03929">
        <ele>250.45</ele>
        <time>2025-01-03T17:34:36.419Z</time>
      </trkpt>
      <trkpt lat="48.35356" lon="5.03933">
        <ele>250.95</ele>
        <time>2025-01-03T17:34:42.410Z</time>
      </trkpt>
      <trkpt lat="48.35334" lon="5.03938">
        <ele>251.52</ele>
        <time>2025-01-03T17:34:48.404Z</time>
      </trkpt>
      <trkpt lat="48.35316" lon="5.03946">
        <ele>252.14</ele>
        <time>2025-01-03T17:34:54.401Z</time>
      </trkpt>
      <trkpt lat="48.35298" lon="5.03955">
        <ele>252.75</ele>
        <time>2025-01-03T17:35:00.401Z</time>
      </trkpt>
      <trkpt lat="48.35276" lon="5.03972">
        <ele>253.39</ele>
        <time>2025-01-03T17:35:06.405Z</time>
      </trkpt>
      <trkpt lat="48.35259" lon="5.03997">
        <ele>253.99</ele>
        <time>2025-01-03T17:35:12.413Z</time>
      </trkpt>
      <trkpt lat="48.35242" lon="5.04021">
        <ele>254.55</ele>
        <time>2025-01-03T17:35:18.425Z</time>
      </trkpt>
      <trkpt lat="48.35225" lon="5.0406">
        <ele>255.12</ele>
        <time>2025-01-03T17:35:24.442Z</time>
      </trkpt>
      <trkpt lat="48.35218" lon="5.04093">
        <ele>255.65</ele>
        <time>2025-01-03T17:35:30.463Z</time>
      </trkpt>
      <trkpt lat="48.35212" lon="5.04126">
        <ele>256.15</ele>
        <time>2025-01-03T17:35:36.487Z</time>
      </trkpt>
      <trkpt lat="48.35205" lon="5.04159">
        <ele>256.54</ele>
        <time>2025-01-03T17:35:42.515Z</time>
      </trkpt>
      <trkpt lat="48.35193" lon="5.04201">
        <ele>256.84</ele>
        <time>2025-01-03T17:35:48.548Z</time>
      </trkpt>
      <trkpt lat="48.35182" lon="5.04242">
        <ele>257.05</ele>
        <time>2025-01-03T17:35:54.586Z</time>
      </trkpt>
      <trkpt lat="48.35167" lon="5.04279">
        <ele>257.17</ele>
        <time>2025-01-03T17:36:00.628Z</time>
      </trkpt>
      <trkpt lat="48.35148" lon="5.04306">
        <ele>257.2</ele>
        <time>2025-01-03T17:36:06.674Z</time>
      </trkpt>
      <trkpt lat="48.35129" lon="5.04333">
        <ele>257.13</ele>
        <time>2025-01-03T17:36:12.724Z</time>
      </trkpt>
      <trkpt lat="48.35111" lon="5.0436">
        <ele>257.05</ele>
        <time>2025-01-03T17:36:18.779Z</time>
      </trkpt>
      <trkpt lat="48.35089" lon="5.04381">
        <ele>256.76</ele>
        <time>2025-01-03T17:36:24.838Z</time>
      </trkpt>
      <trkpt lat="48.35068" lon="5.04401">
        <ele>256.44</ele>
        <time>2025-01-03T17:36:30.901Z</time>
      </trkpt>
      <trkpt lat="48.35046" lon="5.04422">
        <ele>256.09</ele>
        <time>2025-01-03T17:36:36.968Z</time>
      </trkpt>
      <trkpt lat="48.35025" lon="5.04442">
        <ele>255.69</ele>
        <time>2025-01-03T17:36:43.039Z</time>
      </trkpt>
      <trkpt lat="48.35006" lon="5.04453">
        <ele>255.29</ele>
        <time>2025-01-03T17:36:49.113Z</time>
      </trkpt>
      <trkpt lat="48.35006" lon="5.04453">
        <ele>254.98</ele>
        <time>2025-01-03T17:36:55.187Z</time>
      </trkpt>
      <trkpt lat="48.34978" lon="5.04459">
        <ele>254.52</ele>
        <time>2025-01-03T17:37:01.266Z</time>
      </trkpt>
      <trkpt lat="48.3495" lon="5.04464">
        <ele>254.19</ele>
        <time>2025-01-03T17:37:07.349Z</time>
      </trkpt>
      <trkpt lat="48.34922" lon="5.0447">
        <ele>253.91</ele>
        <time>2025-01-03T17:37:13.437Z</time>
      </trkpt>
      <trkpt lat="48.34894" lon="5.04476">
        <ele>253.63</ele>
        <time>2025-01-03T17:37:19.529Z</time>
      </trkpt>
      <trkpt lat="48.34866" lon="5.04482">
        <ele>253.39</ele>
        <time>2025-01-03T17:37:25.626Z</time>
      </trkpt>
      <trkpt lat="48.34838" lon="5.04488">
        <ele>253.25</ele>
        <time>2025-01-03T17:37:31.727Z</time>
      </trkpt>
      <trkpt lat="48.34811" lon="5.04494">
        <ele>253.19</ele>
        <time>2025-01-03T17:37:37.833Z</time>
      </trkpt>
      <trkpt lat="48.34783" lon="5.045">
        <ele>253.08</ele>
        <time>2025-01-03T17:37:43.943Z</time>
      </trkpt>
      <trkpt lat="48.34759" lon="5.04497">
        <ele>252.97</ele>
        <time>2025-01-03T17:37:50.057Z</time>
      </trkpt>
      <trkpt lat="48.34735" lon="5.04495">
        <ele>252.91</ele>
        <time>2025-01-03T17:37:56.175Z</time>
      </trkpt>
      <trkpt lat="48.34712" lon="5.04492">
        <ele>252.91</ele>
        <time>2025-01-03T17:38:02.297Z</time>
      </trkpt>
      <trkpt lat="48.34688" lon="5.04489">
        <ele>252.96</ele>
        <time>2025-01-03T17:38:08.422Z</time>
      </trkpt>
      <trkpt lat="48.34658" lon="5.0448">
        <ele>253.17</ele>
        <time>2025-01-03T17:38:14.552Z</time>
      </trkpt>
      <trkpt lat="48.34629" lon="5.0447">
        <ele>253.47</ele>
        <time>2025-01-03T17:38:20.687Z</time>
      </trkpt>
      <trkpt lat="48.34599" lon="5.04461">
        <ele>253.76</ele>
        <time>2025-01-03T17:38:26.827Z</time>
      </trkpt>
      <trkpt lat="48.34569" lon="5.04452">
        <ele>254.1</ele>
        <time>2025-01-03T17:38:32.972Z</time>
      </trkpt>
      <trkpt lat="48.3454" lon="5.04442">
        <ele>254.47</ele>
        <time>2025-01-03T17:38:39.122Z</time>
      </trkpt>
      <trkpt lat="48.3451" lon="5.04433">
        <ele>254.92</ele>
        <time>2025-01-03T17:38:45.277Z</time>
      </trkpt>
      <trkpt lat="48.3448" lon="5.04423">
        <ele>255.3</ele>
        <time>2025-01-03T17:38:51.436Z</time>
      </trkpt>
      <trkpt lat="48.34451" lon="5.04414">
        <ele>255.68</ele>
        <time>2025-01-03T17:38:57.600Z</time>
      </trkpt>
      <trkpt lat="48.34421" lon="5.04405">
        <ele>256.13</ele>
        <time>2025-01-03T17:39:03.769Z</time>
      </trkpt>
      <trkpt lat="48.34391" lon="5.04395">
        <ele>256.58</ele>
        <time>2025-01-03T17:39:09.943Z</time>
      </trkpt>
      <trkpt lat="48.34361" lon="5.04386">
        <ele>257.04</ele>
        <time>2025-01-03T17:39:16.122Z</time>
      </trkpt>
      <trkpt lat="48.34332" lon="5.04376">
        <ele>257.48</ele>
        <time>2025-01-03T17:39:22.306Z</time>
      </trkpt>
      <trkpt lat="48.34302" lon="5.04367">
        <ele>257.9</ele>
        <time>2025-01-03T17:39:28.495Z</time>
      </trkpt>
      <trkpt lat="48.3428" lon="5.04355">
        <ele>258.2</ele>
        <time>2025-01-03T17:39:34.687Z</time>
      </trkpt>
      <trkpt lat="48.34258" lon="5.04344">
        <ele>258.44</ele>
        <time>2025-01-03T17:39:40.883Z</time>
      </trkpt>
      <trkpt lat="48.34235" lon="5.04333">
        <ele>258.71</ele>
        <time>2025-01-03T17:39:47.083Z</time>
      </trkpt>
      <trkpt lat="48.3421" lon="5.04318">
        <ele>259.03</ele>
        <time>2025-01-03T17:39:53.287Z</time>
      </trkpt>
      <trkpt lat="48.34185" lon="5.04302">
        <ele>259.37</ele>
        <time>2025-01-03T17:39:59.496Z</time>
      </trkpt>
      <trkpt lat="48.34159" lon="5.04287">
        <ele>259.65</ele>
        <time>2025-01-03T17:40:05.709Z</time>
      </trkpt>
      <trkpt lat="48.34134" lon="5.04272">
        <ele>259.86</ele>
        <time>2025-01-03T17:40:11.926Z</time>
      </trkpt>
      <trkpt lat="48.34108" lon="5.04257">
        <ele>259.98</ele>
        <time>2025-01-03T17:40:18.148Z</time>
      </trkpt>
      <trkpt lat="48.34083" lon="5.04242">
        <ele>260.14</ele>
        <time>2025-01-03T17:40:24.374Z</time>
      </trkpt>
      <trkpt lat="48.34057" lon="5.04227">
        <ele>260.24</ele>
        <time>2025-01-03T17:40:30.605Z</time>
      </trkpt>
      <trkpt lat="48.34031" lon="5.04215">
        <ele>260.28</ele>
        <time>2025-01-03T17:40:36.840Z</time>
      </trkpt>
      <trkpt lat="48.34005" lon="5.04202">
        <ele>260.26</ele>
        <time>2025-01-03T17:40:43.079Z</time>
      </trkpt>
      <trkpt lat="48.33979" lon="5.04189">
        <ele>260.19</ele>
        <time>2025-01-03T17:40:49.323Z</time>
      </trkpt>
      <trkpt lat="48.33953" lon="5.04176">
        <ele>260.08</ele>
        <time>2025-01-03T17:40:55.571Z</time>
      </trkpt>
      <trkpt lat="48.33926" lon="5.04163">
        <ele>259.94</ele>
        <time>2025-01-03T17:41:01.824Z</time>
      </trkpt>
      <trkpt lat="48.33916" lon="5.04154">
        <ele>259.79</ele>
        <time>2025-01-03T17:41:08.079Z</time>
      </trkpt>
      <trkpt lat="48.33896" lon="5.04131">
        <ele>259.63</ele>
        <time>2025-01-03T17:41:14.338Z</time>
      </trkpt>
      <trkpt lat="48.33881" lon="5.04107">
        <ele>259.5</ele>
        <time>2025-01-03T17:41:20.600Z</time>
      </trkpt>
      <trkpt lat="48.33865" lon="5.04084">
        <ele>259.31</ele>
        <time>2025-01-03T17:41:26.866Z</time>
      </trkpt>
      <trkpt lat="48.33849" lon="5.0406">
        <ele>259.04</ele>
        <time>2025-01-03T17:41:33.135Z</time>
      </trkpt>
      <trkpt lat="48.33831" lon="5.04041">
        <ele>258.68</ele>
        <time>2025-01-03T17:41:39.408Z</time>
      </trkpt>
      <trkpt lat="48.33813" lon="5.04021">
        <ele>258.33</ele>
        <time>2025-01-03T17:41:45.684Z</time>
      </trkpt>
      <trkpt lat="48.33812" lon="5.04064">
        <ele>258.19</ele>
        <time>2025-01-03T17:41:51.965Z</time>
      </trkpt>
      <trkpt lat="48.33811" lon="5.04106">
        <ele>257.94</ele>
        <time>2025-01-03T17:41:58.250Z</time>
      </trkpt>
      <trkpt lat="48.33809" lon="5.04149">
        <ele>257.67</ele>
        <time>2025-01-03T17:42:04.540Z</time>
      </trkpt>
      <trkpt lat="48.33808" lon="5.04191">
        <ele>257.39</ele>
        <time>2025-01-03T17:42:10.834Z</time>
      </trkpt>
      <trkpt lat="48.33813" lon="5.04233">
        <ele>257.08</ele>
        <time>2025-01-03T17:42:17.133Z</time>
      </trkpt>
      <trkpt lat="48.33817" lon="5.04275">
        <ele>256.74</ele>
        <time>2025-01-03T17:42:23.437Z</time>
      </trkpt>
      <trkpt lat="48.33823" lon="5.0429">
        <ele>256.36</ele>
        <time>2025-01-03T17:42:29.742Z</time>
      </trkpt>
      <trkpt lat="48.33817" lon="5.04275">
        <ele>256.74</ele>
        <time>2025-01-03T17:42:36.049Z</time>
      </trkpt>
      <trkpt lat="48.33813" lon="5.04233">
        <ele>255.44</ele>
        <time>2025-01-03T17:42:42.361Z</time>
      </trkpt>
      <trkpt lat="48.33808" lon="5.04191">
        <ele>257.39</ele>
        <time>2025-01-03T17:42:48.677Z</time>
      </trkpt>
      <trkpt lat="48.33809" lon="5.04148">
        <ele>254.45</ele>
        <time>2025-01-03T17:42:54.998Z</time>
      </trkpt>
      <trkpt lat="48.33811" lon="5.04106">
        <ele>253.97</ele>
        <time>2025-01-03T17:43:01.323Z</time>
      </trkpt>
      <trkpt lat="48.33812" lon="5.04063">
        <ele>253.5</ele>
        <time>2025-01-03T17:43:07.653Z</time>
      </trkpt>
      <trkpt lat="48.33813" lon="5.04021">
        <ele>252.97</ele>
        <time>2025-01-03T17:43:13.988Z</time>
      </trkpt>
      <trkpt lat="48.33806" lon="5.03994">
        <ele>252.55</ele>
        <time>2025-01-03T17:43:20.326Z</time>
      </trkpt>
      <trkpt lat="48.33808" lon="5.03961">
        <ele>252.18</ele>
        <time>2025-01-03T17:43:26.667Z</time>
      </trkpt>
      <trkpt lat="48.33811" lon="5.03929">
        <ele>251.91</ele>
        <time>2025-01-03T17:43:33.012Z</time>
      </trkpt>
      <trkpt lat="48.33807" lon="5.03905">
        <ele>251.7</ele>
        <time>2025-01-03T17:43:39.359Z</time>
      </trkpt>
      <trkpt lat="48.33804" lon="5.03882">
        <ele>251.54</ele>
        <time>2025-01-03T17:43:45.709Z</time>
      </trkpt>
      <trkpt lat="48.33774" lon="5.03869">
        <ele>251.44</ele>
        <time>2025-01-03T17:43:52.064Z</time>
      </trkpt>
      <trkpt lat="48.33746" lon="5.03851">
        <ele>251.45</ele>
        <time>2025-01-03T17:43:58.424Z</time>
      </trkpt>
      <trkpt lat="48.33718" lon="5.03833">
        <ele>251.54</ele>
        <time>2025-01-03T17:44:04.788Z</time>
      </trkpt>
      <trkpt lat="48.33703" lon="5.03833">
        <ele>251.65</ele>
        <time>2025-01-03T17:44:11.155Z</time>
      </trkpt>
      <trkpt lat="48.337" lon="5.03877">
        <ele>251.78</ele>
        <time>2025-01-03T17:44:17.527Z</time>
      </trkpt>
      <trkpt lat="48.33697" lon="5.03921">
        <ele>252.02</ele>
        <time>2025-01-03T17:44:23.903Z</time>
      </trkpt>
      <trkpt lat="48.33693" lon="5.03953">
        <ele>252.35</ele>
        <time>2025-01-03T17:44:30.283Z</time>
      </trkpt>
      <trkpt lat="48.33688" lon="5.03985">
        <ele>252.77</ele>
        <time>2025-01-03T17:44:36.666Z</time>
      </trkpt>
      <trkpt lat="48.3368" lon="5.04008">
        <ele>253.32</ele>
        <time>2025-01-03T17:44:43.052Z</time>
      </trkpt>
      <trkpt lat="48.33671" lon="5.0403">
        <ele>253.96</ele>
        <time>2025-01-03T17:44:49.441Z</time>
      </trkpt>
      <trkpt lat="48.33659" lon="5.04049">
        <ele>254.64</ele>
        <time>2025-01-03T17:44:55.833Z</time>
      </trkpt>
      <trkpt lat="48.33647" lon="5.04069">
        <ele>255.38</ele>
        <time>2025-01-03T17:45:02.227Z</time>
      </trkpt>
      <trkpt lat="48.33626" lon="5.04098">
        <ele>256.22</ele>
        <time>2025-01-03T17:45:08.626Z</time>
      </trkpt>
      <trkpt lat="48.33605" lon="5.04127">
        <ele>257.17</ele>
        <time>2025-01-03T17:45:15.030Z</time>
      </trkpt>
      <trkpt lat="48.33583" lon="5.04157">
        <ele>258.16</ele>
        <time>2025-01-03T17:45:21.438Z</time>
      </trkpt>
      <trkpt lat="48.33566" lon="5.04169">
        <ele>259.14</ele>
        <time>2025-01-03T17:45:27.849Z</time>
      </trkpt>
      <trkpt lat="48.33549" lon="5.04182">
        <ele>260.14</ele>
        <time>2025-01-03T17:45:34.264Z</time>
      </trkpt>
      <trkpt lat="48.33524" lon="5.04212">
        <ele>261.19</ele>
        <time>2025-01-03T17:45:40.684Z</time>
      </trkpt>
      <trkpt lat="48.335" lon="5.04241">
        <ele>262.32</ele>
        <time>2025-01-03T17:45:47.109Z</time>
      </trkpt>
      <trkpt lat="48.33476" lon="5.0427">
        <ele>263.43</ele>
        <time>2025-01-03T17:45:53.539Z</time>
      </trkpt>
      <trkpt lat="48.33463" lon="5.0429">
        <ele>264.51</ele>
        <time>2025-01-03T17:45:59.971Z</time>
      </trkpt>
      <trkpt lat="48.33454" lon="5.04322">
        <ele>265.64</ele>
        <time>2025-01-03T17:46:06.407Z</time>
      </trkpt>
      <trkpt lat="48.33452" lon="5.04359">
        <ele>266.83</ele>
        <time>2025-01-03T17:46:12.847Z</time>
      </trkpt>
      <trkpt lat="48.3345" lon="5.04397">
        <ele>268.11</ele>
        <time>2025-01-03T17:46:19.291Z</time>
      </trkpt>
      <trkpt lat="48.33447" lon="5.04438">
        <ele>269.37</ele>
        <time>2025-01-03T17:46:25.740Z</time>
      </trkpt>
      <trkpt lat="48.33443" lon="5.0448">
        <ele>270.62</ele>
        <time>2025-01-03T17:46:32.193Z</time>
      </trkpt>
      <trkpt lat="48.3344" lon="5.04521">
        <ele>271.94</ele>
        <time>2025-01-03T17:46:38.651Z</time>
      </trkpt>
      <trkpt lat="48.33436" lon="5.04562">
        <ele>273.48</ele>
        <time>2025-01-03T17:46:45.113Z</time>
      </trkpt>
      <trkpt lat="48.33433" lon="5.04603">
        <ele>275.04</ele>
        <time>2025-01-03T17:46:51.579Z</time>
      </trkpt>
      <trkpt lat="48.33433" lon="5.04603">
        <ele>276.47</ele>
        <time>2025-01-03T17:46:58.045Z</time>
      </trkpt>
      <trkpt lat="48.33435" lon="5.04646">
        <ele>277.99</ele>
        <time>2025-01-03T17:47:04.516Z</time>
      </trkpt>
      <trkpt lat="48.33437" lon="5.04688">
        <ele>279.51</ele>
        <time>2025-01-03T17:47:10.991Z</time>
      </trkpt>
      <trkpt lat="48.33439" lon="5.04731">
        <ele>281.11</ele>
        <time>2025-01-03T17:47:17.471Z</time>
      </trkpt>
      <trkpt lat="48.33442" lon="5.04773">
        <ele>282.77</ele>
        <time>2025-01-03T17:47:23.956Z</time>
      </trkpt>
      <trkpt lat="48.33444" lon="5.04815">
        <ele>284.53</ele>
        <time>2025-01-03T17:47:30.445Z</time>
      </trkpt>
      <trkpt lat="48.33441" lon="5.04835">
        <ele>286.22</ele>
        <time>2025-01-03T17:47:36.936Z</time>
      </trkpt>
      <trkpt lat="48.33431" lon="5.04852">
        <ele>287.9</ele>
        <time>2025-01-03T17:47:43.430Z</time>
      </trkpt>
      <trkpt lat="48.33416" lon="5.0486">
        <ele>289.56</ele>
        <time>2025-01-03T17:47:49.926Z</time>
      </trkpt>
      <trkpt lat="48.33393" lon="5.04859">
        <ele>291.37</ele>
        <time>2025-01-03T17:47:56.426Z</time>
      </trkpt>
      <trkpt lat="48.33371" lon="5.04858">
        <ele>293.22</ele>
        <time>2025-01-03T17:48:02.930Z</time>
      </trkpt>
      <trkpt lat="48.33341" lon="5.04859">
        <ele>295.06</ele>
        <time>2025-01-03T17:48:09.438Z</time>
      </trkpt>
      <trkpt lat="48.33311" lon="5.0486">
        <ele>296.86</ele>
        <time>2025-01-03T17:48:15.951Z</time>
      </trkpt>
      <trkpt lat="48.33291" lon="5.04867">
        <ele>298.68</ele>
        <time>2025-01-03T17:48:22.467Z</time>
      </trkpt>
      <trkpt lat="48.33266" lon="5.04884">
        <ele>300.59</ele>
        <time>2025-01-03T17:48:28.988Z</time>
      </trkpt>
      <trkpt lat="48.3324" lon="5.04901">
        <ele>302.5</ele>
        <time>2025-01-03T17:48:35.513Z</time>
      </trkpt>
      <trkpt lat="48.33218" lon="5.04908">
        <ele>304.36</ele>
        <time>2025-01-03T17:48:42.042Z</time>
      </trkpt>
      <trkpt lat="48.33197" lon="5.04914">
        <ele>306.23</ele>
        <time>2025-01-03T17:48:48.574Z</time>
      </trkpt>
      <trkpt lat="48.33175" lon="5.0492">
        <ele>308.13</ele>
        <time>2025-01-03T17:48:55.110Z</time>
      </trkpt>
      <trkpt lat="48.3316" lon="5.04933">
        <ele>309.99</ele>
        <time>2025-01-03T17:49:01.649Z</time>
      </trkpt>
      <trkpt lat="48.33139" lon="5.04968">
        <ele>311.93</ele>
        <time>2025-01-03T17:49:08.193Z</time>
      </trkpt>
      <trkpt lat="48.33117" lon="5.05002">
        <ele>313.89</ele>
        <time>2025-01-03T17:49:14.742Z</time>
      </trkpt>
      <trkpt lat="48.33104" lon="5.05033">
        <ele>315.85</ele>
        <time>2025-01-03T17:49:21.295Z</time>
      </trkpt>
      <trkpt lat="48.3309" lon="5.05064">
        <ele>317.75</ele>
        <time>2025-01-03T17:49:27.852Z</time>
      </trkpt>
      <trkpt lat="48.3308" lon="5.05094">
        <ele>319.61</ele>
        <time>2025-01-03T17:49:34.412Z</time>
      </trkpt>
      <trkpt lat="48.3307" lon="5.05123">
        <ele>321.45</ele>
        <time>2025-01-03T17:49:40.976Z</time>
      </trkpt>
      <trkpt lat="48.3306" lon="5.05152">
        <ele>323.31</ele>
        <time>2025-01-03T17:49:47.543Z</time>
      </trkpt>
      <trkpt lat="48.33051" lon="5.05167">
        <ele>325.08</ele>
        <time>2025-01-03T17:49:54.112Z</time>
      </trkpt>
      <trkpt lat="48.3304" lon="5.05172">
        <ele>326.91</ele>
        <time>2025-01-03T17:50:00.683Z</time>
      </trkpt>
      <trkpt lat="48.33027" lon="5.05172">
        <ele>328.67</ele>
        <time>2025-01-03T17:50:07.256Z</time>
      </trkpt>
      <trkpt lat="48.32998" lon="5.05158">
        <ele>330.53</ele>
        <time>2025-01-03T17:50:13.834Z</time>
      </trkpt>
      <trkpt lat="48.32969" lon="5.05144">
        <ele>332.43</ele>
        <time>2025-01-03T17:50:20.417Z</time>
      </trkpt>
      <trkpt lat="48.32939" lon="5.05131">
        <ele>334.27</ele>
        <time>2025-01-03T17:50:27.005Z</time>
      </trkpt>
      <trkpt lat="48.32927" lon="5.05129">
        <ele>336.06</ele>
        <time>2025-01-03T17:50:33.595Z</time>
      </trkpt>
      <trkpt lat="48.32899" lon="5.05135">
        <ele>338.08</ele>
        <time>2025-01-03T17:50:40.189Z</time>
      </trkpt>
      <trkpt lat="48.32873" lon="5.05131">
        <ele>339.81</ele>
        <time>2025-01-03T17:50:46.788Z</time>
      </trkpt>
      <trkpt lat="48.32846" lon="5.05118">
        <ele>341.36</ele>
        <time>2025-01-03T17:50:53.391Z</time>
      </trkpt>
      <trkpt lat="48.32819" lon="5.05105">
        <ele>342.86</ele>
        <time>2025-01-03T17:50:59.999Z</time>
      </trkpt>
      <trkpt lat="48.32788" lon="5.05099">
        <ele>344.39</ele>
        <time>2025-01-03T17:51:06.612Z</time>
      </trkpt>
      <trkpt lat="48.32758" lon="5.05094">
        <ele>345.83</ele>
        <time>2025-01-03T17:51:13.230Z</time>
      </trkpt>
      <trkpt lat="48.32727" lon="5.05088">
        <ele>347.22</ele>
        <time>2025-01-03T17:51:19.853Z</time>
      </trkpt>
      <trkpt lat="48.32705" lon="5.0509">
        <ele>348.62</ele>
        <time>2025-01-03T17:51:26.479Z</time>
      </trkpt>
      <trkpt lat="48.32684" lon="5.05092">
        <ele>349.99</ele>
        <time>2025-01-03T17:51:33.108Z</time>
      </trkpt>
      <trkpt lat="48.32675" lon="5.05101">
        <ele>351.35</ele>
        <time>2025-01-03T17:51:39.739Z</time>
      </trkpt>
      <trkpt lat="48.32673" lon="5.05118">
        <ele>352.69</ele>
        <time>2025-01-03T17:51:46.372Z</time>
      </trkpt>
      <trkpt lat="48.32678" lon="5.05129">
        <ele>353.89</ele>
        <time>2025-01-03T17:51:53.006Z</time>
      </trkpt>
      <trkpt lat="48.32684" lon="5.05133">
        <ele>354.97</ele>
        <time>2025-01-03T17:51:59.641Z</time>
      </trkpt>
      <trkpt lat="48.32714" lon="5.05137">
        <ele>355.98</ele>
        <time>2025-01-03T17:52:06.281Z</time>
      </trkpt>
      <trkpt lat="48.3273" lon="5.05131">
        <ele>356.88</ele>
        <time>2025-01-03T17:52:12.924Z</time>
      </trkpt>
      <trkpt lat="48.32746" lon="5.05124">
        <ele>357.75</ele>
        <time>2025-01-03T17:52:19.570Z</time>
      </trkpt>
      <trkpt lat="48.32763" lon="5.05126">
        <ele>358.65</ele>
        <time>2025-01-03T17:52:26.218Z</time>
      </trkpt>
      <trkpt lat="48.32781" lon="5.05129">
        <ele>359.48</ele>
        <time>2025-01-03T17:52:32.869Z</time>
      </trkpt>
      <trkpt lat="48.32798" lon="5.05138">
        <ele>360.34</ele>
        <time>2025-01-03T17:52:39.523Z</time>
      </trkpt>
      <trkpt lat="48.32815" lon="5.05148">
        <ele>361.21</ele>
        <time>2025-01-03T17:52:46.180Z</time>
      </trkpt>
      <trkpt lat="48.32841" lon="5.05165">
        <ele>362.12</ele>
        <time>2025-01-03T17:52:52.841Z</time>
      </trkpt>
      <trkpt lat="48.32859" lon="5.05188">
        <ele>363.05</ele>
        <time>2025-01-03T17:52:59.506Z</time>
      </trkpt>
      <trkpt lat="48.32877" lon="5.0521">
        <ele>363.78</ele>
        <time>2025-01-03T17:53:06.175Z</time>
      </trkpt>
      <trkpt lat="48.32895" lon="5.05233">
        <ele>364.42</ele>
        <time>2025-01-03T17:53:12.848Z</time>
      </trkpt>
      <trkpt lat="48.32914" lon="5.05255">
        <ele>365.02</ele>
        <time>2025-01-03T17:53:19.525Z</time>
      </trkpt>
      <trkpt lat="48.3292" lon="5.05281">
        <ele>365.67</ele>
        <time>2025-01-03T17:53:26.205Z</time>
      </trkpt>
      <trkpt lat="48.3292" lon="5.05323">
        <ele>366.34</ele>
        <time>2025-01-03T17:53:32.889Z</time>
      </trkpt>
      <trkpt lat="48.3292" lon="5.05364">
        <ele>366.91</ele>
        <time>2025-01-03T17:53:39.577Z</time>
      </trkpt>
      <trkpt lat="48.3292" lon="5.05405">
        <ele>367.48</ele>
        <time>2025-01-03T17:53:46.270Z</time>
      </trkpt>
      <trkpt lat="48.32921" lon="5.05429">
        <ele>367.97</ele>
        <time>2025-01-03T17:53:52.965Z</time>
      </trkpt>
      <trkpt lat="48.32922" lon="5.05453">
        <ele>368.39</ele>
        <time>2025-01-03T17:53:59.663Z</time>
      </trkpt>
      <trkpt lat="48.3292" lon="5.05492">
        <ele>368.74</ele>
        <time>2025-01-03T17:54:06.365Z</time>
      </trkpt>
      <trkpt lat="48.32918" lon="5.05532">
        <ele>369.09</ele>
        <time>2025-01-03T17:54:13.071Z</time>
      </trkpt>
      <trkpt lat="48.32914" lon="5.05547">
        <ele>369.32</ele>
        <time>2025-01-03T17:54:19.779Z</time>
      </trkpt>
      <trkpt lat="48.329" lon="5.05571">
        <ele>369.48</ele>
        <time>2025-01-03T17:54:26.491Z</time>
      </trkpt>
      <trkpt lat="48.32886" lon="5.05594">
        <ele>369.61</ele>
        <time>2025-01-03T17:54:33.206Z</time>
      </trkpt>
      <trkpt lat="48.32864" lon="5.0562">
        <ele>369.64</ele>
        <time>2025-01-03T17:54:39.925Z</time>
      </trkpt>
      <trkpt lat="48.32845" lon="5.05637">
        <ele>369.51</ele>
        <time>2025-01-03T17:54:46.648Z</time>
      </trkpt>
      <trkpt lat="48.32826" lon="5.05654">
        <ele>369.25</ele>
        <time>2025-01-03T17:54:53.374Z</time>
      </trkpt>
      <trkpt lat="48.32804" lon="5.05672">
        <ele>368.84</ele>
        <time>2025-01-03T17:55:00.104Z</time>
      </trkpt>
      <trkpt lat="48.32783" lon="5.05689">
        <ele>368.44</ele>
        <time>2025-01-03T17:55:06.838Z</time>
      </trkpt>
      <trkpt lat="48.32761" lon="5.05706">
        <ele>368</ele>
        <time>2025-01-03T17:55:13.576Z</time>
      </trkpt>
      <trkpt lat="48.3274" lon="5.05723">
        <ele>367.4</ele>
        <time>2025-01-03T17:55:20.318Z</time>
      </trkpt>
      <trkpt lat="48.3272" lon="5.0575">
        <ele>366.65</ele>
        <time>2025-01-03T17:55:27.064Z</time>
      </trkpt>
      <trkpt lat="48.32701" lon="5.05777">
        <ele>365.85</ele>
        <time>2025-01-03T17:55:33.814Z</time>
      </trkpt>
      <trkpt lat="48.32689" lon="5.05806">
        <ele>364.94</ele>
        <time>2025-01-03T17:55:40.568Z</time>
      </trkpt>
      <trkpt lat="48.32677" lon="5.05835">
        <ele>363.96</ele>
        <time>2025-01-03T17:55:47.326Z</time>
      </trkpt>
      <trkpt lat="48.32665" lon="5.05865">
        <ele>362.92</ele>
        <time>2025-01-03T17:55:54.088Z</time>
      </trkpt>
      <trkpt lat="48.32654" lon="5.05899">
        <ele>361.83</ele>
        <time>2025-01-03T17:56:00.854Z</time>
      </trkpt>
      <trkpt lat="48.32649" lon="5.05942">
        <ele>360.48</ele>
        <time>2025-01-03T17:56:07.624Z</time>
      </trkpt>
      <trkpt lat="48.32643" lon="5.05985">
        <ele>359.09</ele>
        <time>2025-01-03T17:56:14.399Z</time>
      </trkpt>
      <trkpt lat="48.32635" lon="5.06011">
        <ele>357.71</ele>
        <time>2025-01-03T17:56:21.177Z</time>
      </trkpt>
      <trkpt lat="48.32616" lon="5.06046">
        <ele>356.32</ele>
        <time>2025-01-03T17:56:27.960Z</time>
      </trkpt>
      <trkpt lat="48.32598" lon="5.06082">
        <ele>354.67</ele>
        <time>2025-01-03T17:56:34.748Z</time>
      </trkpt>
      <trkpt lat="48.32579" lon="5.06118">
        <ele>352.78</ele>
        <time>2025-01-03T17:56:41.540Z</time>
      </trkpt>
      <trkpt lat="48.32561" lon="5.06153">
        <ele>350.67</ele>
        <time>2025-01-03T17:56:48.337Z</time>
      </trkpt>
      <trkpt lat="48.32542" lon="5.06189">
        <ele>348.48</ele>
        <time>2025-01-03T17:56:55.139Z</time>
      </trkpt>
      <trkpt lat="48.32523" lon="5.06206">
        <ele>346.36</ele>
        <time>2025-01-03T17:57:01.945Z</time>
      </trkpt>
      <trkpt lat="48.32495" lon="5.06219">
        <ele>344.34</ele>
        <time>2025-01-03T17:57:08.755Z</time>
      </trkpt>
      <trkpt lat="48.3248" lon="5.06232">
        <ele>342.22</ele>
        <time>2025-01-03T17:57:15.568Z</time>
      </trkpt>
      <trkpt lat="48.32465" lon="5.06257">
        <ele>340.07</ele>
        <time>2025-01-03T17:57:22.385Z</time>
      </trkpt>
      <trkpt lat="48.32452" lon="5.06295">
        <ele>337.79</ele>
        <time>2025-01-03T17:57:29.206Z</time>
      </trkpt>
      <trkpt lat="48.32439" lon="5.06332">
        <ele>335.44</ele>
        <time>2025-01-03T17:57:36.032Z</time>
      </trkpt>
      <trkpt lat="48.32427" lon="5.06369">
        <ele>333.06</ele>
        <time>2025-01-03T17:57:42.862Z</time>
      </trkpt>
      <trkpt lat="48.32414" lon="5.06395">
        <ele>330.75</ele>
        <time>2025-01-03T17:57:49.696Z</time>
      </trkpt>
      <trkpt lat="48.32401" lon="5.0642">
        <ele>328.45</ele>
        <time>2025-01-03T17:57:56.533Z</time>
      </trkpt>
      <trkpt lat="48.32388" lon="5.06446">
        <ele>326.26</ele>
        <time>2025-01-03T17:58:03.373Z</time>
      </trkpt>
      <trkpt lat="48.32381" lon="5.06476">
        <ele>324.07</ele>
        <time>2025-01-03T17:58:10.217Z</time>
      </trkpt>
      <trkpt lat="48.32384" lon="5.06502">
        <ele>321.94</ele>
        <time>2025-01-03T17:58:17.064Z</time>
      </trkpt>
      <trkpt lat="48.32388" lon="5.06515">
        <ele>319.95</ele>
        <time>2025-01-03T17:58:23.912Z</time>
      </trkpt>
      <trkpt lat="48.32408" lon="5.06545">
        <ele>317.96</ele>
        <time>2025-01-03T17:58:30.765Z</time>
      </trkpt>
      <trkpt lat="48.32428" lon="5.06575">
        <ele>316.12</ele>
        <time>2025-01-03T17:58:37.622Z</time>
      </trkpt>
      <trkpt lat="48.32448" lon="5.06605">
        <ele>314.41</ele>
        <time>2025-01-03T17:58:44.484Z</time>
      </trkpt>
      <trkpt lat="48.32463" lon="5.06644">
        <ele>312.79</ele>
        <time>2025-01-03T17:58:51.351Z</time>
      </trkpt>
      <trkpt lat="48.32465" lon="5.06679">
        <ele>311.19</ele>
        <time>2025-01-03T17:58:58.221Z</time>
      </trkpt>
      <trkpt lat="48.32467" lon="5.06714">
        <ele>309.72</ele>
        <time>2025-01-03T17:59:05.095Z</time>
      </trkpt>
      <trkpt lat="48.32467" lon="5.06742">
        <ele>308.29</ele>
        <time>2025-01-03T17:59:11.972Z</time>
      </trkpt>
      <trkpt lat="48.32473" lon="5.06778">
        <ele>306.9</ele>
        <time>2025-01-03T17:59:18.853Z</time>
      </trkpt>
      <trkpt lat="48.32479" lon="5.06813">
        <ele>305.57</ele>
        <time>2025-01-03T17:59:25.738Z</time>
      </trkpt>
      <trkpt lat="48.32485" lon="5.06849">
        <ele>304.3</ele>
        <time>2025-01-03T17:59:32.627Z</time>
      </trkpt>
      <trkpt lat="48.32491" lon="5.06884">
        <ele>303.19</ele>
        <time>2025-01-03T17:59:39.520Z</time>
      </trkpt>
      <trkpt lat="48.3252" lon="5.06871">
        <ele>302.14</ele>
        <time>2025-01-03T17:59:46.418Z</time>
      </trkpt>
      <trkpt lat="48.32549" lon="5.06858">
        <ele>301.09</ele>
        <time>2025-01-03T17:59:53.320Z</time>
      </trkpt>
      <trkpt lat="48.32563" lon="5.06842">
        <ele>300.19</ele>
        <time>2025-01-03T18:00:00.225Z</time>
      </trkpt>
      <trkpt lat="48.32577" lon="5.06826">
        <ele>299.35</ele>
        <time>2025-01-03T18:00:07.133Z</time>
      </trkpt>
      <trkpt lat="48.32591" lon="5.06804">
        <ele>298.63</ele>
        <time>2025-01-03T18:00:14.044Z</time>
      </trkpt>
      <trkpt lat="48.32605" lon="5.06783">
        <ele>297.89</ele>
        <time>2025-01-03T18:00:20.958Z</time>
      </trkpt>
      <trkpt lat="48.32623" lon="5.06782">
        <ele>297.25</ele>
        <time>2025-01-03T18:00:27.875Z</time>
      </trkpt>
      <trkpt lat="48.32623" lon="5.06782">
        <ele>296.57</ele>
        <time>2025-01-03T18:00:34.792Z</time>
      </trkpt>
      <trkpt lat="48.32605" lon="5.06783">
        <ele>297.89</ele>
        <time>2025-01-03T18:00:41.712Z</time>
      </trkpt>
      <trkpt lat="48.32591" lon="5.06804">
        <ele>295.2</ele>
        <time>2025-01-03T18:00:48.636Z</time>
      </trkpt>
      <trkpt lat="48.32577" lon="5.06826">
        <ele>299.35</ele>
        <time>2025-01-03T18:00:55.563Z</time>
      </trkpt>
      <trkpt lat="48.32563" lon="5.06842">
        <ele>293.87</ele>
        <time>2025-01-03T18:01:02.493Z</time>
      </trkpt>
      <trkpt lat="48.32549" lon="5.06858">
        <ele>301.09</ele>
        <time>2025-01-03T18:01:09.425Z</time>
      </trkpt>
      <trkpt lat="48.3252" lon="5.06871">
        <ele>292.67</ele>
        <time>2025-01-03T18:01:16.362Z</time>
      </trkpt>
      <trkpt lat="48.32491" lon="5.06884">
        <ele>292.02</ele>
        <time>2025-01-03T18:01:23.304Z</time>
      </trkpt>
      <trkpt lat="48.32493" lon="5.06903">
        <ele>291.27</ele>
        <time>2025-01-03T18:01:30.248Z</time>
      </trkpt>
      <trkpt lat="48.32491" lon="5.0693">
        <ele>290.5</ele>
        <time>2025-01-03T18:01:37.195Z</time>
      </trkpt>
      <trkpt lat="48.32489" lon="5.06957">
        <ele>289.67</ele>
        <time>2025-01-03T18:01:44.145Z</time>
      </trkpt>
      <trkpt lat="48.32484" lon="5.06999">
        <ele>288.8</ele>
        <time>2025-01-03T18:01:51.099Z</time>
      </trkpt>
      <trkpt lat="48.3248" lon="5.07041">
        <ele>288.01</ele>
        <time>2025-01-03T18:01:58.058Z</time>
      </trkpt>
      <trkpt lat="48.32469" lon="5.07073">
        <ele>287.22</ele>
        <time>2025-01-03T18:02:05.021Z</time>
      </trkpt>
      <trkpt lat="48.32468" lon="5.07106">
        <ele>286.38</ele>
        <time>2025-01-03T18:02:11.987Z</time>
      </trkpt>
      <trkpt lat="48.32467" lon="5.0714">
        <ele>285.5</ele>
        <time>2025-01-03T18:02:18.957Z</time>
      </trkpt>
      <trkpt lat="48.32465" lon="5.07174">
        <ele>284.64</ele>
        <time>2025-01-03T18:02:25.931Z</time>
      </trkpt>
      <trkpt lat="48.32459" lon="5.07208">
        <ele>283.76</ele>
        <time>2025-01-03T18:02:32.908Z</time>
      </trkpt>
      <trkpt lat="48.32453" lon="5.07242">
        <ele>282.94</ele>
        <time>2025-01-03T18:02:39.889Z</time>
      </trkpt>
      <trkpt lat="48.32447" lon="5.07277">
        <ele>282.29</ele>
        <time>2025-01-03T18:02:46.874Z</time>
      </trkpt>
      <trkpt lat="48.32442" lon="5.07311">
        <ele>281.73</ele>
        <time>2025-01-03T18:02:53.863Z</time>
      </trkpt>
      <trkpt lat="48.3246" lon="5.0733">
        <ele>281.23</ele>
        <time>2025-01-03T18:03:00.855Z</time>
      </trkpt>
      <trkpt lat="48.32478" lon="5.07349">
        <ele>280.82</ele>
        <time>2025-01-03T18:03:07.851Z</time>
      </trkpt>
      <trkpt lat="48.32496" lon="5.07364">
        <ele>280.54</ele>
        <time>2025-01-03T18:03:14.850Z</time>
      </trkpt>
      <trkpt lat="48.32514" lon="5.07377">
        <ele>280.45</ele>
        <time>2025-01-03T18:03:21.852Z</time>
      </trkpt>
      <trkpt lat="48.32514" lon="5.07378">
        <ele>280.4</ele>
        <time>2025-01-03T18:03:28.854Z</time>
      </trkpt>
      <trkpt lat="48.32496" lon="5.07363">
        <ele>280.38</ele>
        <time>2025-01-03T18:03:35.860Z</time>
      </trkpt>
      <trkpt lat="48.32478" lon="5.07349">
        <ele>280.82</ele>
        <time>2025-01-03T18:03:42.869Z</time>
      </trkpt>
      <trkpt lat="48.3246" lon="5.0733">
        <ele>280.92</ele>
        <time>2025-01-03T18:03:49.881Z</time>
      </trkpt>
      <trkpt lat="48.32442" lon="5.07311">
        <ele>281.73</ele>
        <time>2025-01-03T18:03:56.897Z</time>
      </trkpt>
      <trkpt lat="48.32447" lon="5.07276">
        <ele>281.95</ele>
        <time>2025-01-03T18:04:03.917Z</time>
      </trkpt>
      <trkpt lat="48.32453" lon="5.07242">
        <ele>282.65</ele>
        <time>2025-01-03T18:04:10.941Z</time>
      </trkpt>
      <trkpt lat="48.32459" lon="5.07208">
        <ele>283.57</ele>
        <time>2025-01-03T18:04:17.968Z</time>
      </trkpt>
      <trkpt lat="48.32465" lon="5.07174">
        <ele>284.64</ele>
        <time>2025-01-03T18:04:24.999Z</time>
      </trkpt>
      <trkpt lat="48.32467" lon="5.0714">
        <ele>285.72</ele>
        <time>2025-01-03T18:04:32.034Z</time>
      </trkpt>
      <trkpt lat="48.32468" lon="5.07106">
        <ele>286.91</ele>
        <time>2025-01-03T18:04:39.072Z</time>
      </trkpt>
      <trkpt lat="48.32469" lon="5.07073">
        <ele>287.22</ele>
        <time>2025-01-03T18:04:46.114Z</time>
      </trkpt>
      <trkpt lat="48.3248" lon="5.07041">
        <ele>288.01</ele>
        <time>2025-01-03T18:04:53.160Z</time>
      </trkpt>
      <trkpt lat="48.32484" lon="5.06999">
        <ele>290.76</ele>
        <time>2025-01-03T18:05:00.210Z</time>
      </trkpt>
      <trkpt lat="48.32489" lon="5.06957">
        <ele>289.67</ele>
        <time>2025-01-03T18:05:07.265Z</time>
      </trkpt>
      <trkpt lat="48.32491" lon="5.0693">
        <ele>293.86</ele>
        <time>2025-01-03T18:05:14.323Z</time>
      </trkpt>
      <trkpt lat="48.32493" lon="5.06903">
        <ele>291.27</ele>
        <time>2025-01-03T18:05:21.384Z</time>
      </trkpt>
      <trkpt lat="48.32491" lon="5.06884">
        <ele>292.02</ele>
        <time>2025-01-03T18:05:28.447Z</time>
      </trkpt>
      <trkpt lat="48.32485" lon="5.06848">
        <ele>298.89</ele>
        <time>2025-01-03T18:05:35.514Z</time>
      </trkpt>
      <trkpt lat="48.32479" lon="5.06813">
        <ele>300.78</ele>
        <time>2025-01-03T18:05:42.585Z</time>
      </trkpt>
      <trkpt lat="48.32473" lon="5.06777">
        <ele>302.71</ele>
        <time>2025-01-03T18:05:49.659Z</time>
      </trkpt>
      <trkpt lat="48.32467" lon="5.06742">
        <ele>308.29</ele>
        <time>2025-01-03T18:05:56.737Z</time>
      </trkpt>
      <trkpt lat="48.32467" lon="5.06714">
        <ele>309.72</ele>
        <time>2025-01-03T18:06:03.818Z</time>
      </trkpt>
      <trkpt lat="48.32465" lon="5.06679">
        <ele>308.68</ele>
        <time>2025-01-03T18:06:10.903Z</time>
      </trkpt>
      <trkpt lat="48.32463" lon="5.06644">
        <ele>312.79</ele>
        <time>2025-01-03T18:06:17.992Z</time>
      </trkpt>
      <trkpt lat="48.32448" lon="5.06605">
        <ele>314.41</ele>
        <time>2025-01-03T18:06:25.086Z</time>
      </trkpt>
      <trkpt lat="48.32428" lon="5.06575">
        <ele>315</ele>
        <time>2025-01-03T18:06:32.184Z</time>
      </trkpt>
      <trkpt lat="48.32408" lon="5.06545">
        <ele>317.24</ele>
        <time>2025-01-03T18:06:39.287Z</time>
      </trkpt>
      <trkpt lat="48.32388" lon="5.06515">
        <ele>319.95</ele>
        <time>2025-01-03T18:06:46.394Z</time>
      </trkpt>
      <trkpt lat="48.32384" lon="5.06502">
        <ele>321.94</ele>
        <time>2025-01-03T18:06:53.503Z</time>
      </trkpt>
      <trkpt lat="48.32381" lon="5.06476">
        <ele>324.07</ele>
        <time>2025-01-03T18:07:00.615Z</time>
      </trkpt>
      <trkpt lat="48.32388" lon="5.06446">
        <ele>326.26</ele>
        <time>2025-01-03T18:07:07.730Z</time>
      </trkpt>
      <trkpt lat="48.32401" lon="5.0642">
        <ele>329.2</ele>
        <time>2025-01-03T18:07:14.848Z</time>
      </trkpt>
      <trkpt lat="48.32414" lon="5.06395">
        <ele>331.69</ele>
        <time>2025-01-03T18:07:21.970Z</time>
      </trkpt>
      <trkpt lat="48.32427" lon="5.06369">
        <ele>333.06</ele>
        <time>2025-01-03T18:07:29.095Z</time>
      </trkpt>
      <trkpt lat="48.32439" lon="5.06332">
        <ele>336.66</ele>
        <time>2025-01-03T18:07:36.225Z</time>
      </trkpt>
      <trkpt lat="48.32452" lon="5.06294">
        <ele>339.12</ele>
        <time>2025-01-03T18:07:43.359Z</time>
      </trkpt>
      <trkpt lat="48.32465" lon="5.06257">
        <ele>340.07</ele>
        <time>2025-01-03T18:07:50.498Z</time>
      </trkpt>
      <trkpt lat="48.3248" lon="5.06232">
        <ele>342.22</ele>
        <time>2025-01-03T18:07:57.640Z</time>
      </trkpt>
      <trkpt lat="48.32495" lon="5.06219">
        <ele>344.34</ele>
        <time>2025-01-03T18:08:04.785Z</time>
      </trkpt>
      <trkpt lat="48.32523" lon="5.06206">
        <ele>346.36</ele>
        <time>2025-01-03T18:08:11.935Z</time>
      </trkpt>
      <trkpt lat="48.32542" lon="5.06189">
        <ele>348.48</ele>
        <time>2025-01-03T18:08:19.088Z</time>
      </trkpt>
      <trkpt lat="48.32561" lon="5.06153">
        <ele>352.14</ele>
        <time>2025-01-03T18:08:26.246Z</time>
      </trkpt>
      <trkpt lat="48.32579" lon="5.06117">
        <ele>354.22</ele>
        <time>2025-01-03T18:08:33.409Z</time>
      </trkpt>
      <trkpt lat="48.32598" lon="5.06082">
        <ele>356.06</ele>
        <time>2025-01-03T18:08:40.577Z</time>
      </trkpt>
      <trkpt lat="48.32616" lon="5.06046">
        <ele>357.64</ele>
        <time>2025-01-03T18:08:47.750Z</time>
      </trkpt>
      <trkpt lat="48.32635" lon="5.06011">
        <ele>357.71</ele>
        <time>2025-01-03T18:08:54.927Z</time>
      </trkpt>
      <trkpt lat="48.32643" lon="5.05985">
        <ele>359.09</ele>
        <time>2025-01-03T18:09:02.108Z</time>
      </trkpt>
      <trkpt lat="48.32649" lon="5.05942">
        <ele>361.59</ele>
        <time>2025-01-03T18:09:09.293Z</time>
      </trkpt>
      <trkpt lat="48.32654" lon="5.05899">
        <ele>361.83</ele>
        <time>2025-01-03T18:09:16.483Z</time>
      </trkpt>
      <trkpt lat="48.32665" lon="5.05865">
        <ele>362.92</ele>
        <time>2025-01-03T18:09:23.677Z</time>
      </trkpt>
      <trkpt lat="48.32677" lon="5.05835">
        <ele>364.83</ele>
        <time>2025-01-03T18:09:30.875Z</time>
      </trkpt>
      <trkpt lat="48.32689" lon="5.05806">
        <ele>365.72</ele>
        <time>2025-01-03T18:09:38.076Z</time>
      </trkpt>
      <trkpt lat="48.32701" lon="5.05777">
        <ele>365.85</ele>
        <time>2025-01-03T18:09:45.281Z</time>
      </trkpt>
      <trkpt lat="48.32721" lon="5.0575">
        <ele>367.26</ele>
        <time>2025-01-03T18:09:52.490Z</time>
      </trkpt>
      <trkpt lat="48.3274" lon="5.05723">
        <ele>367.4</ele>
        <time>2025-01-03T18:09:59.703Z</time>
      </trkpt>
      <trkpt lat="48.32761" lon="5.05706">
        <ele>368.45</ele>
        <time>2025-01-03T18:10:06.920Z</time>
      </trkpt>
      <trkpt lat="48.32783" lon="5.05689">
        <ele>368.83</ele>
        <time>2025-01-03T18:10:14.141Z</time>
      </trkpt>
      <trkpt lat="48.32804" lon="5.05671">
        <ele>369.16</ele>
        <time>2025-01-03T18:10:21.366Z</time>
      </trkpt>
      <trkpt lat="48.32826" lon="5.05654">
        <ele>369.25</ele>
        <time>2025-01-03T18:10:28.595Z</time>
      </trkpt>
      <trkpt lat="48.32845" lon="5.05637">
        <ele>369.7</ele>
        <time>2025-01-03T18:10:35.828Z</time>
      </trkpt>
      <trkpt lat="48.32864" lon="5.0562">
        <ele>369.64</ele>
        <time>2025-01-03T18:10:43.064Z</time>
      </trkpt>
      <trkpt lat="48.32886" lon="5.05594">
        <ele>369.61</ele>
        <time>2025-01-03T18:10:50.305Z</time>
      </trkpt>
      <trkpt lat="48.329" lon="5.05571">
        <ele>369.52</ele>
        <time>2025-01-03T18:10:57.549Z</time>
      </trkpt>
      <trkpt lat="48.32914" lon="5.05547">
        <ele>369.32</ele>
        <time>2025-01-03T18:11:04.796Z</time>
      </trkpt>
      <trkpt lat="48.32918" lon="5.05532">
        <ele>369.09</ele>
        <time>2025-01-03T18:11:12.045Z</time>
      </trkpt>
      <trkpt lat="48.3292" lon="5.05492">
        <ele>368.66</ele>
        <time>2025-01-03T18:11:19.298Z</time>
      </trkpt>
      <trkpt lat="48.32922" lon="5.05453">
        <ele>368.39</ele>
        <time>2025-01-03T18:11:26.556Z</time>
      </trkpt>
      <trkpt lat="48.32921" lon="5.05429">
        <ele>367.84</ele>
        <time>2025-01-03T18:11:33.816Z</time>
      </trkpt>
      <trkpt lat="48.3292" lon="5.05405">
        <ele>367.48</ele>
        <time>2025-01-03T18:11:41.079Z</time>
      </trkpt>
      <trkpt lat="48.3292" lon="5.05364">
        <ele>366.75</ele>
        <time>2025-01-03T18:11:48.346Z</time>
      </trkpt>
      <trkpt lat="48.3292" lon="5.05322">
        <ele>366.17</ele>
        <time>2025-01-03T18:11:55.617Z</time>
      </trkpt>
      <trkpt lat="48.3292" lon="5.05281">
        <ele>365.67</ele>
        <time>2025-01-03T18:12:02.893Z</time>
      </trkpt>
      <trkpt lat="48.32914" lon="5.05255">
        <ele>365.02</ele>
        <time>2025-01-03T18:12:10.172Z</time>
      </trkpt>
      <trkpt lat="48.32895" lon="5.05233">
        <ele>364.24</ele>
        <time>2025-01-03T18:12:17.455Z</time>
      </trkpt>
      <trkpt lat="48.32877" lon="5.0521">
        <ele>363.59</ele>
        <time>2025-01-03T18:12:24.741Z</time>
      </trkpt>
      <trkpt lat="48.32859" lon="5.05188">
        <ele>362.86</ele>
        <time>2025-01-03T18:12:32.031Z</time>
      </trkpt>
      <trkpt lat="48.32841" lon="5.05165">
        <ele>362.12</ele>
        <time>2025-01-03T18:12:39.325Z</time>
      </trkpt>
      <trkpt lat="48.32815" lon="5.05148">
        <ele>361.21</ele>
        <time>2025-01-03T18:12:46.623Z</time>
      </trkpt>
      <trkpt lat="48.32798" lon="5.05138">
        <ele>360.16</ele>
        <time>2025-01-03T18:12:53.924Z</time>
      </trkpt>
      <trkpt lat="48.32781" lon="5.05129">
        <ele>359.48</ele>
        <time>2025-01-03T18:13:01.228Z</time>
      </trkpt>
      <trkpt lat="48.32763" lon="5.05126">
        <ele>358.49</ele>
        <time>2025-01-03T18:13:08.535Z</time>
      </trkpt>
      <trkpt lat="48.32746" lon="5.05124">
        <ele>357.75</ele>
        <time>2025-01-03T18:13:15.845Z</time>
      </trkpt>
      <trkpt lat="48.3273" lon="5.05131">
        <ele>356.74</ele>
        <time>2025-01-03T18:13:23.158Z</time>
      </trkpt>
      <trkpt lat="48.32714" lon="5.05137">
        <ele>355.98</ele>
        <time>2025-01-03T18:13:30.473Z</time>
      </trkpt>
      <trkpt lat="48.32684" lon="5.05133">
        <ele>354.97</ele>
        <time>2025-01-03T18:13:37.793Z</time>
      </trkpt>
      <trkpt lat="48.32678" lon="5.05129">
        <ele>353.89</ele>
        <time>2025-01-03T18:13:45.114Z</time>
      </trkpt>
      <trkpt lat="48.32673" lon="5.05118">
        <ele>352.69</ele>
        <time>2025-01-03T18:13:52.436Z</time>
      </trkpt>
      <trkpt lat="48.32675" lon="5.05101">
        <ele>351.35</ele>
        <time>2025-01-03T18:13:59.760Z</time>
      </trkpt>
      <trkpt lat="48.32684" lon="5.05092">
        <ele>349.99</ele>
        <time>2025-01-03T18:14:07.086Z</time>
      </trkpt>
      <trkpt lat="48.32705" lon="5.0509">
        <ele>348.54</ele>
        <time>2025-01-03T18:14:14.415Z</time>
      </trkpt>
      <trkpt lat="48.32727" lon="5.05088">
        <ele>347.22</ele>
        <time>2025-01-03T18:14:21.748Z</time>
      </trkpt>
      <trkpt lat="48.32758" lon="5.05094">
        <ele>345.76</ele>
        <time>2025-01-03T18:14:29.086Z</time>
      </trkpt>
      <trkpt lat="48.32788" lon="5.05099">
        <ele>344.32</ele>
        <time>2025-01-03T18:14:36.429Z</time>
      </trkpt>
      <trkpt lat="48.32819" lon="5.05105">
        <ele>342.86</ele>
        <time>2025-01-03T18:14:43.777Z</time>
      </trkpt>
      <trkpt lat="48.32846" lon="5.05118">
        <ele>341.3</ele>
        <time>2025-01-03T18:14:51.129Z</time>
      </trkpt>
      <trkpt lat="48.32873" lon="5.05131">
        <ele>339.81</ele>
        <time>2025-01-03T18:14:58.486Z</time>
      </trkpt>
      <trkpt lat="48.32899" lon="5.05135">
        <ele>338.08</ele>
        <time>2025-01-03T18:15:05.847Z</time>
      </trkpt>
      <trkpt lat="48.32927" lon="5.05129">
        <ele>336.06</ele>
        <time>2025-01-03T18:15:13.212Z</time>
      </trkpt>
      <trkpt lat="48.32939" lon="5.05131">
        <ele>334.27</ele>
        <time>2025-01-03T18:15:20.580Z</time>
      </trkpt>
      <trkpt lat="48.32969" lon="5.05144">
        <ele>332.37</ele>
        <time>2025-01-03T18:15:27.952Z</time>
      </trkpt>
      <trkpt lat="48.32998" lon="5.05158">
        <ele>330.47</ele>
        <time>2025-01-03T18:15:35.329Z</time>
      </trkpt>
      <trkpt lat="48.33027" lon="5.05172">
        <ele>328.67</ele>
        <time>2025-01-03T18:15:42.711Z</time>
      </trkpt>
      <trkpt lat="48.3304" lon="5.05172">
        <ele>326.91</ele>
        <time>2025-01-03T18:15:50.095Z</time>
      </trkpt>
      <trkpt lat="48.33051" lon="5.05167">
        <ele>325.08</ele>
        <time>2025-01-03T18:15:57.481Z</time>
      </trkpt>
      <trkpt lat="48.3306" lon="5.05152">
        <ele>323.31</ele>
        <time>2025-01-03T18:16:04.869Z</time>
      </trkpt>
      <trkpt lat="48.3307" lon="5.05123">
        <ele>321.38</ele>
        <time>2025-01-03T18:16:12.261Z</time>
      </trkpt>
      <trkpt lat="48.3308" lon="5.05093">
        <ele>319.54</ele>
        <time>2025-01-03T18:16:19.656Z</time>
      </trkpt>
      <trkpt lat="48.3309" lon="5.05064">
        <ele>317.75</ele>
        <time>2025-01-03T18:16:27.055Z</time>
      </trkpt>
      <trkpt lat="48.33104" lon="5.05033">
        <ele>315.78</ele>
        <time>2025-01-03T18:16:34.458Z</time>
      </trkpt>
      <trkpt lat="48.33117" lon="5.05002">
        <ele>313.89</ele>
        <time>2025-01-03T18:16:41.865Z</time>
      </trkpt>
      <trkpt lat="48.33139" lon="5.04968">
        <ele>311.86</ele>
        <time>2025-01-03T18:16:49.277Z</time>
      </trkpt>
      <trkpt lat="48.3316" lon="5.04933">
        <ele>309.99</ele>
        <time>2025-01-03T18:16:56.694Z</time>
      </trkpt>
      <trkpt lat="48.33175" lon="5.0492">
        <ele>308.13</ele>
        <time>2025-01-03T18:17:04.114Z</time>
      </trkpt>
      <trkpt lat="48.33197" lon="5.04914">
        <ele>306.18</ele>
        <time>2025-01-03T18:17:11.537Z</time>
      </trkpt>
      <trkpt lat="48.33218" lon="5.04908">
        <ele>304.31</ele>
        <time>2025-01-03T18:17:18.964Z</time>
      </trkpt>
      <trkpt lat="48.3324" lon="5.04901">
        <ele>302.5</ele>
        <time>2025-01-03T18:17:26.394Z</time>
      </trkpt>
      <trkpt lat="48.33266" lon="5.04884">
        <ele>300.56</ele>
        <time>2025-01-03T18:17:33.829Z</time>
      </trkpt>
      <trkpt lat="48.33291" lon="5.04867">
        <ele>298.68</ele>
        <time>2025-01-03T18:17:41.268Z</time>
      </trkpt>
      <trkpt lat="48.33311" lon="5.0486">
        <ele>296.86</ele>
        <time>2025-01-03T18:17:48.710Z</time>
      </trkpt>
      <trkpt lat="48.33341" lon="5.04859">
        <ele>295.08</ele>
        <time>2025-01-03T18:17:56.157Z</time>
      </trkpt>
      <trkpt lat="48.33371" lon="5.04858">
        <ele>293.22</ele>
        <time>2025-01-03T18:18:03.609Z</time>
      </trkpt>
      <trkpt lat="48.33393" lon="5.04859">
        <ele>291.44</ele>
        <time>2025-01-03T18:18:11.065Z</time>
      </trkpt>
      <trkpt lat="48.33416" lon="5.0486">
        <ele>289.56</ele>
        <time>2025-01-03T18:18:18.524Z</time>
      </trkpt>
      <trkpt lat="48.33431" lon="5.04852">
        <ele>287.9</ele>
        <time>2025-01-03T18:18:25.986Z</time>
      </trkpt>
      <trkpt lat="48.33441" lon="5.04835">
        <ele>286.22</ele>
        <time>2025-01-03T18:18:33.450Z</time>
      </trkpt>
      <trkpt lat="48.33444" lon="5.04815">
        <ele>284.53</ele>
        <time>2025-01-03T18:18:40.916Z</time>
      </trkpt>
      <trkpt lat="48.33441" lon="5.04773">
        <ele>282.99</ele>
        <time>2025-01-03T18:18:48.387Z</time>
      </trkpt>
      <trkpt lat="48.33439" lon="5.0473">
        <ele>281.37</ele>
        <time>2025-01-03T18:18:55.862Z</time>
      </trkpt>
      <trkpt lat="48.33437" lon="5.04688">
        <ele>279.81</ele>
        <time>2025-01-03T18:19:03.342Z</time>
      </trkpt>
      <trkpt lat="48.33435" lon="5.04645">
        <ele>278.32</ele>
        <time>2025-01-03T18:19:10.827Z</time>
      </trkpt>
      <trkpt lat="48.33433" lon="5.04603">
        <ele>276.47</ele>
        <time>2025-01-03T18:19:18.316Z</time>
      </trkpt>
      <trkpt lat="48.33433" lon="5.04603">
        <ele>275.04</ele>
        <time>2025-01-03T18:19:25.805Z</time>
      </trkpt>
      <trkpt lat="48.33436" lon="5.04562">
        <ele>273.93</ele>
        <time>2025-01-03T18:19:33.299Z</time>
      </trkpt>
      <trkpt lat="48.3344" lon="5.0452">
        <ele>272.44</ele>
        <time>2025-01-03T18:19:40.797Z</time>
      </trkpt>
      <trkpt lat="48.33443" lon="5.04479">
        <ele>271.16</ele>
        <time>2025-01-03T18:19:48.299Z</time>
      </trkpt>
      <trkpt lat="48.33447" lon="5.04438">
        <ele>269.95</ele>
        <time>2025-01-03T18:19:55.806Z</time>
      </trkpt>
      <trkpt lat="48.3345" lon="5.04397">
        <ele>268.11</ele>
        <time>2025-01-03T18:20:03.317Z</time>
      </trkpt>
      <trkpt lat="48.33452" lon="5.04359">
        <ele>267.48</ele>
        <time>2025-01-03T18:20:10.832Z</time>
      </trkpt>
      <trkpt lat="48.33454" lon="5.04322">
        <ele>265.64</ele>
        <time>2025-01-03T18:20:18.351Z</time>
      </trkpt>
      <trkpt lat="48.33463" lon="5.0429">
        <ele>264.51</ele>
        <time>2025-01-03T18:20:25.874Z</time>
      </trkpt>
      <trkpt lat="48.33476" lon="5.0427">
        <ele>263.43</ele>
        <time>2025-01-03T18:20:33.400Z</time>
      </trkpt>
      <trkpt lat="48.335" lon="5.04241">
        <ele>263.04</ele>
        <time>2025-01-03T18:20:40.931Z</time>
      </trkpt>
      <trkpt lat="48.33525" lon="5.04212">
        <ele>261.92</ele>
        <time>2025-01-03T18:20:48.467Z</time>
      </trkpt>
      <trkpt lat="48.33549" lon="5.04182">
        <ele>260.14</ele>
        <time>2025-01-03T18:20:56.008Z</time>
      </trkpt>
      <trkpt lat="48.33566" lon="5.04169">
        <ele>259.85</ele>
        <time>2025-01-03T18:21:03.552Z</time>
      </trkpt>
      <trkpt lat="48.33583" lon="5.04157">
        <ele>258.16</ele>
        <time>2025-01-03T18:21:11.099Z</time>
      </trkpt>
      <trkpt lat="48.33605" lon="5.04127">
        <ele>257.82</ele>
        <time>2025-01-03T18:21:18.651Z</time>
      </trkpt>
      <trkpt lat="48.33626" lon="5.04098">
        <ele>256.82</ele>
        <time>2025-01-03T18:21:26.207Z</time>
      </trkpt>
      <trkpt lat="48.33647" lon="5.04069">
        <ele>255.38</ele>
        <time>2025-01-03T18:21:33.768Z</time>
      </trkpt>
      <trkpt lat="48.33659" lon="5.04049">
        <ele>255.1</ele>
        <time>2025-01-03T18:21:41.332Z</time>
      </trkpt>
      <trkpt lat="48.33671" lon="5.0403">
        <ele>253.96</ele>
        <time>2025-01-03T18:21:48.899Z</time>
      </trkpt>
      <trkpt lat="48.3368" lon="5.04007">
        <ele>253.58</ele>
        <time>2025-01-03T18:21:56.468Z</time>
      </trkpt>
      <trkpt lat="48.33688" lon="5.03985">
        <ele>252.77</ele>
        <time>2025-01-03T18:22:04.040Z</time>
      </trkpt>
      <trkpt lat="48.33693" lon="5.03953">
        <ele>252.35</ele>
        <time>2025-01-03T18:22:11.616Z</time>
      </trkpt>
      <trkpt lat="48.33697" lon="5.03921">
        <ele>252.02</ele>
        <time>2025-01-03T18:22:19.195Z</time>
      </trkpt>
      <trkpt lat="48.337" lon="5.03876">
        <ele>251.43</ele>
        <time>2025-01-03T18:22:26.779Z</time>
      </trkpt>
      <trkpt lat="48.33703" lon="5.03833">
        <ele>251.65</ele>
        <time>2025-01-03T18:22:34.368Z</time>
      </trkpt>
      <trkpt lat="48.33705" lon="5.03798">
        <ele>250.79</ele>
        <time>2025-01-03T18:22:41.960Z</time>
      </trkpt>
      <trkpt lat="48.33701" lon="5.0379">
        <ele>250.53</ele>
        <time>2025-01-03T18:22:49.553Z</time>
      </trkpt>
      <trkpt lat="48.33671" lon="5.03777">
        <ele>250.25</ele>
        <time>2025-01-03T18:22:57.151Z</time>
      </trkpt>
      <trkpt lat="48.33649" lon="5.03761">
        <ele>250.03</ele>
        <time>2025-01-03T18:23:04.753Z</time>
      </trkpt>
      <trkpt lat="48.33626" lon="5.03745">
        <ele>249.94</ele>
        <time>2025-01-03T18:23:12.359Z</time>
      </trkpt>
      <trkpt lat="48.3361" lon="5.03733">
        <ele>249.92</ele>
        <time>2025-01-03T18:23:19.968Z</time>
      </trkpt>
      <trkpt lat="48.33594" lon="5.03721">
        <ele>249.92</ele>
        <time>2025-01-03T18:23:27.580Z</time>
      </trkpt>
      <trkpt lat="48.33572" lon="5.03702">
        <ele>249.91</ele>
        <time>2025-01-03T18:23:35.196Z</time>
      </trkpt>
      <trkpt lat="48.33549" lon="5.03682">
        <ele>249.86</ele>
        <time>2025-01-03T18:23:42.816Z</time>
      </trkpt>
      <trkpt lat="48.33527" lon="5.03663">
        <ele>249.94</ele>
        <time>2025-01-03T18:23:50.441Z</time>
      </trkpt>
      <trkpt lat="48.33505" lon="5.03644">
        <ele>250.11</ele>
        <time>2025-01-03T18:23:58.070Z</time>
      </trkpt>
      <trkpt lat="48.33482" lon="5.03624">
        <ele>250.3</ele>
        <time>2025-01-03T18:24:05.703Z</time>
      </trkpt>
      <trkpt lat="48.33459" lon="5.03605">
        <ele>250.52</ele>
        <time>2025-01-03T18:24:13.340Z</time>
      </trkpt>
      <trkpt lat="48.33436" lon="5.03585">
        <ele>250.71</ele>
        <time>2025-01-03T18:24:20.981Z</time>
      </trkpt>
      <trkpt lat="48.33412" lon="5.03565">
        <ele>250.9</ele>
        <time>2025-01-03T18:24:28.627Z</time>
      </trkpt>
      <trkpt lat="48.33389" lon="5.03546">
        <ele>251.09</ele>
        <time>2025-01-03T18:24:36.277Z</time>
      </trkpt>
      <trkpt lat="48.33366" lon="5.03526">
        <ele>251.33</ele>
        <time>2025-01-03T18:24:43.931Z</time>
      </trkpt>
      <trkpt lat="48.33343" lon="5.03506">
        <ele>251.56</ele>
        <time>2025-01-03T18:24:51.589Z</time>
      </trkpt>
      <trkpt lat="48.33319" lon="5.03491">
        <ele>251.77</ele>
        <time>2025-01-03T18:24:59.252Z</time>
      </trkpt>
      <trkpt lat="48.33295" lon="5.03476">
        <ele>251.95</ele>
        <time>2025-01-03T18:25:06.919Z</time>
      </trkpt>
      <trkpt lat="48.33271" lon="5.03461">
        <ele>252.13</ele>
        <time>2025-01-03T18:25:14.590Z</time>
      </trkpt>
      <trkpt lat="48.33247" lon="5.03446">
        <ele>252.32</ele>
        <time>2025-01-03T18:25:22.265Z</time>
      </trkpt>
      <trkpt lat="48.33223" lon="5.03431">
        <ele>252.56</ele>
        <time>2025-01-03T18:25:29.944Z</time>
      </trkpt>
      <trkpt lat="48.33199" lon="5.03411">
        <ele>252.77</ele>
        <time>2025-01-03T18:25:37.628Z</time>
      </trkpt>
      <trkpt lat="48.33175" lon="5.0339">
        <ele>252.96</ele>
        <time>2025-01-03T18:25:45.316Z</time>
      </trkpt>
      <trkpt lat="48.33152" lon="5.03369">
        <ele>253.18</ele>
        <time>2025-01-03T18:25:53.008Z</time>
      </trkpt>
      <trkpt lat="48.33128" lon="5.03348">
        <ele>253.41</ele>
        <time>2025-01-03T18:26:00.705Z</time>
      </trkpt>
      <trkpt lat="48.33105" lon="5.03328">
        <ele>253.64</ele>
        <time>2025-01-03T18:26:08.406Z</time>
      </trkpt>
      <trkpt lat="48.33081" lon="5.03307">
        <ele>253.82</ele>
        <time>2025-01-03T18:26:16.112Z</time>
      </trkpt>
      <trkpt lat="48.33056" lon="5.03289">
        <ele>254.07</ele>
        <time>2025-01-03T18:26:23.822Z</time>
      </trkpt>
      <trkpt lat="48.33031" lon="5.0327">
        <ele>254.3</ele>
        <time>2025-01-03T18:26:31.536Z</time>
      </trkpt>
      <trkpt lat="48.33006" lon="5.03252">
        <ele>254.5</ele>
        <time>2025-01-03T18:26:39.255Z</time>
      </trkpt>
      <trkpt lat="48.32981" lon="5.03234">
        <ele>254.67</ele>
        <time>2025-01-03T18:26:46.978Z</time>
      </trkpt>
      <trkpt lat="48.32956" lon="5.03216">
        <ele>254.85</ele>
        <time>2025-01-03T18:26:54.706Z</time>
      </trkpt>
      <trkpt lat="48.32931" lon="5.03197">
        <ele>255.03</ele>
        <time>2025-01-03T18:27:02.438Z</time>
      </trkpt>
      <trkpt lat="48.32905" lon="5.03175">
        <ele>255.23</ele>
        <time>2025-01-03T18:27:10.175Z</time>
      </trkpt>
      <trkpt lat="48.32879" lon="5.03152">
        <ele>255.44</ele>
        <time>2025-01-03T18:27:17.917Z</time>
      </trkpt>
      <trkpt lat="48.32854" lon="5.0313">
        <ele>255.64</ele>
        <time>2025-01-03T18:27:25.664Z</time>
      </trkpt>
      <trkpt lat="48.32828" lon="5.03107">
        <ele>255.93</ele>
        <time>2025-01-03T18:27:33.415Z</time>
      </trkpt>
      <trkpt lat="48.32828" lon="5.03107">
        <ele>256.21</ele>
        <time>2025-01-03T18:27:41.166Z</time>
      </trkpt>
      <trkpt lat="48.32805" lon="5.03082">
        <ele>256.56</ele>
        <time>2025-01-03T18:27:48.922Z</time>
      </trkpt>
      <trkpt lat="48.32782" lon="5.03057">
        <ele>256.95</ele>
        <time>2025-01-03T18:27:56.682Z</time>
      </trkpt>
      <trkpt lat="48.32759" lon="5.03032">
        <ele>257.3</ele>
        <time>2025-01-03T18:28:04.447Z</time>
      </trkpt>
      <trkpt lat="48.32736" lon="5.03">
        <ele>257.66</ele>
        <time>2025-01-03T18:28:12.217Z</time>
      </trkpt>
      <trkpt lat="48.32713" lon="5.02969">
        <ele>258.09</ele>
        <time>2025-01-03T18:28:19.992Z</time>
      </trkpt>
      <trkpt lat="48.3269" lon="5.02937">
        <ele>258.62</ele>
        <time>2025-01-03T18:28:27.772Z</time>
      </trkpt>
      <trkpt lat="48.32667" lon="5.02905">
        <ele>259.1</ele>
        <time>2025-01-03T18:28:35.557Z</time>
      </trkpt>
      <trkpt lat="48.32651" lon="5.02883">
        <ele>259.65</ele>
        <time>2025-01-03T18:28:43.346Z</time>
      </trkpt>
      <trkpt lat="48.32635" lon="5.02861">
        <ele>260.22</ele>
        <time>2025-01-03T18:28:51.138Z</time>
      </trkpt>
      <trkpt lat="48.32609" lon="5.02835">
        <ele>260.93</ele>
        <time>2025-01-03T18:28:58.935Z</time>
      </trkpt>
      <trkpt lat="48.32582" lon="5.02818">
        <ele>261.71</ele>
        <time>2025-01-03T18:29:06.737Z</time>
      </trkpt>
      <trkpt lat="48.32555" lon="5.02801">
        <ele>262.46</ele>
        <time>2025-01-03T18:29:14.543Z</time>
      </trkpt>
      <trkpt lat="48.32528" lon="5.02784">
        <ele>263.21</ele>
        <time>2025-01-03T18:29:22.354Z</time>
      </trkpt>
      <trkpt lat="48.32502" lon="5.02768">
        <ele>264.06</ele>
        <time>2025-01-03T18:29:30.170Z</time>
      </trkpt>
      <trkpt lat="48.32475" lon="5.02751">
        <ele>264.98</ele>
        <time>2025-01-03T18:29:37.990Z</time>
      </trkpt>
      <trkpt lat="48.32448" lon="5.02734">
        <ele>265.94</ele>
        <time>2025-01-03T18:29:45.815Z</time>
      </trkpt>
      <trkpt lat="48.32429" lon="5.02716">
        <ele>266.91</ele>
        <time>2025-01-03T18:29:53.644Z</time>
      </trkpt>
      <trkpt lat="48.32409" lon="5.02697">
        <ele>267.89</ele>
        <time>2025-01-03T18:30:01.476Z</time>
      </trkpt>
      <trkpt lat="48.32395" lon="5.0268">
        <ele>268.85</ele>
        <time>2025-01-03T18:30:09.311Z</time>
      </trkpt>
      <trkpt lat="48.32381" lon="5.02663">
        <ele>269.81</ele>
        <time>2025-01-03T18:30:17.149Z</time>
      </trkpt>
      <trkpt lat="48.32366" lon="5.0264">
        <ele>270.75</ele>
        <time>2025-01-03T18:30:24.990Z</time>
      </trkpt>
      <trkpt lat="48.32351" lon="5.02617">
        <ele>271.71</ele>
        <time>2025-01-03T18:30:32.835Z</time>
      </trkpt>
      <trkpt lat="48.32336" lon="5.02594">
        <ele>272.67</ele>
        <time>2025-01-03T18:30:40.683Z</time>
      </trkpt>
      <trkpt lat="48.32312" lon="5.02567">
        <ele>273.6</ele>
        <time>2025-01-03T18:30:48.536Z</time>
      </trkpt>
      <trkpt lat="48.32288" lon="5.0254">
        <ele>274.54</ele>
        <time>2025-01-03T18:30:56.394Z</time>
      </trkpt>
      <trkpt lat="48.32263" lon="5.02513">
        <ele>275.45</ele>
        <time>2025-01-03T18:31:04.257Z</time>
      </trkpt>
      <trkpt lat="48.32239" lon="5.02485">
        <ele>276.32</ele>
        <time>2025-01-03T18:31:12.125Z</time>
      </trkpt>
      <trkpt lat="48.32214" lon="5.02458">
        <ele>277.22</ele>
        <time>2025-01-03T18:31:19.998Z</time>
      </trkpt>
      <trkpt lat="48.3219" lon="5.02431">
        <ele>278.07</ele>
        <time>2025-01-03T18:31:27.876Z</time>
      </trkpt>
      <trkpt lat="48.32166" lon="5.02403">
        <ele>279.01</ele>
        <time>2025-01-03T18:31:35.758Z</time>
      </trkpt>
      <trkpt lat="48.32141" lon="5.02376">
        <ele>279.93</ele>
        <time>2025-01-03T18:31:43.645Z</time>
      </trkpt>
      <trkpt lat="48.32117" lon="5.02349">
        <ele>280.81</ele>
        <time>2025-01-03T18:31:51.537Z</time>
      </trkpt>
      <trkpt lat="48.32093" lon="5.02321">
        <ele>281.62</ele>
        <time>2025-01-03T18:31:59.434Z</time>
      </trkpt>
      <trkpt lat="48.32068" lon="5.02294">
        <ele>282.51</ele>
        <time>2025-01-03T18:32:07.336Z</time>
      </trkpt>
      <trkpt lat="48.32044" lon="5.02267">
        <ele>283.44</ele>
        <time>2025-01-03T18:32:15.243Z</time>
      </trkpt>
      <trkpt lat="48.32019" lon="5.0224">
        <ele>284.24</ele>
        <time>2025-01-03T18:32:23.155Z</time>
      </trkpt>
      <trkpt lat="48.31995" lon="5.02213">
        <ele>284.97</ele>
        <time>2025-01-03T18:32:31.071Z</time>
      </trkpt>
      <trkpt lat="48.31972" lon="5.02192">
        <ele>285.75</ele>
        <time>2025-01-03T18:32:38.992Z</time>
      </trkpt>
      <trkpt lat="48.31948" lon="5.02172">
        <ele>286.55</ele>
        <time>2025-01-03T18:32:46.917Z</time>
      </trkpt>
      <trkpt lat="48.31924" lon="5.02152">
        <ele>287.31</ele>
        <time>2025-01-03T18:32:54.847Z</time>
      </trkpt>
      <trkpt lat="48.31901" lon="5.02132">
        <ele>288.02</ele>
        <time>2025-01-03T18:33:02.781Z</time>
      </trkpt>
      <trkpt lat="48.31877" lon="5.02112">
        <ele>288.75</ele>
        <time>2025-01-03T18:33:10.719Z</time>
      </trkpt>
      <trkpt lat="48.31856" lon="5.02103">
        <ele>289.42</ele>
        <time>2025-01-03T18:33:18.661Z</time>
      </trkpt>
      <trkpt lat="48.31834" lon="5.02095">
        <ele>289.94</ele>
        <time>2025-01-03T18:33:26.606Z</time>
      </trkpt>
      <trkpt lat="48.31817" lon="5.02091">
        <ele>290.36</ele>
        <time>2025-01-03T18:33:34.554Z</time>
      </trkpt>
      <trkpt lat="48.318" lon="5.02088">
        <ele>290.69</ele>
        <time>2025-01-03T18:33:42.505Z</time>
      </trkpt>
      <trkpt lat="48.31774" lon="5.02067">
        <ele>290.92</ele>
        <time>2025-01-03T18:33:50.461Z</time>
      </trkpt>
      <trkpt lat="48.31757" lon="5.02048">
        <ele>291.12</ele>
        <time>2025-01-03T18:33:58.420Z</time>
      </trkpt>
      <trkpt lat="48.3174" lon="5.02029">
        <ele>291.28</ele>
        <time>2025-01-03T18:34:06.382Z</time>
      </trkpt>
      <trkpt lat="48.31723" lon="5.02011">
        <ele>291.4</ele>
        <time>2025-01-03T18:34:14.348Z</time>
      </trkpt>
      <trkpt lat="48.31699" lon="5.01998">
        <ele>291.39</ele>
        <time>2025-01-03T18:34:22.318Z</time>
      </trkpt>
      <trkpt lat="48.31673" lon="5.01989">
        <ele>291.36</ele>
        <time>2025-01-03T18:34:30.292Z</time>
      </trkpt>
      <trkpt lat="48.31648" lon="5.01981">
        <ele>291.33</ele>
        <time>2025-01-03T18:34:38.270Z</time>
      </trkpt>
      <trkpt lat="48.31625" lon="5.01968">
        <ele>291.27</ele>
        <time>2025-01-03T18:34:46.252Z</time>
      </trkpt>
      <trkpt lat="48.31601" lon="5.01955">
        <ele>291.12</ele>
        <time>2025-01-03T18:34:54.238Z</time>
      </trkpt>
      <trkpt lat="48.31578" lon="5.01942">
        <ele>290.94</ele>
        <time>2025-01-03T18:35:02.228Z</time>
      </trkpt>
      <trkpt lat="48.31555" lon="5.01929">
        <ele>290.77</ele>
        <time>2025-01-03T18:35:10.222Z</time>
      </trkpt>
      <trkpt lat="48.31531" lon="5.01918">
        <ele>290.52</ele>
        <time>2025-01-03T18:35:18.220Z</time>
      </trkpt>
      <trkpt lat="48.31507" lon="5.01906">
        <ele>290.24</ele>
        <time>2025-01-03T18:35:26.222Z</time>
      </trkpt>
      <trkpt lat="48.31482" lon="5.01895">
        <ele>289.85</ele>
        <time>2025-01-03T18:35:34.228Z</time>
      </trkpt>
      <trkpt lat="48.31461" lon="5.01878">
        <ele>289.41</ele>
        <time>2025-01-03T18:35:42.238Z</time>
      </trkpt>
      <trkpt lat="48.31434" lon="5.0186">
        <ele>288.99</ele>
        <time>2025-01-03T18:35:50.253Z</time>
      </trkpt>
      <trkpt lat="48.31407" lon="5.01841">
        <ele>288.63</ele>
        <time>2025-01-03T18:35:58.273Z</time>
      </trkpt>
      <trkpt lat="48.3139" lon="5.01839">
        <ele>288.29</ele>
        <time>2025-01-03T18:36:06.295Z</time>
      </trkpt>
      <trkpt lat="48.31372" lon="5.01838">
        <ele>287.94</ele>
        <time>2025-01-03T18:36:14.320Z</time>
      </trkpt>
      <trkpt lat="48.31354" lon="5.01837">
        <ele>287.58</ele>
        <time>2025-01-03T18:36:22.348Z</time>
      </trkpt>
      <trkpt lat="48.31343" lon="5.01828">
        <ele>287.27</ele>
        <time>2025-01-03T18:36:30.378Z</time>
      </trkpt>
      <trkpt lat="48.31334" lon="5.01808">
        <ele>286.97</ele>
        <time>2025-01-03T18:36:38.411Z</time>
      </trkpt>
      <trkpt lat="48.31326" lon="5.01788">
        <ele>286.69</ele>
        <time>2025-01-03T18:36:46.446Z</time>
      </trkpt>
      <trkpt lat="48.31319" lon="5.01766">
        <ele>286.42</ele>
        <time>2025-01-03T18:36:54.484Z</time>
      </trkpt>
      <trkpt lat="48.31304" lon="5.01738">
        <ele>286.17</ele>
        <time>2025-01-03T18:37:02.526Z</time>
      </trkpt>
      <trkpt lat="48.31287" lon="5.01717">
        <ele>285.91</ele>
        <time>2025-01-03T18:37:10.571Z</time>
      </trkpt>
      <trkpt lat="48.3127" lon="5.01695">
        <ele>285.66</ele>
        <time>2025-01-03T18:37:18.620Z</time>
      </trkpt>
      <trkpt lat="48.31253" lon="5.01674">
        <ele>285.42</ele>
        <time>2025-01-03T18:37:26.672Z</time>
      </trkpt>
      <trkpt lat="48.3124" lon="5.01651">
        <ele>285.23</ele>
        <time>2025-01-03T18:37:34.728Z</time>
      </trkpt>
      <trkpt lat="48.31227" lon="5.01629">
        <ele>285.13</ele>
        <time>2025-01-03T18:37:42.787Z</time>
      </trkpt>
      <trkpt lat="48.31221" lon="5.0161">
        <ele>285.02</ele>
        <time>2025-01-03T18:37:50.848Z</time>
      </trkpt>
      <trkpt lat="48.31222" lon="5.01578">
        <ele>284.95</ele>
        <time>2025-01-03T18:37:58.912Z</time>
      </trkpt>
      <trkpt lat="48.31223" lon="5.01547">
        <ele>284.8</ele>
        <time>2025-01-03T18:38:06.980Z</time>
      </trkpt>
      <trkpt lat="48.31206" lon="5.01543">
        <ele>284.67</ele>
        <time>2025-01-03T18:38:15.050Z</time>
      </trkpt>
      <trkpt lat="48.31203" lon="5.01543">
        <ele>284.55</ele>
        <time>2025-01-03T18:38:23.121Z</time>
      </trkpt>
      <trkpt lat="48.31201" lon="5.01555">
        <ele>284.44</ele>
        <time>2025-01-03T18:38:31.193Z</time>
      </trkpt>
      <trkpt lat="48.31203" lon="5.01543">
        <ele>284.28</ele>
        <time>2025-01-03T18:38:39.266Z</time>
      </trkpt>
      <trkpt lat="48.31172" lon="5.01537">
        <ele>284.1</ele>
        <time>2025-01-03T18:38:47.345Z</time>
      </trkpt>
      <trkpt lat="48.31141" lon="5.0153">
        <ele>283.92</ele>
        <time>2025-01-03T18:38:55.429Z</time>
      </trkpt>
      <trkpt lat="48.31115" lon="5.01531">
        <ele>283.78</ele>
        <time>2025-01-03T18:39:03.517Z</time>
      </trkpt>
      <trkpt lat="48.31088" lon="5.01532">
        <ele>283.62</ele>
        <time>2025-01-03T18:39:11.609Z</time>
      </trkpt>
      <trkpt lat="48.31062" lon="5.01532">
        <ele>283.34</ele>
        <time>2025-01-03T18:39:19.705Z</time>
      </trkpt>
      <trkpt lat="48.31038" lon="5.0153">
        <ele>283.02</ele>
        <time>2025-01-03T18:39:27.805Z</time>
      </trkpt>
      <trkpt lat="48.31015" lon="5.01528">
        <ele>282.71</ele>
        <time>2025-01-03T18:39:35.909Z</time>
      </trkpt>
      <trkpt lat="48.30994" lon="5.01521">
        <ele>282.39</ele>
        <time>2025-01-03T18:39:44.016Z</time>
      </trkpt>
      <trkpt lat="48.30974" lon="5.01513">
        <ele>281.98</ele>
        <time>2025-01-03T18:39:52.127Z</time>
      </trkpt>
      <trkpt lat="48.30952" lon="5.01498">
        <ele>281.47</ele>
        <time>2025-01-03T18:40:00.241Z</time>
      </trkpt>
      <trkpt lat="48.30931" lon="5.01494">
        <ele>280.9</ele>
        <time>2025-01-03T18:40:08.359Z</time>
      </trkpt>
      <trkpt lat="48.30903" lon="5.01507">
        <ele>280.23</ele>
        <time>2025-01-03T18:40:16.481Z</time>
      </trkpt>
      <trkpt lat="48.30892" lon="5.01515">
        <ele>279.58</ele>
        <time>2025-01-03T18:40:24.605Z</time>
      </trkpt>
      <trkpt lat="48.30874" lon="5.01539">
        <ele>278.85</ele>
        <time>2025-01-03T18:40:32.733Z</time>
      </trkpt>
      <trkpt lat="48.30857" lon="5.01564">
        <ele>278.04</ele>
        <time>2025-01-03T18:40:40.865Z</time>
      </trkpt>
      <trkpt lat="48.30839" lon="5.01588">
        <ele>277.27</ele>
        <time>2025-01-03T18:40:49.001Z</time>
      </trkpt>
      <trkpt lat="48.30819" lon="5.01607">
        <ele>276.52</ele>
        <time>2025-01-03T18:40:57.141Z</time>
      </trkpt>
      <trkpt lat="48.30799" lon="5.01627">
        <ele>275.78</ele>
        <time>2025-01-03T18:41:05.285Z</time>
      </trkpt>
      <trkpt lat="48.30779" lon="5.01646">
        <ele>275.12</ele>
        <time>2025-01-03T18:41:13.432Z</time>
      </trkpt>
      <trkpt lat="48.30764" lon="5.01678">
        <ele>274.42</ele>
        <time>2025-01-03T18:41:21.584Z</time>
      </trkpt>
      <trkpt lat="48.30749" lon="5.0171">
        <ele>273.77</ele>
        <time>2025-01-03T18:41:29.740Z</time>
      </trkpt>
      <trkpt lat="48.30755" lon="5.01753">
        <ele>272.95</ele>
        <time>2025-01-03T18:41:37.901Z</time>
      </trkpt>
      <trkpt lat="48.30761" lon="5.01796">
        <ele>272.14</ele>
        <time>2025-01-03T18:41:46.066Z</time>
      </trkpt>
      <trkpt lat="48.30768" lon="5.01839">
        <ele>271.31</ele>
        <time>2025-01-03T18:41:54.236Z</time>
      </trkpt>
      <trkpt lat="48.30774" lon="5.01883">
        <ele>270.52</ele>
        <time>2025-01-03T18:42:02.411Z</time>
      </trkpt>
      <trkpt lat="48.30781" lon="5.01925">
        <ele>269.86</ele>
        <time>2025-01-03T18:42:10.590Z</time>
      </trkpt>
      <trkpt lat="48.30779" lon="5.01961">
        <ele>269.29</ele>
        <time>2025-01-03T18:42:18.773Z</time>
      </trkpt>
      <trkpt lat="48.30772" lon="5.01979">
        <ele>268.85</ele>
        <time>2025-01-03T18:42:26.958Z</time>
      </trkpt>
      <trkpt lat="48.30754" lon="5.02011">
        <ele>268.47</ele>
        <time>2025-01-03T18:42:35.148Z</time>
      </trkpt>
      <trkpt lat="48.30736" lon="5.02043">
        <ele>268.24</ele>
        <time>2025-01-03T18:42:43.342Z</time>
      </trkpt>
      <trkpt lat="48.30713" lon="5.02073">
        <ele>268.07</ele>
        <time>2025-01-03T18:42:51.541Z</time>
      </trkpt>
      <trkpt lat="48.30691" lon="5.02102">
        <ele>268.03</ele>
        <time>2025-01-03T18:42:59.745Z</time>
      </trkpt>
      <trkpt lat="48.30669" lon="5.02132">
        <ele>268.18</ele>
        <time>2025-01-03T18:43:07.954Z</time>
      </trkpt>
      <trkpt lat="48.30646" lon="5.02162">
        <ele>268.39</ele>
        <time>2025-01-03T18:43:16.167Z</time>
      </trkpt>
      <trkpt lat="48.30624" lon="5.02191">
        <ele>268.83</ele>
        <time>2025-01-03T18:43:24.385Z</time>
      </trkpt>
      <trkpt lat="48.30609" lon="5.02219">
        <ele>269.44</ele>
        <time>2025-01-03T18:43:32.607Z</time>
      </trkpt>
      <trkpt lat="48.30593" lon="5.02257">
        <ele>270.23</ele>
        <time>2025-01-03T18:43:40.834Z</time>
      </trkpt>
      <trkpt lat="48.30577" lon="5.02295">
        <ele>271.15</ele>
        <time>2025-01-03T18:43:49.066Z</time>
      </trkpt>
      <trkpt lat="48.30561" lon="5.02333">
        <ele>272.21</ele>
        <time>2025-01-03T18:43:57.303Z</time>
      </trkpt>
      <trkpt lat="48.30545" lon="5.02371">
        <ele>273.47</ele>
        <time>2025-01-03T18:44:05.544Z</time>
      </trkpt>
      <trkpt lat="48.30529" lon="5.0241">
        <ele>274.87</ele>
        <time>2025-01-03T18:44:13.790Z</time>
      </trkpt>
      <trkpt lat="48.30513" lon="5.02448">
        <ele>276.43</ele>
        <time>2025-01-03T18:44:22.041Z</time>
      </trkpt>
      <trkpt lat="48.30497" lon="5.02486">
        <ele>278.08</ele>
        <time>2025-01-03T18:44:30.297Z</time>
      </trkpt>
      <trkpt lat="48.30481" lon="5.02524">
        <ele>279.88</ele>
        <time>2025-01-03T18:44:38.558Z</time>
      </trkpt>
      <trkpt lat="48.30465" lon="5.02562">
        <ele>281.83</ele>
        <time>2025-01-03T18:44:46.823Z</time>
      </trkpt>
      <trkpt lat="48.30449" lon="5.026">
        <ele>283.86</ele>
        <time>2025-01-03T18:44:55.093Z</time>
      </trkpt>
      <trkpt lat="48.30433" lon="5.02637">
        <ele>285.99</ele>
        <time>2025-01-03T18:45:03.368Z</time>
      </trkpt>
      <trkpt lat="48.30416" lon="5.02673">
        <ele>288.18</ele>
        <time>2025-01-03T18:45:11.648Z</time>
      </trkpt>
      <trkpt lat="48.30399" lon="5.02709">
        <ele>290.43</ele>
        <time>2025-01-03T18:45:19.932Z</time>
      </trkpt>
      <trkpt lat="48.30382" lon="5.02745">
        <ele>292.74</ele>
        <time>2025-01-03T18:45:28.221Z</time>
      </trkpt>
      <trkpt lat="48.30364" lon="5.0278">
        <ele>295.09</ele>
        <time>2025-01-03T18:45:36.515Z</time>
      </trkpt>
      <trkpt lat="48.30347" lon="5.02816">
        <ele>297.39</ele>
        <time>2025-01-03T18:45:44.813Z</time>
      </trkpt>
      <trkpt lat="48.3033" lon="5.02852">
        <ele>299.65</ele>
        <time>2025-01-03T18:45:53.116Z</time>
      </trkpt>
      <trkpt lat="48.30313" lon="5.02888">
        <ele>301.87</ele>
        <time>2025-01-03T18:46:01.424Z</time>
      </trkpt>
      <trkpt lat="48.30296" lon="5.02923">
        <ele>304.03</ele>
        <time>2025-01-03T18:46:09.737Z</time>
      </trkpt>
      <trkpt lat="48.30283" lon="5.02943">
        <ele>306.08</ele>
        <time>2025-01-03T18:46:18.053Z</time>
      </trkpt>
      <trkpt lat="48.3027" lon="5.02964">
        <ele>308.05</ele>
        <time>2025-01-03T18:46:26.371Z</time>
      </trkpt>
      <trkpt lat="48.3025" lon="5.02988">
        <ele>309.93</ele>
        <time>2025-01-03T18:46:34.694Z</time>
      </trkpt>
      <trkpt lat="48.30231" lon="5.03012">
        <ele>311.68</ele>
        <time>2025-01-03T18:46:43.021Z</time>
      </trkpt>
      <trkpt lat="48.30211" lon="5.03036">
        <ele>313.33</ele>
        <time>2025-01-03T18:46:51.352Z</time>
      </trkpt>
      <trkpt lat="48.30191" lon="5.0306">
        <ele>314.82</ele>
        <time>2025-01-03T18:46:59.687Z</time>
      </trkpt>
      <trkpt lat="48.30171" lon="5.03084">
        <ele>316.21</ele>
        <time>2025-01-03T18:47:08.026Z</time>
      </trkpt>
      <trkpt lat="48.30154" lon="5.03105">
        <ele>317.43</ele>
        <time>2025-01-03T18:47:16.368Z</time>
      </trkpt>
      <trkpt lat="48.30137" lon="5.03127">
        <ele>318.41</ele>
        <time>2025-01-03T18:47:24.714Z</time>
      </trkpt>
      <trkpt lat="48.30122" lon="5.03157">
        <ele>319.2</ele>
        <time>2025-01-03T18:47:33.064Z</time>
      </trkpt>
      <trkpt lat="48.30109" lon="5.0319">
        <ele>319.85</ele>
        <time>2025-01-03T18:47:41.418Z</time>
      </trkpt>
      <trkpt lat="48.30096" lon="5.03223">
        <ele>320.28</ele>
        <time>2025-01-03T18:47:49.776Z</time>
      </trkpt>
      <trkpt lat="48.30092" lon="5.03249">
        <ele>320.5</ele>
        <time>2025-01-03T18:47:58.137Z</time>
      </trkpt>
      <trkpt lat="48.30087" lon="5.0329">
        <ele>320.5</ele>
        <time>2025-01-03T18:48:06.503Z</time>
      </trkpt>
      <trkpt lat="48.30081" lon="5.03331">
        <ele>320.35</ele>
        <time>2025-01-03T18:48:14.873Z</time>
      </trkpt>
      <trkpt lat="48.30076" lon="5.03372">
        <ele>320.06</ele>
        <time>2025-01-03T18:48:23.247Z</time>
      </trkpt>
      <trkpt lat="48.3007" lon="5.03412">
        <ele>319.62</ele>
        <time>2025-01-03T18:48:31.626Z</time>
      </trkpt>
      <trkpt lat="48.30062" lon="5.03442">
        <ele>319.01</ele>
        <time>2025-01-03T18:48:40.008Z</time>
      </trkpt>
      <trkpt lat="48.30048" lon="5.03484">
        <ele>318.28</ele>
        <time>2025-01-03T18:48:48.395Z</time>
      </trkpt>
      <trkpt lat="48.30034" lon="5.03525">
        <ele>317.44</ele>
        <time>2025-01-03T18:48:56.787Z</time>
      </trkpt>
      <trkpt lat="48.3002" lon="5.03566">
        <ele>316.45</ele>
        <time>2025-01-03T18:49:05.184Z</time>
      </trkpt>
      <trkpt lat="48.30005" lon="5.03608">
        <ele>315.36</ele>
        <time>2025-01-03T18:49:13.586Z</time>
      </trkpt>
      <trkpt lat="48.29991" lon="5.03649">
        <ele>314.13</ele>
        <time>2025-01-03T18:49:21.993Z</time>
      </trkpt>
      <trkpt lat="48.29977" lon="5.03691">
        <ele>312.88</ele>
        <time>2025-01-03T18:49:30.405Z</time>
      </trkpt>
      <trkpt lat="48.29963" lon="5.03732">
        <ele>311.52</ele>
        <time>2025-01-03T18:49:38.822Z</time>
      </trkpt>
      <trkpt lat="48.29956" lon="5.03769">
        <ele>310.11</ele>
        <time>2025-01-03T18:49:47.243Z</time>
      </trkpt>
      <trkpt lat="48.29949" lon="5.03806">
        <ele>308.73</ele>
        <time>2025-01-03T18:49:55.668Z</time>
      </trkpt>
      <trkpt lat="48.29942" lon="5.03843">
        <ele>307.34</ele>
        <time>2025-01-03T18:50:04.097Z</time>
      </trkpt>
      <trkpt lat="48.29935" lon="5.0388">
        <ele>305.89</ele>
        <time>2025-01-03T18:50:12.531Z</time>
      </trkpt>
      <trkpt lat="48.29931" lon="5.03911">
        <ele>304.46</ele>
        <time>2025-01-03T18:50:20.968Z</time>
      </trkpt>
      <trkpt lat="48.29927" lon="5.03943">
        <ele>303.1</ele>
        <time>2025-01-03T18:50:29.408Z</time>
      </trkpt>
      <trkpt lat="48.29922" lon="5.03974">
        <ele>301.82</ele>
        <time>2025-01-03T18:50:37.852Z</time>
      </trkpt>
      <trkpt lat="48.29916" lon="5.03989">
        <ele>300.6</ele>
        <time>2025-01-03T18:50:46.298Z</time>
      </trkpt>
      <trkpt lat="48.29902" lon="5.04017">
        <ele>299.38</ele>
        <time>2025-01-03T18:50:54.747Z</time>
      </trkpt>
      <trkpt lat="48.29888" lon="5.04045">
        <ele>298.24</ele>
        <time>2025-01-03T18:51:03.200Z</time>
      </trkpt>
      <trkpt lat="48.29862" lon="5.04066">
        <ele>297.3</ele>
        <time>2025-01-03T18:51:11.658Z</time>
      </trkpt>
      <trkpt lat="48.29838" lon="5.0407">
        <ele>296.5</ele>
        <time>2025-01-03T18:51:20.120Z</time>
      </trkpt>
      <trkpt lat="48.29813" lon="5.04074">
        <ele>295.8</ele>
        <time>2025-01-03T18:51:28.586Z</time>
      </trkpt>
      <trkpt lat="48.29788" lon="5.04078">
        <ele>295.16</ele>
        <time>2025-01-03T18:51:37.056Z</time>
      </trkpt>
      <trkpt lat="48.29764" lon="5.04081">
        <ele>294.64</ele>
        <time>2025-01-03T18:51:45.530Z</time>
      </trkpt>
      <trkpt lat="48.29734" lon="5.04091">
        <ele>294.31</ele>
        <time>2025-01-03T18:51:54.009Z</time>
      </trkpt>
      <trkpt lat="48.29704" lon="5.041">
        <ele>294.16</ele>
        <time>2025-01-03T18:52:02.493Z</time>
      </trkpt>
      <trkpt lat="48.29674" lon="5.04109">
        <ele>294.13</ele>
        <time>2025-01-03T18:52:10.982Z</time>
      </trkpt>
      <trkpt lat="48.2965" lon="5.04112">
        <ele>294.2</ele>
        <time>2025-01-03T18:52:19.474Z</time>
      </trkpt>
      <trkpt lat="48.29622" lon="5.04111">
        <ele>294.4</ele>
        <time>2025-01-03T18:52:27.971Z</time>
      </trkpt>
      <trkpt lat="48.29593" lon="5.0411">
        <ele>294.8</ele>
        <time>2025-01-03T18:52:36.472Z</time>
      </trkpt>
      <trkpt lat="48.29565" lon="5.04109">
        <ele>295.4</ele>
        <time>2025-01-03T18:52:44.978Z</time>
      </trkpt>
      <trkpt lat="48.29537" lon="5.04109">
        <ele>296.07</ele>
        <time>2025-01-03T18:52:53.488Z</time>
      </trkpt>
      <trkpt lat="48.29509" lon="5.04108">
        <ele>296.88</ele>
        <time>2025-01-03T18:53:02.003Z</time>
      </trkpt>
      <trkpt lat="48.2948" lon="5.04107">
        <ele>297.8</ele>
        <time>2025-01-03T18:53:10.522Z</time>
      </trkpt>
      <trkpt lat="48.29453" lon="5.04112">
        <ele>298.88</ele>
        <time>2025-01-03T18:53:19.046Z</time>
      </trkpt>
      <trkpt lat="48.29428" lon="5.04123">
        <ele>300.05</ele>
        <time>2025-01-03T18:53:27.574Z</time>
      </trkpt>
      <trkpt lat="48.29404" lon="5.04134">
        <ele>301.31</ele>
        <time>2025-01-03T18:53:36.106Z</time>
      </trkpt>
      <trkpt lat="48.2938" lon="5.04146">
        <ele>302.66</ele>
        <time>2025-01-03T18:53:44.642Z</time>
      </trkpt>
      <trkpt lat="48.29356" lon="5.04162">
        <ele>304.08</ele>
        <time>2025-01-03T18:53:53.182Z</time>
      </trkpt>
      <trkpt lat="48.29332" lon="5.04177">
        <ele>305.58</ele>
        <time>2025-01-03T18:54:01.726Z</time>
      </trkpt>
      <trkpt lat="48.29309" lon="5.04193">
        <ele>307.13</ele>
        <time>2025-01-03T18:54:10.275Z</time>
      </trkpt>
      <trkpt lat="48.29283" lon="5.04202">
        <ele>308.72</ele>
        <time>2025-01-03T18:54:18.828Z</time>
      </trkpt>
      <trkpt lat="48.29257" lon="5.04204">
        <ele>310.31</ele>
        <time>2025-01-03T18:54:27.385Z</time>
      </trkpt>
      <trkpt lat="48.29232" lon="5.04206">
        <ele>311.92</ele>
        <time>2025-01-03T18:54:35.946Z</time>
      </trkpt>
      <trkpt lat="48.29213" lon="5.04201">
        <ele>313.55</ele>
        <time>2025-01-03T18:54:44.510Z</time>
      </trkpt>
      <trkpt lat="48.29195" lon="5.04195">
        <ele>315.21</ele>
        <time>2025-01-03T18:54:53.077Z</time>
      </trkpt>
      <trkpt lat="48.29179" lon="5.04195">
        <ele>316.85</ele>
        <time>2025-01-03T18:55:01.647Z</time>
      </trkpt>
      <trkpt lat="48.29163" lon="5.04195">
        <ele>318.48</ele>
        <time>2025-01-03T18:55:10.219Z</time>
      </trkpt>
      <trkpt lat="48.29163" lon="5.04195">
        <ele>319.95</ele>
        <time>2025-01-03T18:55:18.791Z</time>
      </trkpt>
      <trkpt lat="48.29161" lon="5.04189">
        <ele>321.37</ele>
        <time>2025-01-03T18:55:27.364Z</time>
      </trkpt>
      <trkpt lat="48.29138" lon="5.04195">
        <ele>322.93</ele>
        <time>2025-01-03T18:55:35.941Z</time>
      </trkpt>
      <trkpt lat="48.29116" lon="5.04202">
        <ele>324.38</ele>
        <time>2025-01-03T18:55:44.521Z</time>
      </trkpt>
      <trkpt lat="48.29096" lon="5.0422">
        <ele>325.68</ele>
        <time>2025-01-03T18:55:53.105Z</time>
      </trkpt>
      <trkpt lat="48.29077" lon="5.04239">
        <ele>326.83</ele>
        <time>2025-01-03T18:56:01.693Z</time>
      </trkpt>
      <trkpt lat="48.29058" lon="5.04257">
        <ele>327.9</ele>
        <time>2025-01-03T18:56:10.284Z</time>
      </trkpt>
      <trkpt lat="48.29043" lon="5.04266">
        <ele>328.81</ele>
        <time>2025-01-03T18:56:18.878Z</time>
      </trkpt>
      <trkpt lat="48.29028" lon="5.04275">
        <ele>329.57</ele>
        <time>2025-01-03T18:56:27.474Z</time>
      </trkpt>
      <trkpt lat="48.29005" lon="5.04279">
        <ele>330.23</ele>
        <time>2025-01-03T18:56:36.074Z</time>
      </trkpt>
      <trkpt lat="48.28983" lon="5.04283">
        <ele>330.7</ele>
        <time>2025-01-03T18:56:44.678Z</time>
      </trkpt>
      <trkpt lat="48.28965" lon="5.04281">
        <ele>331.06</ele>
        <time>2025-01-03T18:56:53.284Z</time>
      </trkpt>
      <trkpt lat="48.28942" lon="5.04266">
        <ele>331.29</ele>
        <time>2025-01-03T18:57:01.895Z</time>
      </trkpt>
      <trkpt lat="48.28927" lon="5.04262">
        <ele>331.41</ele>
        <time>2025-01-03T18:57:10.508Z</time>
      </trkpt>
      <trkpt lat="48.28907" lon="5.04267">
        <ele>331.43</ele>
        <time>2025-01-03T18:57:19.124Z</time>
      </trkpt>
      <trkpt lat="48.28888" lon="5.04272">
        <ele>331.38</ele>
        <time>2025-01-03T18:57:27.743Z</time>
      </trkpt>
      <trkpt lat="48.28874" lon="5.04285">
        <ele>331.18</ele>
        <time>2025-01-03T18:57:36.365Z</time>
      </trkpt>
      <trkpt lat="48.2886" lon="5.04298">
        <ele>330.92</ele>
        <time>2025-01-03T18:57:44.990Z</time>
      </trkpt>
      <trkpt lat="48.28845" lon="5.04319">
        <ele>330.55</ele>
        <time>2025-01-03T18:57:53.618Z</time>
      </trkpt>
      <trkpt lat="48.2883" lon="5.04339">
        <ele>330.08</ele>
        <time>2025-01-03T18:58:02.249Z</time>
      </trkpt>
      <trkpt lat="48.28811" lon="5.04374">
        <ele>329.61</ele>
        <time>2025-01-03T18:58:10.885Z</time>
      </trkpt>
      <trkpt lat="48.28792" lon="5.04409">
        <ele>329.23</ele>
        <time>2025-01-03T18:58:19.526Z</time>
      </trkpt>
      <trkpt lat="48.28772" lon="5.04444">
        <ele>328.93</ele>
        <time>2025-01-03T18:58:28.172Z</time>
      </trkpt>
      <trkpt lat="48.28756" lon="5.04465">
        <ele>328.58</ele>
        <time>2025-01-03T18:58:36.821Z</time>
      </trkpt>
      <trkpt lat="48.2874" lon="5.04485">
        <ele>328.21</ele>
        <time>2025-01-03T18:58:45.473Z</time>
      </trkpt>
      <trkpt lat="48.28718" lon="5.04504">
        <ele>327.81</ele>
        <time>2025-01-03T18:58:54.130Z</time>
      </trkpt>
      <trkpt lat="48.28695" lon="5.04524">
        <ele>327.52</ele>
        <time>2025-01-03T18:59:02.791Z</time>
      </trkpt>
      <trkpt lat="48.28668" lon="5.04539">
        <ele>327.33</ele>
        <time>2025-01-03T18:59:11.456Z</time>
      </trkpt>
      <trkpt lat="48.28641" lon="5.04555">
        <ele>327.19</ele>
        <time>2025-01-03T18:59:20.126Z</time>
      </trkpt>
      <trkpt lat="48.28615" lon="5.04571">
        <ele>327.04</ele>
        <time>2025-01-03T18:59:28.801Z</time>
      </trkpt>
      <trkpt lat="48.28588" lon="5.04586">
        <ele>326.92</ele>
        <time>2025-01-03T18:59:37.480Z</time>
      </trkpt>
      <trkpt lat="48.28561" lon="5.04602">
        <ele>326.81</ele>
        <time>2025-01-03T18:59:46.164Z</time>
      </trkpt>
      <trkpt lat="48.28534" lon="5.04618">
        <ele>326.75</ele>
        <time>2025-01-03T18:59:54.852Z</time>
      </trkpt>
      <trkpt lat="48.28508" lon="5.04639">
        <ele>326.71</ele>
        <time>2025-01-03T19:00:03.545Z</time>
      </trkpt>
      <trkpt lat="48.28481" lon="5.04659">
        <ele>326.69</ele>
        <time>2025-01-03T19:00:12.243Z</time>
      </trkpt>
      <trkpt lat="48.28455" lon="5.0468">
        <ele>326.71</ele>
        <time>2025-01-03T19:00:20.946Z</time>
      </trkpt>
      <trkpt lat="48.28429" lon="5.047">
        <ele>326.84</ele>
        <time>2025-01-03T19:00:29.653Z</time>
      </trkpt>
      <trkpt lat="48.28402" lon="5.04721">
        <ele>326.94</ele>
        <time>2025-01-03T19:00:38.365Z</time>
      </trkpt>
      <trkpt lat="48.28376" lon="5.04742">
        <ele>327.03</ele>
        <time>2025-01-03T19:00:47.082Z</time>
      </trkpt>
      <trkpt lat="48.28349" lon="5.04762">
        <ele>327.2</ele>
        <time>2025-01-03T19:00:55.804Z</time>
      </trkpt>
      <trkpt lat="48.28323" lon="5.04783">
        <ele>327.36</ele>
        <time>2025-01-03T19:01:04.531Z</time>
      </trkpt>
      <trkpt lat="48.28296" lon="5.04803">
        <ele>327.54</ele>
        <time>2025-01-03T19:01:13.262Z</time>
      </trkpt>
      <trkpt lat="48.2827" lon="5.04824">
        <ele>327.82</ele>
        <time>2025-01-03T19:01:21.998Z</time>
      </trkpt>
      <trkpt lat="48.28247" lon="5.04848">
        <ele>328.12</ele>
        <time>2025-01-03T19:01:30.739Z</time>
      </trkpt>
      <trkpt lat="48.28223" lon="5.04873">
        <ele>328.36</ele>
        <time>2025-01-03T19:01:39.484Z</time>
      </trkpt>
      <trkpt lat="48.28199" lon="5.04897">
        <ele>328.65</ele>
        <time>2025-01-03T19:01:48.234Z</time>
      </trkpt>
      <trkpt lat="48.28176" lon="5.04922">
        <ele>329.02</ele>
        <time>2025-01-03T19:01:56.988Z</time>
      </trkpt>
      <trkpt lat="48.28152" lon="5.04946">
        <ele>329.41</ele>
        <time>2025-01-03T19:02:05.747Z</time>
      </trkpt>
      <trkpt lat="48.28128" lon="5.0497">
        <ele>329.85</ele>
        <time>2025-01-03T19:02:14.511Z</time>
      </trkpt>
      <trkpt lat="48.28105" lon="5.04995">
        <ele>330.29</ele>
        <time>2025-01-03T19:02:23.279Z</time>
      </trkpt>
      <trkpt lat="48.28081" lon="5.05019">
        <ele>330.81</ele>
        <time>2025-01-03T19:02:32.052Z</time>
      </trkpt>
      <trkpt lat="48.28071" lon="5.0504">
        <ele>331.31</ele>
        <time>2025-01-03T19:02:40.828Z</time>
      </trkpt>
      <trkpt lat="48.2806" lon="5.0506">
        <ele>331.87</ele>
        <time>2025-01-03T19:02:49.606Z</time>
      </trkpt>
      <trkpt lat="48.28043" lon="5.05099">
        <ele>332.4</ele>
        <time>2025-01-03T19:02:58.389Z</time>
      </trkpt>
      <trkpt lat="48.28026" lon="5.05139">
        <ele>332.96</ele>
        <time>2025-01-03T19:03:07.177Z</time>
      </trkpt>
      <trkpt lat="48.28008" lon="5.05178">
        <ele>333.52</ele>
        <time>2025-01-03T19:03:15.970Z</time>
      </trkpt>
      <trkpt lat="48.28" lon="5.05189">
        <ele>334.74</ele>
        <time>2025-01-03T19:03:24.765Z</time>
      </trkpt>
      <trkpt lat="48.28" lon="5.05206">
        <ele>335.2</ele>
        <time>2025-01-03T19:03:33.562Z</time>
      </trkpt>
      <trkpt lat="48.28" lon="5.05213">
        <ele>335.26</ele>
        <time>2025-01-03T19:03:42.360Z</time>
      </trkpt>
      <trkpt lat="48.28" lon="5.05253">
        <ele>335.9</ele>
        <time>2025-01-03T19:03:51.162Z</time>
      </trkpt>
      <trkpt lat="48.28001" lon="5.05294">
        <ele>336.47</ele>
        <time>2025-01-03T19:03:59.968Z</time>
      </trkpt>
      <trkpt lat="48.28001" lon="5.05335">
        <ele>336.94</ele>
        <time>2025-01-03T19:04:08.779Z</time>
      </trkpt>
      <trkpt lat="48.28002" lon="5.05375">
        <ele>336.41</ele>
        <time>2025-01-03T19:04:17.594Z</time>
      </trkpt>
      <trkpt lat="48.27987" lon="5.05366">
        <ele>337.99</ele>
        <time>2025-01-03T19:04:26.412Z</time>
      </trkpt>
      <trkpt lat="48.27972" lon="5.05356">
        <ele>338.48</ele>
        <time>2025-01-03T19:04:35.232Z</time>
      </trkpt>
      <trkpt lat="48.27944" lon="5.05349">
        <ele>338.91</ele>
        <time>2025-01-03T19:04:44.057Z</time>
      </trkpt>
      <trkpt lat="48.27916" lon="5.05341">
        <ele>339.38</ele>
        <time>2025-01-03T19:04:52.886Z</time>
      </trkpt>
      <trkpt lat="48.27888" lon="5.05355">
        <ele>339.8</ele>
        <time>2025-01-03T19:05:01.720Z</time>
      </trkpt>
      <trkpt lat="48.2786" lon="5.0537">
        <ele>340.14</ele>
        <time>2025-01-03T19:05:10.559Z</time>
      </trkpt>
      <trkpt lat="48.27832" lon="5.05384">
        <ele>340.49</ele>
        <time>2025-01-03T19:05:19.403Z</time>
      </trkpt>
      <trkpt lat="48.27824" lon="5.05414">
        <ele>340.79</ele>
        <time>2025-01-03T19:05:28.250Z</time>
      </trkpt>
      <trkpt lat="48.27822" lon="5.05435">
        <ele>341.05</ele>
        <time>2025-01-03T19:05:37.099Z</time>
      </trkpt>
      <trkpt lat="48.27825" lon="5.05459">
        <ele>341.3</ele>
        <time>2025-01-03T19:05:45.951Z</time>
      </trkpt>
      <trkpt lat="48.27828" lon="5.05483">
        <ele>341.48</ele>
        <time>2025-01-03T19:05:54.806Z</time>
      </trkpt>
      <trkpt lat="48.27822" lon="5.05502">
        <ele>341.63</ele>
        <time>2025-01-03T19:06:03.663Z</time>
      </trkpt>
      <trkpt lat="48.27822" lon="5.05506">
        <ele>341.61</ele>
        <time>2025-01-03T19:06:12.520Z</time>
      </trkpt>
      <trkpt lat="48.27822" lon="5.05502">
        <ele>341.63</ele>
        <time>2025-01-03T19:06:21.378Z</time>
      </trkpt>
      <trkpt lat="48.27828" lon="5.05483">
        <ele>341.48</ele>
        <time>2025-01-03T19:06:30.238Z</time>
      </trkpt>
      <trkpt lat="48.27825" lon="5.05459">
        <ele>341.05</ele>
        <time>2025-01-03T19:06:39.101Z</time>
      </trkpt>
      <trkpt lat="48.27822" lon="5.05435">
        <ele>341.05</ele>
        <time>2025-01-03T19:06:47.966Z</time>
      </trkpt>
      <trkpt lat="48.27824" lon="5.05414">
        <ele>340.79</ele>
        <time>2025-01-03T19:06:56.833Z</time>
      </trkpt>
      <trkpt lat="48.27832" lon="5.05384">
        <ele>340.26</ele>
        <time>2025-01-03T19:07:05.704Z</time>
      </trkpt>
      <trkpt lat="48.2786" lon="5.0537">
        <ele>339.95</ele>
        <time>2025-01-03T19:07:14.580Z</time>
      </trkpt>
      <trkpt lat="48.27888" lon="5.05355">
        <ele>339.67</ele>
        <time>2025-01-03T19:07:23.460Z</time>
      </trkpt>
      <trkpt lat="48.27916" lon="5.05341">
        <ele>339.38</ele>
        <time>2025-01-03T19:07:32.345Z</time>
      </trkpt>
      <trkpt lat="48.27944" lon="5.05349">
        <ele>338.95</ele>
        <time>2025-01-03T19:07:41.235Z</time>
      </trkpt>
      <trkpt lat="48.27972" lon="5.05356">
        <ele>338.48</ele>
        <time>2025-01-03T19:07:50.129Z</time>
      </trkpt>
      <trkpt lat="48.27987" lon="5.05366">
        <ele>338.28</ele>
        <time>2025-01-03T19:07:59.026Z</time>
      </trkpt>
      <trkpt lat="48.28002" lon="5.05375">
        <ele>336.41</ele>
        <time>2025-01-03T19:08:07.925Z</time>
      </trkpt>
      <trkpt lat="48.28004" lon="5.05418">
        <ele>336.53</ele>
        <time>2025-01-03T19:08:16.829Z</time>
      </trkpt>
      <trkpt lat="48.28008" lon="5.05443">
        <ele>337.21</ele>
        <time>2025-01-03T19:08:25.736Z</time>
      </trkpt>
      <trkpt lat="48.28013" lon="5.05468">
        <ele>336.81</ele>
        <time>2025-01-03T19:08:34.645Z</time>
      </trkpt>
      <trkpt lat="48.28022" lon="5.05512">
        <ele>336.67</ele>
        <time>2025-01-03T19:08:43.559Z</time>
      </trkpt>
      <trkpt lat="48.28031" lon="5.05557">
        <ele>336.48</ele>
        <time>2025-01-03T19:08:52.478Z</time>
      </trkpt>
      <trkpt lat="48.28041" lon="5.05601">
        <ele>336.25</ele>
        <time>2025-01-03T19:09:01.402Z</time>
      </trkpt>
      <trkpt lat="48.2805" lon="5.05645">
        <ele>336</ele>
        <time>2025-01-03T19:09:10.331Z</time>
      </trkpt>
      <trkpt lat="48.28059" lon="5.0569">
        <ele>335.87</ele>
        <time>2025-01-03T19:09:19.265Z</time>
      </trkpt>
      <trkpt lat="48.28069" lon="5.05734">
        <ele>335.81</ele>
        <time>2025-01-03T19:09:28.204Z</time>
      </trkpt>
      <trkpt lat="48.28078" lon="5.05779">
        <ele>335.62</ele>
        <time>2025-01-03T19:09:37.148Z</time>
      </trkpt>
      <trkpt lat="48.28087" lon="5.05823">
        <ele>335.44</ele>
        <time>2025-01-03T19:09:46.097Z</time>
      </trkpt>
      <trkpt lat="48.28096" lon="5.05867">
        <ele>337.07</ele>
        <time>2025-01-03T19:09:55.051Z</time>
      </trkpt>
      <trkpt lat="48.28101" lon="5.05895">
        <ele>335.25</ele>
        <time>2025-01-03T19:10:04.008Z</time>
      </trkpt>
      <trkpt lat="48.28105" lon="5.05923">
        <ele>337.03</ele>
        <time>2025-01-03T19:10:12.968Z</time>
      </trkpt>
      <trkpt lat="48.28103" lon="5.05968">
        <ele>337.13</ele>
        <time>2025-01-03T19:10:21.933Z</time>
      </trkpt>
      <trkpt lat="48.28099" lon="5.06011">
        <ele>337.34</ele>
        <time>2025-01-03T19:10:30.903Z</time>
      </trkpt>
      <trkpt lat="48.28093" lon="5.06054">
        <ele>335.77</ele>
        <time>2025-01-03T19:10:39.877Z</time>
      </trkpt>
      <trkpt lat="48.28087" lon="5.06097">
        <ele>336.06</ele>
        <time>2025-01-03T19:10:48.856Z</time>
      </trkpt>
      <trkpt lat="48.28082" lon="5.06141">
        <ele>336.26</ele>
        <time>2025-01-03T19:10:57.840Z</time>
      </trkpt>
      <trkpt lat="48.28076" lon="5.06184">
        <ele>336.46</ele>
        <time>2025-01-03T19:11:06.829Z</time>
      </trkpt>
      <trkpt lat="48.28071" lon="5.06228">
        <ele>336.82</ele>
        <time>2025-01-03T19:11:15.822Z</time>
      </trkpt>
      <trkpt lat="48.28065" lon="5.06271">
        <ele>337.31</ele>
        <time>2025-01-03T19:11:24.820Z</time>
      </trkpt>
      <trkpt lat="48.28059" lon="5.06315">
        <ele>337.7</ele>
        <time>2025-01-03T19:11:33.823Z</time>
      </trkpt>
      <trkpt lat="48.28054" lon="5.06358">
        <ele>338.16</ele>
        <time>2025-01-03T19:11:42.831Z</time>
      </trkpt>
      <trkpt lat="48.28048" lon="5.06402">
        <ele>338.63</ele>
        <time>2025-01-03T19:11:51.843Z</time>
      </trkpt>
      <trkpt lat="48.28043" lon="5.06444">
        <ele>340.12</ele>
        <time>2025-01-03T19:12:00.860Z</time>
      </trkpt>
      <trkpt lat="48.28043" lon="5.06479">
        <ele>339.84</ele>
        <time>2025-01-03T19:12:09.881Z</time>
      </trkpt>
      <trkpt lat="48.28043" lon="5.06515">
        <ele>341.32</ele>
        <time>2025-01-03T19:12:18.906Z</time>
      </trkpt>
      <trkpt lat="48.28045" lon="5.06557">
        <ele>341.27</ele>
        <time>2025-01-03T19:12:27.935Z</time>
      </trkpt>
      <trkpt lat="48.28047" lon="5.06599">
        <ele>341.98</ele>
        <time>2025-01-03T19:12:36.969Z</time>
      </trkpt>
      <trkpt lat="48.28049" lon="5.06641">
        <ele>342.7</ele>
        <time>2025-01-03T19:12:46.007Z</time>
      </trkpt>
      <trkpt lat="48.28051" lon="5.06682">
        <ele>343.72</ele>
        <time>2025-01-03T19:12:55.049Z</time>
      </trkpt>
      <trkpt lat="48.28053" lon="5.06722">
        <ele>343.72</ele>
        <time>2025-01-03T19:13:04.096Z</time>
      </trkpt>
      <trkpt lat="48.28056" lon="5.06762">
        <ele>344.25</ele>
        <time>2025-01-03T19:13:13.147Z</time>
      </trkpt>
      <trkpt lat="48.28058" lon="5.06802">
        <ele>344.75</ele>
        <time>2025-01-03T19:13:22.202Z</time>
      </trkpt>
      <trkpt lat="48.2806" lon="5.06842">
        <ele>344.95</ele>
        <time>2025-01-03T19:13:31.262Z</time>
      </trkpt>
      <trkpt lat="48.28062" lon="5.06882">
        <ele>345.1</ele>
        <time>2025-01-03T19:13:40.326Z</time>
      </trkpt>
      <trkpt lat="48.28066" lon="5.06917">
        <ele>344.89</ele>
        <time>2025-01-03T19:13:49.394Z</time>
      </trkpt>
      <trkpt lat="48.28071" lon="5.06953">
        <ele>344.75</ele>
        <time>2025-01-03T19:13:58.466Z</time>
      </trkpt>
      <trkpt lat="48.28069" lon="5.06997">
        <ele>344.48</ele>
        <time>2025-01-03T19:14:07.542Z</time>
      </trkpt>
      <trkpt lat="48.28067" lon="5.07042">
        <ele>344.02</ele>
        <time>2025-01-03T19:14:16.623Z</time>
      </trkpt>
      <trkpt lat="48.28066" lon="5.07086">
        <ele>343.58</ele>
        <time>2025-01-03T19:14:25.709Z</time>
      </trkpt>
      <trkpt lat="48.28064" lon="5.07131">
        <ele>342.91</ele>
        <time>2025-01-03T19:14:34.800Z</time>
      </trkpt>
      <trkpt lat="48.2806" lon="5.07165">
        <ele>342.25</ele>
        <time>2025-01-03T19:14:43.894Z</time>
      </trkpt>
      <trkpt lat="48.28058" lon="5.0721">
        <ele>341.79</ele>
        <time>2025-01-03T19:14:52.993Z</time>
      </trkpt>
      <trkpt lat="48.28056" lon="5.07254">
        <ele>341.04</ele>
        <time>2025-01-03T19:15:02.097Z</time>
      </trkpt>
      <trkpt lat="48.28053" lon="5.07299">
        <ele>340.33</ele>
        <time>2025-01-03T19:15:11.206Z</time>
      </trkpt>
      <trkpt lat="48.28051" lon="5.07344">
        <ele>339.5</ele>
        <time>2025-01-03T19:15:20.320Z</time>
      </trkpt>
      <trkpt lat="48.28051" lon="5.07353">
        <ele>338.75</ele>
        <time>2025-01-03T19:15:29.434Z</time>
      </trkpt>
      <trkpt lat="48.28049" lon="5.07388">
        <ele>338.07</ele>
        <time>2025-01-03T19:15:38.552Z</time>
      </trkpt>
      <trkpt lat="48.28056" lon="5.07423">
        <ele>337.04</ele>
        <time>2025-01-03T19:15:47.674Z</time>
      </trkpt>
      <trkpt lat="48.28063" lon="5.07458">
        <ele>336.2</ele>
        <time>2025-01-03T19:15:56.800Z</time>
      </trkpt>
      <trkpt lat="48.2807" lon="5.07493">
        <ele>335.3</ele>
        <time>2025-01-03T19:16:05.930Z</time>
      </trkpt>
      <trkpt lat="48.28077" lon="5.07528">
        <ele>334.42</ele>
        <time>2025-01-03T19:16:15.064Z</time>
      </trkpt>
      <trkpt lat="48.28077" lon="5.07558">
        <ele>333.61</ele>
        <time>2025-01-03T19:16:24.201Z</time>
      </trkpt>
      <trkpt lat="48.28095" lon="5.0754">
        <ele>333.13</ele>
        <time>2025-01-03T19:16:33.341Z</time>
      </trkpt>
      <trkpt lat="48.28114" lon="5.07523">
        <ele>332.89</ele>
        <time>2025-01-03T19:16:42.485Z</time>
      </trkpt>
      <trkpt lat="48.28127" lon="5.07517">
        <ele>332.42</ele>
        <time>2025-01-03T19:16:51.631Z</time>
      </trkpt>
    </trkseg>
  </trk>
</gpx>